<?xml version="1.0" encoding="UTF-8" standalone="no" ?>
<gpx xmlns="http://www.topografix.com/GPX/1/1" xmlns:xsi="http://www.w3.org/2001/XMLSchema-instance" xsi:schemaLocation="http://www.topografix.com/GPX/1/1 http://www.topografix.com/GPX/1/1/gpx.xsd" version="1.1" creator="VisuGPX - https://www.visugpx.com">
  <metadata>
    <name>parcours seynod 13km </name>
    <desc><![CDATA[parcours de 13 km sur le tour de canton de seynod]]></desc>
  </metadata>
  <trk>
    <name><![CDATA[parcours seynod 13km _1]]></name>
    <trkseg>
      <trkpt lat="45.88877" lon="6.10199">
        <ele>620</ele>
        <time>2016-05-02T10:02:56.000Z</time>
      </trkpt>
      <trkpt lat="45.88877" lon="6.10199">
        <ele>657</ele>
        <time>2016-05-02T10:02:58.000Z</time>
      </trkpt>
      <trkpt lat="45.88877" lon="6.10199">
        <ele>653</ele>
        <time>2016-05-02T10:02:59.000Z</time>
      </trkpt>
      <trkpt lat="45.88914" lon="6.10146">
        <ele>649</ele>
        <time>2016-05-02T10:03:00.000Z</time>
      </trkpt>
      <trkpt lat="45.88912" lon="6.10143">
        <ele>645</ele>
        <time>2016-05-02T10:03:01.000Z</time>
      </trkpt>
      <trkpt lat="45.88911" lon="6.1014">
        <ele>642</ele>
        <time>2016-05-02T10:03:02.000Z</time>
      </trkpt>
      <trkpt lat="45.88909" lon="6.10137">
        <ele>638</ele>
        <time>2016-05-02T10:03:03.000Z</time>
      </trkpt>
      <trkpt lat="45.88907" lon="6.10134">
        <ele>634</ele>
        <time>2016-05-02T10:03:04.000Z</time>
      </trkpt>
      <trkpt lat="45.88906" lon="6.10131">
        <ele>630</ele>
        <time>2016-05-02T10:03:05.000Z</time>
      </trkpt>
      <trkpt lat="45.88905" lon="6.10128">
        <ele>627</ele>
        <time>2016-05-02T10:03:06.000Z</time>
      </trkpt>
      <trkpt lat="45.88903" lon="6.10125">
        <ele>624</ele>
        <time>2016-05-02T10:03:07.000Z</time>
      </trkpt>
      <trkpt lat="45.88902" lon="6.10122">
        <ele>621</ele>
        <time>2016-05-02T10:03:08.000Z</time>
      </trkpt>
      <trkpt lat="45.88901" lon="6.10119">
        <ele>618</ele>
        <time>2016-05-02T10:03:09.000Z</time>
      </trkpt>
      <trkpt lat="45.88899" lon="6.10116">
        <ele>615</ele>
        <time>2016-05-02T10:03:10.000Z</time>
      </trkpt>
      <trkpt lat="45.88898" lon="6.10113">
        <ele>612</ele>
        <time>2016-05-02T10:03:11.000Z</time>
      </trkpt>
      <trkpt lat="45.88897" lon="6.1011">
        <ele>610</ele>
        <time>2016-05-02T10:03:12.000Z</time>
      </trkpt>
      <trkpt lat="45.88895" lon="6.10107">
        <ele>607</ele>
        <time>2016-05-02T10:03:13.000Z</time>
      </trkpt>
      <trkpt lat="45.88894" lon="6.10104">
        <ele>605</ele>
        <time>2016-05-02T10:03:14.000Z</time>
      </trkpt>
      <trkpt lat="45.88893" lon="6.10101">
        <ele>603</ele>
        <time>2016-05-02T10:03:15.000Z</time>
      </trkpt>
      <trkpt lat="45.88892" lon="6.10097">
        <ele>600</ele>
        <time>2016-05-02T10:03:16.000Z</time>
      </trkpt>
      <trkpt lat="45.88891" lon="6.10095">
        <ele>598</ele>
        <time>2016-05-02T10:03:17.000Z</time>
      </trkpt>
      <trkpt lat="45.8889" lon="6.10091">
        <ele>596</ele>
        <time>2016-05-02T10:03:18.000Z</time>
      </trkpt>
      <trkpt lat="45.88889" lon="6.10088">
        <ele>594</ele>
        <time>2016-05-02T10:03:19.000Z</time>
      </trkpt>
      <trkpt lat="45.88888" lon="6.10085">
        <ele>592</ele>
        <time>2016-05-02T10:03:20.000Z</time>
      </trkpt>
      <trkpt lat="45.88887" lon="6.10082">
        <ele>589</ele>
        <time>2016-05-02T10:03:21.000Z</time>
      </trkpt>
      <trkpt lat="45.88886" lon="6.10079">
        <ele>587</ele>
        <time>2016-05-02T10:03:22.000Z</time>
      </trkpt>
      <trkpt lat="45.88885" lon="6.10076">
        <ele>584</ele>
        <time>2016-05-02T10:03:23.000Z</time>
      </trkpt>
      <trkpt lat="45.88884" lon="6.10074">
        <ele>582</ele>
        <time>2016-05-02T10:03:24.000Z</time>
      </trkpt>
      <trkpt lat="45.88882" lon="6.10071">
        <ele>580</ele>
        <time>2016-05-02T10:03:25.000Z</time>
      </trkpt>
      <trkpt lat="45.88881" lon="6.10069">
        <ele>578</ele>
        <time>2016-05-02T10:03:26.000Z</time>
      </trkpt>
      <trkpt lat="45.8888" lon="6.10066">
        <ele>576</ele>
        <time>2016-05-02T10:03:27.000Z</time>
      </trkpt>
      <trkpt lat="45.88878" lon="6.10064">
        <ele>574</ele>
        <time>2016-05-02T10:03:28.000Z</time>
      </trkpt>
      <trkpt lat="45.88877" lon="6.10062">
        <ele>572</ele>
        <time>2016-05-02T10:03:29.000Z</time>
      </trkpt>
      <trkpt lat="45.88876" lon="6.1006">
        <ele>570</ele>
        <time>2016-05-02T10:03:30.000Z</time>
      </trkpt>
      <trkpt lat="45.88874" lon="6.10057">
        <ele>569</ele>
        <time>2016-05-02T10:03:31.000Z</time>
      </trkpt>
      <trkpt lat="45.88873" lon="6.10055">
        <ele>567</ele>
        <time>2016-05-02T10:03:32.000Z</time>
      </trkpt>
      <trkpt lat="45.88872" lon="6.10053">
        <ele>566</ele>
        <time>2016-05-02T10:03:33.000Z</time>
      </trkpt>
      <trkpt lat="45.88871" lon="6.10051">
        <ele>564</ele>
        <time>2016-05-02T10:03:34.000Z</time>
      </trkpt>
      <trkpt lat="45.88869" lon="6.10049">
        <ele>562</ele>
        <time>2016-05-02T10:03:35.000Z</time>
      </trkpt>
      <trkpt lat="45.88868" lon="6.10047">
        <ele>561</ele>
        <time>2016-05-02T10:03:36.000Z</time>
      </trkpt>
      <trkpt lat="45.88867" lon="6.10044">
        <ele>559</ele>
        <time>2016-05-02T10:03:37.000Z</time>
      </trkpt>
      <trkpt lat="45.88865" lon="6.10042">
        <ele>558</ele>
        <time>2016-05-02T10:03:38.000Z</time>
      </trkpt>
      <trkpt lat="45.88864" lon="6.1004">
        <ele>557</ele>
        <time>2016-05-02T10:03:39.000Z</time>
      </trkpt>
      <trkpt lat="45.88863" lon="6.10038">
        <ele>555</ele>
        <time>2016-05-02T10:03:40.000Z</time>
      </trkpt>
      <trkpt lat="45.88861" lon="6.10035">
        <ele>554</ele>
        <time>2016-05-02T10:03:41.000Z</time>
      </trkpt>
      <trkpt lat="45.8886" lon="6.10033">
        <ele>553</ele>
        <time>2016-05-02T10:03:42.000Z</time>
      </trkpt>
      <trkpt lat="45.88859" lon="6.1003">
        <ele>552</ele>
        <time>2016-05-02T10:03:43.000Z</time>
      </trkpt>
      <trkpt lat="45.88857" lon="6.10028">
        <ele>552</ele>
        <time>2016-05-02T10:03:44.000Z</time>
      </trkpt>
      <trkpt lat="45.88856" lon="6.10025">
        <ele>551</ele>
        <time>2016-05-02T10:03:45.000Z</time>
      </trkpt>
      <trkpt lat="45.88854" lon="6.10023">
        <ele>550</ele>
        <time>2016-05-02T10:03:46.000Z</time>
      </trkpt>
      <trkpt lat="45.88853" lon="6.1002">
        <ele>549</ele>
        <time>2016-05-02T10:03:47.000Z</time>
      </trkpt>
      <trkpt lat="45.88852" lon="6.10017">
        <ele>549</ele>
        <time>2016-05-02T10:03:48.000Z</time>
      </trkpt>
      <trkpt lat="45.8885" lon="6.10015">
        <ele>548</ele>
        <time>2016-05-02T10:03:49.000Z</time>
      </trkpt>
      <trkpt lat="45.88849" lon="6.10013">
        <ele>547</ele>
        <time>2016-05-02T10:03:50.000Z</time>
      </trkpt>
      <trkpt lat="45.88848" lon="6.10011">
        <ele>547</ele>
        <time>2016-05-02T10:03:51.000Z</time>
      </trkpt>
      <trkpt lat="45.88846" lon="6.10009">
        <ele>546</ele>
        <time>2016-05-02T10:03:52.000Z</time>
      </trkpt>
      <trkpt lat="45.88845" lon="6.10008">
        <ele>546</ele>
        <time>2016-05-02T10:03:53.000Z</time>
      </trkpt>
      <trkpt lat="45.88844" lon="6.10007">
        <ele>546</ele>
        <time>2016-05-02T10:03:54.000Z</time>
      </trkpt>
      <trkpt lat="45.88844" lon="6.10006">
        <ele>546</ele>
        <time>2016-05-02T10:03:55.000Z</time>
      </trkpt>
      <trkpt lat="45.88843" lon="6.10005">
        <ele>545</ele>
        <time>2016-05-02T10:03:56.000Z</time>
      </trkpt>
      <trkpt lat="45.88842" lon="6.10003">
        <ele>545</ele>
        <time>2016-05-02T10:03:57.000Z</time>
      </trkpt>
      <trkpt lat="45.88841" lon="6.10001">
        <ele>545</ele>
        <time>2016-05-02T10:03:58.000Z</time>
      </trkpt>
      <trkpt lat="45.8884" lon="6.1">
        <ele>545</ele>
        <time>2016-05-02T10:03:59.000Z</time>
      </trkpt>
      <trkpt lat="45.88839" lon="6.09999">
        <ele>544</ele>
        <time>2016-05-02T10:04:00.000Z</time>
      </trkpt>
      <trkpt lat="45.88838" lon="6.09997">
        <ele>544</ele>
        <time>2016-05-02T10:04:01.000Z</time>
      </trkpt>
      <trkpt lat="45.88836" lon="6.09995">
        <ele>544</ele>
        <time>2016-05-02T10:04:02.000Z</time>
      </trkpt>
      <trkpt lat="45.88835" lon="6.09993">
        <ele>544</ele>
        <time>2016-05-02T10:04:03.000Z</time>
      </trkpt>
      <trkpt lat="45.88834" lon="6.09991">
        <ele>544</ele>
        <time>2016-05-02T10:04:04.000Z</time>
      </trkpt>
      <trkpt lat="45.88834" lon="6.09989">
        <ele>544</ele>
        <time>2016-05-02T10:04:05.000Z</time>
      </trkpt>
      <trkpt lat="45.88833" lon="6.09986">
        <ele>544</ele>
        <time>2016-05-02T10:04:06.000Z</time>
      </trkpt>
      <trkpt lat="45.88832" lon="6.09983">
        <ele>545</ele>
        <time>2016-05-02T10:04:07.000Z</time>
      </trkpt>
      <trkpt lat="45.88832" lon="6.0998">
        <ele>545</ele>
        <time>2016-05-02T10:04:08.000Z</time>
      </trkpt>
      <trkpt lat="45.88833" lon="6.09978">
        <ele>545</ele>
        <time>2016-05-02T10:04:09.000Z</time>
      </trkpt>
      <trkpt lat="45.88833" lon="6.09976">
        <ele>545</ele>
        <time>2016-05-02T10:04:10.000Z</time>
      </trkpt>
      <trkpt lat="45.88834" lon="6.09974">
        <ele>545</ele>
        <time>2016-05-02T10:04:11.000Z</time>
      </trkpt>
      <trkpt lat="45.88835" lon="6.09972">
        <ele>545</ele>
        <time>2016-05-02T10:04:12.000Z</time>
      </trkpt>
      <trkpt lat="45.88835" lon="6.0997">
        <ele>545</ele>
        <time>2016-05-02T10:04:13.000Z</time>
      </trkpt>
      <trkpt lat="45.88835" lon="6.09968">
        <ele>545</ele>
        <time>2016-05-02T10:04:14.000Z</time>
      </trkpt>
      <trkpt lat="45.88834" lon="6.09965">
        <ele>545</ele>
        <time>2016-05-02T10:04:15.000Z</time>
      </trkpt>
      <trkpt lat="45.88833" lon="6.09963">
        <ele>545</ele>
        <time>2016-05-02T10:04:16.000Z</time>
      </trkpt>
      <trkpt lat="45.88832" lon="6.09961">
        <ele>546</ele>
        <time>2016-05-02T10:04:17.000Z</time>
      </trkpt>
      <trkpt lat="45.8883" lon="6.09959">
        <ele>546</ele>
        <time>2016-05-02T10:04:18.000Z</time>
      </trkpt>
      <trkpt lat="45.88829" lon="6.09957">
        <ele>546</ele>
        <time>2016-05-02T10:04:19.000Z</time>
      </trkpt>
      <trkpt lat="45.88827" lon="6.09955">
        <ele>546</ele>
        <time>2016-05-02T10:04:20.000Z</time>
      </trkpt>
      <trkpt lat="45.88826" lon="6.09953">
        <ele>547</ele>
        <time>2016-05-02T10:04:21.000Z</time>
      </trkpt>
      <trkpt lat="45.88824" lon="6.09951">
        <ele>547</ele>
        <time>2016-05-02T10:04:22.000Z</time>
      </trkpt>
      <trkpt lat="45.88823" lon="6.09948">
        <ele>547</ele>
        <time>2016-05-02T10:04:23.000Z</time>
      </trkpt>
      <trkpt lat="45.88821" lon="6.09946">
        <ele>547</ele>
        <time>2016-05-02T10:04:24.000Z</time>
      </trkpt>
      <trkpt lat="45.8882" lon="6.09944">
        <ele>547</ele>
        <time>2016-05-02T10:04:25.000Z</time>
      </trkpt>
      <trkpt lat="45.88818" lon="6.09942">
        <ele>548</ele>
        <time>2016-05-02T10:04:26.000Z</time>
      </trkpt>
      <trkpt lat="45.88817" lon="6.0994">
        <ele>548</ele>
        <time>2016-05-02T10:04:27.000Z</time>
      </trkpt>
      <trkpt lat="45.88815" lon="6.09938">
        <ele>548</ele>
        <time>2016-05-02T10:04:28.000Z</time>
      </trkpt>
      <trkpt lat="45.88814" lon="6.09936">
        <ele>548</ele>
        <time>2016-05-02T10:04:29.000Z</time>
      </trkpt>
      <trkpt lat="45.88814" lon="6.09933">
        <ele>548</ele>
        <time>2016-05-02T10:04:30.000Z</time>
      </trkpt>
      <trkpt lat="45.88813" lon="6.0993">
        <ele>548</ele>
        <time>2016-05-02T10:04:31.000Z</time>
      </trkpt>
      <trkpt lat="45.88812" lon="6.09927">
        <ele>548</ele>
        <time>2016-05-02T10:04:32.000Z</time>
      </trkpt>
      <trkpt lat="45.88812" lon="6.09923">
        <ele>547</ele>
        <time>2016-05-02T10:04:33.000Z</time>
      </trkpt>
      <trkpt lat="45.88811" lon="6.0992">
        <ele>547</ele>
        <time>2016-05-02T10:04:34.000Z</time>
      </trkpt>
      <trkpt lat="45.88811" lon="6.09916">
        <ele>547</ele>
        <time>2016-05-02T10:04:35.000Z</time>
      </trkpt>
      <trkpt lat="45.8881" lon="6.09912">
        <ele>546</ele>
        <time>2016-05-02T10:04:36.000Z</time>
      </trkpt>
      <trkpt lat="45.88808" lon="6.09909">
        <ele>546</ele>
        <time>2016-05-02T10:04:37.000Z</time>
      </trkpt>
      <trkpt lat="45.88806" lon="6.09905">
        <ele>546</ele>
        <time>2016-05-02T10:04:38.000Z</time>
      </trkpt>
      <trkpt lat="45.88805" lon="6.09902">
        <ele>546</ele>
        <time>2016-05-02T10:04:39.000Z</time>
      </trkpt>
      <trkpt lat="45.88803" lon="6.09899">
        <ele>545</ele>
        <time>2016-05-02T10:04:40.000Z</time>
      </trkpt>
      <trkpt lat="45.88801" lon="6.09896">
        <ele>545</ele>
        <time>2016-05-02T10:04:41.000Z</time>
      </trkpt>
      <trkpt lat="45.88799" lon="6.09893">
        <ele>545</ele>
        <time>2016-05-02T10:04:42.000Z</time>
      </trkpt>
      <trkpt lat="45.88796" lon="6.0989">
        <ele>545</ele>
        <time>2016-05-02T10:04:43.000Z</time>
      </trkpt>
      <trkpt lat="45.88793" lon="6.09888">
        <ele>545</ele>
        <time>2016-05-02T10:04:44.000Z</time>
      </trkpt>
      <trkpt lat="45.88789" lon="6.09886">
        <ele>545</ele>
        <time>2016-05-02T10:04:45.000Z</time>
      </trkpt>
      <trkpt lat="45.88785" lon="6.09885">
        <ele>545</ele>
        <time>2016-05-02T10:04:46.000Z</time>
      </trkpt>
      <trkpt lat="45.88781" lon="6.09883">
        <ele>545</ele>
        <time>2016-05-02T10:04:47.000Z</time>
      </trkpt>
      <trkpt lat="45.88777" lon="6.09881">
        <ele>545</ele>
        <time>2016-05-02T10:04:48.000Z</time>
      </trkpt>
      <trkpt lat="45.88774" lon="6.09879">
        <ele>545</ele>
        <time>2016-05-02T10:04:49.000Z</time>
      </trkpt>
      <trkpt lat="45.88771" lon="6.09877">
        <ele>546</ele>
        <time>2016-05-02T10:04:50.000Z</time>
      </trkpt>
      <trkpt lat="45.88769" lon="6.09876">
        <ele>546</ele>
        <time>2016-05-02T10:04:51.000Z</time>
      </trkpt>
      <trkpt lat="45.88766" lon="6.09875">
        <ele>546</ele>
        <time>2016-05-02T10:04:52.000Z</time>
      </trkpt>
      <trkpt lat="45.88764" lon="6.09874">
        <ele>547</ele>
        <time>2016-05-02T10:04:53.000Z</time>
      </trkpt>
      <trkpt lat="45.88763" lon="6.09873">
        <ele>547</ele>
        <time>2016-05-02T10:04:54.000Z</time>
      </trkpt>
      <trkpt lat="45.88762" lon="6.09872">
        <ele>547</ele>
        <time>2016-05-02T10:04:55.000Z</time>
      </trkpt>
      <trkpt lat="45.88761" lon="6.09871">
        <ele>547</ele>
        <time>2016-05-02T10:04:56.000Z</time>
      </trkpt>
      <trkpt lat="45.88761" lon="6.09869">
        <ele>548</ele>
        <time>2016-05-02T10:04:57.000Z</time>
      </trkpt>
      <trkpt lat="45.88761" lon="6.09868">
        <ele>548</ele>
        <time>2016-05-02T10:04:58.000Z</time>
      </trkpt>
      <trkpt lat="45.88761" lon="6.09867">
        <ele>548</ele>
        <time>2016-05-02T10:04:59.000Z</time>
      </trkpt>
      <trkpt lat="45.88761" lon="6.09865">
        <ele>548</ele>
        <time>2016-05-02T10:05:00.000Z</time>
      </trkpt>
      <trkpt lat="45.88762" lon="6.09864">
        <ele>548</ele>
        <time>2016-05-02T10:05:01.000Z</time>
      </trkpt>
      <trkpt lat="45.88762" lon="6.09862">
        <ele>549</ele>
        <time>2016-05-02T10:05:02.000Z</time>
      </trkpt>
      <trkpt lat="45.88763" lon="6.09861">
        <ele>549</ele>
        <time>2016-05-02T10:05:03.000Z</time>
      </trkpt>
      <trkpt lat="45.88764" lon="6.0986">
        <ele>549</ele>
        <time>2016-05-02T10:05:04.000Z</time>
      </trkpt>
      <trkpt lat="45.88765" lon="6.09859">
        <ele>549</ele>
        <time>2016-05-02T10:05:05.000Z</time>
      </trkpt>
      <trkpt lat="45.88767" lon="6.09857">
        <ele>549</ele>
        <time>2016-05-02T10:05:06.000Z</time>
      </trkpt>
      <trkpt lat="45.88768" lon="6.09856">
        <ele>549</ele>
        <time>2016-05-02T10:05:07.000Z</time>
      </trkpt>
      <trkpt lat="45.88769" lon="6.09855">
        <ele>550</ele>
        <time>2016-05-02T10:05:08.000Z</time>
      </trkpt>
      <trkpt lat="45.8877" lon="6.09853">
        <ele>550</ele>
        <time>2016-05-02T10:05:09.000Z</time>
      </trkpt>
      <trkpt lat="45.88771" lon="6.09852">
        <ele>550</ele>
        <time>2016-05-02T10:05:10.000Z</time>
      </trkpt>
      <trkpt lat="45.88772" lon="6.0985">
        <ele>550</ele>
        <time>2016-05-02T10:05:11.000Z</time>
      </trkpt>
      <trkpt lat="45.88773" lon="6.09848">
        <ele>550</ele>
        <time>2016-05-02T10:05:12.000Z</time>
      </trkpt>
      <trkpt lat="45.88774" lon="6.09846">
        <ele>550</ele>
        <time>2016-05-02T10:05:13.000Z</time>
      </trkpt>
      <trkpt lat="45.88775" lon="6.09844">
        <ele>550</ele>
        <time>2016-05-02T10:05:14.000Z</time>
      </trkpt>
      <trkpt lat="45.88775" lon="6.09841">
        <ele>550</ele>
        <time>2016-05-02T10:05:15.000Z</time>
      </trkpt>
      <trkpt lat="45.88775" lon="6.09838">
        <ele>551</ele>
        <time>2016-05-02T10:05:16.000Z</time>
      </trkpt>
      <trkpt lat="45.88775" lon="6.09836">
        <ele>551</ele>
        <time>2016-05-02T10:05:17.000Z</time>
      </trkpt>
      <trkpt lat="45.88775" lon="6.09833">
        <ele>551</ele>
        <time>2016-05-02T10:05:18.000Z</time>
      </trkpt>
      <trkpt lat="45.88775" lon="6.09829">
        <ele>551</ele>
        <time>2016-05-02T10:05:19.000Z</time>
      </trkpt>
      <trkpt lat="45.88774" lon="6.09826">
        <ele>551</ele>
        <time>2016-05-02T10:05:20.000Z</time>
      </trkpt>
      <trkpt lat="45.88773" lon="6.09823">
        <ele>551</ele>
        <time>2016-05-02T10:05:21.000Z</time>
      </trkpt>
      <trkpt lat="45.88773" lon="6.0982">
        <ele>551</ele>
        <time>2016-05-02T10:05:22.000Z</time>
      </trkpt>
      <trkpt lat="45.88772" lon="6.09818">
        <ele>552</ele>
        <time>2016-05-02T10:05:23.000Z</time>
      </trkpt>
      <trkpt lat="45.88772" lon="6.09815">
        <ele>552</ele>
        <time>2016-05-02T10:05:24.000Z</time>
      </trkpt>
      <trkpt lat="45.88771" lon="6.09812">
        <ele>552</ele>
        <time>2016-05-02T10:05:25.000Z</time>
      </trkpt>
      <trkpt lat="45.88771" lon="6.09809">
        <ele>551</ele>
        <time>2016-05-02T10:05:26.000Z</time>
      </trkpt>
      <trkpt lat="45.8877" lon="6.09806">
        <ele>551</ele>
        <time>2016-05-02T10:05:27.000Z</time>
      </trkpt>
      <trkpt lat="45.8877" lon="6.09803">
        <ele>551</ele>
        <time>2016-05-02T10:05:28.000Z</time>
      </trkpt>
      <trkpt lat="45.88769" lon="6.098">
        <ele>550</ele>
        <time>2016-05-02T10:05:29.000Z</time>
      </trkpt>
      <trkpt lat="45.88769" lon="6.09798">
        <ele>550</ele>
        <time>2016-05-02T10:05:30.000Z</time>
      </trkpt>
      <trkpt lat="45.88769" lon="6.09795">
        <ele>549</ele>
        <time>2016-05-02T10:05:31.000Z</time>
      </trkpt>
      <trkpt lat="45.8877" lon="6.09792">
        <ele>548</ele>
        <time>2016-05-02T10:05:32.000Z</time>
      </trkpt>
      <trkpt lat="45.8877" lon="6.0979">
        <ele>548</ele>
        <time>2016-05-02T10:05:33.000Z</time>
      </trkpt>
      <trkpt lat="45.8877" lon="6.09787">
        <ele>547</ele>
        <time>2016-05-02T10:05:34.000Z</time>
      </trkpt>
      <trkpt lat="45.88771" lon="6.09784">
        <ele>547</ele>
        <time>2016-05-02T10:05:35.000Z</time>
      </trkpt>
      <trkpt lat="45.88772" lon="6.09781">
        <ele>547</ele>
        <time>2016-05-02T10:05:36.000Z</time>
      </trkpt>
      <trkpt lat="45.88772" lon="6.09778">
        <ele>546</ele>
        <time>2016-05-02T10:05:37.000Z</time>
      </trkpt>
      <trkpt lat="45.88773" lon="6.09775">
        <ele>546</ele>
        <time>2016-05-02T10:05:38.000Z</time>
      </trkpt>
      <trkpt lat="45.88774" lon="6.09773">
        <ele>545</ele>
        <time>2016-05-02T10:05:39.000Z</time>
      </trkpt>
      <trkpt lat="45.88775" lon="6.0977">
        <ele>545</ele>
        <time>2016-05-02T10:05:40.000Z</time>
      </trkpt>
      <trkpt lat="45.88776" lon="6.09768">
        <ele>544</ele>
        <time>2016-05-02T10:05:41.000Z</time>
      </trkpt>
      <trkpt lat="45.88778" lon="6.09765">
        <ele>544</ele>
        <time>2016-05-02T10:05:42.000Z</time>
      </trkpt>
      <trkpt lat="45.88779" lon="6.09763">
        <ele>544</ele>
        <time>2016-05-02T10:05:43.000Z</time>
      </trkpt>
      <trkpt lat="45.8878" lon="6.0976">
        <ele>544</ele>
        <time>2016-05-02T10:05:44.000Z</time>
      </trkpt>
      <trkpt lat="45.88781" lon="6.09757">
        <ele>543</ele>
        <time>2016-05-02T10:05:45.000Z</time>
      </trkpt>
      <trkpt lat="45.88783" lon="6.09755">
        <ele>543</ele>
        <time>2016-05-02T10:05:46.000Z</time>
      </trkpt>
      <trkpt lat="45.88784" lon="6.09752">
        <ele>543</ele>
        <time>2016-05-02T10:05:47.000Z</time>
      </trkpt>
      <trkpt lat="45.88785" lon="6.0975">
        <ele>543</ele>
        <time>2016-05-02T10:05:48.000Z</time>
      </trkpt>
      <trkpt lat="45.88786" lon="6.09747">
        <ele>542</ele>
        <time>2016-05-02T10:05:49.000Z</time>
      </trkpt>
      <trkpt lat="45.88787" lon="6.09744">
        <ele>542</ele>
        <time>2016-05-02T10:05:50.000Z</time>
      </trkpt>
      <trkpt lat="45.88788" lon="6.09741">
        <ele>542</ele>
        <time>2016-05-02T10:05:51.000Z</time>
      </trkpt>
      <trkpt lat="45.88789" lon="6.09739">
        <ele>542</ele>
        <time>2016-05-02T10:05:52.000Z</time>
      </trkpt>
      <trkpt lat="45.8879" lon="6.09736">
        <ele>542</ele>
        <time>2016-05-02T10:05:53.000Z</time>
      </trkpt>
      <trkpt lat="45.88791" lon="6.09733">
        <ele>541</ele>
        <time>2016-05-02T10:05:54.000Z</time>
      </trkpt>
      <trkpt lat="45.88792" lon="6.0973">
        <ele>541</ele>
        <time>2016-05-02T10:05:55.000Z</time>
      </trkpt>
      <trkpt lat="45.88792" lon="6.09727">
        <ele>541</ele>
        <time>2016-05-02T10:05:56.000Z</time>
      </trkpt>
      <trkpt lat="45.88793" lon="6.09725">
        <ele>541</ele>
        <time>2016-05-02T10:05:57.000Z</time>
      </trkpt>
      <trkpt lat="45.88794" lon="6.09722">
        <ele>540</ele>
        <time>2016-05-02T10:05:58.000Z</time>
      </trkpt>
      <trkpt lat="45.88795" lon="6.09719">
        <ele>540</ele>
        <time>2016-05-02T10:05:59.000Z</time>
      </trkpt>
      <trkpt lat="45.88795" lon="6.09715">
        <ele>540</ele>
        <time>2016-05-02T10:06:00.000Z</time>
      </trkpt>
      <trkpt lat="45.88795" lon="6.09712">
        <ele>540</ele>
        <time>2016-05-02T10:06:01.000Z</time>
      </trkpt>
      <trkpt lat="45.88795" lon="6.09708">
        <ele>540</ele>
        <time>2016-05-02T10:06:02.000Z</time>
      </trkpt>
      <trkpt lat="45.88796" lon="6.09705">
        <ele>540</ele>
        <time>2016-05-02T10:06:03.000Z</time>
      </trkpt>
      <trkpt lat="45.88796" lon="6.09702">
        <ele>540</ele>
        <time>2016-05-02T10:06:04.000Z</time>
      </trkpt>
      <trkpt lat="45.88796" lon="6.09698">
        <ele>540</ele>
        <time>2016-05-02T10:06:05.000Z</time>
      </trkpt>
      <trkpt lat="45.88795" lon="6.09695">
        <ele>540</ele>
        <time>2016-05-02T10:06:06.000Z</time>
      </trkpt>
      <trkpt lat="45.88795" lon="6.09692">
        <ele>540</ele>
        <time>2016-05-02T10:06:07.000Z</time>
      </trkpt>
      <trkpt lat="45.88794" lon="6.09689">
        <ele>540</ele>
        <time>2016-05-02T10:06:08.000Z</time>
      </trkpt>
      <trkpt lat="45.88794" lon="6.09686">
        <ele>540</ele>
        <time>2016-05-02T10:06:09.000Z</time>
      </trkpt>
      <trkpt lat="45.88793" lon="6.09682">
        <ele>540</ele>
        <time>2016-05-02T10:06:10.000Z</time>
      </trkpt>
      <trkpt lat="45.88793" lon="6.0968">
        <ele>540</ele>
        <time>2016-05-02T10:06:11.000Z</time>
      </trkpt>
      <trkpt lat="45.88792" lon="6.09677">
        <ele>540</ele>
        <time>2016-05-02T10:06:12.000Z</time>
      </trkpt>
      <trkpt lat="45.88792" lon="6.09674">
        <ele>539</ele>
        <time>2016-05-02T10:06:13.000Z</time>
      </trkpt>
      <trkpt lat="45.88792" lon="6.09671">
        <ele>539</ele>
        <time>2016-05-02T10:06:14.000Z</time>
      </trkpt>
      <trkpt lat="45.88791" lon="6.09668">
        <ele>539</ele>
        <time>2016-05-02T10:06:15.000Z</time>
      </trkpt>
      <trkpt lat="45.88791" lon="6.09665">
        <ele>539</ele>
        <time>2016-05-02T10:06:16.000Z</time>
      </trkpt>
      <trkpt lat="45.8879" lon="6.09662">
        <ele>539</ele>
        <time>2016-05-02T10:06:17.000Z</time>
      </trkpt>
      <trkpt lat="45.88789" lon="6.09659">
        <ele>539</ele>
        <time>2016-05-02T10:06:18.000Z</time>
      </trkpt>
      <trkpt lat="45.88788" lon="6.09655">
        <ele>539</ele>
        <time>2016-05-02T10:06:19.000Z</time>
      </trkpt>
      <trkpt lat="45.88788" lon="6.09652">
        <ele>539</ele>
        <time>2016-05-02T10:06:20.000Z</time>
      </trkpt>
      <trkpt lat="45.88787" lon="6.09649">
        <ele>539</ele>
        <time>2016-05-02T10:06:21.000Z</time>
      </trkpt>
      <trkpt lat="45.88787" lon="6.09645">
        <ele>539</ele>
        <time>2016-05-02T10:06:22.000Z</time>
      </trkpt>
      <trkpt lat="45.88786" lon="6.09642">
        <ele>538</ele>
        <time>2016-05-02T10:06:23.000Z</time>
      </trkpt>
      <trkpt lat="45.88785" lon="6.09639">
        <ele>538</ele>
        <time>2016-05-02T10:06:24.000Z</time>
      </trkpt>
      <trkpt lat="45.88784" lon="6.09636">
        <ele>538</ele>
        <time>2016-05-02T10:06:25.000Z</time>
      </trkpt>
      <trkpt lat="45.88782" lon="6.09634">
        <ele>538</ele>
        <time>2016-05-02T10:06:26.000Z</time>
      </trkpt>
      <trkpt lat="45.88781" lon="6.09631">
        <ele>538</ele>
        <time>2016-05-02T10:06:27.000Z</time>
      </trkpt>
      <trkpt lat="45.88779" lon="6.09628">
        <ele>538</ele>
        <time>2016-05-02T10:06:28.000Z</time>
      </trkpt>
      <trkpt lat="45.88778" lon="6.09625">
        <ele>538</ele>
        <time>2016-05-02T10:06:29.000Z</time>
      </trkpt>
      <trkpt lat="45.88777" lon="6.09622">
        <ele>538</ele>
        <time>2016-05-02T10:06:30.000Z</time>
      </trkpt>
      <trkpt lat="45.88775" lon="6.09619">
        <ele>538</ele>
        <time>2016-05-02T10:06:31.000Z</time>
      </trkpt>
      <trkpt lat="45.88774" lon="6.09616">
        <ele>539</ele>
        <time>2016-05-02T10:06:32.000Z</time>
      </trkpt>
      <trkpt lat="45.88773" lon="6.09614">
        <ele>539</ele>
        <time>2016-05-02T10:06:33.000Z</time>
      </trkpt>
      <trkpt lat="45.88772" lon="6.0961">
        <ele>539</ele>
        <time>2016-05-02T10:06:34.000Z</time>
      </trkpt>
      <trkpt lat="45.8877" lon="6.09608">
        <ele>539</ele>
        <time>2016-05-02T10:06:35.000Z</time>
      </trkpt>
      <trkpt lat="45.88769" lon="6.09605">
        <ele>538</ele>
        <time>2016-05-02T10:06:36.000Z</time>
      </trkpt>
      <trkpt lat="45.88767" lon="6.09602">
        <ele>539</ele>
        <time>2016-05-02T10:06:37.000Z</time>
      </trkpt>
      <trkpt lat="45.88766" lon="6.09599">
        <ele>539</ele>
        <time>2016-05-02T10:06:38.000Z</time>
      </trkpt>
      <trkpt lat="45.88764" lon="6.09596">
        <ele>539</ele>
        <time>2016-05-02T10:06:39.000Z</time>
      </trkpt>
      <trkpt lat="45.88762" lon="6.09593">
        <ele>539</ele>
        <time>2016-05-02T10:06:40.000Z</time>
      </trkpt>
      <trkpt lat="45.88761" lon="6.09591">
        <ele>539</ele>
        <time>2016-05-02T10:06:41.000Z</time>
      </trkpt>
      <trkpt lat="45.8876" lon="6.09588">
        <ele>539</ele>
        <time>2016-05-02T10:06:42.000Z</time>
      </trkpt>
      <trkpt lat="45.88758" lon="6.09585">
        <ele>539</ele>
        <time>2016-05-02T10:06:43.000Z</time>
      </trkpt>
      <trkpt lat="45.88757" lon="6.09582">
        <ele>539</ele>
        <time>2016-05-02T10:06:44.000Z</time>
      </trkpt>
      <trkpt lat="45.88755" lon="6.09579">
        <ele>539</ele>
        <time>2016-05-02T10:06:45.000Z</time>
      </trkpt>
      <trkpt lat="45.88754" lon="6.09576">
        <ele>539</ele>
        <time>2016-05-02T10:06:46.000Z</time>
      </trkpt>
      <trkpt lat="45.88752" lon="6.09573">
        <ele>539</ele>
        <time>2016-05-02T10:06:47.000Z</time>
      </trkpt>
      <trkpt lat="45.88751" lon="6.0957">
        <ele>539</ele>
        <time>2016-05-02T10:06:48.000Z</time>
      </trkpt>
      <trkpt lat="45.88749" lon="6.09568">
        <ele>539</ele>
        <time>2016-05-02T10:06:49.000Z</time>
      </trkpt>
      <trkpt lat="45.88748" lon="6.09565">
        <ele>539</ele>
        <time>2016-05-02T10:06:50.000Z</time>
      </trkpt>
      <trkpt lat="45.88746" lon="6.09562">
        <ele>539</ele>
        <time>2016-05-02T10:06:51.000Z</time>
      </trkpt>
      <trkpt lat="45.88745" lon="6.09559">
        <ele>538</ele>
        <time>2016-05-02T10:06:52.000Z</time>
      </trkpt>
      <trkpt lat="45.88743" lon="6.09556">
        <ele>538</ele>
        <time>2016-05-02T10:06:53.000Z</time>
      </trkpt>
      <trkpt lat="45.88742" lon="6.09554">
        <ele>538</ele>
        <time>2016-05-02T10:06:54.000Z</time>
      </trkpt>
      <trkpt lat="45.8874" lon="6.09551">
        <ele>538</ele>
        <time>2016-05-02T10:06:55.000Z</time>
      </trkpt>
      <trkpt lat="45.88739" lon="6.09549">
        <ele>538</ele>
        <time>2016-05-02T10:06:56.000Z</time>
      </trkpt>
      <trkpt lat="45.88737" lon="6.09547">
        <ele>538</ele>
        <time>2016-05-02T10:06:57.000Z</time>
      </trkpt>
      <trkpt lat="45.88736" lon="6.09544">
        <ele>538</ele>
        <time>2016-05-02T10:06:58.000Z</time>
      </trkpt>
      <trkpt lat="45.88734" lon="6.09542">
        <ele>538</ele>
        <time>2016-05-02T10:06:59.000Z</time>
      </trkpt>
      <trkpt lat="45.88732" lon="6.09539">
        <ele>538</ele>
        <time>2016-05-02T10:07:00.000Z</time>
      </trkpt>
      <trkpt lat="45.88731" lon="6.09536">
        <ele>538</ele>
        <time>2016-05-02T10:07:01.000Z</time>
      </trkpt>
      <trkpt lat="45.88729" lon="6.09534">
        <ele>538</ele>
        <time>2016-05-02T10:07:02.000Z</time>
      </trkpt>
      <trkpt lat="45.88728" lon="6.09531">
        <ele>538</ele>
        <time>2016-05-02T10:07:03.000Z</time>
      </trkpt>
      <trkpt lat="45.88726" lon="6.09529">
        <ele>538</ele>
        <time>2016-05-02T10:07:04.000Z</time>
      </trkpt>
      <trkpt lat="45.88724" lon="6.09527">
        <ele>538</ele>
        <time>2016-05-02T10:07:05.000Z</time>
      </trkpt>
      <trkpt lat="45.88723" lon="6.09524">
        <ele>538</ele>
        <time>2016-05-02T10:07:06.000Z</time>
      </trkpt>
      <trkpt lat="45.88721" lon="6.09522">
        <ele>538</ele>
        <time>2016-05-02T10:07:07.000Z</time>
      </trkpt>
      <trkpt lat="45.8872" lon="6.0952">
        <ele>538</ele>
        <time>2016-05-02T10:07:08.000Z</time>
      </trkpt>
      <trkpt lat="45.88718" lon="6.09518">
        <ele>538</ele>
        <time>2016-05-02T10:07:09.000Z</time>
      </trkpt>
      <trkpt lat="45.88716" lon="6.09516">
        <ele>538</ele>
        <time>2016-05-02T10:07:10.000Z</time>
      </trkpt>
      <trkpt lat="45.88715" lon="6.09513">
        <ele>539</ele>
        <time>2016-05-02T10:07:11.000Z</time>
      </trkpt>
      <trkpt lat="45.88713" lon="6.09511">
        <ele>539</ele>
        <time>2016-05-02T10:07:12.000Z</time>
      </trkpt>
      <trkpt lat="45.88711" lon="6.09509">
        <ele>539</ele>
        <time>2016-05-02T10:07:13.000Z</time>
      </trkpt>
      <trkpt lat="45.88709" lon="6.09506">
        <ele>539</ele>
        <time>2016-05-02T10:07:14.000Z</time>
      </trkpt>
      <trkpt lat="45.88708" lon="6.09504">
        <ele>539</ele>
        <time>2016-05-02T10:07:15.000Z</time>
      </trkpt>
      <trkpt lat="45.88706" lon="6.09502">
        <ele>539</ele>
        <time>2016-05-02T10:07:16.000Z</time>
      </trkpt>
      <trkpt lat="45.88704" lon="6.095">
        <ele>539</ele>
        <time>2016-05-02T10:07:17.000Z</time>
      </trkpt>
      <trkpt lat="45.88703" lon="6.09497">
        <ele>539</ele>
        <time>2016-05-02T10:07:18.000Z</time>
      </trkpt>
      <trkpt lat="45.88701" lon="6.09495">
        <ele>539</ele>
        <time>2016-05-02T10:07:19.000Z</time>
      </trkpt>
      <trkpt lat="45.88699" lon="6.09492">
        <ele>539</ele>
        <time>2016-05-02T10:07:20.000Z</time>
      </trkpt>
      <trkpt lat="45.88698" lon="6.09489">
        <ele>539</ele>
        <time>2016-05-02T10:07:21.000Z</time>
      </trkpt>
      <trkpt lat="45.88696" lon="6.09487">
        <ele>539</ele>
        <time>2016-05-02T10:07:22.000Z</time>
      </trkpt>
      <trkpt lat="45.88695" lon="6.09484">
        <ele>539</ele>
        <time>2016-05-02T10:07:23.000Z</time>
      </trkpt>
      <trkpt lat="45.88694" lon="6.09481">
        <ele>538</ele>
        <time>2016-05-02T10:07:24.000Z</time>
      </trkpt>
      <trkpt lat="45.88692" lon="6.09479">
        <ele>538</ele>
        <time>2016-05-02T10:07:25.000Z</time>
      </trkpt>
      <trkpt lat="45.88691" lon="6.09476">
        <ele>538</ele>
        <time>2016-05-02T10:07:26.000Z</time>
      </trkpt>
      <trkpt lat="45.8869" lon="6.09473">
        <ele>538</ele>
        <time>2016-05-02T10:07:27.000Z</time>
      </trkpt>
      <trkpt lat="45.88688" lon="6.09471">
        <ele>538</ele>
        <time>2016-05-02T10:07:28.000Z</time>
      </trkpt>
      <trkpt lat="45.88687" lon="6.09468">
        <ele>538</ele>
        <time>2016-05-02T10:07:29.000Z</time>
      </trkpt>
      <trkpt lat="45.88685" lon="6.09466">
        <ele>538</ele>
        <time>2016-05-02T10:07:30.000Z</time>
      </trkpt>
      <trkpt lat="45.88683" lon="6.09464">
        <ele>538</ele>
        <time>2016-05-02T10:07:31.000Z</time>
      </trkpt>
      <trkpt lat="45.88682" lon="6.09461">
        <ele>538</ele>
        <time>2016-05-02T10:07:32.000Z</time>
      </trkpt>
      <trkpt lat="45.8868" lon="6.09459">
        <ele>538</ele>
        <time>2016-05-02T10:07:33.000Z</time>
      </trkpt>
      <trkpt lat="45.88678" lon="6.09458">
        <ele>538</ele>
        <time>2016-05-02T10:07:34.000Z</time>
      </trkpt>
      <trkpt lat="45.88676" lon="6.09456">
        <ele>538</ele>
        <time>2016-05-02T10:07:35.000Z</time>
      </trkpt>
      <trkpt lat="45.88674" lon="6.09454">
        <ele>538</ele>
        <time>2016-05-02T10:07:36.000Z</time>
      </trkpt>
      <trkpt lat="45.88673" lon="6.09452">
        <ele>538</ele>
        <time>2016-05-02T10:07:37.000Z</time>
      </trkpt>
      <trkpt lat="45.88671" lon="6.0945">
        <ele>538</ele>
        <time>2016-05-02T10:07:38.000Z</time>
      </trkpt>
      <trkpt lat="45.88669" lon="6.09448">
        <ele>538</ele>
        <time>2016-05-02T10:07:39.000Z</time>
      </trkpt>
      <trkpt lat="45.88667" lon="6.09446">
        <ele>538</ele>
        <time>2016-05-02T10:07:40.000Z</time>
      </trkpt>
      <trkpt lat="45.88665" lon="6.09445">
        <ele>538</ele>
        <time>2016-05-02T10:07:41.000Z</time>
      </trkpt>
      <trkpt lat="45.88663" lon="6.09443">
        <ele>538</ele>
        <time>2016-05-02T10:07:42.000Z</time>
      </trkpt>
      <trkpt lat="45.88661" lon="6.09441">
        <ele>538</ele>
        <time>2016-05-02T10:07:43.000Z</time>
      </trkpt>
      <trkpt lat="45.88659" lon="6.0944">
        <ele>538</ele>
        <time>2016-05-02T10:07:44.000Z</time>
      </trkpt>
      <trkpt lat="45.88656" lon="6.09438">
        <ele>538</ele>
        <time>2016-05-02T10:07:45.000Z</time>
      </trkpt>
      <trkpt lat="45.88654" lon="6.09436">
        <ele>538</ele>
        <time>2016-05-02T10:07:46.000Z</time>
      </trkpt>
      <trkpt lat="45.88652" lon="6.09435">
        <ele>538</ele>
        <time>2016-05-02T10:07:47.000Z</time>
      </trkpt>
      <trkpt lat="45.8865" lon="6.09432">
        <ele>538</ele>
        <time>2016-05-02T10:07:48.000Z</time>
      </trkpt>
      <trkpt lat="45.88648" lon="6.0943">
        <ele>538</ele>
        <time>2016-05-02T10:07:49.000Z</time>
      </trkpt>
      <trkpt lat="45.88645" lon="6.09429">
        <ele>538</ele>
        <time>2016-05-02T10:07:50.000Z</time>
      </trkpt>
      <trkpt lat="45.88643" lon="6.09427">
        <ele>539</ele>
        <time>2016-05-02T10:07:51.000Z</time>
      </trkpt>
      <trkpt lat="45.88641" lon="6.09425">
        <ele>539</ele>
        <time>2016-05-02T10:07:52.000Z</time>
      </trkpt>
      <trkpt lat="45.88639" lon="6.09423">
        <ele>539</ele>
        <time>2016-05-02T10:07:53.000Z</time>
      </trkpt>
      <trkpt lat="45.88637" lon="6.09421">
        <ele>539</ele>
        <time>2016-05-02T10:07:54.000Z</time>
      </trkpt>
      <trkpt lat="45.88635" lon="6.09419">
        <ele>539</ele>
        <time>2016-05-02T10:07:55.000Z</time>
      </trkpt>
      <trkpt lat="45.88633" lon="6.09417">
        <ele>539</ele>
        <time>2016-05-02T10:07:56.000Z</time>
      </trkpt>
      <trkpt lat="45.88631" lon="6.09414">
        <ele>540</ele>
        <time>2016-05-02T10:07:57.000Z</time>
      </trkpt>
      <trkpt lat="45.88629" lon="6.09412">
        <ele>540</ele>
        <time>2016-05-02T10:07:58.000Z</time>
      </trkpt>
      <trkpt lat="45.88627" lon="6.0941">
        <ele>540</ele>
        <time>2016-05-02T10:07:59.000Z</time>
      </trkpt>
      <trkpt lat="45.88626" lon="6.09407">
        <ele>540</ele>
        <time>2016-05-02T10:08:00.000Z</time>
      </trkpt>
      <trkpt lat="45.88624" lon="6.09404">
        <ele>541</ele>
        <time>2016-05-02T10:08:01.000Z</time>
      </trkpt>
      <trkpt lat="45.88623" lon="6.09401">
        <ele>541</ele>
        <time>2016-05-02T10:08:02.000Z</time>
      </trkpt>
      <trkpt lat="45.88621" lon="6.09398">
        <ele>541</ele>
        <time>2016-05-02T10:08:03.000Z</time>
      </trkpt>
      <trkpt lat="45.8862" lon="6.09395">
        <ele>541</ele>
        <time>2016-05-02T10:08:04.000Z</time>
      </trkpt>
      <trkpt lat="45.88618" lon="6.09392">
        <ele>541</ele>
        <time>2016-05-02T10:08:05.000Z</time>
      </trkpt>
      <trkpt lat="45.88617" lon="6.09389">
        <ele>542</ele>
        <time>2016-05-02T10:08:06.000Z</time>
      </trkpt>
      <trkpt lat="45.88615" lon="6.09386">
        <ele>542</ele>
        <time>2016-05-02T10:08:07.000Z</time>
      </trkpt>
      <trkpt lat="45.88615" lon="6.09382">
        <ele>542</ele>
        <time>2016-05-02T10:08:08.000Z</time>
      </trkpt>
      <trkpt lat="45.88614" lon="6.09378">
        <ele>542</ele>
        <time>2016-05-02T10:08:09.000Z</time>
      </trkpt>
      <trkpt lat="45.88613" lon="6.09375">
        <ele>542</ele>
        <time>2016-05-02T10:08:10.000Z</time>
      </trkpt>
      <trkpt lat="45.88612" lon="6.09371">
        <ele>542</ele>
        <time>2016-05-02T10:08:11.000Z</time>
      </trkpt>
      <trkpt lat="45.88611" lon="6.09368">
        <ele>542</ele>
        <time>2016-05-02T10:08:12.000Z</time>
      </trkpt>
      <trkpt lat="45.88611" lon="6.09365">
        <ele>542</ele>
        <time>2016-05-02T10:08:13.000Z</time>
      </trkpt>
      <trkpt lat="45.88611" lon="6.09361">
        <ele>542</ele>
        <time>2016-05-02T10:08:14.000Z</time>
      </trkpt>
      <trkpt lat="45.8861" lon="6.09357">
        <ele>543</ele>
        <time>2016-05-02T10:08:15.000Z</time>
      </trkpt>
      <trkpt lat="45.8861" lon="6.09353">
        <ele>543</ele>
        <time>2016-05-02T10:08:16.000Z</time>
      </trkpt>
      <trkpt lat="45.8861" lon="6.09349">
        <ele>543</ele>
        <time>2016-05-02T10:08:17.000Z</time>
      </trkpt>
      <trkpt lat="45.88609" lon="6.09346">
        <ele>543</ele>
        <time>2016-05-02T10:08:18.000Z</time>
      </trkpt>
      <trkpt lat="45.88609" lon="6.09342">
        <ele>543</ele>
        <time>2016-05-02T10:08:19.000Z</time>
      </trkpt>
      <trkpt lat="45.88609" lon="6.09338">
        <ele>543</ele>
        <time>2016-05-02T10:08:20.000Z</time>
      </trkpt>
      <trkpt lat="45.88609" lon="6.09335">
        <ele>543</ele>
        <time>2016-05-02T10:08:21.000Z</time>
      </trkpt>
      <trkpt lat="45.88609" lon="6.09331">
        <ele>543</ele>
        <time>2016-05-02T10:08:22.000Z</time>
      </trkpt>
      <trkpt lat="45.88608" lon="6.09328">
        <ele>543</ele>
        <time>2016-05-02T10:08:23.000Z</time>
      </trkpt>
      <trkpt lat="45.88608" lon="6.09324">
        <ele>544</ele>
        <time>2016-05-02T10:08:24.000Z</time>
      </trkpt>
      <trkpt lat="45.88608" lon="6.0932">
        <ele>544</ele>
        <time>2016-05-02T10:08:25.000Z</time>
      </trkpt>
      <trkpt lat="45.88608" lon="6.09317">
        <ele>544</ele>
        <time>2016-05-02T10:08:26.000Z</time>
      </trkpt>
      <trkpt lat="45.88608" lon="6.09313">
        <ele>544</ele>
        <time>2016-05-02T10:08:27.000Z</time>
      </trkpt>
      <trkpt lat="45.88607" lon="6.09309">
        <ele>544</ele>
        <time>2016-05-02T10:08:28.000Z</time>
      </trkpt>
      <trkpt lat="45.88607" lon="6.09306">
        <ele>543</ele>
        <time>2016-05-02T10:08:29.000Z</time>
      </trkpt>
      <trkpt lat="45.88607" lon="6.09303">
        <ele>543</ele>
        <time>2016-05-02T10:08:30.000Z</time>
      </trkpt>
      <trkpt lat="45.88606" lon="6.09299">
        <ele>543</ele>
        <time>2016-05-02T10:08:31.000Z</time>
      </trkpt>
      <trkpt lat="45.88606" lon="6.09296">
        <ele>543</ele>
        <time>2016-05-02T10:08:32.000Z</time>
      </trkpt>
      <trkpt lat="45.88605" lon="6.09293">
        <ele>543</ele>
        <time>2016-05-02T10:08:33.000Z</time>
      </trkpt>
      <trkpt lat="45.88605" lon="6.09289">
        <ele>543</ele>
        <time>2016-05-02T10:08:34.000Z</time>
      </trkpt>
      <trkpt lat="45.88604" lon="6.09285">
        <ele>543</ele>
        <time>2016-05-02T10:08:35.000Z</time>
      </trkpt>
      <trkpt lat="45.88604" lon="6.09281">
        <ele>543</ele>
        <time>2016-05-02T10:08:36.000Z</time>
      </trkpt>
      <trkpt lat="45.88604" lon="6.09277">
        <ele>543</ele>
        <time>2016-05-02T10:08:37.000Z</time>
      </trkpt>
      <trkpt lat="45.88603" lon="6.09274">
        <ele>543</ele>
        <time>2016-05-02T10:08:38.000Z</time>
      </trkpt>
      <trkpt lat="45.88603" lon="6.0927">
        <ele>543</ele>
        <time>2016-05-02T10:08:39.000Z</time>
      </trkpt>
      <trkpt lat="45.88603" lon="6.09266">
        <ele>544</ele>
        <time>2016-05-02T10:08:40.000Z</time>
      </trkpt>
      <trkpt lat="45.88603" lon="6.09262">
        <ele>544</ele>
        <time>2016-05-02T10:08:41.000Z</time>
      </trkpt>
      <trkpt lat="45.88603" lon="6.09258">
        <ele>544</ele>
        <time>2016-05-02T10:08:42.000Z</time>
      </trkpt>
      <trkpt lat="45.88603" lon="6.09254">
        <ele>544</ele>
        <time>2016-05-02T10:08:43.000Z</time>
      </trkpt>
      <trkpt lat="45.88603" lon="6.09251">
        <ele>544</ele>
        <time>2016-05-02T10:08:44.000Z</time>
      </trkpt>
      <trkpt lat="45.88603" lon="6.09247">
        <ele>544</ele>
        <time>2016-05-02T10:08:45.000Z</time>
      </trkpt>
      <trkpt lat="45.88603" lon="6.09243">
        <ele>545</ele>
        <time>2016-05-02T10:08:46.000Z</time>
      </trkpt>
      <trkpt lat="45.88603" lon="6.09239">
        <ele>545</ele>
        <time>2016-05-02T10:08:47.000Z</time>
      </trkpt>
      <trkpt lat="45.88603" lon="6.09235">
        <ele>545</ele>
        <time>2016-05-02T10:08:48.000Z</time>
      </trkpt>
      <trkpt lat="45.88603" lon="6.09231">
        <ele>545</ele>
        <time>2016-05-02T10:08:49.000Z</time>
      </trkpt>
      <trkpt lat="45.88603" lon="6.09227">
        <ele>545</ele>
        <time>2016-05-02T10:08:50.000Z</time>
      </trkpt>
      <trkpt lat="45.88603" lon="6.09224">
        <ele>545</ele>
        <time>2016-05-02T10:08:51.000Z</time>
      </trkpt>
      <trkpt lat="45.88604" lon="6.0922">
        <ele>545</ele>
        <time>2016-05-02T10:08:52.000Z</time>
      </trkpt>
      <trkpt lat="45.88604" lon="6.09216">
        <ele>545</ele>
        <time>2016-05-02T10:08:53.000Z</time>
      </trkpt>
      <trkpt lat="45.88604" lon="6.09212">
        <ele>545</ele>
        <time>2016-05-02T10:08:54.000Z</time>
      </trkpt>
      <trkpt lat="45.88604" lon="6.09209">
        <ele>545</ele>
        <time>2016-05-02T10:08:55.000Z</time>
      </trkpt>
      <trkpt lat="45.88604" lon="6.09205">
        <ele>546</ele>
        <time>2016-05-02T10:08:56.000Z</time>
      </trkpt>
      <trkpt lat="45.88604" lon="6.09201">
        <ele>546</ele>
        <time>2016-05-02T10:08:57.000Z</time>
      </trkpt>
      <trkpt lat="45.88604" lon="6.09198">
        <ele>546</ele>
        <time>2016-05-02T10:08:58.000Z</time>
      </trkpt>
      <trkpt lat="45.88604" lon="6.09194">
        <ele>546</ele>
        <time>2016-05-02T10:08:59.000Z</time>
      </trkpt>
      <trkpt lat="45.88605" lon="6.09191">
        <ele>546</ele>
        <time>2016-05-02T10:09:00.000Z</time>
      </trkpt>
      <trkpt lat="45.88605" lon="6.09187">
        <ele>546</ele>
        <time>2016-05-02T10:09:01.000Z</time>
      </trkpt>
      <trkpt lat="45.88605" lon="6.09183">
        <ele>546</ele>
        <time>2016-05-02T10:09:02.000Z</time>
      </trkpt>
      <trkpt lat="45.88605" lon="6.0918">
        <ele>546</ele>
        <time>2016-05-02T10:09:03.000Z</time>
      </trkpt>
      <trkpt lat="45.88606" lon="6.09176">
        <ele>547</ele>
        <time>2016-05-02T10:09:04.000Z</time>
      </trkpt>
      <trkpt lat="45.88606" lon="6.09173">
        <ele>547</ele>
        <time>2016-05-02T10:09:05.000Z</time>
      </trkpt>
      <trkpt lat="45.88606" lon="6.09169">
        <ele>547</ele>
        <time>2016-05-02T10:09:06.000Z</time>
      </trkpt>
      <trkpt lat="45.88606" lon="6.09166">
        <ele>547</ele>
        <time>2016-05-02T10:09:07.000Z</time>
      </trkpt>
      <trkpt lat="45.88606" lon="6.09162">
        <ele>547</ele>
        <time>2016-05-02T10:09:08.000Z</time>
      </trkpt>
      <trkpt lat="45.88606" lon="6.09159">
        <ele>547</ele>
        <time>2016-05-02T10:09:09.000Z</time>
      </trkpt>
      <trkpt lat="45.88606" lon="6.09155">
        <ele>547</ele>
        <time>2016-05-02T10:09:10.000Z</time>
      </trkpt>
      <trkpt lat="45.88605" lon="6.09152">
        <ele>547</ele>
        <time>2016-05-02T10:09:11.000Z</time>
      </trkpt>
      <trkpt lat="45.88605" lon="6.09148">
        <ele>547</ele>
        <time>2016-05-02T10:09:12.000Z</time>
      </trkpt>
      <trkpt lat="45.88605" lon="6.09145">
        <ele>547</ele>
        <time>2016-05-02T10:09:13.000Z</time>
      </trkpt>
      <trkpt lat="45.88605" lon="6.09141">
        <ele>547</ele>
        <time>2016-05-02T10:09:14.000Z</time>
      </trkpt>
      <trkpt lat="45.88605" lon="6.09137">
        <ele>547</ele>
        <time>2016-05-02T10:09:15.000Z</time>
      </trkpt>
      <trkpt lat="45.88604" lon="6.09133">
        <ele>547</ele>
        <time>2016-05-02T10:09:16.000Z</time>
      </trkpt>
      <trkpt lat="45.88604" lon="6.0913">
        <ele>547</ele>
        <time>2016-05-02T10:09:17.000Z</time>
      </trkpt>
      <trkpt lat="45.88604" lon="6.09126">
        <ele>547</ele>
        <time>2016-05-02T10:09:18.000Z</time>
      </trkpt>
      <trkpt lat="45.88604" lon="6.09122">
        <ele>548</ele>
        <time>2016-05-02T10:09:19.000Z</time>
      </trkpt>
      <trkpt lat="45.88603" lon="6.09119">
        <ele>548</ele>
        <time>2016-05-02T10:09:20.000Z</time>
      </trkpt>
      <trkpt lat="45.88602" lon="6.09115">
        <ele>548</ele>
        <time>2016-05-02T10:09:21.000Z</time>
      </trkpt>
      <trkpt lat="45.88602" lon="6.09111">
        <ele>548</ele>
        <time>2016-05-02T10:09:22.000Z</time>
      </trkpt>
      <trkpt lat="45.88601" lon="6.09108">
        <ele>548</ele>
        <time>2016-05-02T10:09:23.000Z</time>
      </trkpt>
      <trkpt lat="45.886" lon="6.09104">
        <ele>548</ele>
        <time>2016-05-02T10:09:24.000Z</time>
      </trkpt>
      <trkpt lat="45.886" lon="6.09101">
        <ele>548</ele>
        <time>2016-05-02T10:09:25.000Z</time>
      </trkpt>
      <trkpt lat="45.886" lon="6.09097">
        <ele>548</ele>
        <time>2016-05-02T10:09:26.000Z</time>
      </trkpt>
      <trkpt lat="45.88599" lon="6.09094">
        <ele>548</ele>
        <time>2016-05-02T10:09:27.000Z</time>
      </trkpt>
      <trkpt lat="45.88599" lon="6.09091">
        <ele>548</ele>
        <time>2016-05-02T10:09:28.000Z</time>
      </trkpt>
      <trkpt lat="45.88598" lon="6.09087">
        <ele>548</ele>
        <time>2016-05-02T10:09:29.000Z</time>
      </trkpt>
      <trkpt lat="45.88598" lon="6.09084">
        <ele>548</ele>
        <time>2016-05-02T10:09:30.000Z</time>
      </trkpt>
      <trkpt lat="45.88597" lon="6.09081">
        <ele>548</ele>
        <time>2016-05-02T10:09:31.000Z</time>
      </trkpt>
      <trkpt lat="45.88597" lon="6.09077">
        <ele>548</ele>
        <time>2016-05-02T10:09:32.000Z</time>
      </trkpt>
      <trkpt lat="45.88596" lon="6.09073">
        <ele>548</ele>
        <time>2016-05-02T10:09:33.000Z</time>
      </trkpt>
      <trkpt lat="45.88596" lon="6.09069">
        <ele>548</ele>
        <time>2016-05-02T10:09:34.000Z</time>
      </trkpt>
      <trkpt lat="45.88595" lon="6.09066">
        <ele>548</ele>
        <time>2016-05-02T10:09:35.000Z</time>
      </trkpt>
      <trkpt lat="45.88595" lon="6.09062">
        <ele>548</ele>
        <time>2016-05-02T10:09:36.000Z</time>
      </trkpt>
      <trkpt lat="45.88595" lon="6.09058">
        <ele>548</ele>
        <time>2016-05-02T10:09:37.000Z</time>
      </trkpt>
      <trkpt lat="45.88594" lon="6.09054">
        <ele>548</ele>
        <time>2016-05-02T10:09:38.000Z</time>
      </trkpt>
      <trkpt lat="45.88594" lon="6.0905">
        <ele>548</ele>
        <time>2016-05-02T10:09:39.000Z</time>
      </trkpt>
      <trkpt lat="45.88593" lon="6.09047">
        <ele>548</ele>
        <time>2016-05-02T10:09:40.000Z</time>
      </trkpt>
      <trkpt lat="45.88593" lon="6.09043">
        <ele>548</ele>
        <time>2016-05-02T10:09:41.000Z</time>
      </trkpt>
      <trkpt lat="45.88592" lon="6.09039">
        <ele>548</ele>
        <time>2016-05-02T10:09:42.000Z</time>
      </trkpt>
      <trkpt lat="45.88592" lon="6.09035">
        <ele>548</ele>
        <time>2016-05-02T10:09:43.000Z</time>
      </trkpt>
      <trkpt lat="45.88592" lon="6.09032">
        <ele>548</ele>
        <time>2016-05-02T10:09:44.000Z</time>
      </trkpt>
      <trkpt lat="45.88591" lon="6.09028">
        <ele>548</ele>
        <time>2016-05-02T10:09:45.000Z</time>
      </trkpt>
      <trkpt lat="45.88591" lon="6.09025">
        <ele>548</ele>
        <time>2016-05-02T10:09:46.000Z</time>
      </trkpt>
      <trkpt lat="45.8859" lon="6.09022">
        <ele>548</ele>
        <time>2016-05-02T10:09:47.000Z</time>
      </trkpt>
      <trkpt lat="45.8859" lon="6.09019">
        <ele>548</ele>
        <time>2016-05-02T10:09:48.000Z</time>
      </trkpt>
      <trkpt lat="45.88588" lon="6.09016">
        <ele>548</ele>
        <time>2016-05-02T10:09:49.000Z</time>
      </trkpt>
      <trkpt lat="45.88587" lon="6.09013">
        <ele>548</ele>
        <time>2016-05-02T10:09:50.000Z</time>
      </trkpt>
      <trkpt lat="45.88585" lon="6.0901">
        <ele>548</ele>
        <time>2016-05-02T10:09:51.000Z</time>
      </trkpt>
      <trkpt lat="45.88584" lon="6.09006">
        <ele>548</ele>
        <time>2016-05-02T10:09:52.000Z</time>
      </trkpt>
      <trkpt lat="45.88583" lon="6.09003">
        <ele>548</ele>
        <time>2016-05-02T10:09:53.000Z</time>
      </trkpt>
      <trkpt lat="45.88582" lon="6.08999">
        <ele>548</ele>
        <time>2016-05-02T10:09:54.000Z</time>
      </trkpt>
      <trkpt lat="45.88581" lon="6.08995">
        <ele>547</ele>
        <time>2016-05-02T10:09:55.000Z</time>
      </trkpt>
      <trkpt lat="45.8858" lon="6.08992">
        <ele>547</ele>
        <time>2016-05-02T10:09:56.000Z</time>
      </trkpt>
      <trkpt lat="45.88579" lon="6.08989">
        <ele>547</ele>
        <time>2016-05-02T10:09:57.000Z</time>
      </trkpt>
      <trkpt lat="45.88578" lon="6.08986">
        <ele>547</ele>
        <time>2016-05-02T10:09:58.000Z</time>
      </trkpt>
      <trkpt lat="45.88577" lon="6.08982">
        <ele>547</ele>
        <time>2016-05-02T10:09:59.000Z</time>
      </trkpt>
      <trkpt lat="45.88576" lon="6.08979">
        <ele>547</ele>
        <time>2016-05-02T10:10:00.000Z</time>
      </trkpt>
      <trkpt lat="45.88574" lon="6.08976">
        <ele>547</ele>
        <time>2016-05-02T10:10:01.000Z</time>
      </trkpt>
      <trkpt lat="45.88573" lon="6.08972">
        <ele>547</ele>
        <time>2016-05-02T10:10:02.000Z</time>
      </trkpt>
      <trkpt lat="45.88572" lon="6.08969">
        <ele>547</ele>
        <time>2016-05-02T10:10:03.000Z</time>
      </trkpt>
      <trkpt lat="45.8857" lon="6.08965">
        <ele>547</ele>
        <time>2016-05-02T10:10:04.000Z</time>
      </trkpt>
      <trkpt lat="45.88569" lon="6.08962">
        <ele>547</ele>
        <time>2016-05-02T10:10:05.000Z</time>
      </trkpt>
      <trkpt lat="45.88567" lon="6.08958">
        <ele>546</ele>
        <time>2016-05-02T10:10:06.000Z</time>
      </trkpt>
      <trkpt lat="45.88566" lon="6.08955">
        <ele>546</ele>
        <time>2016-05-02T10:10:07.000Z</time>
      </trkpt>
      <trkpt lat="45.88564" lon="6.08951">
        <ele>546</ele>
        <time>2016-05-02T10:10:08.000Z</time>
      </trkpt>
      <trkpt lat="45.88563" lon="6.08948">
        <ele>546</ele>
        <time>2016-05-02T10:10:09.000Z</time>
      </trkpt>
      <trkpt lat="45.88561" lon="6.08944">
        <ele>546</ele>
        <time>2016-05-02T10:10:10.000Z</time>
      </trkpt>
      <trkpt lat="45.8856" lon="6.08941">
        <ele>546</ele>
        <time>2016-05-02T10:10:11.000Z</time>
      </trkpt>
      <trkpt lat="45.88558" lon="6.08937">
        <ele>546</ele>
        <time>2016-05-02T10:10:12.000Z</time>
      </trkpt>
      <trkpt lat="45.88557" lon="6.08934">
        <ele>546</ele>
        <time>2016-05-02T10:10:13.000Z</time>
      </trkpt>
      <trkpt lat="45.88555" lon="6.0893">
        <ele>546</ele>
        <time>2016-05-02T10:10:14.000Z</time>
      </trkpt>
      <trkpt lat="45.88554" lon="6.08927">
        <ele>546</ele>
        <time>2016-05-02T10:10:15.000Z</time>
      </trkpt>
      <trkpt lat="45.88552" lon="6.08923">
        <ele>545</ele>
        <time>2016-05-02T10:10:16.000Z</time>
      </trkpt>
      <trkpt lat="45.88551" lon="6.08919">
        <ele>545</ele>
        <time>2016-05-02T10:10:17.000Z</time>
      </trkpt>
      <trkpt lat="45.88549" lon="6.08915">
        <ele>545</ele>
        <time>2016-05-02T10:10:18.000Z</time>
      </trkpt>
      <trkpt lat="45.88548" lon="6.08912">
        <ele>545</ele>
        <time>2016-05-02T10:10:19.000Z</time>
      </trkpt>
      <trkpt lat="45.88547" lon="6.08908">
        <ele>545</ele>
        <time>2016-05-02T10:10:20.000Z</time>
      </trkpt>
      <trkpt lat="45.88546" lon="6.08904">
        <ele>545</ele>
        <time>2016-05-02T10:10:21.000Z</time>
      </trkpt>
      <trkpt lat="45.88544" lon="6.08901">
        <ele>545</ele>
        <time>2016-05-02T10:10:22.000Z</time>
      </trkpt>
      <trkpt lat="45.88543" lon="6.08897">
        <ele>545</ele>
        <time>2016-05-02T10:10:23.000Z</time>
      </trkpt>
      <trkpt lat="45.88542" lon="6.08893">
        <ele>545</ele>
        <time>2016-05-02T10:10:24.000Z</time>
      </trkpt>
      <trkpt lat="45.88541" lon="6.08889">
        <ele>545</ele>
        <time>2016-05-02T10:10:25.000Z</time>
      </trkpt>
      <trkpt lat="45.88541" lon="6.08885">
        <ele>545</ele>
        <time>2016-05-02T10:10:26.000Z</time>
      </trkpt>
      <trkpt lat="45.8854" lon="6.0888">
        <ele>545</ele>
        <time>2016-05-02T10:10:27.000Z</time>
      </trkpt>
      <trkpt lat="45.8854" lon="6.08876">
        <ele>545</ele>
        <time>2016-05-02T10:10:28.000Z</time>
      </trkpt>
      <trkpt lat="45.88541" lon="6.08872">
        <ele>545</ele>
        <time>2016-05-02T10:10:29.000Z</time>
      </trkpt>
      <trkpt lat="45.8854" lon="6.08868">
        <ele>545</ele>
        <time>2016-05-02T10:10:30.000Z</time>
      </trkpt>
      <trkpt lat="45.8854" lon="6.08865">
        <ele>545</ele>
        <time>2016-05-02T10:10:31.000Z</time>
      </trkpt>
      <trkpt lat="45.88539" lon="6.08862">
        <ele>544</ele>
        <time>2016-05-02T10:10:32.000Z</time>
      </trkpt>
      <trkpt lat="45.88537" lon="6.08861">
        <ele>544</ele>
        <time>2016-05-02T10:10:33.000Z</time>
      </trkpt>
      <trkpt lat="45.88535" lon="6.08859">
        <ele>544</ele>
        <time>2016-05-02T10:10:34.000Z</time>
      </trkpt>
      <trkpt lat="45.88533" lon="6.08856">
        <ele>544</ele>
        <time>2016-05-02T10:10:35.000Z</time>
      </trkpt>
      <trkpt lat="45.8853" lon="6.08854">
        <ele>544</ele>
        <time>2016-05-02T10:10:36.000Z</time>
      </trkpt>
      <trkpt lat="45.88528" lon="6.08851">
        <ele>544</ele>
        <time>2016-05-02T10:10:37.000Z</time>
      </trkpt>
      <trkpt lat="45.88525" lon="6.08848">
        <ele>543</ele>
        <time>2016-05-02T10:10:38.000Z</time>
      </trkpt>
      <trkpt lat="45.88523" lon="6.08845">
        <ele>543</ele>
        <time>2016-05-02T10:10:39.000Z</time>
      </trkpt>
      <trkpt lat="45.88521" lon="6.08842">
        <ele>543</ele>
        <time>2016-05-02T10:10:40.000Z</time>
      </trkpt>
      <trkpt lat="45.88519" lon="6.08839">
        <ele>543</ele>
        <time>2016-05-02T10:10:41.000Z</time>
      </trkpt>
      <trkpt lat="45.88516" lon="6.08836">
        <ele>543</ele>
        <time>2016-05-02T10:10:42.000Z</time>
      </trkpt>
      <trkpt lat="45.88514" lon="6.08833">
        <ele>543</ele>
        <time>2016-05-02T10:10:43.000Z</time>
      </trkpt>
      <trkpt lat="45.88512" lon="6.08829">
        <ele>543</ele>
        <time>2016-05-02T10:10:44.000Z</time>
      </trkpt>
      <trkpt lat="45.8851" lon="6.08827">
        <ele>543</ele>
        <time>2016-05-02T10:10:45.000Z</time>
      </trkpt>
      <trkpt lat="45.88507" lon="6.08824">
        <ele>543</ele>
        <time>2016-05-02T10:10:46.000Z</time>
      </trkpt>
      <trkpt lat="45.88505" lon="6.08821">
        <ele>543</ele>
        <time>2016-05-02T10:10:47.000Z</time>
      </trkpt>
      <trkpt lat="45.88503" lon="6.08818">
        <ele>544</ele>
        <time>2016-05-02T10:10:48.000Z</time>
      </trkpt>
      <trkpt lat="45.88502" lon="6.08816">
        <ele>544</ele>
        <time>2016-05-02T10:10:49.000Z</time>
      </trkpt>
      <trkpt lat="45.885" lon="6.08813">
        <ele>544</ele>
        <time>2016-05-02T10:10:50.000Z</time>
      </trkpt>
      <trkpt lat="45.88498" lon="6.0881">
        <ele>544</ele>
        <time>2016-05-02T10:10:51.000Z</time>
      </trkpt>
      <trkpt lat="45.88496" lon="6.08807">
        <ele>544</ele>
        <time>2016-05-02T10:10:52.000Z</time>
      </trkpt>
      <trkpt lat="45.88495" lon="6.08805">
        <ele>544</ele>
        <time>2016-05-02T10:10:53.000Z</time>
      </trkpt>
      <trkpt lat="45.88493" lon="6.08802">
        <ele>544</ele>
        <time>2016-05-02T10:10:54.000Z</time>
      </trkpt>
      <trkpt lat="45.88491" lon="6.08799">
        <ele>544</ele>
        <time>2016-05-02T10:10:55.000Z</time>
      </trkpt>
      <trkpt lat="45.8849" lon="6.08796">
        <ele>545</ele>
        <time>2016-05-02T10:10:56.000Z</time>
      </trkpt>
      <trkpt lat="45.88488" lon="6.08792">
        <ele>545</ele>
        <time>2016-05-02T10:10:57.000Z</time>
      </trkpt>
      <trkpt lat="45.88486" lon="6.08789">
        <ele>545</ele>
        <time>2016-05-02T10:10:58.000Z</time>
      </trkpt>
      <trkpt lat="45.88484" lon="6.08787">
        <ele>545</ele>
        <time>2016-05-02T10:10:59.000Z</time>
      </trkpt>
      <trkpt lat="45.88482" lon="6.08784">
        <ele>545</ele>
        <time>2016-05-02T10:11:00.000Z</time>
      </trkpt>
      <trkpt lat="45.8848" lon="6.08782">
        <ele>545</ele>
        <time>2016-05-02T10:11:01.000Z</time>
      </trkpt>
      <trkpt lat="45.88478" lon="6.08779">
        <ele>545</ele>
        <time>2016-05-02T10:11:02.000Z</time>
      </trkpt>
      <trkpt lat="45.88475" lon="6.08776">
        <ele>546</ele>
        <time>2016-05-02T10:11:03.000Z</time>
      </trkpt>
      <trkpt lat="45.88473" lon="6.08772">
        <ele>546</ele>
        <time>2016-05-02T10:11:04.000Z</time>
      </trkpt>
      <trkpt lat="45.88471" lon="6.08769">
        <ele>546</ele>
        <time>2016-05-02T10:11:05.000Z</time>
      </trkpt>
      <trkpt lat="45.88469" lon="6.08766">
        <ele>546</ele>
        <time>2016-05-02T10:11:06.000Z</time>
      </trkpt>
      <trkpt lat="45.88467" lon="6.08763">
        <ele>546</ele>
        <time>2016-05-02T10:11:07.000Z</time>
      </trkpt>
      <trkpt lat="45.88465" lon="6.08759">
        <ele>547</ele>
        <time>2016-05-02T10:11:08.000Z</time>
      </trkpt>
      <trkpt lat="45.88463" lon="6.08756">
        <ele>547</ele>
        <time>2016-05-02T10:11:09.000Z</time>
      </trkpt>
      <trkpt lat="45.88461" lon="6.08753">
        <ele>547</ele>
        <time>2016-05-02T10:11:10.000Z</time>
      </trkpt>
      <trkpt lat="45.88459" lon="6.0875">
        <ele>547</ele>
        <time>2016-05-02T10:11:11.000Z</time>
      </trkpt>
      <trkpt lat="45.88457" lon="6.08747">
        <ele>548</ele>
        <time>2016-05-02T10:11:12.000Z</time>
      </trkpt>
      <trkpt lat="45.88456" lon="6.08744">
        <ele>548</ele>
        <time>2016-05-02T10:11:13.000Z</time>
      </trkpt>
      <trkpt lat="45.88454" lon="6.0874">
        <ele>548</ele>
        <time>2016-05-02T10:11:14.000Z</time>
      </trkpt>
      <trkpt lat="45.88453" lon="6.08737">
        <ele>548</ele>
        <time>2016-05-02T10:11:15.000Z</time>
      </trkpt>
      <trkpt lat="45.88451" lon="6.08734">
        <ele>548</ele>
        <time>2016-05-02T10:11:16.000Z</time>
      </trkpt>
      <trkpt lat="45.8845" lon="6.08731">
        <ele>548</ele>
        <time>2016-05-02T10:11:17.000Z</time>
      </trkpt>
      <trkpt lat="45.88449" lon="6.08728">
        <ele>548</ele>
        <time>2016-05-02T10:11:18.000Z</time>
      </trkpt>
      <trkpt lat="45.88448" lon="6.08724">
        <ele>548</ele>
        <time>2016-05-02T10:11:19.000Z</time>
      </trkpt>
      <trkpt lat="45.88447" lon="6.08721">
        <ele>548</ele>
        <time>2016-05-02T10:11:20.000Z</time>
      </trkpt>
      <trkpt lat="45.88445" lon="6.08717">
        <ele>548</ele>
        <time>2016-05-02T10:11:21.000Z</time>
      </trkpt>
      <trkpt lat="45.88444" lon="6.08714">
        <ele>549</ele>
        <time>2016-05-02T10:11:22.000Z</time>
      </trkpt>
      <trkpt lat="45.88443" lon="6.08711">
        <ele>549</ele>
        <time>2016-05-02T10:11:23.000Z</time>
      </trkpt>
      <trkpt lat="45.88442" lon="6.08708">
        <ele>549</ele>
        <time>2016-05-02T10:11:24.000Z</time>
      </trkpt>
      <trkpt lat="45.8844" lon="6.08705">
        <ele>549</ele>
        <time>2016-05-02T10:11:25.000Z</time>
      </trkpt>
      <trkpt lat="45.88439" lon="6.08701">
        <ele>549</ele>
        <time>2016-05-02T10:11:26.000Z</time>
      </trkpt>
      <trkpt lat="45.88437" lon="6.08698">
        <ele>549</ele>
        <time>2016-05-02T10:11:27.000Z</time>
      </trkpt>
      <trkpt lat="45.88436" lon="6.08694">
        <ele>549</ele>
        <time>2016-05-02T10:11:28.000Z</time>
      </trkpt>
      <trkpt lat="45.88435" lon="6.08691">
        <ele>549</ele>
        <time>2016-05-02T10:11:29.000Z</time>
      </trkpt>
      <trkpt lat="45.88434" lon="6.08687">
        <ele>549</ele>
        <time>2016-05-02T10:11:30.000Z</time>
      </trkpt>
      <trkpt lat="45.88433" lon="6.08683">
        <ele>549</ele>
        <time>2016-05-02T10:11:31.000Z</time>
      </trkpt>
      <trkpt lat="45.88431" lon="6.0868">
        <ele>550</ele>
        <time>2016-05-02T10:11:32.000Z</time>
      </trkpt>
      <trkpt lat="45.8843" lon="6.08677">
        <ele>550</ele>
        <time>2016-05-02T10:11:33.000Z</time>
      </trkpt>
      <trkpt lat="45.88429" lon="6.08673">
        <ele>550</ele>
        <time>2016-05-02T10:11:34.000Z</time>
      </trkpt>
      <trkpt lat="45.88427" lon="6.0867">
        <ele>550</ele>
        <time>2016-05-02T10:11:35.000Z</time>
      </trkpt>
      <trkpt lat="45.88426" lon="6.08667">
        <ele>550</ele>
        <time>2016-05-02T10:11:36.000Z</time>
      </trkpt>
      <trkpt lat="45.88425" lon="6.08664">
        <ele>550</ele>
        <time>2016-05-02T10:11:37.000Z</time>
      </trkpt>
      <trkpt lat="45.88423" lon="6.08661">
        <ele>550</ele>
        <time>2016-05-02T10:11:38.000Z</time>
      </trkpt>
      <trkpt lat="45.88422" lon="6.08658">
        <ele>550</ele>
        <time>2016-05-02T10:11:39.000Z</time>
      </trkpt>
      <trkpt lat="45.88421" lon="6.08655">
        <ele>550</ele>
        <time>2016-05-02T10:11:40.000Z</time>
      </trkpt>
      <trkpt lat="45.88419" lon="6.08652">
        <ele>550</ele>
        <time>2016-05-02T10:11:41.000Z</time>
      </trkpt>
      <trkpt lat="45.88418" lon="6.0865">
        <ele>550</ele>
        <time>2016-05-02T10:11:42.000Z</time>
      </trkpt>
      <trkpt lat="45.88417" lon="6.08647">
        <ele>550</ele>
        <time>2016-05-02T10:11:43.000Z</time>
      </trkpt>
      <trkpt lat="45.88415" lon="6.08644">
        <ele>550</ele>
        <time>2016-05-02T10:11:44.000Z</time>
      </trkpt>
      <trkpt lat="45.88414" lon="6.0864">
        <ele>550</ele>
        <time>2016-05-02T10:11:45.000Z</time>
      </trkpt>
      <trkpt lat="45.88413" lon="6.08636">
        <ele>550</ele>
        <time>2016-05-02T10:11:46.000Z</time>
      </trkpt>
      <trkpt lat="45.88412" lon="6.08633">
        <ele>550</ele>
        <time>2016-05-02T10:11:47.000Z</time>
      </trkpt>
      <trkpt lat="45.88411" lon="6.08629">
        <ele>550</ele>
        <time>2016-05-02T10:11:48.000Z</time>
      </trkpt>
      <trkpt lat="45.8841" lon="6.08626">
        <ele>550</ele>
        <time>2016-05-02T10:11:49.000Z</time>
      </trkpt>
      <trkpt lat="45.88408" lon="6.08622">
        <ele>550</ele>
        <time>2016-05-02T10:11:50.000Z</time>
      </trkpt>
      <trkpt lat="45.88407" lon="6.08618">
        <ele>550</ele>
        <time>2016-05-02T10:11:51.000Z</time>
      </trkpt>
      <trkpt lat="45.88406" lon="6.08615">
        <ele>551</ele>
        <time>2016-05-02T10:11:52.000Z</time>
      </trkpt>
      <trkpt lat="45.88404" lon="6.08611">
        <ele>551</ele>
        <time>2016-05-02T10:11:53.000Z</time>
      </trkpt>
      <trkpt lat="45.88403" lon="6.08608">
        <ele>551</ele>
        <time>2016-05-02T10:11:54.000Z</time>
      </trkpt>
      <trkpt lat="45.88401" lon="6.08604">
        <ele>551</ele>
        <time>2016-05-02T10:11:55.000Z</time>
      </trkpt>
      <trkpt lat="45.88399" lon="6.08601">
        <ele>551</ele>
        <time>2016-05-02T10:11:56.000Z</time>
      </trkpt>
      <trkpt lat="45.88397" lon="6.08598">
        <ele>552</ele>
        <time>2016-05-02T10:11:57.000Z</time>
      </trkpt>
      <trkpt lat="45.88396" lon="6.08594">
        <ele>552</ele>
        <time>2016-05-02T10:11:58.000Z</time>
      </trkpt>
      <trkpt lat="45.88394" lon="6.08591">
        <ele>552</ele>
        <time>2016-05-02T10:11:59.000Z</time>
      </trkpt>
      <trkpt lat="45.88392" lon="6.08588">
        <ele>553</ele>
        <time>2016-05-02T10:12:00.000Z</time>
      </trkpt>
      <trkpt lat="45.8839" lon="6.08585">
        <ele>553</ele>
        <time>2016-05-02T10:12:01.000Z</time>
      </trkpt>
      <trkpt lat="45.88388" lon="6.08582">
        <ele>553</ele>
        <time>2016-05-02T10:12:02.000Z</time>
      </trkpt>
      <trkpt lat="45.88386" lon="6.08578">
        <ele>553</ele>
        <time>2016-05-02T10:12:03.000Z</time>
      </trkpt>
      <trkpt lat="45.88384" lon="6.08575">
        <ele>554</ele>
        <time>2016-05-02T10:12:04.000Z</time>
      </trkpt>
      <trkpt lat="45.88382" lon="6.08572">
        <ele>554</ele>
        <time>2016-05-02T10:12:05.000Z</time>
      </trkpt>
      <trkpt lat="45.88381" lon="6.08569">
        <ele>554</ele>
        <time>2016-05-02T10:12:06.000Z</time>
      </trkpt>
      <trkpt lat="45.88379" lon="6.08566">
        <ele>554</ele>
        <time>2016-05-02T10:12:07.000Z</time>
      </trkpt>
      <trkpt lat="45.88377" lon="6.08562">
        <ele>554</ele>
        <time>2016-05-02T10:12:08.000Z</time>
      </trkpt>
      <trkpt lat="45.88375" lon="6.08559">
        <ele>554</ele>
        <time>2016-05-02T10:12:09.000Z</time>
      </trkpt>
      <trkpt lat="45.88373" lon="6.08556">
        <ele>555</ele>
        <time>2016-05-02T10:12:10.000Z</time>
      </trkpt>
      <trkpt lat="45.8837" lon="6.08552">
        <ele>555</ele>
        <time>2016-05-02T10:12:11.000Z</time>
      </trkpt>
      <trkpt lat="45.88368" lon="6.08549">
        <ele>555</ele>
        <time>2016-05-02T10:12:12.000Z</time>
      </trkpt>
      <trkpt lat="45.88366" lon="6.08546">
        <ele>555</ele>
        <time>2016-05-02T10:12:13.000Z</time>
      </trkpt>
      <trkpt lat="45.88363" lon="6.08544">
        <ele>554</ele>
        <time>2016-05-02T10:12:14.000Z</time>
      </trkpt>
      <trkpt lat="45.88361" lon="6.08542">
        <ele>554</ele>
        <time>2016-05-02T10:12:15.000Z</time>
      </trkpt>
      <trkpt lat="45.88358" lon="6.0854">
        <ele>554</ele>
        <time>2016-05-02T10:12:16.000Z</time>
      </trkpt>
      <trkpt lat="45.88355" lon="6.08537">
        <ele>554</ele>
        <time>2016-05-02T10:12:17.000Z</time>
      </trkpt>
      <trkpt lat="45.88353" lon="6.08535">
        <ele>553</ele>
        <time>2016-05-02T10:12:18.000Z</time>
      </trkpt>
      <trkpt lat="45.8835" lon="6.08532">
        <ele>553</ele>
        <time>2016-05-02T10:12:19.000Z</time>
      </trkpt>
      <trkpt lat="45.88348" lon="6.0853">
        <ele>552</ele>
        <time>2016-05-02T10:12:20.000Z</time>
      </trkpt>
      <trkpt lat="45.88345" lon="6.08527">
        <ele>552</ele>
        <time>2016-05-02T10:12:21.000Z</time>
      </trkpt>
      <trkpt lat="45.88343" lon="6.08524">
        <ele>551</ele>
        <time>2016-05-02T10:12:22.000Z</time>
      </trkpt>
      <trkpt lat="45.88341" lon="6.08521">
        <ele>551</ele>
        <time>2016-05-02T10:12:23.000Z</time>
      </trkpt>
      <trkpt lat="45.88339" lon="6.08518">
        <ele>551</ele>
        <time>2016-05-02T10:12:24.000Z</time>
      </trkpt>
      <trkpt lat="45.88337" lon="6.08514">
        <ele>550</ele>
        <time>2016-05-02T10:12:25.000Z</time>
      </trkpt>
      <trkpt lat="45.88335" lon="6.08511">
        <ele>550</ele>
        <time>2016-05-02T10:12:26.000Z</time>
      </trkpt>
      <trkpt lat="45.88333" lon="6.08507">
        <ele>550</ele>
        <time>2016-05-02T10:12:27.000Z</time>
      </trkpt>
      <trkpt lat="45.88332" lon="6.08504">
        <ele>549</ele>
        <time>2016-05-02T10:12:28.000Z</time>
      </trkpt>
      <trkpt lat="45.88331" lon="6.085">
        <ele>549</ele>
        <time>2016-05-02T10:12:29.000Z</time>
      </trkpt>
      <trkpt lat="45.8833" lon="6.08496">
        <ele>549</ele>
        <time>2016-05-02T10:12:30.000Z</time>
      </trkpt>
      <trkpt lat="45.88329" lon="6.08493">
        <ele>548</ele>
        <time>2016-05-02T10:12:31.000Z</time>
      </trkpt>
      <trkpt lat="45.88329" lon="6.08489">
        <ele>548</ele>
        <time>2016-05-02T10:12:32.000Z</time>
      </trkpt>
      <trkpt lat="45.88328" lon="6.08485">
        <ele>548</ele>
        <time>2016-05-02T10:12:33.000Z</time>
      </trkpt>
      <trkpt lat="45.88328" lon="6.08481">
        <ele>547</ele>
        <time>2016-05-02T10:12:34.000Z</time>
      </trkpt>
      <trkpt lat="45.88327" lon="6.08477">
        <ele>547</ele>
        <time>2016-05-02T10:12:35.000Z</time>
      </trkpt>
      <trkpt lat="45.88327" lon="6.08473">
        <ele>546</ele>
        <time>2016-05-02T10:12:36.000Z</time>
      </trkpt>
      <trkpt lat="45.88327" lon="6.08469">
        <ele>546</ele>
        <time>2016-05-02T10:12:37.000Z</time>
      </trkpt>
      <trkpt lat="45.88326" lon="6.08465">
        <ele>546</ele>
        <time>2016-05-02T10:12:38.000Z</time>
      </trkpt>
      <trkpt lat="45.88326" lon="6.0846">
        <ele>545</ele>
        <time>2016-05-02T10:12:39.000Z</time>
      </trkpt>
      <trkpt lat="45.88325" lon="6.08456">
        <ele>545</ele>
        <time>2016-05-02T10:12:40.000Z</time>
      </trkpt>
      <trkpt lat="45.88325" lon="6.08452">
        <ele>545</ele>
        <time>2016-05-02T10:12:41.000Z</time>
      </trkpt>
      <trkpt lat="45.88325" lon="6.08448">
        <ele>544</ele>
        <time>2016-05-02T10:12:42.000Z</time>
      </trkpt>
      <trkpt lat="45.88324" lon="6.08444">
        <ele>544</ele>
        <time>2016-05-02T10:12:43.000Z</time>
      </trkpt>
      <trkpt lat="45.88324" lon="6.0844">
        <ele>544</ele>
        <time>2016-05-02T10:12:44.000Z</time>
      </trkpt>
      <trkpt lat="45.88323" lon="6.08436">
        <ele>543</ele>
        <time>2016-05-02T10:12:45.000Z</time>
      </trkpt>
      <trkpt lat="45.88322" lon="6.08432">
        <ele>543</ele>
        <time>2016-05-02T10:12:46.000Z</time>
      </trkpt>
      <trkpt lat="45.88321" lon="6.08428">
        <ele>543</ele>
        <time>2016-05-02T10:12:47.000Z</time>
      </trkpt>
      <trkpt lat="45.8832" lon="6.08424">
        <ele>543</ele>
        <time>2016-05-02T10:12:48.000Z</time>
      </trkpt>
      <trkpt lat="45.88319" lon="6.0842">
        <ele>542</ele>
        <time>2016-05-02T10:12:49.000Z</time>
      </trkpt>
      <trkpt lat="45.88318" lon="6.08416">
        <ele>542</ele>
        <time>2016-05-02T10:12:50.000Z</time>
      </trkpt>
      <trkpt lat="45.88317" lon="6.08413">
        <ele>542</ele>
        <time>2016-05-02T10:12:51.000Z</time>
      </trkpt>
      <trkpt lat="45.88316" lon="6.08409">
        <ele>542</ele>
        <time>2016-05-02T10:12:52.000Z</time>
      </trkpt>
      <trkpt lat="45.88315" lon="6.08405">
        <ele>542</ele>
        <time>2016-05-02T10:12:53.000Z</time>
      </trkpt>
      <trkpt lat="45.88313" lon="6.08401">
        <ele>542</ele>
        <time>2016-05-02T10:12:54.000Z</time>
      </trkpt>
      <trkpt lat="45.88311" lon="6.08397">
        <ele>542</ele>
        <time>2016-05-02T10:12:55.000Z</time>
      </trkpt>
      <trkpt lat="45.8831" lon="6.08394">
        <ele>542</ele>
        <time>2016-05-02T10:12:56.000Z</time>
      </trkpt>
      <trkpt lat="45.88308" lon="6.0839">
        <ele>542</ele>
        <time>2016-05-02T10:12:57.000Z</time>
      </trkpt>
      <trkpt lat="45.88306" lon="6.08387">
        <ele>542</ele>
        <time>2016-05-02T10:12:58.000Z</time>
      </trkpt>
      <trkpt lat="45.88305" lon="6.08384">
        <ele>541</ele>
        <time>2016-05-02T10:12:59.000Z</time>
      </trkpt>
      <trkpt lat="45.88303" lon="6.0838">
        <ele>541</ele>
        <time>2016-05-02T10:13:00.000Z</time>
      </trkpt>
      <trkpt lat="45.88301" lon="6.08377">
        <ele>541</ele>
        <time>2016-05-02T10:13:01.000Z</time>
      </trkpt>
      <trkpt lat="45.88299" lon="6.08375">
        <ele>541</ele>
        <time>2016-05-02T10:13:02.000Z</time>
      </trkpt>
      <trkpt lat="45.88297" lon="6.08373">
        <ele>541</ele>
        <time>2016-05-02T10:13:03.000Z</time>
      </trkpt>
      <trkpt lat="45.88295" lon="6.08371">
        <ele>541</ele>
        <time>2016-05-02T10:13:04.000Z</time>
      </trkpt>
      <trkpt lat="45.88293" lon="6.0837">
        <ele>541</ele>
        <time>2016-05-02T10:13:05.000Z</time>
      </trkpt>
      <trkpt lat="45.8829" lon="6.08369">
        <ele>541</ele>
        <time>2016-05-02T10:13:06.000Z</time>
      </trkpt>
      <trkpt lat="45.88287" lon="6.08368">
        <ele>541</ele>
        <time>2016-05-02T10:13:07.000Z</time>
      </trkpt>
      <trkpt lat="45.88284" lon="6.08366">
        <ele>541</ele>
        <time>2016-05-02T10:13:08.000Z</time>
      </trkpt>
      <trkpt lat="45.88282" lon="6.08364">
        <ele>541</ele>
        <time>2016-05-02T10:13:09.000Z</time>
      </trkpt>
      <trkpt lat="45.8828" lon="6.08361">
        <ele>542</ele>
        <time>2016-05-02T10:13:10.000Z</time>
      </trkpt>
      <trkpt lat="45.88277" lon="6.08359">
        <ele>542</ele>
        <time>2016-05-02T10:13:11.000Z</time>
      </trkpt>
      <trkpt lat="45.88275" lon="6.08356">
        <ele>542</ele>
        <time>2016-05-02T10:13:12.000Z</time>
      </trkpt>
      <trkpt lat="45.88274" lon="6.08354">
        <ele>542</ele>
        <time>2016-05-02T10:13:13.000Z</time>
      </trkpt>
      <trkpt lat="45.88273" lon="6.0835">
        <ele>542</ele>
        <time>2016-05-02T10:13:14.000Z</time>
      </trkpt>
      <trkpt lat="45.88272" lon="6.08346">
        <ele>542</ele>
        <time>2016-05-02T10:13:15.000Z</time>
      </trkpt>
      <trkpt lat="45.88272" lon="6.08342">
        <ele>542</ele>
        <time>2016-05-02T10:13:16.000Z</time>
      </trkpt>
      <trkpt lat="45.88271" lon="6.08339">
        <ele>542</ele>
        <time>2016-05-02T10:13:17.000Z</time>
      </trkpt>
      <trkpt lat="45.8827" lon="6.08337">
        <ele>542</ele>
        <time>2016-05-02T10:13:18.000Z</time>
      </trkpt>
      <trkpt lat="45.88269" lon="6.08336">
        <ele>542</ele>
        <time>2016-05-02T10:13:19.000Z</time>
      </trkpt>
      <trkpt lat="45.88268" lon="6.08337">
        <ele>542</ele>
        <time>2016-05-02T10:13:20.000Z</time>
      </trkpt>
      <trkpt lat="45.88266" lon="6.08338">
        <ele>542</ele>
        <time>2016-05-02T10:13:21.000Z</time>
      </trkpt>
      <trkpt lat="45.88264" lon="6.0834">
        <ele>542</ele>
        <time>2016-05-02T10:13:22.000Z</time>
      </trkpt>
      <trkpt lat="45.88262" lon="6.08341">
        <ele>542</ele>
        <time>2016-05-02T10:13:23.000Z</time>
      </trkpt>
      <trkpt lat="45.88259" lon="6.08343">
        <ele>542</ele>
        <time>2016-05-02T10:13:24.000Z</time>
      </trkpt>
      <trkpt lat="45.88257" lon="6.08345">
        <ele>543</ele>
        <time>2016-05-02T10:13:25.000Z</time>
      </trkpt>
      <trkpt lat="45.88255" lon="6.08346">
        <ele>543</ele>
        <time>2016-05-02T10:13:26.000Z</time>
      </trkpt>
      <trkpt lat="45.88252" lon="6.08348">
        <ele>543</ele>
        <time>2016-05-02T10:13:27.000Z</time>
      </trkpt>
      <trkpt lat="45.8825" lon="6.0835">
        <ele>543</ele>
        <time>2016-05-02T10:13:28.000Z</time>
      </trkpt>
      <trkpt lat="45.88248" lon="6.08352">
        <ele>544</ele>
        <time>2016-05-02T10:13:29.000Z</time>
      </trkpt>
      <trkpt lat="45.88246" lon="6.08354">
        <ele>544</ele>
        <time>2016-05-02T10:13:30.000Z</time>
      </trkpt>
      <trkpt lat="45.88243" lon="6.08356">
        <ele>544</ele>
        <time>2016-05-02T10:13:31.000Z</time>
      </trkpt>
      <trkpt lat="45.88241" lon="6.08358">
        <ele>545</ele>
        <time>2016-05-02T10:13:32.000Z</time>
      </trkpt>
      <trkpt lat="45.88239" lon="6.0836">
        <ele>545</ele>
        <time>2016-05-02T10:13:33.000Z</time>
      </trkpt>
      <trkpt lat="45.88237" lon="6.08362">
        <ele>545</ele>
        <time>2016-05-02T10:13:34.000Z</time>
      </trkpt>
      <trkpt lat="45.88235" lon="6.08364">
        <ele>545</ele>
        <time>2016-05-02T10:13:35.000Z</time>
      </trkpt>
      <trkpt lat="45.88233" lon="6.08366">
        <ele>545</ele>
        <time>2016-05-02T10:13:36.000Z</time>
      </trkpt>
      <trkpt lat="45.88231" lon="6.08368">
        <ele>546</ele>
        <time>2016-05-02T10:13:37.000Z</time>
      </trkpt>
      <trkpt lat="45.88229" lon="6.0837">
        <ele>546</ele>
        <time>2016-05-02T10:13:38.000Z</time>
      </trkpt>
      <trkpt lat="45.88227" lon="6.08372">
        <ele>546</ele>
        <time>2016-05-02T10:13:39.000Z</time>
      </trkpt>
      <trkpt lat="45.88225" lon="6.08374">
        <ele>546</ele>
        <time>2016-05-02T10:13:40.000Z</time>
      </trkpt>
      <trkpt lat="45.88223" lon="6.08376">
        <ele>546</ele>
        <time>2016-05-02T10:13:41.000Z</time>
      </trkpt>
      <trkpt lat="45.88221" lon="6.08378">
        <ele>546</ele>
        <time>2016-05-02T10:13:42.000Z</time>
      </trkpt>
      <trkpt lat="45.88219" lon="6.0838">
        <ele>546</ele>
        <time>2016-05-02T10:13:43.000Z</time>
      </trkpt>
      <trkpt lat="45.88217" lon="6.08382">
        <ele>546</ele>
        <time>2016-05-02T10:13:44.000Z</time>
      </trkpt>
      <trkpt lat="45.88215" lon="6.08383">
        <ele>546</ele>
        <time>2016-05-02T10:13:45.000Z</time>
      </trkpt>
      <trkpt lat="45.88213" lon="6.08384">
        <ele>547</ele>
        <time>2016-05-02T10:13:46.000Z</time>
      </trkpt>
      <trkpt lat="45.88211" lon="6.08383">
        <ele>547</ele>
        <time>2016-05-02T10:13:47.000Z</time>
      </trkpt>
      <trkpt lat="45.88208" lon="6.08381">
        <ele>547</ele>
        <time>2016-05-02T10:13:48.000Z</time>
      </trkpt>
      <trkpt lat="45.88205" lon="6.08379">
        <ele>546</ele>
        <time>2016-05-02T10:13:49.000Z</time>
      </trkpt>
      <trkpt lat="45.88203" lon="6.08377">
        <ele>546</ele>
        <time>2016-05-02T10:13:50.000Z</time>
      </trkpt>
      <trkpt lat="45.882" lon="6.08374">
        <ele>546</ele>
        <time>2016-05-02T10:13:51.000Z</time>
      </trkpt>
      <trkpt lat="45.88198" lon="6.08372">
        <ele>546</ele>
        <time>2016-05-02T10:13:52.000Z</time>
      </trkpt>
      <trkpt lat="45.88195" lon="6.0837">
        <ele>546</ele>
        <time>2016-05-02T10:13:53.000Z</time>
      </trkpt>
      <trkpt lat="45.88193" lon="6.08368">
        <ele>546</ele>
        <time>2016-05-02T10:13:54.000Z</time>
      </trkpt>
      <trkpt lat="45.8819" lon="6.08366">
        <ele>546</ele>
        <time>2016-05-02T10:13:55.000Z</time>
      </trkpt>
      <trkpt lat="45.88187" lon="6.08364">
        <ele>546</ele>
        <time>2016-05-02T10:13:56.000Z</time>
      </trkpt>
      <trkpt lat="45.88185" lon="6.08362">
        <ele>546</ele>
        <time>2016-05-02T10:13:57.000Z</time>
      </trkpt>
      <trkpt lat="45.88182" lon="6.0836">
        <ele>545</ele>
        <time>2016-05-02T10:13:58.000Z</time>
      </trkpt>
      <trkpt lat="45.8818" lon="6.08358">
        <ele>545</ele>
        <time>2016-05-02T10:13:59.000Z</time>
      </trkpt>
      <trkpt lat="45.88177" lon="6.08356">
        <ele>545</ele>
        <time>2016-05-02T10:14:00.000Z</time>
      </trkpt>
      <trkpt lat="45.88175" lon="6.08354">
        <ele>545</ele>
        <time>2016-05-02T10:14:01.000Z</time>
      </trkpt>
      <trkpt lat="45.88173" lon="6.08352">
        <ele>545</ele>
        <time>2016-05-02T10:14:02.000Z</time>
      </trkpt>
      <trkpt lat="45.88171" lon="6.0835">
        <ele>545</ele>
        <time>2016-05-02T10:14:03.000Z</time>
      </trkpt>
      <trkpt lat="45.88168" lon="6.08348">
        <ele>545</ele>
        <time>2016-05-02T10:14:04.000Z</time>
      </trkpt>
      <trkpt lat="45.88166" lon="6.08346">
        <ele>545</ele>
        <time>2016-05-02T10:14:05.000Z</time>
      </trkpt>
      <trkpt lat="45.88164" lon="6.08344">
        <ele>545</ele>
        <time>2016-05-02T10:14:06.000Z</time>
      </trkpt>
      <trkpt lat="45.88161" lon="6.08342">
        <ele>545</ele>
        <time>2016-05-02T10:14:07.000Z</time>
      </trkpt>
      <trkpt lat="45.88159" lon="6.08339">
        <ele>545</ele>
        <time>2016-05-02T10:14:08.000Z</time>
      </trkpt>
      <trkpt lat="45.88157" lon="6.08337">
        <ele>545</ele>
        <time>2016-05-02T10:14:09.000Z</time>
      </trkpt>
      <trkpt lat="45.88155" lon="6.08335">
        <ele>544</ele>
        <time>2016-05-02T10:14:10.000Z</time>
      </trkpt>
      <trkpt lat="45.88152" lon="6.08332">
        <ele>544</ele>
        <time>2016-05-02T10:14:11.000Z</time>
      </trkpt>
      <trkpt lat="45.8815" lon="6.0833">
        <ele>544</ele>
        <time>2016-05-02T10:14:12.000Z</time>
      </trkpt>
      <trkpt lat="45.88148" lon="6.08328">
        <ele>544</ele>
        <time>2016-05-02T10:14:13.000Z</time>
      </trkpt>
      <trkpt lat="45.88145" lon="6.08326">
        <ele>544</ele>
        <time>2016-05-02T10:14:14.000Z</time>
      </trkpt>
      <trkpt lat="45.88143" lon="6.08324">
        <ele>544</ele>
        <time>2016-05-02T10:14:15.000Z</time>
      </trkpt>
      <trkpt lat="45.88141" lon="6.08321">
        <ele>544</ele>
        <time>2016-05-02T10:14:16.000Z</time>
      </trkpt>
      <trkpt lat="45.88138" lon="6.08319">
        <ele>543</ele>
        <time>2016-05-02T10:14:17.000Z</time>
      </trkpt>
      <trkpt lat="45.88136" lon="6.08317">
        <ele>543</ele>
        <time>2016-05-02T10:14:18.000Z</time>
      </trkpt>
      <trkpt lat="45.88133" lon="6.08315">
        <ele>543</ele>
        <time>2016-05-02T10:14:19.000Z</time>
      </trkpt>
      <trkpt lat="45.88131" lon="6.08312">
        <ele>543</ele>
        <time>2016-05-02T10:14:20.000Z</time>
      </trkpt>
      <trkpt lat="45.88128" lon="6.0831">
        <ele>543</ele>
        <time>2016-05-02T10:14:21.000Z</time>
      </trkpt>
      <trkpt lat="45.88126" lon="6.08308">
        <ele>543</ele>
        <time>2016-05-02T10:14:22.000Z</time>
      </trkpt>
      <trkpt lat="45.88123" lon="6.08305">
        <ele>543</ele>
        <time>2016-05-02T10:14:23.000Z</time>
      </trkpt>
      <trkpt lat="45.88121" lon="6.08304">
        <ele>543</ele>
        <time>2016-05-02T10:14:24.000Z</time>
      </trkpt>
      <trkpt lat="45.88118" lon="6.08302">
        <ele>543</ele>
        <time>2016-05-02T10:14:25.000Z</time>
      </trkpt>
      <trkpt lat="45.88116" lon="6.083">
        <ele>543</ele>
        <time>2016-05-02T10:14:26.000Z</time>
      </trkpt>
      <trkpt lat="45.88113" lon="6.08299">
        <ele>543</ele>
        <time>2016-05-02T10:14:27.000Z</time>
      </trkpt>
      <trkpt lat="45.8811" lon="6.08297">
        <ele>543</ele>
        <time>2016-05-02T10:14:28.000Z</time>
      </trkpt>
      <trkpt lat="45.88108" lon="6.08295">
        <ele>543</ele>
        <time>2016-05-02T10:14:29.000Z</time>
      </trkpt>
      <trkpt lat="45.88105" lon="6.08294">
        <ele>543</ele>
        <time>2016-05-02T10:14:30.000Z</time>
      </trkpt>
      <trkpt lat="45.88103" lon="6.08293">
        <ele>543</ele>
        <time>2016-05-02T10:14:31.000Z</time>
      </trkpt>
      <trkpt lat="45.881" lon="6.08292">
        <ele>543</ele>
        <time>2016-05-02T10:14:32.000Z</time>
      </trkpt>
      <trkpt lat="45.88097" lon="6.08291">
        <ele>543</ele>
        <time>2016-05-02T10:14:33.000Z</time>
      </trkpt>
      <trkpt lat="45.88094" lon="6.08291">
        <ele>544</ele>
        <time>2016-05-02T10:14:34.000Z</time>
      </trkpt>
      <trkpt lat="45.88092" lon="6.0829">
        <ele>544</ele>
        <time>2016-05-02T10:14:35.000Z</time>
      </trkpt>
      <trkpt lat="45.88089" lon="6.0829">
        <ele>544</ele>
        <time>2016-05-02T10:14:36.000Z</time>
      </trkpt>
      <trkpt lat="45.88086" lon="6.08289">
        <ele>544</ele>
        <time>2016-05-02T10:14:37.000Z</time>
      </trkpt>
      <trkpt lat="45.88084" lon="6.08289">
        <ele>544</ele>
        <time>2016-05-02T10:14:38.000Z</time>
      </trkpt>
      <trkpt lat="45.88081" lon="6.08289">
        <ele>545</ele>
        <time>2016-05-02T10:14:39.000Z</time>
      </trkpt>
      <trkpt lat="45.88078" lon="6.08289">
        <ele>545</ele>
        <time>2016-05-02T10:14:40.000Z</time>
      </trkpt>
      <trkpt lat="45.88075" lon="6.08289">
        <ele>545</ele>
        <time>2016-05-02T10:14:41.000Z</time>
      </trkpt>
      <trkpt lat="45.88072" lon="6.08289">
        <ele>545</ele>
        <time>2016-05-02T10:14:42.000Z</time>
      </trkpt>
      <trkpt lat="45.8807" lon="6.08289">
        <ele>545</ele>
        <time>2016-05-02T10:14:43.000Z</time>
      </trkpt>
      <trkpt lat="45.88067" lon="6.08289">
        <ele>545</ele>
        <time>2016-05-02T10:14:44.000Z</time>
      </trkpt>
      <trkpt lat="45.88064" lon="6.08289">
        <ele>545</ele>
        <time>2016-05-02T10:14:45.000Z</time>
      </trkpt>
      <trkpt lat="45.88062" lon="6.08289">
        <ele>546</ele>
        <time>2016-05-02T10:14:46.000Z</time>
      </trkpt>
      <trkpt lat="45.88059" lon="6.0829">
        <ele>546</ele>
        <time>2016-05-02T10:14:47.000Z</time>
      </trkpt>
      <trkpt lat="45.88056" lon="6.0829">
        <ele>546</ele>
        <time>2016-05-02T10:14:48.000Z</time>
      </trkpt>
      <trkpt lat="45.88054" lon="6.08291">
        <ele>546</ele>
        <time>2016-05-02T10:14:49.000Z</time>
      </trkpt>
      <trkpt lat="45.88051" lon="6.08292">
        <ele>546</ele>
        <time>2016-05-02T10:14:50.000Z</time>
      </trkpt>
      <trkpt lat="45.88049" lon="6.08292">
        <ele>546</ele>
        <time>2016-05-02T10:14:51.000Z</time>
      </trkpt>
      <trkpt lat="45.88046" lon="6.08292">
        <ele>546</ele>
        <time>2016-05-02T10:14:52.000Z</time>
      </trkpt>
      <trkpt lat="45.88044" lon="6.08292">
        <ele>547</ele>
        <time>2016-05-02T10:14:53.000Z</time>
      </trkpt>
      <trkpt lat="45.88042" lon="6.08292">
        <ele>547</ele>
        <time>2016-05-02T10:14:54.000Z</time>
      </trkpt>
      <trkpt lat="45.8804" lon="6.08293">
        <ele>547</ele>
        <time>2016-05-02T10:14:55.000Z</time>
      </trkpt>
      <trkpt lat="45.88037" lon="6.08293">
        <ele>547</ele>
        <time>2016-05-02T10:14:56.000Z</time>
      </trkpt>
      <trkpt lat="45.88035" lon="6.08294">
        <ele>547</ele>
        <time>2016-05-02T10:14:57.000Z</time>
      </trkpt>
      <trkpt lat="45.88033" lon="6.08294">
        <ele>547</ele>
        <time>2016-05-02T10:14:58.000Z</time>
      </trkpt>
      <trkpt lat="45.8803" lon="6.08295">
        <ele>547</ele>
        <time>2016-05-02T10:14:59.000Z</time>
      </trkpt>
      <trkpt lat="45.88028" lon="6.08295">
        <ele>547</ele>
        <time>2016-05-02T10:15:00.000Z</time>
      </trkpt>
      <trkpt lat="45.88026" lon="6.08295">
        <ele>547</ele>
        <time>2016-05-02T10:15:01.000Z</time>
      </trkpt>
      <trkpt lat="45.88023" lon="6.08295">
        <ele>547</ele>
        <time>2016-05-02T10:15:02.000Z</time>
      </trkpt>
      <trkpt lat="45.88021" lon="6.08296">
        <ele>547</ele>
        <time>2016-05-02T10:15:03.000Z</time>
      </trkpt>
      <trkpt lat="45.88018" lon="6.08296">
        <ele>547</ele>
        <time>2016-05-02T10:15:04.000Z</time>
      </trkpt>
      <trkpt lat="45.88015" lon="6.08296">
        <ele>547</ele>
        <time>2016-05-02T10:15:05.000Z</time>
      </trkpt>
      <trkpt lat="45.88012" lon="6.08297">
        <ele>546</ele>
        <time>2016-05-02T10:15:06.000Z</time>
      </trkpt>
      <trkpt lat="45.8801" lon="6.08298">
        <ele>546</ele>
        <time>2016-05-02T10:15:07.000Z</time>
      </trkpt>
      <trkpt lat="45.88007" lon="6.08299">
        <ele>546</ele>
        <time>2016-05-02T10:15:08.000Z</time>
      </trkpt>
      <trkpt lat="45.88004" lon="6.083">
        <ele>546</ele>
        <time>2016-05-02T10:15:09.000Z</time>
      </trkpt>
      <trkpt lat="45.88001" lon="6.08301">
        <ele>546</ele>
        <time>2016-05-02T10:15:10.000Z</time>
      </trkpt>
      <trkpt lat="45.87998" lon="6.08303">
        <ele>546</ele>
        <time>2016-05-02T10:15:11.000Z</time>
      </trkpt>
      <trkpt lat="45.87995" lon="6.08304">
        <ele>546</ele>
        <time>2016-05-02T10:15:12.000Z</time>
      </trkpt>
      <trkpt lat="45.87993" lon="6.08305">
        <ele>546</ele>
        <time>2016-05-02T10:15:13.000Z</time>
      </trkpt>
      <trkpt lat="45.87991" lon="6.08306">
        <ele>546</ele>
        <time>2016-05-02T10:15:14.000Z</time>
      </trkpt>
      <trkpt lat="45.87988" lon="6.08308">
        <ele>546</ele>
        <time>2016-05-02T10:15:15.000Z</time>
      </trkpt>
      <trkpt lat="45.87986" lon="6.08309">
        <ele>546</ele>
        <time>2016-05-02T10:15:16.000Z</time>
      </trkpt>
      <trkpt lat="45.87984" lon="6.0831">
        <ele>546</ele>
        <time>2016-05-02T10:15:17.000Z</time>
      </trkpt>
      <trkpt lat="45.87981" lon="6.08311">
        <ele>546</ele>
        <time>2016-05-02T10:15:18.000Z</time>
      </trkpt>
      <trkpt lat="45.87979" lon="6.08312">
        <ele>546</ele>
        <time>2016-05-02T10:15:19.000Z</time>
      </trkpt>
      <trkpt lat="45.87976" lon="6.08313">
        <ele>546</ele>
        <time>2016-05-02T10:15:20.000Z</time>
      </trkpt>
      <trkpt lat="45.87974" lon="6.08314">
        <ele>546</ele>
        <time>2016-05-02T10:15:21.000Z</time>
      </trkpt>
      <trkpt lat="45.87971" lon="6.08314">
        <ele>546</ele>
        <time>2016-05-02T10:15:22.000Z</time>
      </trkpt>
      <trkpt lat="45.87969" lon="6.08314">
        <ele>546</ele>
        <time>2016-05-02T10:15:23.000Z</time>
      </trkpt>
      <trkpt lat="45.87967" lon="6.08315">
        <ele>546</ele>
        <time>2016-05-02T10:15:24.000Z</time>
      </trkpt>
      <trkpt lat="45.87964" lon="6.08316">
        <ele>546</ele>
        <time>2016-05-02T10:15:25.000Z</time>
      </trkpt>
      <trkpt lat="45.87962" lon="6.08317">
        <ele>546</ele>
        <time>2016-05-02T10:15:26.000Z</time>
      </trkpt>
      <trkpt lat="45.8796" lon="6.08317">
        <ele>547</ele>
        <time>2016-05-02T10:15:27.000Z</time>
      </trkpt>
      <trkpt lat="45.87957" lon="6.08317">
        <ele>547</ele>
        <time>2016-05-02T10:15:28.000Z</time>
      </trkpt>
      <trkpt lat="45.87955" lon="6.08318">
        <ele>547</ele>
        <time>2016-05-02T10:15:29.000Z</time>
      </trkpt>
      <trkpt lat="45.87953" lon="6.08318">
        <ele>547</ele>
        <time>2016-05-02T10:15:30.000Z</time>
      </trkpt>
      <trkpt lat="45.8795" lon="6.08319">
        <ele>547</ele>
        <time>2016-05-02T10:15:31.000Z</time>
      </trkpt>
      <trkpt lat="45.87948" lon="6.08319">
        <ele>547</ele>
        <time>2016-05-02T10:15:32.000Z</time>
      </trkpt>
      <trkpt lat="45.87946" lon="6.08319">
        <ele>547</ele>
        <time>2016-05-02T10:15:33.000Z</time>
      </trkpt>
      <trkpt lat="45.87944" lon="6.08319">
        <ele>548</ele>
        <time>2016-05-02T10:15:34.000Z</time>
      </trkpt>
      <trkpt lat="45.87941" lon="6.08319">
        <ele>548</ele>
        <time>2016-05-02T10:15:35.000Z</time>
      </trkpt>
      <trkpt lat="45.87939" lon="6.08319">
        <ele>548</ele>
        <time>2016-05-02T10:15:36.000Z</time>
      </trkpt>
      <trkpt lat="45.87937" lon="6.08319">
        <ele>548</ele>
        <time>2016-05-02T10:15:37.000Z</time>
      </trkpt>
      <trkpt lat="45.87934" lon="6.0832">
        <ele>548</ele>
        <time>2016-05-02T10:15:38.000Z</time>
      </trkpt>
      <trkpt lat="45.87933" lon="6.0832">
        <ele>548</ele>
        <time>2016-05-02T10:15:39.000Z</time>
      </trkpt>
      <trkpt lat="45.87931" lon="6.08321">
        <ele>549</ele>
        <time>2016-05-02T10:15:40.000Z</time>
      </trkpt>
      <trkpt lat="45.87928" lon="6.08322">
        <ele>549</ele>
        <time>2016-05-02T10:15:41.000Z</time>
      </trkpt>
      <trkpt lat="45.87926" lon="6.08322">
        <ele>549</ele>
        <time>2016-05-02T10:15:42.000Z</time>
      </trkpt>
      <trkpt lat="45.87923" lon="6.08323">
        <ele>549</ele>
        <time>2016-05-02T10:15:43.000Z</time>
      </trkpt>
      <trkpt lat="45.87921" lon="6.08324">
        <ele>549</ele>
        <time>2016-05-02T10:15:44.000Z</time>
      </trkpt>
      <trkpt lat="45.87919" lon="6.08325">
        <ele>549</ele>
        <time>2016-05-02T10:15:45.000Z</time>
      </trkpt>
      <trkpt lat="45.87916" lon="6.08326">
        <ele>549</ele>
        <time>2016-05-02T10:15:46.000Z</time>
      </trkpt>
      <trkpt lat="45.87913" lon="6.08328">
        <ele>549</ele>
        <time>2016-05-02T10:15:47.000Z</time>
      </trkpt>
      <trkpt lat="45.87911" lon="6.08329">
        <ele>549</ele>
        <time>2016-05-02T10:15:48.000Z</time>
      </trkpt>
      <trkpt lat="45.87908" lon="6.08331">
        <ele>549</ele>
        <time>2016-05-02T10:15:49.000Z</time>
      </trkpt>
      <trkpt lat="45.87906" lon="6.08333">
        <ele>549</ele>
        <time>2016-05-02T10:15:50.000Z</time>
      </trkpt>
      <trkpt lat="45.87903" lon="6.08334">
        <ele>549</ele>
        <time>2016-05-02T10:15:51.000Z</time>
      </trkpt>
      <trkpt lat="45.87901" lon="6.08335">
        <ele>550</ele>
        <time>2016-05-02T10:15:52.000Z</time>
      </trkpt>
      <trkpt lat="45.87898" lon="6.08336">
        <ele>550</ele>
        <time>2016-05-02T10:15:53.000Z</time>
      </trkpt>
      <trkpt lat="45.87896" lon="6.08337">
        <ele>550</ele>
        <time>2016-05-02T10:15:54.000Z</time>
      </trkpt>
      <trkpt lat="45.87893" lon="6.08338">
        <ele>550</ele>
        <time>2016-05-02T10:15:55.000Z</time>
      </trkpt>
      <trkpt lat="45.87891" lon="6.08339">
        <ele>550</ele>
        <time>2016-05-02T10:15:56.000Z</time>
      </trkpt>
      <trkpt lat="45.87888" lon="6.08339">
        <ele>550</ele>
        <time>2016-05-02T10:15:57.000Z</time>
      </trkpt>
      <trkpt lat="45.87886" lon="6.0834">
        <ele>551</ele>
        <time>2016-05-02T10:15:58.000Z</time>
      </trkpt>
      <trkpt lat="45.87883" lon="6.0834">
        <ele>551</ele>
        <time>2016-05-02T10:15:59.000Z</time>
      </trkpt>
      <trkpt lat="45.87881" lon="6.0834">
        <ele>551</ele>
        <time>2016-05-02T10:16:00.000Z</time>
      </trkpt>
      <trkpt lat="45.87879" lon="6.0834">
        <ele>551</ele>
        <time>2016-05-02T10:16:01.000Z</time>
      </trkpt>
      <trkpt lat="45.87876" lon="6.0834">
        <ele>552</ele>
        <time>2016-05-02T10:16:02.000Z</time>
      </trkpt>
      <trkpt lat="45.87874" lon="6.08341">
        <ele>552</ele>
        <time>2016-05-02T10:16:03.000Z</time>
      </trkpt>
      <trkpt lat="45.87872" lon="6.08341">
        <ele>552</ele>
        <time>2016-05-02T10:16:04.000Z</time>
      </trkpt>
      <trkpt lat="45.87869" lon="6.08342">
        <ele>552</ele>
        <time>2016-05-02T10:16:05.000Z</time>
      </trkpt>
      <trkpt lat="45.87867" lon="6.08342">
        <ele>552</ele>
        <time>2016-05-02T10:16:06.000Z</time>
      </trkpt>
      <trkpt lat="45.87865" lon="6.08343">
        <ele>553</ele>
        <time>2016-05-02T10:16:07.000Z</time>
      </trkpt>
      <trkpt lat="45.87862" lon="6.08343">
        <ele>553</ele>
        <time>2016-05-02T10:16:08.000Z</time>
      </trkpt>
      <trkpt lat="45.8786" lon="6.08343">
        <ele>553</ele>
        <time>2016-05-02T10:16:09.000Z</time>
      </trkpt>
      <trkpt lat="45.87857" lon="6.08343">
        <ele>553</ele>
        <time>2016-05-02T10:16:10.000Z</time>
      </trkpt>
      <trkpt lat="45.87855" lon="6.08343">
        <ele>553</ele>
        <time>2016-05-02T10:16:11.000Z</time>
      </trkpt>
      <trkpt lat="45.87853" lon="6.08343">
        <ele>553</ele>
        <time>2016-05-02T10:16:12.000Z</time>
      </trkpt>
      <trkpt lat="45.8785" lon="6.08343">
        <ele>554</ele>
        <time>2016-05-02T10:16:13.000Z</time>
      </trkpt>
      <trkpt lat="45.87848" lon="6.08343">
        <ele>554</ele>
        <time>2016-05-02T10:16:14.000Z</time>
      </trkpt>
      <trkpt lat="45.87846" lon="6.08343">
        <ele>554</ele>
        <time>2016-05-02T10:16:15.000Z</time>
      </trkpt>
      <trkpt lat="45.87844" lon="6.08343">
        <ele>554</ele>
        <time>2016-05-02T10:16:16.000Z</time>
      </trkpt>
      <trkpt lat="45.87842" lon="6.08343">
        <ele>554</ele>
        <time>2016-05-02T10:16:17.000Z</time>
      </trkpt>
      <trkpt lat="45.87839" lon="6.08343">
        <ele>554</ele>
        <time>2016-05-02T10:16:18.000Z</time>
      </trkpt>
      <trkpt lat="45.87837" lon="6.08344">
        <ele>554</ele>
        <time>2016-05-02T10:16:19.000Z</time>
      </trkpt>
      <trkpt lat="45.87835" lon="6.08344">
        <ele>554</ele>
        <time>2016-05-02T10:16:20.000Z</time>
      </trkpt>
      <trkpt lat="45.87833" lon="6.08344">
        <ele>554</ele>
        <time>2016-05-02T10:16:21.000Z</time>
      </trkpt>
      <trkpt lat="45.8783" lon="6.08344">
        <ele>554</ele>
        <time>2016-05-02T10:16:22.000Z</time>
      </trkpt>
      <trkpt lat="45.87828" lon="6.08345">
        <ele>554</ele>
        <time>2016-05-02T10:16:23.000Z</time>
      </trkpt>
      <trkpt lat="45.87826" lon="6.08345">
        <ele>554</ele>
        <time>2016-05-02T10:16:24.000Z</time>
      </trkpt>
      <trkpt lat="45.87823" lon="6.08346">
        <ele>554</ele>
        <time>2016-05-02T10:16:25.000Z</time>
      </trkpt>
      <trkpt lat="45.87821" lon="6.08346">
        <ele>555</ele>
        <time>2016-05-02T10:16:26.000Z</time>
      </trkpt>
      <trkpt lat="45.87819" lon="6.08347">
        <ele>555</ele>
        <time>2016-05-02T10:16:27.000Z</time>
      </trkpt>
      <trkpt lat="45.87816" lon="6.08347">
        <ele>555</ele>
        <time>2016-05-02T10:16:28.000Z</time>
      </trkpt>
      <trkpt lat="45.87814" lon="6.08348">
        <ele>556</ele>
        <time>2016-05-02T10:16:29.000Z</time>
      </trkpt>
      <trkpt lat="45.87812" lon="6.08349">
        <ele>556</ele>
        <time>2016-05-02T10:16:30.000Z</time>
      </trkpt>
      <trkpt lat="45.8781" lon="6.0835">
        <ele>556</ele>
        <time>2016-05-02T10:16:31.000Z</time>
      </trkpt>
      <trkpt lat="45.87808" lon="6.08351">
        <ele>557</ele>
        <time>2016-05-02T10:16:32.000Z</time>
      </trkpt>
      <trkpt lat="45.87806" lon="6.08351">
        <ele>557</ele>
        <time>2016-05-02T10:16:33.000Z</time>
      </trkpt>
      <trkpt lat="45.87804" lon="6.08352">
        <ele>557</ele>
        <time>2016-05-02T10:16:34.000Z</time>
      </trkpt>
      <trkpt lat="45.87802" lon="6.08352">
        <ele>558</ele>
        <time>2016-05-02T10:16:35.000Z</time>
      </trkpt>
      <trkpt lat="45.878" lon="6.08353">
        <ele>558</ele>
        <time>2016-05-02T10:16:36.000Z</time>
      </trkpt>
      <trkpt lat="45.87798" lon="6.08354">
        <ele>558</ele>
        <time>2016-05-02T10:16:37.000Z</time>
      </trkpt>
      <trkpt lat="45.87796" lon="6.08355">
        <ele>559</ele>
        <time>2016-05-02T10:16:38.000Z</time>
      </trkpt>
      <trkpt lat="45.87794" lon="6.08356">
        <ele>559</ele>
        <time>2016-05-02T10:16:39.000Z</time>
      </trkpt>
      <trkpt lat="45.87792" lon="6.08357">
        <ele>560</ele>
        <time>2016-05-02T10:16:40.000Z</time>
      </trkpt>
      <trkpt lat="45.8779" lon="6.08358">
        <ele>560</ele>
        <time>2016-05-02T10:16:41.000Z</time>
      </trkpt>
      <trkpt lat="45.87788" lon="6.08358">
        <ele>561</ele>
        <time>2016-05-02T10:16:42.000Z</time>
      </trkpt>
      <trkpt lat="45.87786" lon="6.08358">
        <ele>561</ele>
        <time>2016-05-02T10:16:43.000Z</time>
      </trkpt>
      <trkpt lat="45.87783" lon="6.08357">
        <ele>561</ele>
        <time>2016-05-02T10:16:44.000Z</time>
      </trkpt>
      <trkpt lat="45.87781" lon="6.08356">
        <ele>561</ele>
        <time>2016-05-02T10:16:45.000Z</time>
      </trkpt>
      <trkpt lat="45.87779" lon="6.08355">
        <ele>562</ele>
        <time>2016-05-02T10:16:46.000Z</time>
      </trkpt>
      <trkpt lat="45.87776" lon="6.08353">
        <ele>562</ele>
        <time>2016-05-02T10:16:47.000Z</time>
      </trkpt>
      <trkpt lat="45.87774" lon="6.08351">
        <ele>562</ele>
        <time>2016-05-02T10:16:48.000Z</time>
      </trkpt>
      <trkpt lat="45.87772" lon="6.0835">
        <ele>562</ele>
        <time>2016-05-02T10:16:49.000Z</time>
      </trkpt>
      <trkpt lat="45.8777" lon="6.08349">
        <ele>562</ele>
        <time>2016-05-02T10:16:50.000Z</time>
      </trkpt>
      <trkpt lat="45.87769" lon="6.08348">
        <ele>562</ele>
        <time>2016-05-02T10:16:51.000Z</time>
      </trkpt>
      <trkpt lat="45.87768" lon="6.08348">
        <ele>562</ele>
        <time>2016-05-02T10:16:52.000Z</time>
      </trkpt>
      <trkpt lat="45.87768" lon="6.08348">
        <ele>562</ele>
        <time>2016-05-02T10:16:53.000Z</time>
      </trkpt>
      <trkpt lat="45.87768" lon="6.08348">
        <ele>562</ele>
        <time>2016-05-02T10:16:54.000Z</time>
      </trkpt>
      <trkpt lat="45.87768" lon="6.08348">
        <ele>563</ele>
        <time>2016-05-02T10:16:55.000Z</time>
      </trkpt>
      <trkpt lat="45.87768" lon="6.08348">
        <ele>563</ele>
        <time>2016-05-02T10:16:56.000Z</time>
      </trkpt>
      <trkpt lat="45.87767" lon="6.08348">
        <ele>563</ele>
        <time>2016-05-02T10:16:57.000Z</time>
      </trkpt>
      <trkpt lat="45.87767" lon="6.08347">
        <ele>563</ele>
        <time>2016-05-02T10:16:58.000Z</time>
      </trkpt>
      <trkpt lat="45.87766" lon="6.08346">
        <ele>563</ele>
        <time>2016-05-02T10:16:59.000Z</time>
      </trkpt>
      <trkpt lat="45.87765" lon="6.08345">
        <ele>563</ele>
        <time>2016-05-02T10:17:00.000Z</time>
      </trkpt>
      <trkpt lat="45.87764" lon="6.08344">
        <ele>563</ele>
        <time>2016-05-02T10:17:01.000Z</time>
      </trkpt>
      <trkpt lat="45.87762" lon="6.08342">
        <ele>563</ele>
        <time>2016-05-02T10:17:02.000Z</time>
      </trkpt>
      <trkpt lat="45.87761" lon="6.08341">
        <ele>563</ele>
        <time>2016-05-02T10:17:03.000Z</time>
      </trkpt>
      <trkpt lat="45.87759" lon="6.0834">
        <ele>563</ele>
        <time>2016-05-02T10:17:04.000Z</time>
      </trkpt>
      <trkpt lat="45.87757" lon="6.08338">
        <ele>563</ele>
        <time>2016-05-02T10:17:05.000Z</time>
      </trkpt>
      <trkpt lat="45.87754" lon="6.08336">
        <ele>563</ele>
        <time>2016-05-02T10:17:06.000Z</time>
      </trkpt>
      <trkpt lat="45.87752" lon="6.08333">
        <ele>563</ele>
        <time>2016-05-02T10:17:07.000Z</time>
      </trkpt>
      <trkpt lat="45.8775" lon="6.08331">
        <ele>563</ele>
        <time>2016-05-02T10:17:08.000Z</time>
      </trkpt>
      <trkpt lat="45.87748" lon="6.08328">
        <ele>562</ele>
        <time>2016-05-02T10:17:09.000Z</time>
      </trkpt>
      <trkpt lat="45.87745" lon="6.08325">
        <ele>562</ele>
        <time>2016-05-02T10:17:10.000Z</time>
      </trkpt>
      <trkpt lat="45.87743" lon="6.08322">
        <ele>562</ele>
        <time>2016-05-02T10:17:11.000Z</time>
      </trkpt>
      <trkpt lat="45.87741" lon="6.0832">
        <ele>563</ele>
        <time>2016-05-02T10:17:12.000Z</time>
      </trkpt>
      <trkpt lat="45.87738" lon="6.08317">
        <ele>563</ele>
        <time>2016-05-02T10:17:13.000Z</time>
      </trkpt>
      <trkpt lat="45.87736" lon="6.08315">
        <ele>563</ele>
        <time>2016-05-02T10:17:14.000Z</time>
      </trkpt>
      <trkpt lat="45.87733" lon="6.08313">
        <ele>563</ele>
        <time>2016-05-02T10:17:15.000Z</time>
      </trkpt>
      <trkpt lat="45.87731" lon="6.08311">
        <ele>563</ele>
        <time>2016-05-02T10:17:16.000Z</time>
      </trkpt>
      <trkpt lat="45.87728" lon="6.0831">
        <ele>563</ele>
        <time>2016-05-02T10:17:17.000Z</time>
      </trkpt>
      <trkpt lat="45.87726" lon="6.08308">
        <ele>563</ele>
        <time>2016-05-02T10:17:18.000Z</time>
      </trkpt>
      <trkpt lat="45.87723" lon="6.08307">
        <ele>563</ele>
        <time>2016-05-02T10:17:19.000Z</time>
      </trkpt>
      <trkpt lat="45.87721" lon="6.08306">
        <ele>563</ele>
        <time>2016-05-02T10:17:20.000Z</time>
      </trkpt>
      <trkpt lat="45.87718" lon="6.08304">
        <ele>563</ele>
        <time>2016-05-02T10:17:21.000Z</time>
      </trkpt>
      <trkpt lat="45.87715" lon="6.08302">
        <ele>563</ele>
        <time>2016-05-02T10:17:22.000Z</time>
      </trkpt>
      <trkpt lat="45.87713" lon="6.08301">
        <ele>563</ele>
        <time>2016-05-02T10:17:23.000Z</time>
      </trkpt>
      <trkpt lat="45.8771" lon="6.083">
        <ele>563</ele>
        <time>2016-05-02T10:17:24.000Z</time>
      </trkpt>
      <trkpt lat="45.87707" lon="6.08299">
        <ele>563</ele>
        <time>2016-05-02T10:17:25.000Z</time>
      </trkpt>
      <trkpt lat="45.87704" lon="6.08299">
        <ele>563</ele>
        <time>2016-05-02T10:17:26.000Z</time>
      </trkpt>
      <trkpt lat="45.87702" lon="6.08299">
        <ele>563</ele>
        <time>2016-05-02T10:17:27.000Z</time>
      </trkpt>
      <trkpt lat="45.87699" lon="6.08299">
        <ele>563</ele>
        <time>2016-05-02T10:17:28.000Z</time>
      </trkpt>
      <trkpt lat="45.87697" lon="6.083">
        <ele>563</ele>
        <time>2016-05-02T10:17:29.000Z</time>
      </trkpt>
      <trkpt lat="45.87695" lon="6.08301">
        <ele>563</ele>
        <time>2016-05-02T10:17:30.000Z</time>
      </trkpt>
      <trkpt lat="45.87693" lon="6.08302">
        <ele>564</ele>
        <time>2016-05-02T10:17:31.000Z</time>
      </trkpt>
      <trkpt lat="45.87691" lon="6.08303">
        <ele>564</ele>
        <time>2016-05-02T10:17:32.000Z</time>
      </trkpt>
      <trkpt lat="45.87689" lon="6.08304">
        <ele>564</ele>
        <time>2016-05-02T10:17:33.000Z</time>
      </trkpt>
      <trkpt lat="45.87687" lon="6.08306">
        <ele>564</ele>
        <time>2016-05-02T10:17:34.000Z</time>
      </trkpt>
      <trkpt lat="45.87685" lon="6.08307">
        <ele>565</ele>
        <time>2016-05-02T10:17:35.000Z</time>
      </trkpt>
      <trkpt lat="45.87683" lon="6.08309">
        <ele>565</ele>
        <time>2016-05-02T10:17:36.000Z</time>
      </trkpt>
      <trkpt lat="45.87682" lon="6.08311">
        <ele>566</ele>
        <time>2016-05-02T10:17:37.000Z</time>
      </trkpt>
      <trkpt lat="45.8768" lon="6.08313">
        <ele>566</ele>
        <time>2016-05-02T10:17:38.000Z</time>
      </trkpt>
      <trkpt lat="45.87678" lon="6.08315">
        <ele>566</ele>
        <time>2016-05-02T10:17:39.000Z</time>
      </trkpt>
      <trkpt lat="45.87677" lon="6.08317">
        <ele>566</ele>
        <time>2016-05-02T10:17:40.000Z</time>
      </trkpt>
      <trkpt lat="45.87676" lon="6.0832">
        <ele>567</ele>
        <time>2016-05-02T10:17:41.000Z</time>
      </trkpt>
      <trkpt lat="45.87674" lon="6.08323">
        <ele>567</ele>
        <time>2016-05-02T10:17:42.000Z</time>
      </trkpt>
      <trkpt lat="45.87673" lon="6.08326">
        <ele>567</ele>
        <time>2016-05-02T10:17:43.000Z</time>
      </trkpt>
      <trkpt lat="45.87672" lon="6.08328">
        <ele>567</ele>
        <time>2016-05-02T10:17:44.000Z</time>
      </trkpt>
      <trkpt lat="45.87671" lon="6.08331">
        <ele>568</ele>
        <time>2016-05-02T10:17:45.000Z</time>
      </trkpt>
      <trkpt lat="45.8767" lon="6.08334">
        <ele>568</ele>
        <time>2016-05-02T10:17:46.000Z</time>
      </trkpt>
      <trkpt lat="45.87669" lon="6.08337">
        <ele>568</ele>
        <time>2016-05-02T10:17:47.000Z</time>
      </trkpt>
      <trkpt lat="45.87668" lon="6.0834">
        <ele>568</ele>
        <time>2016-05-02T10:17:48.000Z</time>
      </trkpt>
      <trkpt lat="45.87667" lon="6.08343">
        <ele>568</ele>
        <time>2016-05-02T10:17:49.000Z</time>
      </trkpt>
      <trkpt lat="45.87667" lon="6.08346">
        <ele>568</ele>
        <time>2016-05-02T10:17:50.000Z</time>
      </trkpt>
      <trkpt lat="45.87666" lon="6.08349">
        <ele>569</ele>
        <time>2016-05-02T10:17:51.000Z</time>
      </trkpt>
      <trkpt lat="45.87665" lon="6.08352">
        <ele>569</ele>
        <time>2016-05-02T10:17:52.000Z</time>
      </trkpt>
      <trkpt lat="45.87664" lon="6.08355">
        <ele>569</ele>
        <time>2016-05-02T10:17:53.000Z</time>
      </trkpt>
      <trkpt lat="45.87664" lon="6.08359">
        <ele>569</ele>
        <time>2016-05-02T10:17:54.000Z</time>
      </trkpt>
      <trkpt lat="45.87663" lon="6.08362">
        <ele>569</ele>
        <time>2016-05-02T10:17:55.000Z</time>
      </trkpt>
      <trkpt lat="45.87662" lon="6.08365">
        <ele>570</ele>
        <time>2016-05-02T10:17:56.000Z</time>
      </trkpt>
      <trkpt lat="45.87661" lon="6.08369">
        <ele>570</ele>
        <time>2016-05-02T10:17:57.000Z</time>
      </trkpt>
      <trkpt lat="45.87661" lon="6.08372">
        <ele>570</ele>
        <time>2016-05-02T10:17:58.000Z</time>
      </trkpt>
      <trkpt lat="45.87659" lon="6.08375">
        <ele>571</ele>
        <time>2016-05-02T10:17:59.000Z</time>
      </trkpt>
      <trkpt lat="45.87658" lon="6.08378">
        <ele>571</ele>
        <time>2016-05-02T10:18:00.000Z</time>
      </trkpt>
      <trkpt lat="45.87657" lon="6.08382">
        <ele>571</ele>
        <time>2016-05-02T10:18:01.000Z</time>
      </trkpt>
      <trkpt lat="45.87655" lon="6.08385">
        <ele>571</ele>
        <time>2016-05-02T10:18:02.000Z</time>
      </trkpt>
      <trkpt lat="45.87654" lon="6.08388">
        <ele>572</ele>
        <time>2016-05-02T10:18:03.000Z</time>
      </trkpt>
      <trkpt lat="45.87652" lon="6.08392">
        <ele>572</ele>
        <time>2016-05-02T10:18:04.000Z</time>
      </trkpt>
      <trkpt lat="45.8765" lon="6.08395">
        <ele>572</ele>
        <time>2016-05-02T10:18:05.000Z</time>
      </trkpt>
      <trkpt lat="45.87648" lon="6.08398">
        <ele>572</ele>
        <time>2016-05-02T10:18:06.000Z</time>
      </trkpt>
      <trkpt lat="45.87647" lon="6.08401">
        <ele>572</ele>
        <time>2016-05-02T10:18:07.000Z</time>
      </trkpt>
      <trkpt lat="45.87645" lon="6.08404">
        <ele>572</ele>
        <time>2016-05-02T10:18:08.000Z</time>
      </trkpt>
      <trkpt lat="45.87643" lon="6.08407">
        <ele>572</ele>
        <time>2016-05-02T10:18:09.000Z</time>
      </trkpt>
      <trkpt lat="45.8764" lon="6.08409">
        <ele>573</ele>
        <time>2016-05-02T10:18:10.000Z</time>
      </trkpt>
      <trkpt lat="45.87638" lon="6.08412">
        <ele>573</ele>
        <time>2016-05-02T10:18:11.000Z</time>
      </trkpt>
      <trkpt lat="45.87636" lon="6.08415">
        <ele>573</ele>
        <time>2016-05-02T10:18:12.000Z</time>
      </trkpt>
      <trkpt lat="45.87634" lon="6.08418">
        <ele>573</ele>
        <time>2016-05-02T10:18:13.000Z</time>
      </trkpt>
      <trkpt lat="45.87632" lon="6.08421">
        <ele>573</ele>
        <time>2016-05-02T10:18:14.000Z</time>
      </trkpt>
      <trkpt lat="45.87629" lon="6.08424">
        <ele>572</ele>
        <time>2016-05-02T10:18:15.000Z</time>
      </trkpt>
      <trkpt lat="45.87627" lon="6.08426">
        <ele>572</ele>
        <time>2016-05-02T10:18:16.000Z</time>
      </trkpt>
      <trkpt lat="45.87625" lon="6.08429">
        <ele>572</ele>
        <time>2016-05-02T10:18:17.000Z</time>
      </trkpt>
      <trkpt lat="45.87622" lon="6.08431">
        <ele>572</ele>
        <time>2016-05-02T10:18:18.000Z</time>
      </trkpt>
      <trkpt lat="45.8762" lon="6.08433">
        <ele>572</ele>
        <time>2016-05-02T10:18:19.000Z</time>
      </trkpt>
      <trkpt lat="45.87617" lon="6.08434">
        <ele>572</ele>
        <time>2016-05-02T10:18:20.000Z</time>
      </trkpt>
      <trkpt lat="45.87615" lon="6.08436">
        <ele>572</ele>
        <time>2016-05-02T10:18:21.000Z</time>
      </trkpt>
      <trkpt lat="45.87612" lon="6.08438">
        <ele>572</ele>
        <time>2016-05-02T10:18:22.000Z</time>
      </trkpt>
      <trkpt lat="45.8761" lon="6.0844">
        <ele>572</ele>
        <time>2016-05-02T10:18:23.000Z</time>
      </trkpt>
      <trkpt lat="45.87608" lon="6.08442">
        <ele>572</ele>
        <time>2016-05-02T10:18:24.000Z</time>
      </trkpt>
      <trkpt lat="45.87607" lon="6.08444">
        <ele>572</ele>
        <time>2016-05-02T10:18:25.000Z</time>
      </trkpt>
      <trkpt lat="45.87605" lon="6.08447">
        <ele>572</ele>
        <time>2016-05-02T10:18:26.000Z</time>
      </trkpt>
      <trkpt lat="45.87604" lon="6.08449">
        <ele>572</ele>
        <time>2016-05-02T10:18:27.000Z</time>
      </trkpt>
      <trkpt lat="45.87603" lon="6.08452">
        <ele>572</ele>
        <time>2016-05-02T10:18:28.000Z</time>
      </trkpt>
      <trkpt lat="45.87602" lon="6.08454">
        <ele>572</ele>
        <time>2016-05-02T10:18:29.000Z</time>
      </trkpt>
      <trkpt lat="45.876" lon="6.08456">
        <ele>571</ele>
        <time>2016-05-02T10:18:30.000Z</time>
      </trkpt>
      <trkpt lat="45.87598" lon="6.08457">
        <ele>571</ele>
        <time>2016-05-02T10:18:31.000Z</time>
      </trkpt>
      <trkpt lat="45.87597" lon="6.08459">
        <ele>571</ele>
        <time>2016-05-02T10:18:32.000Z</time>
      </trkpt>
      <trkpt lat="45.87595" lon="6.0846">
        <ele>571</ele>
        <time>2016-05-02T10:18:33.000Z</time>
      </trkpt>
      <trkpt lat="45.87594" lon="6.08462">
        <ele>571</ele>
        <time>2016-05-02T10:18:34.000Z</time>
      </trkpt>
      <trkpt lat="45.87592" lon="6.08462">
        <ele>571</ele>
        <time>2016-05-02T10:18:35.000Z</time>
      </trkpt>
      <trkpt lat="45.8759" lon="6.08462">
        <ele>571</ele>
        <time>2016-05-02T10:18:36.000Z</time>
      </trkpt>
      <trkpt lat="45.87588" lon="6.08461">
        <ele>571</ele>
        <time>2016-05-02T10:18:37.000Z</time>
      </trkpt>
      <trkpt lat="45.87586" lon="6.08459">
        <ele>571</ele>
        <time>2016-05-02T10:18:38.000Z</time>
      </trkpt>
      <trkpt lat="45.87584" lon="6.08458">
        <ele>571</ele>
        <time>2016-05-02T10:18:39.000Z</time>
      </trkpt>
      <trkpt lat="45.87581" lon="6.08457">
        <ele>571</ele>
        <time>2016-05-02T10:18:40.000Z</time>
      </trkpt>
      <trkpt lat="45.87579" lon="6.08455">
        <ele>571</ele>
        <time>2016-05-02T10:18:41.000Z</time>
      </trkpt>
      <trkpt lat="45.87577" lon="6.08453">
        <ele>571</ele>
        <time>2016-05-02T10:18:42.000Z</time>
      </trkpt>
      <trkpt lat="45.87574" lon="6.08451">
        <ele>571</ele>
        <time>2016-05-02T10:18:43.000Z</time>
      </trkpt>
      <trkpt lat="45.87572" lon="6.08449">
        <ele>571</ele>
        <time>2016-05-02T10:18:44.000Z</time>
      </trkpt>
      <trkpt lat="45.87569" lon="6.08446">
        <ele>571</ele>
        <time>2016-05-02T10:18:45.000Z</time>
      </trkpt>
      <trkpt lat="45.87567" lon="6.08443">
        <ele>571</ele>
        <time>2016-05-02T10:18:46.000Z</time>
      </trkpt>
      <trkpt lat="45.87565" lon="6.0844">
        <ele>571</ele>
        <time>2016-05-02T10:18:47.000Z</time>
      </trkpt>
      <trkpt lat="45.87563" lon="6.08437">
        <ele>570</ele>
        <time>2016-05-02T10:18:48.000Z</time>
      </trkpt>
      <trkpt lat="45.8756" lon="6.08435">
        <ele>570</ele>
        <time>2016-05-02T10:18:49.000Z</time>
      </trkpt>
      <trkpt lat="45.87558" lon="6.08434">
        <ele>570</ele>
        <time>2016-05-02T10:18:50.000Z</time>
      </trkpt>
      <trkpt lat="45.87555" lon="6.08433">
        <ele>570</ele>
        <time>2016-05-02T10:18:51.000Z</time>
      </trkpt>
      <trkpt lat="45.87553" lon="6.08431">
        <ele>570</ele>
        <time>2016-05-02T10:18:52.000Z</time>
      </trkpt>
      <trkpt lat="45.8755" lon="6.08431">
        <ele>570</ele>
        <time>2016-05-02T10:18:53.000Z</time>
      </trkpt>
      <trkpt lat="45.87547" lon="6.0843">
        <ele>570</ele>
        <time>2016-05-02T10:18:54.000Z</time>
      </trkpt>
      <trkpt lat="45.87545" lon="6.08429">
        <ele>570</ele>
        <time>2016-05-02T10:18:55.000Z</time>
      </trkpt>
      <trkpt lat="45.87542" lon="6.08429">
        <ele>570</ele>
        <time>2016-05-02T10:18:56.000Z</time>
      </trkpt>
      <trkpt lat="45.8754" lon="6.08429">
        <ele>570</ele>
        <time>2016-05-02T10:18:57.000Z</time>
      </trkpt>
      <trkpt lat="45.87537" lon="6.08428">
        <ele>570</ele>
        <time>2016-05-02T10:18:58.000Z</time>
      </trkpt>
      <trkpt lat="45.87534" lon="6.08428">
        <ele>570</ele>
        <time>2016-05-02T10:18:59.000Z</time>
      </trkpt>
      <trkpt lat="45.87532" lon="6.08428">
        <ele>570</ele>
        <time>2016-05-02T10:19:00.000Z</time>
      </trkpt>
      <trkpt lat="45.87529" lon="6.08428">
        <ele>570</ele>
        <time>2016-05-02T10:19:01.000Z</time>
      </trkpt>
      <trkpt lat="45.87526" lon="6.08428">
        <ele>570</ele>
        <time>2016-05-02T10:19:02.000Z</time>
      </trkpt>
      <trkpt lat="45.87524" lon="6.08427">
        <ele>571</ele>
        <time>2016-05-02T10:19:03.000Z</time>
      </trkpt>
      <trkpt lat="45.87521" lon="6.08428">
        <ele>571</ele>
        <time>2016-05-02T10:19:04.000Z</time>
      </trkpt>
      <trkpt lat="45.87518" lon="6.08427">
        <ele>571</ele>
        <time>2016-05-02T10:19:05.000Z</time>
      </trkpt>
      <trkpt lat="45.87516" lon="6.08427">
        <ele>571</ele>
        <time>2016-05-02T10:19:06.000Z</time>
      </trkpt>
      <trkpt lat="45.87514" lon="6.08427">
        <ele>571</ele>
        <time>2016-05-02T10:19:07.000Z</time>
      </trkpt>
      <trkpt lat="45.87513" lon="6.08427">
        <ele>571</ele>
        <time>2016-05-02T10:19:08.000Z</time>
      </trkpt>
      <trkpt lat="45.87511" lon="6.08426">
        <ele>571</ele>
        <time>2016-05-02T10:19:09.000Z</time>
      </trkpt>
      <trkpt lat="45.8751" lon="6.08425">
        <ele>571</ele>
        <time>2016-05-02T10:19:10.000Z</time>
      </trkpt>
      <trkpt lat="45.87509" lon="6.08425">
        <ele>571</ele>
        <time>2016-05-02T10:19:11.000Z</time>
      </trkpt>
      <trkpt lat="45.87507" lon="6.08424">
        <ele>572</ele>
        <time>2016-05-02T10:19:12.000Z</time>
      </trkpt>
      <trkpt lat="45.87506" lon="6.08423">
        <ele>572</ele>
        <time>2016-05-02T10:19:13.000Z</time>
      </trkpt>
      <trkpt lat="45.87505" lon="6.0842">
        <ele>572</ele>
        <time>2016-05-02T10:19:14.000Z</time>
      </trkpt>
      <trkpt lat="45.87503" lon="6.08418">
        <ele>572</ele>
        <time>2016-05-02T10:19:15.000Z</time>
      </trkpt>
      <trkpt lat="45.87502" lon="6.08415">
        <ele>572</ele>
        <time>2016-05-02T10:19:16.000Z</time>
      </trkpt>
      <trkpt lat="45.875" lon="6.08411">
        <ele>572</ele>
        <time>2016-05-02T10:19:17.000Z</time>
      </trkpt>
      <trkpt lat="45.87499" lon="6.08407">
        <ele>572</ele>
        <time>2016-05-02T10:19:18.000Z</time>
      </trkpt>
      <trkpt lat="45.87499" lon="6.08404">
        <ele>573</ele>
        <time>2016-05-02T10:19:19.000Z</time>
      </trkpt>
      <trkpt lat="45.87498" lon="6.084">
        <ele>573</ele>
        <time>2016-05-02T10:19:20.000Z</time>
      </trkpt>
      <trkpt lat="45.87498" lon="6.08396">
        <ele>573</ele>
        <time>2016-05-02T10:19:21.000Z</time>
      </trkpt>
      <trkpt lat="45.87499" lon="6.08393">
        <ele>573</ele>
        <time>2016-05-02T10:19:22.000Z</time>
      </trkpt>
      <trkpt lat="45.87499" lon="6.08389">
        <ele>573</ele>
        <time>2016-05-02T10:19:23.000Z</time>
      </trkpt>
      <trkpt lat="45.875" lon="6.08386">
        <ele>574</ele>
        <time>2016-05-02T10:19:24.000Z</time>
      </trkpt>
      <trkpt lat="45.875" lon="6.08383">
        <ele>574</ele>
        <time>2016-05-02T10:19:25.000Z</time>
      </trkpt>
      <trkpt lat="45.875" lon="6.0838">
        <ele>574</ele>
        <time>2016-05-02T10:19:26.000Z</time>
      </trkpt>
      <trkpt lat="45.875" lon="6.08376">
        <ele>574</ele>
        <time>2016-05-02T10:19:27.000Z</time>
      </trkpt>
      <trkpt lat="45.875" lon="6.08373">
        <ele>575</ele>
        <time>2016-05-02T10:19:28.000Z</time>
      </trkpt>
      <trkpt lat="45.87499" lon="6.0837">
        <ele>575</ele>
        <time>2016-05-02T10:19:29.000Z</time>
      </trkpt>
      <trkpt lat="45.87499" lon="6.08367">
        <ele>575</ele>
        <time>2016-05-02T10:19:30.000Z</time>
      </trkpt>
      <trkpt lat="45.87498" lon="6.08364">
        <ele>575</ele>
        <time>2016-05-02T10:19:31.000Z</time>
      </trkpt>
      <trkpt lat="45.87497" lon="6.08361">
        <ele>576</ele>
        <time>2016-05-02T10:19:32.000Z</time>
      </trkpt>
      <trkpt lat="45.87497" lon="6.08357">
        <ele>576</ele>
        <time>2016-05-02T10:19:33.000Z</time>
      </trkpt>
      <trkpt lat="45.87496" lon="6.08354">
        <ele>576</ele>
        <time>2016-05-02T10:19:34.000Z</time>
      </trkpt>
      <trkpt lat="45.87496" lon="6.08351">
        <ele>577</ele>
        <time>2016-05-02T10:19:35.000Z</time>
      </trkpt>
      <trkpt lat="45.87495" lon="6.08347">
        <ele>577</ele>
        <time>2016-05-02T10:19:36.000Z</time>
      </trkpt>
      <trkpt lat="45.87495" lon="6.08344">
        <ele>577</ele>
        <time>2016-05-02T10:19:37.000Z</time>
      </trkpt>
      <trkpt lat="45.87495" lon="6.08341">
        <ele>577</ele>
        <time>2016-05-02T10:19:38.000Z</time>
      </trkpt>
      <trkpt lat="45.87494" lon="6.08337">
        <ele>578</ele>
        <time>2016-05-02T10:19:39.000Z</time>
      </trkpt>
      <trkpt lat="45.87494" lon="6.08334">
        <ele>578</ele>
        <time>2016-05-02T10:19:40.000Z</time>
      </trkpt>
      <trkpt lat="45.87493" lon="6.08331">
        <ele>578</ele>
        <time>2016-05-02T10:19:41.000Z</time>
      </trkpt>
      <trkpt lat="45.87493" lon="6.08327">
        <ele>578</ele>
        <time>2016-05-02T10:19:42.000Z</time>
      </trkpt>
      <trkpt lat="45.87492" lon="6.08324">
        <ele>578</ele>
        <time>2016-05-02T10:19:43.000Z</time>
      </trkpt>
      <trkpt lat="45.87492" lon="6.08321">
        <ele>579</ele>
        <time>2016-05-02T10:19:44.000Z</time>
      </trkpt>
      <trkpt lat="45.87491" lon="6.08318">
        <ele>579</ele>
        <time>2016-05-02T10:19:45.000Z</time>
      </trkpt>
      <trkpt lat="45.8749" lon="6.08315">
        <ele>579</ele>
        <time>2016-05-02T10:19:46.000Z</time>
      </trkpt>
      <trkpt lat="45.87489" lon="6.08311">
        <ele>579</ele>
        <time>2016-05-02T10:19:47.000Z</time>
      </trkpt>
      <trkpt lat="45.87488" lon="6.08308">
        <ele>579</ele>
        <time>2016-05-02T10:19:48.000Z</time>
      </trkpt>
      <trkpt lat="45.87486" lon="6.08305">
        <ele>580</ele>
        <time>2016-05-02T10:19:49.000Z</time>
      </trkpt>
      <trkpt lat="45.87485" lon="6.08302">
        <ele>580</ele>
        <time>2016-05-02T10:19:50.000Z</time>
      </trkpt>
      <trkpt lat="45.87484" lon="6.08299">
        <ele>580</ele>
        <time>2016-05-02T10:19:51.000Z</time>
      </trkpt>
      <trkpt lat="45.87482" lon="6.08296">
        <ele>581</ele>
        <time>2016-05-02T10:19:52.000Z</time>
      </trkpt>
      <trkpt lat="45.8748" lon="6.08293">
        <ele>581</ele>
        <time>2016-05-02T10:19:53.000Z</time>
      </trkpt>
      <trkpt lat="45.87479" lon="6.0829">
        <ele>581</ele>
        <time>2016-05-02T10:19:54.000Z</time>
      </trkpt>
      <trkpt lat="45.87477" lon="6.08288">
        <ele>581</ele>
        <time>2016-05-02T10:19:55.000Z</time>
      </trkpt>
      <trkpt lat="45.87475" lon="6.08285">
        <ele>582</ele>
        <time>2016-05-02T10:19:56.000Z</time>
      </trkpt>
      <trkpt lat="45.87473" lon="6.08283">
        <ele>582</ele>
        <time>2016-05-02T10:19:57.000Z</time>
      </trkpt>
      <trkpt lat="45.87471" lon="6.08281">
        <ele>582</ele>
        <time>2016-05-02T10:19:58.000Z</time>
      </trkpt>
      <trkpt lat="45.87469" lon="6.08278">
        <ele>582</ele>
        <time>2016-05-02T10:19:59.000Z</time>
      </trkpt>
      <trkpt lat="45.87467" lon="6.08276">
        <ele>583</ele>
        <time>2016-05-02T10:20:00.000Z</time>
      </trkpt>
      <trkpt lat="45.87465" lon="6.08273">
        <ele>583</ele>
        <time>2016-05-02T10:20:01.000Z</time>
      </trkpt>
      <trkpt lat="45.87463" lon="6.08271">
        <ele>583</ele>
        <time>2016-05-02T10:20:02.000Z</time>
      </trkpt>
      <trkpt lat="45.87461" lon="6.08269">
        <ele>584</ele>
        <time>2016-05-02T10:20:03.000Z</time>
      </trkpt>
      <trkpt lat="45.87459" lon="6.08267">
        <ele>584</ele>
        <time>2016-05-02T10:20:04.000Z</time>
      </trkpt>
      <trkpt lat="45.87456" lon="6.08265">
        <ele>584</ele>
        <time>2016-05-02T10:20:05.000Z</time>
      </trkpt>
      <trkpt lat="45.87454" lon="6.08263">
        <ele>585</ele>
        <time>2016-05-02T10:20:06.000Z</time>
      </trkpt>
      <trkpt lat="45.87452" lon="6.08262">
        <ele>585</ele>
        <time>2016-05-02T10:20:07.000Z</time>
      </trkpt>
      <trkpt lat="45.87449" lon="6.0826">
        <ele>585</ele>
        <time>2016-05-02T10:20:08.000Z</time>
      </trkpt>
      <trkpt lat="45.87447" lon="6.08259">
        <ele>585</ele>
        <time>2016-05-02T10:20:09.000Z</time>
      </trkpt>
      <trkpt lat="45.87444" lon="6.08258">
        <ele>586</ele>
        <time>2016-05-02T10:20:10.000Z</time>
      </trkpt>
      <trkpt lat="45.87442" lon="6.08257">
        <ele>586</ele>
        <time>2016-05-02T10:20:11.000Z</time>
      </trkpt>
      <trkpt lat="45.8744" lon="6.08256">
        <ele>586</ele>
        <time>2016-05-02T10:20:12.000Z</time>
      </trkpt>
      <trkpt lat="45.87437" lon="6.08255">
        <ele>587</ele>
        <time>2016-05-02T10:20:13.000Z</time>
      </trkpt>
      <trkpt lat="45.87435" lon="6.08253">
        <ele>587</ele>
        <time>2016-05-02T10:20:14.000Z</time>
      </trkpt>
      <trkpt lat="45.87432" lon="6.08252">
        <ele>587</ele>
        <time>2016-05-02T10:20:15.000Z</time>
      </trkpt>
      <trkpt lat="45.8743" lon="6.0825">
        <ele>587</ele>
        <time>2016-05-02T10:20:16.000Z</time>
      </trkpt>
      <trkpt lat="45.87427" lon="6.08248">
        <ele>587</ele>
        <time>2016-05-02T10:20:17.000Z</time>
      </trkpt>
      <trkpt lat="45.87425" lon="6.08246">
        <ele>587</ele>
        <time>2016-05-02T10:20:18.000Z</time>
      </trkpt>
      <trkpt lat="45.87422" lon="6.08244">
        <ele>587</ele>
        <time>2016-05-02T10:20:19.000Z</time>
      </trkpt>
      <trkpt lat="45.8742" lon="6.08243">
        <ele>587</ele>
        <time>2016-05-02T10:20:20.000Z</time>
      </trkpt>
      <trkpt lat="45.87417" lon="6.0824">
        <ele>587</ele>
        <time>2016-05-02T10:20:21.000Z</time>
      </trkpt>
      <trkpt lat="45.87415" lon="6.08238">
        <ele>587</ele>
        <time>2016-05-02T10:20:22.000Z</time>
      </trkpt>
      <trkpt lat="45.87412" lon="6.08235">
        <ele>587</ele>
        <time>2016-05-02T10:20:23.000Z</time>
      </trkpt>
      <trkpt lat="45.8741" lon="6.08233">
        <ele>587</ele>
        <time>2016-05-02T10:20:24.000Z</time>
      </trkpt>
      <trkpt lat="45.87408" lon="6.0823">
        <ele>587</ele>
        <time>2016-05-02T10:20:25.000Z</time>
      </trkpt>
      <trkpt lat="45.87405" lon="6.08227">
        <ele>587</ele>
        <time>2016-05-02T10:20:26.000Z</time>
      </trkpt>
      <trkpt lat="45.87403" lon="6.08225">
        <ele>587</ele>
        <time>2016-05-02T10:20:27.000Z</time>
      </trkpt>
      <trkpt lat="45.87401" lon="6.08222">
        <ele>587</ele>
        <time>2016-05-02T10:20:28.000Z</time>
      </trkpt>
      <trkpt lat="45.87398" lon="6.08219">
        <ele>587</ele>
        <time>2016-05-02T10:20:29.000Z</time>
      </trkpt>
      <trkpt lat="45.87396" lon="6.08217">
        <ele>586</ele>
        <time>2016-05-02T10:20:30.000Z</time>
      </trkpt>
      <trkpt lat="45.87394" lon="6.08214">
        <ele>586</ele>
        <time>2016-05-02T10:20:31.000Z</time>
      </trkpt>
      <trkpt lat="45.87392" lon="6.08211">
        <ele>586</ele>
        <time>2016-05-02T10:20:32.000Z</time>
      </trkpt>
      <trkpt lat="45.8739" lon="6.08208">
        <ele>587</ele>
        <time>2016-05-02T10:20:33.000Z</time>
      </trkpt>
      <trkpt lat="45.87388" lon="6.08206">
        <ele>587</ele>
        <time>2016-05-02T10:20:34.000Z</time>
      </trkpt>
      <trkpt lat="45.87386" lon="6.08203">
        <ele>587</ele>
        <time>2016-05-02T10:20:35.000Z</time>
      </trkpt>
      <trkpt lat="45.87384" lon="6.082">
        <ele>587</ele>
        <time>2016-05-02T10:20:36.000Z</time>
      </trkpt>
      <trkpt lat="45.87382" lon="6.08197">
        <ele>587</ele>
        <time>2016-05-02T10:20:37.000Z</time>
      </trkpt>
      <trkpt lat="45.87379" lon="6.08195">
        <ele>587</ele>
        <time>2016-05-02T10:20:38.000Z</time>
      </trkpt>
      <trkpt lat="45.87377" lon="6.08192">
        <ele>587</ele>
        <time>2016-05-02T10:20:39.000Z</time>
      </trkpt>
      <trkpt lat="45.87375" lon="6.0819">
        <ele>587</ele>
        <time>2016-05-02T10:20:40.000Z</time>
      </trkpt>
      <trkpt lat="45.87373" lon="6.08187">
        <ele>587</ele>
        <time>2016-05-02T10:20:41.000Z</time>
      </trkpt>
      <trkpt lat="45.87371" lon="6.08184">
        <ele>587</ele>
        <time>2016-05-02T10:20:42.000Z</time>
      </trkpt>
      <trkpt lat="45.87369" lon="6.08182">
        <ele>586</ele>
        <time>2016-05-02T10:20:43.000Z</time>
      </trkpt>
      <trkpt lat="45.87367" lon="6.08179">
        <ele>586</ele>
        <time>2016-05-02T10:20:44.000Z</time>
      </trkpt>
      <trkpt lat="45.87364" lon="6.08176">
        <ele>586</ele>
        <time>2016-05-02T10:20:45.000Z</time>
      </trkpt>
      <trkpt lat="45.87362" lon="6.08173">
        <ele>586</ele>
        <time>2016-05-02T10:20:46.000Z</time>
      </trkpt>
      <trkpt lat="45.8736" lon="6.08171">
        <ele>586</ele>
        <time>2016-05-02T10:20:47.000Z</time>
      </trkpt>
      <trkpt lat="45.87358" lon="6.08168">
        <ele>586</ele>
        <time>2016-05-02T10:20:48.000Z</time>
      </trkpt>
      <trkpt lat="45.87356" lon="6.08165">
        <ele>586</ele>
        <time>2016-05-02T10:20:49.000Z</time>
      </trkpt>
      <trkpt lat="45.87354" lon="6.08162">
        <ele>586</ele>
        <time>2016-05-02T10:20:50.000Z</time>
      </trkpt>
      <trkpt lat="45.87351" lon="6.0816">
        <ele>585</ele>
        <time>2016-05-02T10:20:51.000Z</time>
      </trkpt>
      <trkpt lat="45.87349" lon="6.08158">
        <ele>585</ele>
        <time>2016-05-02T10:20:52.000Z</time>
      </trkpt>
      <trkpt lat="45.87347" lon="6.08155">
        <ele>585</ele>
        <time>2016-05-02T10:20:53.000Z</time>
      </trkpt>
      <trkpt lat="45.87345" lon="6.08152">
        <ele>585</ele>
        <time>2016-05-02T10:20:54.000Z</time>
      </trkpt>
      <trkpt lat="45.87343" lon="6.0815">
        <ele>585</ele>
        <time>2016-05-02T10:20:55.000Z</time>
      </trkpt>
      <trkpt lat="45.87341" lon="6.08147">
        <ele>585</ele>
        <time>2016-05-02T10:20:56.000Z</time>
      </trkpt>
      <trkpt lat="45.87339" lon="6.08144">
        <ele>585</ele>
        <time>2016-05-02T10:20:57.000Z</time>
      </trkpt>
      <trkpt lat="45.87337" lon="6.08141">
        <ele>585</ele>
        <time>2016-05-02T10:20:58.000Z</time>
      </trkpt>
      <trkpt lat="45.87335" lon="6.08138">
        <ele>585</ele>
        <time>2016-05-02T10:20:59.000Z</time>
      </trkpt>
      <trkpt lat="45.87333" lon="6.08136">
        <ele>585</ele>
        <time>2016-05-02T10:21:00.000Z</time>
      </trkpt>
      <trkpt lat="45.8733" lon="6.08133">
        <ele>585</ele>
        <time>2016-05-02T10:21:01.000Z</time>
      </trkpt>
      <trkpt lat="45.87328" lon="6.0813">
        <ele>585</ele>
        <time>2016-05-02T10:21:02.000Z</time>
      </trkpt>
      <trkpt lat="45.87326" lon="6.08128">
        <ele>585</ele>
        <time>2016-05-02T10:21:03.000Z</time>
      </trkpt>
      <trkpt lat="45.87324" lon="6.08125">
        <ele>585</ele>
        <time>2016-05-02T10:21:04.000Z</time>
      </trkpt>
      <trkpt lat="45.87322" lon="6.08122">
        <ele>585</ele>
        <time>2016-05-02T10:21:05.000Z</time>
      </trkpt>
      <trkpt lat="45.8732" lon="6.08119">
        <ele>585</ele>
        <time>2016-05-02T10:21:06.000Z</time>
      </trkpt>
      <trkpt lat="45.87318" lon="6.08116">
        <ele>585</ele>
        <time>2016-05-02T10:21:07.000Z</time>
      </trkpt>
      <trkpt lat="45.87316" lon="6.08113">
        <ele>585</ele>
        <time>2016-05-02T10:21:08.000Z</time>
      </trkpt>
      <trkpt lat="45.87313" lon="6.08111">
        <ele>585</ele>
        <time>2016-05-02T10:21:09.000Z</time>
      </trkpt>
      <trkpt lat="45.87311" lon="6.08108">
        <ele>585</ele>
        <time>2016-05-02T10:21:10.000Z</time>
      </trkpt>
      <trkpt lat="45.87309" lon="6.08105">
        <ele>585</ele>
        <time>2016-05-02T10:21:11.000Z</time>
      </trkpt>
      <trkpt lat="45.87307" lon="6.08102">
        <ele>585</ele>
        <time>2016-05-02T10:21:12.000Z</time>
      </trkpt>
      <trkpt lat="45.87305" lon="6.081">
        <ele>585</ele>
        <time>2016-05-02T10:21:13.000Z</time>
      </trkpt>
      <trkpt lat="45.87302" lon="6.08097">
        <ele>585</ele>
        <time>2016-05-02T10:21:14.000Z</time>
      </trkpt>
      <trkpt lat="45.873" lon="6.08094">
        <ele>585</ele>
        <time>2016-05-02T10:21:15.000Z</time>
      </trkpt>
      <trkpt lat="45.87298" lon="6.08091">
        <ele>585</ele>
        <time>2016-05-02T10:21:16.000Z</time>
      </trkpt>
      <trkpt lat="45.87296" lon="6.08089">
        <ele>585</ele>
        <time>2016-05-02T10:21:17.000Z</time>
      </trkpt>
      <trkpt lat="45.87293" lon="6.08086">
        <ele>585</ele>
        <time>2016-05-02T10:21:18.000Z</time>
      </trkpt>
      <trkpt lat="45.87291" lon="6.08084">
        <ele>585</ele>
        <time>2016-05-02T10:21:19.000Z</time>
      </trkpt>
      <trkpt lat="45.87289" lon="6.08081">
        <ele>585</ele>
        <time>2016-05-02T10:21:20.000Z</time>
      </trkpt>
      <trkpt lat="45.87287" lon="6.08078">
        <ele>585</ele>
        <time>2016-05-02T10:21:21.000Z</time>
      </trkpt>
      <trkpt lat="45.87285" lon="6.08076">
        <ele>585</ele>
        <time>2016-05-02T10:21:22.000Z</time>
      </trkpt>
      <trkpt lat="45.87282" lon="6.08073">
        <ele>585</ele>
        <time>2016-05-02T10:21:23.000Z</time>
      </trkpt>
      <trkpt lat="45.8728" lon="6.0807">
        <ele>585</ele>
        <time>2016-05-02T10:21:24.000Z</time>
      </trkpt>
      <trkpt lat="45.87278" lon="6.08068">
        <ele>585</ele>
        <time>2016-05-02T10:21:25.000Z</time>
      </trkpt>
      <trkpt lat="45.87276" lon="6.08065">
        <ele>585</ele>
        <time>2016-05-02T10:21:26.000Z</time>
      </trkpt>
      <trkpt lat="45.87273" lon="6.08062">
        <ele>585</ele>
        <time>2016-05-02T10:21:27.000Z</time>
      </trkpt>
      <trkpt lat="45.87271" lon="6.08059">
        <ele>585</ele>
        <time>2016-05-02T10:21:28.000Z</time>
      </trkpt>
      <trkpt lat="45.87269" lon="6.08057">
        <ele>585</ele>
        <time>2016-05-02T10:21:29.000Z</time>
      </trkpt>
      <trkpt lat="45.87267" lon="6.08055">
        <ele>585</ele>
        <time>2016-05-02T10:21:30.000Z</time>
      </trkpt>
      <trkpt lat="45.87264" lon="6.08052">
        <ele>585</ele>
        <time>2016-05-02T10:21:31.000Z</time>
      </trkpt>
      <trkpt lat="45.87262" lon="6.08049">
        <ele>585</ele>
        <time>2016-05-02T10:21:32.000Z</time>
      </trkpt>
      <trkpt lat="45.8726" lon="6.08047">
        <ele>585</ele>
        <time>2016-05-02T10:21:33.000Z</time>
      </trkpt>
      <trkpt lat="45.87258" lon="6.08044">
        <ele>585</ele>
        <time>2016-05-02T10:21:34.000Z</time>
      </trkpt>
      <trkpt lat="45.87256" lon="6.08041">
        <ele>585</ele>
        <time>2016-05-02T10:21:35.000Z</time>
      </trkpt>
      <trkpt lat="45.87253" lon="6.08038">
        <ele>585</ele>
        <time>2016-05-02T10:21:36.000Z</time>
      </trkpt>
      <trkpt lat="45.87251" lon="6.08035">
        <ele>585</ele>
        <time>2016-05-02T10:21:37.000Z</time>
      </trkpt>
      <trkpt lat="45.87249" lon="6.08032">
        <ele>585</ele>
        <time>2016-05-02T10:21:38.000Z</time>
      </trkpt>
      <trkpt lat="45.87247" lon="6.08029">
        <ele>584</ele>
        <time>2016-05-02T10:21:39.000Z</time>
      </trkpt>
      <trkpt lat="45.87245" lon="6.08027">
        <ele>584</ele>
        <time>2016-05-02T10:21:40.000Z</time>
      </trkpt>
      <trkpt lat="45.87242" lon="6.08024">
        <ele>584</ele>
        <time>2016-05-02T10:21:41.000Z</time>
      </trkpt>
      <trkpt lat="45.8724" lon="6.08021">
        <ele>584</ele>
        <time>2016-05-02T10:21:42.000Z</time>
      </trkpt>
      <trkpt lat="45.87238" lon="6.08018">
        <ele>584</ele>
        <time>2016-05-02T10:21:43.000Z</time>
      </trkpt>
      <trkpt lat="45.87235" lon="6.08015">
        <ele>584</ele>
        <time>2016-05-02T10:21:44.000Z</time>
      </trkpt>
      <trkpt lat="45.87233" lon="6.08012">
        <ele>584</ele>
        <time>2016-05-02T10:21:45.000Z</time>
      </trkpt>
      <trkpt lat="45.87231" lon="6.08009">
        <ele>584</ele>
        <time>2016-05-02T10:21:46.000Z</time>
      </trkpt>
      <trkpt lat="45.87228" lon="6.08006">
        <ele>584</ele>
        <time>2016-05-02T10:21:47.000Z</time>
      </trkpt>
      <trkpt lat="45.87226" lon="6.08003">
        <ele>584</ele>
        <time>2016-05-02T10:21:48.000Z</time>
      </trkpt>
      <trkpt lat="45.87224" lon="6.08">
        <ele>584</ele>
        <time>2016-05-02T10:21:49.000Z</time>
      </trkpt>
      <trkpt lat="45.87222" lon="6.07997">
        <ele>583</ele>
        <time>2016-05-02T10:21:50.000Z</time>
      </trkpt>
      <trkpt lat="45.87219" lon="6.07994">
        <ele>583</ele>
        <time>2016-05-02T10:21:51.000Z</time>
      </trkpt>
      <trkpt lat="45.87217" lon="6.07991">
        <ele>583</ele>
        <time>2016-05-02T10:21:52.000Z</time>
      </trkpt>
      <trkpt lat="45.87215" lon="6.07988">
        <ele>583</ele>
        <time>2016-05-02T10:21:53.000Z</time>
      </trkpt>
      <trkpt lat="45.87213" lon="6.07985">
        <ele>583</ele>
        <time>2016-05-02T10:21:54.000Z</time>
      </trkpt>
      <trkpt lat="45.8721" lon="6.07982">
        <ele>583</ele>
        <time>2016-05-02T10:21:55.000Z</time>
      </trkpt>
      <trkpt lat="45.87208" lon="6.07979">
        <ele>583</ele>
        <time>2016-05-02T10:21:56.000Z</time>
      </trkpt>
      <trkpt lat="45.87206" lon="6.07976">
        <ele>583</ele>
        <time>2016-05-02T10:21:57.000Z</time>
      </trkpt>
      <trkpt lat="45.87203" lon="6.07973">
        <ele>583</ele>
        <time>2016-05-02T10:21:58.000Z</time>
      </trkpt>
      <trkpt lat="45.87201" lon="6.0797">
        <ele>582</ele>
        <time>2016-05-02T10:21:59.000Z</time>
      </trkpt>
      <trkpt lat="45.87198" lon="6.07967">
        <ele>582</ele>
        <time>2016-05-02T10:22:00.000Z</time>
      </trkpt>
      <trkpt lat="45.87196" lon="6.07964">
        <ele>582</ele>
        <time>2016-05-02T10:22:01.000Z</time>
      </trkpt>
      <trkpt lat="45.87194" lon="6.0796">
        <ele>582</ele>
        <time>2016-05-02T10:22:02.000Z</time>
      </trkpt>
      <trkpt lat="45.87191" lon="6.07957">
        <ele>582</ele>
        <time>2016-05-02T10:22:03.000Z</time>
      </trkpt>
      <trkpt lat="45.87189" lon="6.07954">
        <ele>581</ele>
        <time>2016-05-02T10:22:04.000Z</time>
      </trkpt>
      <trkpt lat="45.87187" lon="6.07951">
        <ele>581</ele>
        <time>2016-05-02T10:22:05.000Z</time>
      </trkpt>
      <trkpt lat="45.87185" lon="6.07947">
        <ele>581</ele>
        <time>2016-05-02T10:22:06.000Z</time>
      </trkpt>
      <trkpt lat="45.87184" lon="6.07943">
        <ele>581</ele>
        <time>2016-05-02T10:22:07.000Z</time>
      </trkpt>
      <trkpt lat="45.87182" lon="6.07939">
        <ele>581</ele>
        <time>2016-05-02T10:22:08.000Z</time>
      </trkpt>
      <trkpt lat="45.87181" lon="6.07936">
        <ele>581</ele>
        <time>2016-05-02T10:22:09.000Z</time>
      </trkpt>
      <trkpt lat="45.8718" lon="6.07932">
        <ele>580</ele>
        <time>2016-05-02T10:22:10.000Z</time>
      </trkpt>
      <trkpt lat="45.87178" lon="6.07928">
        <ele>580</ele>
        <time>2016-05-02T10:22:11.000Z</time>
      </trkpt>
      <trkpt lat="45.87177" lon="6.07924">
        <ele>580</ele>
        <time>2016-05-02T10:22:12.000Z</time>
      </trkpt>
      <trkpt lat="45.87176" lon="6.0792">
        <ele>580</ele>
        <time>2016-05-02T10:22:13.000Z</time>
      </trkpt>
      <trkpt lat="45.87174" lon="6.07917">
        <ele>580</ele>
        <time>2016-05-02T10:22:14.000Z</time>
      </trkpt>
      <trkpt lat="45.87172" lon="6.07914">
        <ele>579</ele>
        <time>2016-05-02T10:22:15.000Z</time>
      </trkpt>
      <trkpt lat="45.8717" lon="6.07911">
        <ele>579</ele>
        <time>2016-05-02T10:22:16.000Z</time>
      </trkpt>
      <trkpt lat="45.87168" lon="6.07908">
        <ele>579</ele>
        <time>2016-05-02T10:22:17.000Z</time>
      </trkpt>
      <trkpt lat="45.87166" lon="6.07905">
        <ele>578</ele>
        <time>2016-05-02T10:22:18.000Z</time>
      </trkpt>
      <trkpt lat="45.87163" lon="6.07903">
        <ele>578</ele>
        <time>2016-05-02T10:22:19.000Z</time>
      </trkpt>
      <trkpt lat="45.87161" lon="6.079">
        <ele>578</ele>
        <time>2016-05-02T10:22:20.000Z</time>
      </trkpt>
      <trkpt lat="45.87158" lon="6.07898">
        <ele>578</ele>
        <time>2016-05-02T10:22:21.000Z</time>
      </trkpt>
      <trkpt lat="45.87156" lon="6.07895">
        <ele>577</ele>
        <time>2016-05-02T10:22:22.000Z</time>
      </trkpt>
      <trkpt lat="45.87154" lon="6.07892">
        <ele>577</ele>
        <time>2016-05-02T10:22:23.000Z</time>
      </trkpt>
      <trkpt lat="45.87152" lon="6.0789">
        <ele>577</ele>
        <time>2016-05-02T10:22:24.000Z</time>
      </trkpt>
      <trkpt lat="45.87149" lon="6.07887">
        <ele>577</ele>
        <time>2016-05-02T10:22:25.000Z</time>
      </trkpt>
      <trkpt lat="45.87147" lon="6.07884">
        <ele>576</ele>
        <time>2016-05-02T10:22:26.000Z</time>
      </trkpt>
      <trkpt lat="45.87145" lon="6.07882">
        <ele>576</ele>
        <time>2016-05-02T10:22:27.000Z</time>
      </trkpt>
      <trkpt lat="45.87143" lon="6.07879">
        <ele>576</ele>
        <time>2016-05-02T10:22:28.000Z</time>
      </trkpt>
      <trkpt lat="45.8714" lon="6.07876">
        <ele>576</ele>
        <time>2016-05-02T10:22:29.000Z</time>
      </trkpt>
      <trkpt lat="45.87138" lon="6.07873">
        <ele>576</ele>
        <time>2016-05-02T10:22:30.000Z</time>
      </trkpt>
      <trkpt lat="45.87136" lon="6.07871">
        <ele>576</ele>
        <time>2016-05-02T10:22:31.000Z</time>
      </trkpt>
      <trkpt lat="45.87133" lon="6.07868">
        <ele>575</ele>
        <time>2016-05-02T10:22:32.000Z</time>
      </trkpt>
      <trkpt lat="45.87131" lon="6.07866">
        <ele>575</ele>
        <time>2016-05-02T10:22:33.000Z</time>
      </trkpt>
      <trkpt lat="45.87128" lon="6.07863">
        <ele>575</ele>
        <time>2016-05-02T10:22:34.000Z</time>
      </trkpt>
      <trkpt lat="45.87126" lon="6.07861">
        <ele>575</ele>
        <time>2016-05-02T10:22:35.000Z</time>
      </trkpt>
      <trkpt lat="45.87123" lon="6.07858">
        <ele>575</ele>
        <time>2016-05-02T10:22:36.000Z</time>
      </trkpt>
      <trkpt lat="45.87121" lon="6.07856">
        <ele>574</ele>
        <time>2016-05-02T10:22:37.000Z</time>
      </trkpt>
      <trkpt lat="45.87118" lon="6.07853">
        <ele>574</ele>
        <time>2016-05-02T10:22:38.000Z</time>
      </trkpt>
      <trkpt lat="45.87116" lon="6.0785">
        <ele>574</ele>
        <time>2016-05-02T10:22:39.000Z</time>
      </trkpt>
      <trkpt lat="45.87114" lon="6.07848">
        <ele>574</ele>
        <time>2016-05-02T10:22:40.000Z</time>
      </trkpt>
      <trkpt lat="45.87111" lon="6.07845">
        <ele>574</ele>
        <time>2016-05-02T10:22:41.000Z</time>
      </trkpt>
      <trkpt lat="45.87109" lon="6.07843">
        <ele>574</ele>
        <time>2016-05-02T10:22:42.000Z</time>
      </trkpt>
      <trkpt lat="45.87107" lon="6.07841">
        <ele>573</ele>
        <time>2016-05-02T10:22:43.000Z</time>
      </trkpt>
      <trkpt lat="45.87104" lon="6.07838">
        <ele>573</ele>
        <time>2016-05-02T10:22:44.000Z</time>
      </trkpt>
      <trkpt lat="45.87102" lon="6.07836">
        <ele>573</ele>
        <time>2016-05-02T10:22:45.000Z</time>
      </trkpt>
      <trkpt lat="45.871" lon="6.07834">
        <ele>572</ele>
        <time>2016-05-02T10:22:46.000Z</time>
      </trkpt>
      <trkpt lat="45.87097" lon="6.07832">
        <ele>572</ele>
        <time>2016-05-02T10:22:47.000Z</time>
      </trkpt>
      <trkpt lat="45.87095" lon="6.07829">
        <ele>572</ele>
        <time>2016-05-02T10:22:48.000Z</time>
      </trkpt>
      <trkpt lat="45.87092" lon="6.07827">
        <ele>572</ele>
        <time>2016-05-02T10:22:49.000Z</time>
      </trkpt>
      <trkpt lat="45.87089" lon="6.07825">
        <ele>572</ele>
        <time>2016-05-02T10:22:50.000Z</time>
      </trkpt>
      <trkpt lat="45.87087" lon="6.07823">
        <ele>571</ele>
        <time>2016-05-02T10:22:51.000Z</time>
      </trkpt>
      <trkpt lat="45.87084" lon="6.07821">
        <ele>571</ele>
        <time>2016-05-02T10:22:52.000Z</time>
      </trkpt>
      <trkpt lat="45.87081" lon="6.07818">
        <ele>571</ele>
        <time>2016-05-02T10:22:53.000Z</time>
      </trkpt>
      <trkpt lat="45.87078" lon="6.07816">
        <ele>571</ele>
        <time>2016-05-02T10:22:54.000Z</time>
      </trkpt>
      <trkpt lat="45.87075" lon="6.07814">
        <ele>571</ele>
        <time>2016-05-02T10:22:55.000Z</time>
      </trkpt>
      <trkpt lat="45.87072" lon="6.07811">
        <ele>570</ele>
        <time>2016-05-02T10:22:56.000Z</time>
      </trkpt>
      <trkpt lat="45.87069" lon="6.07808">
        <ele>570</ele>
        <time>2016-05-02T10:22:57.000Z</time>
      </trkpt>
      <trkpt lat="45.87066" lon="6.07806">
        <ele>570</ele>
        <time>2016-05-02T10:22:58.000Z</time>
      </trkpt>
      <trkpt lat="45.87063" lon="6.07804">
        <ele>570</ele>
        <time>2016-05-02T10:22:59.000Z</time>
      </trkpt>
      <trkpt lat="45.87061" lon="6.07801">
        <ele>570</ele>
        <time>2016-05-02T10:23:00.000Z</time>
      </trkpt>
      <trkpt lat="45.87058" lon="6.07798">
        <ele>569</ele>
        <time>2016-05-02T10:23:01.000Z</time>
      </trkpt>
      <trkpt lat="45.87056" lon="6.07796">
        <ele>569</ele>
        <time>2016-05-02T10:23:02.000Z</time>
      </trkpt>
      <trkpt lat="45.87053" lon="6.07793">
        <ele>569</ele>
        <time>2016-05-02T10:23:03.000Z</time>
      </trkpt>
      <trkpt lat="45.8705" lon="6.0779">
        <ele>569</ele>
        <time>2016-05-02T10:23:04.000Z</time>
      </trkpt>
      <trkpt lat="45.87048" lon="6.07788">
        <ele>569</ele>
        <time>2016-05-02T10:23:05.000Z</time>
      </trkpt>
      <trkpt lat="45.87045" lon="6.07786">
        <ele>568</ele>
        <time>2016-05-02T10:23:06.000Z</time>
      </trkpt>
      <trkpt lat="45.87043" lon="6.07784">
        <ele>568</ele>
        <time>2016-05-02T10:23:07.000Z</time>
      </trkpt>
      <trkpt lat="45.87041" lon="6.07781">
        <ele>568</ele>
        <time>2016-05-02T10:23:08.000Z</time>
      </trkpt>
      <trkpt lat="45.87038" lon="6.07779">
        <ele>568</ele>
        <time>2016-05-02T10:23:09.000Z</time>
      </trkpt>
      <trkpt lat="45.87036" lon="6.07777">
        <ele>568</ele>
        <time>2016-05-02T10:23:10.000Z</time>
      </trkpt>
      <trkpt lat="45.87034" lon="6.07775">
        <ele>568</ele>
        <time>2016-05-02T10:23:11.000Z</time>
      </trkpt>
      <trkpt lat="45.87031" lon="6.07772">
        <ele>568</ele>
        <time>2016-05-02T10:23:12.000Z</time>
      </trkpt>
      <trkpt lat="45.87029" lon="6.0777">
        <ele>568</ele>
        <time>2016-05-02T10:23:13.000Z</time>
      </trkpt>
      <trkpt lat="45.87027" lon="6.07767">
        <ele>568</ele>
        <time>2016-05-02T10:23:14.000Z</time>
      </trkpt>
      <trkpt lat="45.87025" lon="6.07765">
        <ele>568</ele>
        <time>2016-05-02T10:23:15.000Z</time>
      </trkpt>
      <trkpt lat="45.87022" lon="6.07762">
        <ele>568</ele>
        <time>2016-05-02T10:23:16.000Z</time>
      </trkpt>
      <trkpt lat="45.8702" lon="6.0776">
        <ele>568</ele>
        <time>2016-05-02T10:23:17.000Z</time>
      </trkpt>
      <trkpt lat="45.87018" lon="6.07757">
        <ele>567</ele>
        <time>2016-05-02T10:23:18.000Z</time>
      </trkpt>
      <trkpt lat="45.87015" lon="6.07755">
        <ele>568</ele>
        <time>2016-05-02T10:23:19.000Z</time>
      </trkpt>
      <trkpt lat="45.87013" lon="6.07753">
        <ele>568</ele>
        <time>2016-05-02T10:23:20.000Z</time>
      </trkpt>
      <trkpt lat="45.87011" lon="6.07751">
        <ele>568</ele>
        <time>2016-05-02T10:23:21.000Z</time>
      </trkpt>
      <trkpt lat="45.87009" lon="6.07748">
        <ele>568</ele>
        <time>2016-05-02T10:23:22.000Z</time>
      </trkpt>
      <trkpt lat="45.87006" lon="6.07746">
        <ele>568</ele>
        <time>2016-05-02T10:23:23.000Z</time>
      </trkpt>
      <trkpt lat="45.87004" lon="6.07743">
        <ele>568</ele>
        <time>2016-05-02T10:23:24.000Z</time>
      </trkpt>
      <trkpt lat="45.87001" lon="6.07741">
        <ele>568</ele>
        <time>2016-05-02T10:23:25.000Z</time>
      </trkpt>
      <trkpt lat="45.86999" lon="6.07739">
        <ele>568</ele>
        <time>2016-05-02T10:23:26.000Z</time>
      </trkpt>
      <trkpt lat="45.86996" lon="6.07736">
        <ele>568</ele>
        <time>2016-05-02T10:23:27.000Z</time>
      </trkpt>
      <trkpt lat="45.86994" lon="6.07733">
        <ele>568</ele>
        <time>2016-05-02T10:23:28.000Z</time>
      </trkpt>
      <trkpt lat="45.86991" lon="6.0773">
        <ele>567</ele>
        <time>2016-05-02T10:23:29.000Z</time>
      </trkpt>
      <trkpt lat="45.86989" lon="6.07727">
        <ele>567</ele>
        <time>2016-05-02T10:23:30.000Z</time>
      </trkpt>
      <trkpt lat="45.86987" lon="6.07724">
        <ele>567</ele>
        <time>2016-05-02T10:23:31.000Z</time>
      </trkpt>
      <trkpt lat="45.86985" lon="6.07721">
        <ele>567</ele>
        <time>2016-05-02T10:23:32.000Z</time>
      </trkpt>
      <trkpt lat="45.86983" lon="6.07718">
        <ele>567</ele>
        <time>2016-05-02T10:23:33.000Z</time>
      </trkpt>
      <trkpt lat="45.86981" lon="6.07715">
        <ele>566</ele>
        <time>2016-05-02T10:23:34.000Z</time>
      </trkpt>
      <trkpt lat="45.8698" lon="6.07711">
        <ele>566</ele>
        <time>2016-05-02T10:23:35.000Z</time>
      </trkpt>
      <trkpt lat="45.86978" lon="6.07708">
        <ele>566</ele>
        <time>2016-05-02T10:23:36.000Z</time>
      </trkpt>
      <trkpt lat="45.86976" lon="6.07704">
        <ele>566</ele>
        <time>2016-05-02T10:23:37.000Z</time>
      </trkpt>
      <trkpt lat="45.86974" lon="6.07701">
        <ele>566</ele>
        <time>2016-05-02T10:23:38.000Z</time>
      </trkpt>
      <trkpt lat="45.86973" lon="6.07697">
        <ele>566</ele>
        <time>2016-05-02T10:23:39.000Z</time>
      </trkpt>
      <trkpt lat="45.86972" lon="6.07693">
        <ele>566</ele>
        <time>2016-05-02T10:23:40.000Z</time>
      </trkpt>
      <trkpt lat="45.86971" lon="6.07688">
        <ele>566</ele>
        <time>2016-05-02T10:23:41.000Z</time>
      </trkpt>
      <trkpt lat="45.8697" lon="6.07684">
        <ele>566</ele>
        <time>2016-05-02T10:23:42.000Z</time>
      </trkpt>
      <trkpt lat="45.86969" lon="6.0768">
        <ele>566</ele>
        <time>2016-05-02T10:23:43.000Z</time>
      </trkpt>
      <trkpt lat="45.86967" lon="6.07677">
        <ele>566</ele>
        <time>2016-05-02T10:23:44.000Z</time>
      </trkpt>
      <trkpt lat="45.86966" lon="6.07674">
        <ele>565</ele>
        <time>2016-05-02T10:23:45.000Z</time>
      </trkpt>
      <trkpt lat="45.86964" lon="6.0767">
        <ele>565</ele>
        <time>2016-05-02T10:23:46.000Z</time>
      </trkpt>
      <trkpt lat="45.86963" lon="6.07667">
        <ele>565</ele>
        <time>2016-05-02T10:23:47.000Z</time>
      </trkpt>
      <trkpt lat="45.86961" lon="6.07664">
        <ele>565</ele>
        <time>2016-05-02T10:23:48.000Z</time>
      </trkpt>
      <trkpt lat="45.8696" lon="6.07661">
        <ele>565</ele>
        <time>2016-05-02T10:23:49.000Z</time>
      </trkpt>
      <trkpt lat="45.86958" lon="6.07658">
        <ele>564</ele>
        <time>2016-05-02T10:23:50.000Z</time>
      </trkpt>
      <trkpt lat="45.86956" lon="6.07655">
        <ele>564</ele>
        <time>2016-05-02T10:23:51.000Z</time>
      </trkpt>
      <trkpt lat="45.86954" lon="6.07652">
        <ele>564</ele>
        <time>2016-05-02T10:23:52.000Z</time>
      </trkpt>
      <trkpt lat="45.86952" lon="6.07649">
        <ele>564</ele>
        <time>2016-05-02T10:23:53.000Z</time>
      </trkpt>
      <trkpt lat="45.8695" lon="6.07646">
        <ele>563</ele>
        <time>2016-05-02T10:23:54.000Z</time>
      </trkpt>
      <trkpt lat="45.86948" lon="6.07642">
        <ele>563</ele>
        <time>2016-05-02T10:23:55.000Z</time>
      </trkpt>
      <trkpt lat="45.86945" lon="6.07639">
        <ele>563</ele>
        <time>2016-05-02T10:23:56.000Z</time>
      </trkpt>
      <trkpt lat="45.86943" lon="6.07636">
        <ele>562</ele>
        <time>2016-05-02T10:23:57.000Z</time>
      </trkpt>
      <trkpt lat="45.86941" lon="6.07633">
        <ele>562</ele>
        <time>2016-05-02T10:23:58.000Z</time>
      </trkpt>
      <trkpt lat="45.86939" lon="6.0763">
        <ele>562</ele>
        <time>2016-05-02T10:23:59.000Z</time>
      </trkpt>
      <trkpt lat="45.86937" lon="6.07627">
        <ele>562</ele>
        <time>2016-05-02T10:24:00.000Z</time>
      </trkpt>
      <trkpt lat="45.86935" lon="6.07624">
        <ele>561</ele>
        <time>2016-05-02T10:24:01.000Z</time>
      </trkpt>
      <trkpt lat="45.86933" lon="6.07622">
        <ele>561</ele>
        <time>2016-05-02T10:24:02.000Z</time>
      </trkpt>
      <trkpt lat="45.86931" lon="6.0762">
        <ele>561</ele>
        <time>2016-05-02T10:24:03.000Z</time>
      </trkpt>
      <trkpt lat="45.86929" lon="6.07617">
        <ele>561</ele>
        <time>2016-05-02T10:24:04.000Z</time>
      </trkpt>
      <trkpt lat="45.86927" lon="6.07614">
        <ele>561</ele>
        <time>2016-05-02T10:24:05.000Z</time>
      </trkpt>
      <trkpt lat="45.86924" lon="6.07612">
        <ele>560</ele>
        <time>2016-05-02T10:24:06.000Z</time>
      </trkpt>
      <trkpt lat="45.86922" lon="6.0761">
        <ele>560</ele>
        <time>2016-05-02T10:24:07.000Z</time>
      </trkpt>
      <trkpt lat="45.86919" lon="6.07608">
        <ele>560</ele>
        <time>2016-05-02T10:24:08.000Z</time>
      </trkpt>
      <trkpt lat="45.86917" lon="6.07606">
        <ele>560</ele>
        <time>2016-05-02T10:24:09.000Z</time>
      </trkpt>
      <trkpt lat="45.86914" lon="6.07604">
        <ele>559</ele>
        <time>2016-05-02T10:24:10.000Z</time>
      </trkpt>
      <trkpt lat="45.86911" lon="6.07602">
        <ele>559</ele>
        <time>2016-05-02T10:24:11.000Z</time>
      </trkpt>
      <trkpt lat="45.86909" lon="6.076">
        <ele>559</ele>
        <time>2016-05-02T10:24:12.000Z</time>
      </trkpt>
      <trkpt lat="45.86907" lon="6.07599">
        <ele>559</ele>
        <time>2016-05-02T10:24:13.000Z</time>
      </trkpt>
      <trkpt lat="45.86904" lon="6.07598">
        <ele>558</ele>
        <time>2016-05-02T10:24:14.000Z</time>
      </trkpt>
      <trkpt lat="45.86902" lon="6.07596">
        <ele>558</ele>
        <time>2016-05-02T10:24:15.000Z</time>
      </trkpt>
      <trkpt lat="45.86899" lon="6.07595">
        <ele>558</ele>
        <time>2016-05-02T10:24:16.000Z</time>
      </trkpt>
      <trkpt lat="45.86897" lon="6.07594">
        <ele>558</ele>
        <time>2016-05-02T10:24:17.000Z</time>
      </trkpt>
      <trkpt lat="45.86894" lon="6.07592">
        <ele>557</ele>
        <time>2016-05-02T10:24:18.000Z</time>
      </trkpt>
      <trkpt lat="45.86892" lon="6.07589">
        <ele>557</ele>
        <time>2016-05-02T10:24:19.000Z</time>
      </trkpt>
      <trkpt lat="45.86889" lon="6.07587">
        <ele>556</ele>
        <time>2016-05-02T10:24:20.000Z</time>
      </trkpt>
      <trkpt lat="45.86887" lon="6.07584">
        <ele>556</ele>
        <time>2016-05-02T10:24:21.000Z</time>
      </trkpt>
      <trkpt lat="45.86885" lon="6.07582">
        <ele>556</ele>
        <time>2016-05-02T10:24:22.000Z</time>
      </trkpt>
      <trkpt lat="45.86884" lon="6.07579">
        <ele>555</ele>
        <time>2016-05-02T10:24:23.000Z</time>
      </trkpt>
      <trkpt lat="45.86882" lon="6.07576">
        <ele>555</ele>
        <time>2016-05-02T10:24:24.000Z</time>
      </trkpt>
      <trkpt lat="45.86881" lon="6.07573">
        <ele>555</ele>
        <time>2016-05-02T10:24:25.000Z</time>
      </trkpt>
      <trkpt lat="45.86879" lon="6.07569">
        <ele>555</ele>
        <time>2016-05-02T10:24:26.000Z</time>
      </trkpt>
      <trkpt lat="45.86878" lon="6.07566">
        <ele>555</ele>
        <time>2016-05-02T10:24:27.000Z</time>
      </trkpt>
      <trkpt lat="45.86878" lon="6.07562">
        <ele>555</ele>
        <time>2016-05-02T10:24:28.000Z</time>
      </trkpt>
      <trkpt lat="45.86877" lon="6.07558">
        <ele>554</ele>
        <time>2016-05-02T10:24:29.000Z</time>
      </trkpt>
      <trkpt lat="45.86876" lon="6.07554">
        <ele>554</ele>
        <time>2016-05-02T10:24:30.000Z</time>
      </trkpt>
      <trkpt lat="45.86875" lon="6.0755">
        <ele>554</ele>
        <time>2016-05-02T10:24:31.000Z</time>
      </trkpt>
      <trkpt lat="45.86874" lon="6.07546">
        <ele>554</ele>
        <time>2016-05-02T10:24:32.000Z</time>
      </trkpt>
      <trkpt lat="45.86873" lon="6.07543">
        <ele>554</ele>
        <time>2016-05-02T10:24:33.000Z</time>
      </trkpt>
      <trkpt lat="45.86872" lon="6.07541">
        <ele>554</ele>
        <time>2016-05-02T10:24:34.000Z</time>
      </trkpt>
      <trkpt lat="45.86871" lon="6.0754">
        <ele>554</ele>
        <time>2016-05-02T10:24:35.000Z</time>
      </trkpt>
      <trkpt lat="45.8687" lon="6.0754">
        <ele>554</ele>
        <time>2016-05-02T10:24:36.000Z</time>
      </trkpt>
      <trkpt lat="45.8687" lon="6.0754">
        <ele>554</ele>
        <time>2016-05-02T10:24:37.000Z</time>
      </trkpt>
      <trkpt lat="45.86869" lon="6.07539">
        <ele>554</ele>
        <time>2016-05-02T10:24:38.000Z</time>
      </trkpt>
      <trkpt lat="45.86869" lon="6.07539">
        <ele>554</ele>
        <time>2016-05-02T10:24:39.000Z</time>
      </trkpt>
      <trkpt lat="45.86868" lon="6.07538">
        <ele>554</ele>
        <time>2016-05-02T10:24:40.000Z</time>
      </trkpt>
      <trkpt lat="45.86867" lon="6.07537">
        <ele>554</ele>
        <time>2016-05-02T10:24:41.000Z</time>
      </trkpt>
      <trkpt lat="45.86866" lon="6.07536">
        <ele>554</ele>
        <time>2016-05-02T10:24:42.000Z</time>
      </trkpt>
      <trkpt lat="45.86865" lon="6.07535">
        <ele>554</ele>
        <time>2016-05-02T10:24:43.000Z</time>
      </trkpt>
      <trkpt lat="45.86864" lon="6.07534">
        <ele>554</ele>
        <time>2016-05-02T10:24:44.000Z</time>
      </trkpt>
      <trkpt lat="45.86863" lon="6.07532">
        <ele>554</ele>
        <time>2016-05-02T10:24:45.000Z</time>
      </trkpt>
      <trkpt lat="45.86861" lon="6.07531">
        <ele>554</ele>
        <time>2016-05-02T10:24:46.000Z</time>
      </trkpt>
      <trkpt lat="45.86859" lon="6.0753">
        <ele>554</ele>
        <time>2016-05-02T10:24:47.000Z</time>
      </trkpt>
      <trkpt lat="45.86857" lon="6.07529">
        <ele>554</ele>
        <time>2016-05-02T10:24:48.000Z</time>
      </trkpt>
      <trkpt lat="45.86855" lon="6.07528">
        <ele>554</ele>
        <time>2016-05-02T10:24:49.000Z</time>
      </trkpt>
      <trkpt lat="45.86853" lon="6.07527">
        <ele>554</ele>
        <time>2016-05-02T10:24:50.000Z</time>
      </trkpt>
      <trkpt lat="45.86851" lon="6.07526">
        <ele>554</ele>
        <time>2016-05-02T10:24:51.000Z</time>
      </trkpt>
      <trkpt lat="45.86849" lon="6.07524">
        <ele>554</ele>
        <time>2016-05-02T10:24:52.000Z</time>
      </trkpt>
      <trkpt lat="45.86847" lon="6.07523">
        <ele>554</ele>
        <time>2016-05-02T10:24:53.000Z</time>
      </trkpt>
      <trkpt lat="45.86846" lon="6.07522">
        <ele>554</ele>
        <time>2016-05-02T10:24:54.000Z</time>
      </trkpt>
      <trkpt lat="45.86844" lon="6.0752">
        <ele>555</ele>
        <time>2016-05-02T10:24:55.000Z</time>
      </trkpt>
      <trkpt lat="45.86843" lon="6.07518">
        <ele>555</ele>
        <time>2016-05-02T10:24:56.000Z</time>
      </trkpt>
      <trkpt lat="45.86841" lon="6.07516">
        <ele>555</ele>
        <time>2016-05-02T10:24:57.000Z</time>
      </trkpt>
      <trkpt lat="45.8684" lon="6.07514">
        <ele>555</ele>
        <time>2016-05-02T10:24:58.000Z</time>
      </trkpt>
      <trkpt lat="45.86839" lon="6.07511">
        <ele>555</ele>
        <time>2016-05-02T10:24:59.000Z</time>
      </trkpt>
      <trkpt lat="45.86838" lon="6.07509">
        <ele>555</ele>
        <time>2016-05-02T10:25:00.000Z</time>
      </trkpt>
      <trkpt lat="45.86836" lon="6.07507">
        <ele>556</ele>
        <time>2016-05-02T10:25:01.000Z</time>
      </trkpt>
      <trkpt lat="45.86834" lon="6.07504">
        <ele>556</ele>
        <time>2016-05-02T10:25:02.000Z</time>
      </trkpt>
      <trkpt lat="45.86833" lon="6.07502">
        <ele>556</ele>
        <time>2016-05-02T10:25:03.000Z</time>
      </trkpt>
      <trkpt lat="45.86831" lon="6.07499">
        <ele>556</ele>
        <time>2016-05-02T10:25:04.000Z</time>
      </trkpt>
      <trkpt lat="45.86829" lon="6.07496">
        <ele>556</ele>
        <time>2016-05-02T10:25:05.000Z</time>
      </trkpt>
      <trkpt lat="45.86828" lon="6.07493">
        <ele>556</ele>
        <time>2016-05-02T10:25:06.000Z</time>
      </trkpt>
      <trkpt lat="45.86827" lon="6.0749">
        <ele>556</ele>
        <time>2016-05-02T10:25:07.000Z</time>
      </trkpt>
      <trkpt lat="45.86825" lon="6.07486">
        <ele>556</ele>
        <time>2016-05-02T10:25:08.000Z</time>
      </trkpt>
      <trkpt lat="45.86823" lon="6.07482">
        <ele>556</ele>
        <time>2016-05-02T10:25:09.000Z</time>
      </trkpt>
      <trkpt lat="45.86822" lon="6.07479">
        <ele>556</ele>
        <time>2016-05-02T10:25:10.000Z</time>
      </trkpt>
      <trkpt lat="45.8682" lon="6.07475">
        <ele>556</ele>
        <time>2016-05-02T10:25:11.000Z</time>
      </trkpt>
      <trkpt lat="45.86818" lon="6.07471">
        <ele>556</ele>
        <time>2016-05-02T10:25:12.000Z</time>
      </trkpt>
      <trkpt lat="45.86815" lon="6.07467">
        <ele>556</ele>
        <time>2016-05-02T10:25:13.000Z</time>
      </trkpt>
      <trkpt lat="45.86813" lon="6.07464">
        <ele>556</ele>
        <time>2016-05-02T10:25:14.000Z</time>
      </trkpt>
      <trkpt lat="45.86811" lon="6.0746">
        <ele>556</ele>
        <time>2016-05-02T10:25:15.000Z</time>
      </trkpt>
      <trkpt lat="45.86809" lon="6.07456">
        <ele>556</ele>
        <time>2016-05-02T10:25:16.000Z</time>
      </trkpt>
      <trkpt lat="45.86807" lon="6.07452">
        <ele>556</ele>
        <time>2016-05-02T10:25:17.000Z</time>
      </trkpt>
      <trkpt lat="45.86805" lon="6.07448">
        <ele>556</ele>
        <time>2016-05-02T10:25:18.000Z</time>
      </trkpt>
      <trkpt lat="45.86803" lon="6.07445">
        <ele>557</ele>
        <time>2016-05-02T10:25:19.000Z</time>
      </trkpt>
      <trkpt lat="45.86801" lon="6.07441">
        <ele>557</ele>
        <time>2016-05-02T10:25:20.000Z</time>
      </trkpt>
      <trkpt lat="45.86798" lon="6.07438">
        <ele>557</ele>
        <time>2016-05-02T10:25:21.000Z</time>
      </trkpt>
      <trkpt lat="45.86796" lon="6.07434">
        <ele>557</ele>
        <time>2016-05-02T10:25:22.000Z</time>
      </trkpt>
      <trkpt lat="45.86794" lon="6.0743">
        <ele>557</ele>
        <time>2016-05-02T10:25:23.000Z</time>
      </trkpt>
      <trkpt lat="45.86792" lon="6.07427">
        <ele>557</ele>
        <time>2016-05-02T10:25:24.000Z</time>
      </trkpt>
      <trkpt lat="45.86791" lon="6.07424">
        <ele>557</ele>
        <time>2016-05-02T10:25:25.000Z</time>
      </trkpt>
      <trkpt lat="45.86789" lon="6.07421">
        <ele>557</ele>
        <time>2016-05-02T10:25:26.000Z</time>
      </trkpt>
      <trkpt lat="45.86787" lon="6.07419">
        <ele>557</ele>
        <time>2016-05-02T10:25:27.000Z</time>
      </trkpt>
      <trkpt lat="45.86785" lon="6.07416">
        <ele>557</ele>
        <time>2016-05-02T10:25:28.000Z</time>
      </trkpt>
      <trkpt lat="45.86784" lon="6.07414">
        <ele>557</ele>
        <time>2016-05-02T10:25:29.000Z</time>
      </trkpt>
      <trkpt lat="45.86782" lon="6.07411">
        <ele>557</ele>
        <time>2016-05-02T10:25:30.000Z</time>
      </trkpt>
      <trkpt lat="45.86781" lon="6.07409">
        <ele>557</ele>
        <time>2016-05-02T10:25:31.000Z</time>
      </trkpt>
      <trkpt lat="45.8678" lon="6.07406">
        <ele>557</ele>
        <time>2016-05-02T10:25:32.000Z</time>
      </trkpt>
      <trkpt lat="45.86778" lon="6.07404">
        <ele>557</ele>
        <time>2016-05-02T10:25:33.000Z</time>
      </trkpt>
      <trkpt lat="45.86776" lon="6.07401">
        <ele>557</ele>
        <time>2016-05-02T10:25:34.000Z</time>
      </trkpt>
      <trkpt lat="45.86775" lon="6.07398">
        <ele>557</ele>
        <time>2016-05-02T10:25:35.000Z</time>
      </trkpt>
      <trkpt lat="45.86773" lon="6.07395">
        <ele>557</ele>
        <time>2016-05-02T10:25:36.000Z</time>
      </trkpt>
      <trkpt lat="45.86771" lon="6.07393">
        <ele>557</ele>
        <time>2016-05-02T10:25:37.000Z</time>
      </trkpt>
      <trkpt lat="45.86769" lon="6.07389">
        <ele>557</ele>
        <time>2016-05-02T10:25:38.000Z</time>
      </trkpt>
      <trkpt lat="45.86766" lon="6.07386">
        <ele>557</ele>
        <time>2016-05-02T10:25:39.000Z</time>
      </trkpt>
      <trkpt lat="45.86764" lon="6.07383">
        <ele>557</ele>
        <time>2016-05-02T10:25:40.000Z</time>
      </trkpt>
      <trkpt lat="45.86761" lon="6.0738">
        <ele>557</ele>
        <time>2016-05-02T10:25:41.000Z</time>
      </trkpt>
      <trkpt lat="45.86758" lon="6.07377">
        <ele>557</ele>
        <time>2016-05-02T10:25:42.000Z</time>
      </trkpt>
      <trkpt lat="45.86755" lon="6.07374">
        <ele>557</ele>
        <time>2016-05-02T10:25:43.000Z</time>
      </trkpt>
      <trkpt lat="45.86752" lon="6.07372">
        <ele>557</ele>
        <time>2016-05-02T10:25:44.000Z</time>
      </trkpt>
      <trkpt lat="45.86749" lon="6.0737">
        <ele>557</ele>
        <time>2016-05-02T10:25:45.000Z</time>
      </trkpt>
      <trkpt lat="45.86746" lon="6.07367">
        <ele>557</ele>
        <time>2016-05-02T10:25:46.000Z</time>
      </trkpt>
      <trkpt lat="45.86742" lon="6.07365">
        <ele>557</ele>
        <time>2016-05-02T10:25:47.000Z</time>
      </trkpt>
      <trkpt lat="45.86739" lon="6.07363">
        <ele>557</ele>
        <time>2016-05-02T10:25:48.000Z</time>
      </trkpt>
      <trkpt lat="45.86736" lon="6.0736">
        <ele>556</ele>
        <time>2016-05-02T10:25:49.000Z</time>
      </trkpt>
      <trkpt lat="45.86733" lon="6.07358">
        <ele>556</ele>
        <time>2016-05-02T10:25:50.000Z</time>
      </trkpt>
      <trkpt lat="45.86729" lon="6.07356">
        <ele>556</ele>
        <time>2016-05-02T10:25:51.000Z</time>
      </trkpt>
      <trkpt lat="45.86727" lon="6.07353">
        <ele>556</ele>
        <time>2016-05-02T10:25:52.000Z</time>
      </trkpt>
      <trkpt lat="45.86724" lon="6.07351">
        <ele>556</ele>
        <time>2016-05-02T10:25:53.000Z</time>
      </trkpt>
      <trkpt lat="45.86721" lon="6.07348">
        <ele>556</ele>
        <time>2016-05-02T10:25:54.000Z</time>
      </trkpt>
      <trkpt lat="45.86719" lon="6.07346">
        <ele>556</ele>
        <time>2016-05-02T10:25:55.000Z</time>
      </trkpt>
      <trkpt lat="45.86716" lon="6.07344">
        <ele>556</ele>
        <time>2016-05-02T10:25:56.000Z</time>
      </trkpt>
      <trkpt lat="45.86713" lon="6.07341">
        <ele>556</ele>
        <time>2016-05-02T10:25:57.000Z</time>
      </trkpt>
      <trkpt lat="45.86711" lon="6.07339">
        <ele>556</ele>
        <time>2016-05-02T10:25:58.000Z</time>
      </trkpt>
      <trkpt lat="45.86708" lon="6.07336">
        <ele>556</ele>
        <time>2016-05-02T10:25:59.000Z</time>
      </trkpt>
      <trkpt lat="45.86705" lon="6.07334">
        <ele>556</ele>
        <time>2016-05-02T10:26:00.000Z</time>
      </trkpt>
      <trkpt lat="45.86702" lon="6.07332">
        <ele>556</ele>
        <time>2016-05-02T10:26:01.000Z</time>
      </trkpt>
      <trkpt lat="45.867" lon="6.07329">
        <ele>556</ele>
        <time>2016-05-02T10:26:02.000Z</time>
      </trkpt>
      <trkpt lat="45.86697" lon="6.07327">
        <ele>556</ele>
        <time>2016-05-02T10:26:03.000Z</time>
      </trkpt>
      <trkpt lat="45.86695" lon="6.07324">
        <ele>556</ele>
        <time>2016-05-02T10:26:04.000Z</time>
      </trkpt>
      <trkpt lat="45.86693" lon="6.07322">
        <ele>556</ele>
        <time>2016-05-02T10:26:05.000Z</time>
      </trkpt>
      <trkpt lat="45.86691" lon="6.07319">
        <ele>555</ele>
        <time>2016-05-02T10:26:06.000Z</time>
      </trkpt>
      <trkpt lat="45.86689" lon="6.07316">
        <ele>555</ele>
        <time>2016-05-02T10:26:07.000Z</time>
      </trkpt>
      <trkpt lat="45.86688" lon="6.07313">
        <ele>555</ele>
        <time>2016-05-02T10:26:08.000Z</time>
      </trkpt>
      <trkpt lat="45.86686" lon="6.0731">
        <ele>555</ele>
        <time>2016-05-02T10:26:09.000Z</time>
      </trkpt>
      <trkpt lat="45.86684" lon="6.07307">
        <ele>555</ele>
        <time>2016-05-02T10:26:10.000Z</time>
      </trkpt>
      <trkpt lat="45.86682" lon="6.07304">
        <ele>555</ele>
        <time>2016-05-02T10:26:11.000Z</time>
      </trkpt>
      <trkpt lat="45.8668" lon="6.07301">
        <ele>555</ele>
        <time>2016-05-02T10:26:12.000Z</time>
      </trkpt>
      <trkpt lat="45.86678" lon="6.07298">
        <ele>555</ele>
        <time>2016-05-02T10:26:13.000Z</time>
      </trkpt>
      <trkpt lat="45.86677" lon="6.07295">
        <ele>554</ele>
        <time>2016-05-02T10:26:14.000Z</time>
      </trkpt>
      <trkpt lat="45.86675" lon="6.07292">
        <ele>554</ele>
        <time>2016-05-02T10:26:15.000Z</time>
      </trkpt>
      <trkpt lat="45.86673" lon="6.0729">
        <ele>554</ele>
        <time>2016-05-02T10:26:16.000Z</time>
      </trkpt>
      <trkpt lat="45.86671" lon="6.07287">
        <ele>554</ele>
        <time>2016-05-02T10:26:17.000Z</time>
      </trkpt>
      <trkpt lat="45.86669" lon="6.07284">
        <ele>554</ele>
        <time>2016-05-02T10:26:18.000Z</time>
      </trkpt>
      <trkpt lat="45.86667" lon="6.07282">
        <ele>554</ele>
        <time>2016-05-02T10:26:19.000Z</time>
      </trkpt>
      <trkpt lat="45.86664" lon="6.0728">
        <ele>554</ele>
        <time>2016-05-02T10:26:20.000Z</time>
      </trkpt>
      <trkpt lat="45.86662" lon="6.07278">
        <ele>554</ele>
        <time>2016-05-02T10:26:21.000Z</time>
      </trkpt>
      <trkpt lat="45.8666" lon="6.07276">
        <ele>554</ele>
        <time>2016-05-02T10:26:22.000Z</time>
      </trkpt>
      <trkpt lat="45.86658" lon="6.07274">
        <ele>554</ele>
        <time>2016-05-02T10:26:23.000Z</time>
      </trkpt>
      <trkpt lat="45.86656" lon="6.07272">
        <ele>554</ele>
        <time>2016-05-02T10:26:24.000Z</time>
      </trkpt>
      <trkpt lat="45.86654" lon="6.0727">
        <ele>554</ele>
        <time>2016-05-02T10:26:25.000Z</time>
      </trkpt>
      <trkpt lat="45.86652" lon="6.07268">
        <ele>553</ele>
        <time>2016-05-02T10:26:26.000Z</time>
      </trkpt>
      <trkpt lat="45.8665" lon="6.07267">
        <ele>553</ele>
        <time>2016-05-02T10:26:27.000Z</time>
      </trkpt>
      <trkpt lat="45.86648" lon="6.07265">
        <ele>553</ele>
        <time>2016-05-02T10:26:28.000Z</time>
      </trkpt>
      <trkpt lat="45.86646" lon="6.07263">
        <ele>553</ele>
        <time>2016-05-02T10:26:29.000Z</time>
      </trkpt>
      <trkpt lat="45.86644" lon="6.07261">
        <ele>553</ele>
        <time>2016-05-02T10:26:30.000Z</time>
      </trkpt>
      <trkpt lat="45.86642" lon="6.07259">
        <ele>552</ele>
        <time>2016-05-02T10:26:31.000Z</time>
      </trkpt>
      <trkpt lat="45.86639" lon="6.07257">
        <ele>552</ele>
        <time>2016-05-02T10:26:32.000Z</time>
      </trkpt>
      <trkpt lat="45.86637" lon="6.07254">
        <ele>552</ele>
        <time>2016-05-02T10:26:33.000Z</time>
      </trkpt>
      <trkpt lat="45.86634" lon="6.07252">
        <ele>552</ele>
        <time>2016-05-02T10:26:34.000Z</time>
      </trkpt>
      <trkpt lat="45.86631" lon="6.07249">
        <ele>552</ele>
        <time>2016-05-02T10:26:35.000Z</time>
      </trkpt>
      <trkpt lat="45.86629" lon="6.07246">
        <ele>551</ele>
        <time>2016-05-02T10:26:36.000Z</time>
      </trkpt>
      <trkpt lat="45.86627" lon="6.07244">
        <ele>551</ele>
        <time>2016-05-02T10:26:37.000Z</time>
      </trkpt>
      <trkpt lat="45.86625" lon="6.07241">
        <ele>551</ele>
        <time>2016-05-02T10:26:38.000Z</time>
      </trkpt>
      <trkpt lat="45.86623" lon="6.07239">
        <ele>551</ele>
        <time>2016-05-02T10:26:39.000Z</time>
      </trkpt>
      <trkpt lat="45.86621" lon="6.07236">
        <ele>551</ele>
        <time>2016-05-02T10:26:40.000Z</time>
      </trkpt>
      <trkpt lat="45.86619" lon="6.07234">
        <ele>551</ele>
        <time>2016-05-02T10:26:41.000Z</time>
      </trkpt>
      <trkpt lat="45.86617" lon="6.07232">
        <ele>551</ele>
        <time>2016-05-02T10:26:42.000Z</time>
      </trkpt>
      <trkpt lat="45.86616" lon="6.07229">
        <ele>551</ele>
        <time>2016-05-02T10:26:43.000Z</time>
      </trkpt>
      <trkpt lat="45.86614" lon="6.07226">
        <ele>550</ele>
        <time>2016-05-02T10:26:44.000Z</time>
      </trkpt>
      <trkpt lat="45.86613" lon="6.07224">
        <ele>550</ele>
        <time>2016-05-02T10:26:45.000Z</time>
      </trkpt>
      <trkpt lat="45.86611" lon="6.07221">
        <ele>550</ele>
        <time>2016-05-02T10:26:46.000Z</time>
      </trkpt>
      <trkpt lat="45.8661" lon="6.07219">
        <ele>550</ele>
        <time>2016-05-02T10:26:47.000Z</time>
      </trkpt>
      <trkpt lat="45.86608" lon="6.07216">
        <ele>550</ele>
        <time>2016-05-02T10:26:48.000Z</time>
      </trkpt>
      <trkpt lat="45.86607" lon="6.07214">
        <ele>550</ele>
        <time>2016-05-02T10:26:49.000Z</time>
      </trkpt>
      <trkpt lat="45.86605" lon="6.07211">
        <ele>550</ele>
        <time>2016-05-02T10:26:50.000Z</time>
      </trkpt>
      <trkpt lat="45.86604" lon="6.07208">
        <ele>550</ele>
        <time>2016-05-02T10:26:51.000Z</time>
      </trkpt>
      <trkpt lat="45.86602" lon="6.07205">
        <ele>550</ele>
        <time>2016-05-02T10:26:52.000Z</time>
      </trkpt>
      <trkpt lat="45.86601" lon="6.07203">
        <ele>549</ele>
        <time>2016-05-02T10:26:53.000Z</time>
      </trkpt>
      <trkpt lat="45.86599" lon="6.07201">
        <ele>549</ele>
        <time>2016-05-02T10:26:54.000Z</time>
      </trkpt>
      <trkpt lat="45.86598" lon="6.07198">
        <ele>549</ele>
        <time>2016-05-02T10:26:55.000Z</time>
      </trkpt>
      <trkpt lat="45.86596" lon="6.07196">
        <ele>549</ele>
        <time>2016-05-02T10:26:56.000Z</time>
      </trkpt>
      <trkpt lat="45.86594" lon="6.07193">
        <ele>549</ele>
        <time>2016-05-02T10:26:57.000Z</time>
      </trkpt>
      <trkpt lat="45.86592" lon="6.0719">
        <ele>549</ele>
        <time>2016-05-02T10:26:58.000Z</time>
      </trkpt>
      <trkpt lat="45.8659" lon="6.07188">
        <ele>549</ele>
        <time>2016-05-02T10:26:59.000Z</time>
      </trkpt>
      <trkpt lat="45.86588" lon="6.07186">
        <ele>549</ele>
        <time>2016-05-02T10:27:00.000Z</time>
      </trkpt>
      <trkpt lat="45.86585" lon="6.07183">
        <ele>549</ele>
        <time>2016-05-02T10:27:01.000Z</time>
      </trkpt>
      <trkpt lat="45.86583" lon="6.07181">
        <ele>549</ele>
        <time>2016-05-02T10:27:02.000Z</time>
      </trkpt>
      <trkpt lat="45.86581" lon="6.07179">
        <ele>549</ele>
        <time>2016-05-02T10:27:03.000Z</time>
      </trkpt>
      <trkpt lat="45.86578" lon="6.07177">
        <ele>549</ele>
        <time>2016-05-02T10:27:04.000Z</time>
      </trkpt>
      <trkpt lat="45.86576" lon="6.07174">
        <ele>549</ele>
        <time>2016-05-02T10:27:05.000Z</time>
      </trkpt>
      <trkpt lat="45.86573" lon="6.07173">
        <ele>549</ele>
        <time>2016-05-02T10:27:06.000Z</time>
      </trkpt>
      <trkpt lat="45.8657" lon="6.07171">
        <ele>549</ele>
        <time>2016-05-02T10:27:07.000Z</time>
      </trkpt>
      <trkpt lat="45.86566" lon="6.0717">
        <ele>549</ele>
        <time>2016-05-02T10:27:08.000Z</time>
      </trkpt>
      <trkpt lat="45.86563" lon="6.07169">
        <ele>550</ele>
        <time>2016-05-02T10:27:09.000Z</time>
      </trkpt>
      <trkpt lat="45.8656" lon="6.07169">
        <ele>550</ele>
        <time>2016-05-02T10:27:10.000Z</time>
      </trkpt>
      <trkpt lat="45.86557" lon="6.07169">
        <ele>550</ele>
        <time>2016-05-02T10:27:11.000Z</time>
      </trkpt>
      <trkpt lat="45.86554" lon="6.07169">
        <ele>550</ele>
        <time>2016-05-02T10:27:12.000Z</time>
      </trkpt>
      <trkpt lat="45.8655" lon="6.07168">
        <ele>551</ele>
        <time>2016-05-02T10:27:13.000Z</time>
      </trkpt>
      <trkpt lat="45.86547" lon="6.07168">
        <ele>551</ele>
        <time>2016-05-02T10:27:14.000Z</time>
      </trkpt>
      <trkpt lat="45.86544" lon="6.07167">
        <ele>551</ele>
        <time>2016-05-02T10:27:15.000Z</time>
      </trkpt>
      <trkpt lat="45.86542" lon="6.07167">
        <ele>551</ele>
        <time>2016-05-02T10:27:16.000Z</time>
      </trkpt>
      <trkpt lat="45.86539" lon="6.07166">
        <ele>551</ele>
        <time>2016-05-02T10:27:17.000Z</time>
      </trkpt>
      <trkpt lat="45.86536" lon="6.07166">
        <ele>551</ele>
        <time>2016-05-02T10:27:18.000Z</time>
      </trkpt>
      <trkpt lat="45.86533" lon="6.07166">
        <ele>552</ele>
        <time>2016-05-02T10:27:19.000Z</time>
      </trkpt>
      <trkpt lat="45.86531" lon="6.07166">
        <ele>552</ele>
        <time>2016-05-02T10:27:20.000Z</time>
      </trkpt>
      <trkpt lat="45.86528" lon="6.07166">
        <ele>552</ele>
        <time>2016-05-02T10:27:21.000Z</time>
      </trkpt>
      <trkpt lat="45.86525" lon="6.07167">
        <ele>552</ele>
        <time>2016-05-02T10:27:22.000Z</time>
      </trkpt>
      <trkpt lat="45.86522" lon="6.07167">
        <ele>552</ele>
        <time>2016-05-02T10:27:23.000Z</time>
      </trkpt>
      <trkpt lat="45.8652" lon="6.07168">
        <ele>552</ele>
        <time>2016-05-02T10:27:24.000Z</time>
      </trkpt>
      <trkpt lat="45.86517" lon="6.07168">
        <ele>552</ele>
        <time>2016-05-02T10:27:25.000Z</time>
      </trkpt>
      <trkpt lat="45.86514" lon="6.07169">
        <ele>552</ele>
        <time>2016-05-02T10:27:26.000Z</time>
      </trkpt>
      <trkpt lat="45.86511" lon="6.07169">
        <ele>552</ele>
        <time>2016-05-02T10:27:27.000Z</time>
      </trkpt>
      <trkpt lat="45.86508" lon="6.0717">
        <ele>552</ele>
        <time>2016-05-02T10:27:28.000Z</time>
      </trkpt>
      <trkpt lat="45.86505" lon="6.0717">
        <ele>552</ele>
        <time>2016-05-02T10:27:29.000Z</time>
      </trkpt>
      <trkpt lat="45.86502" lon="6.07171">
        <ele>552</ele>
        <time>2016-05-02T10:27:30.000Z</time>
      </trkpt>
      <trkpt lat="45.86499" lon="6.07172">
        <ele>552</ele>
        <time>2016-05-02T10:27:31.000Z</time>
      </trkpt>
      <trkpt lat="45.86497" lon="6.07172">
        <ele>552</ele>
        <time>2016-05-02T10:27:32.000Z</time>
      </trkpt>
      <trkpt lat="45.86494" lon="6.07173">
        <ele>552</ele>
        <time>2016-05-02T10:27:33.000Z</time>
      </trkpt>
      <trkpt lat="45.86491" lon="6.07173">
        <ele>552</ele>
        <time>2016-05-02T10:27:34.000Z</time>
      </trkpt>
      <trkpt lat="45.86489" lon="6.07174">
        <ele>552</ele>
        <time>2016-05-02T10:27:35.000Z</time>
      </trkpt>
      <trkpt lat="45.86486" lon="6.07174">
        <ele>552</ele>
        <time>2016-05-02T10:27:36.000Z</time>
      </trkpt>
      <trkpt lat="45.86484" lon="6.07174">
        <ele>552</ele>
        <time>2016-05-02T10:27:37.000Z</time>
      </trkpt>
      <trkpt lat="45.86482" lon="6.07175">
        <ele>552</ele>
        <time>2016-05-02T10:27:38.000Z</time>
      </trkpt>
      <trkpt lat="45.8648" lon="6.07176">
        <ele>553</ele>
        <time>2016-05-02T10:27:39.000Z</time>
      </trkpt>
      <trkpt lat="45.86478" lon="6.07176">
        <ele>553</ele>
        <time>2016-05-02T10:27:40.000Z</time>
      </trkpt>
      <trkpt lat="45.86477" lon="6.07177">
        <ele>553</ele>
        <time>2016-05-02T10:27:41.000Z</time>
      </trkpt>
      <trkpt lat="45.86474" lon="6.07178">
        <ele>553</ele>
        <time>2016-05-02T10:27:42.000Z</time>
      </trkpt>
      <trkpt lat="45.86472" lon="6.07178">
        <ele>553</ele>
        <time>2016-05-02T10:27:43.000Z</time>
      </trkpt>
      <trkpt lat="45.8647" lon="6.07179">
        <ele>553</ele>
        <time>2016-05-02T10:27:44.000Z</time>
      </trkpt>
      <trkpt lat="45.86467" lon="6.0718">
        <ele>553</ele>
        <time>2016-05-02T10:27:45.000Z</time>
      </trkpt>
      <trkpt lat="45.86465" lon="6.07181">
        <ele>553</ele>
        <time>2016-05-02T10:27:46.000Z</time>
      </trkpt>
      <trkpt lat="45.86462" lon="6.07181">
        <ele>553</ele>
        <time>2016-05-02T10:27:47.000Z</time>
      </trkpt>
      <trkpt lat="45.86459" lon="6.07181">
        <ele>553</ele>
        <time>2016-05-02T10:27:48.000Z</time>
      </trkpt>
      <trkpt lat="45.86456" lon="6.07181">
        <ele>553</ele>
        <time>2016-05-02T10:27:49.000Z</time>
      </trkpt>
      <trkpt lat="45.86453" lon="6.0718">
        <ele>553</ele>
        <time>2016-05-02T10:27:50.000Z</time>
      </trkpt>
      <trkpt lat="45.8645" lon="6.07179">
        <ele>553</ele>
        <time>2016-05-02T10:27:51.000Z</time>
      </trkpt>
      <trkpt lat="45.86447" lon="6.07178">
        <ele>553</ele>
        <time>2016-05-02T10:27:52.000Z</time>
      </trkpt>
      <trkpt lat="45.86445" lon="6.07176">
        <ele>553</ele>
        <time>2016-05-02T10:27:53.000Z</time>
      </trkpt>
      <trkpt lat="45.86442" lon="6.07175">
        <ele>553</ele>
        <time>2016-05-02T10:27:54.000Z</time>
      </trkpt>
      <trkpt lat="45.8644" lon="6.07173">
        <ele>553</ele>
        <time>2016-05-02T10:27:55.000Z</time>
      </trkpt>
      <trkpt lat="45.86437" lon="6.07172">
        <ele>553</ele>
        <time>2016-05-02T10:27:56.000Z</time>
      </trkpt>
      <trkpt lat="45.86435" lon="6.0717">
        <ele>553</ele>
        <time>2016-05-02T10:27:57.000Z</time>
      </trkpt>
      <trkpt lat="45.86433" lon="6.07168">
        <ele>553</ele>
        <time>2016-05-02T10:27:58.000Z</time>
      </trkpt>
      <trkpt lat="45.8643" lon="6.07167">
        <ele>553</ele>
        <time>2016-05-02T10:27:59.000Z</time>
      </trkpt>
      <trkpt lat="45.86428" lon="6.07165">
        <ele>552</ele>
        <time>2016-05-02T10:28:00.000Z</time>
      </trkpt>
      <trkpt lat="45.86426" lon="6.07162">
        <ele>552</ele>
        <time>2016-05-02T10:28:01.000Z</time>
      </trkpt>
      <trkpt lat="45.86423" lon="6.0716">
        <ele>552</ele>
        <time>2016-05-02T10:28:02.000Z</time>
      </trkpt>
      <trkpt lat="45.86421" lon="6.07158">
        <ele>552</ele>
        <time>2016-05-02T10:28:03.000Z</time>
      </trkpt>
      <trkpt lat="45.86418" lon="6.07156">
        <ele>552</ele>
        <time>2016-05-02T10:28:04.000Z</time>
      </trkpt>
      <trkpt lat="45.86416" lon="6.07155">
        <ele>552</ele>
        <time>2016-05-02T10:28:05.000Z</time>
      </trkpt>
      <trkpt lat="45.86413" lon="6.07153">
        <ele>552</ele>
        <time>2016-05-02T10:28:06.000Z</time>
      </trkpt>
      <trkpt lat="45.86411" lon="6.07151">
        <ele>551</ele>
        <time>2016-05-02T10:28:07.000Z</time>
      </trkpt>
      <trkpt lat="45.86408" lon="6.07149">
        <ele>551</ele>
        <time>2016-05-02T10:28:08.000Z</time>
      </trkpt>
      <trkpt lat="45.86405" lon="6.07148">
        <ele>551</ele>
        <time>2016-05-02T10:28:09.000Z</time>
      </trkpt>
      <trkpt lat="45.86402" lon="6.07146">
        <ele>551</ele>
        <time>2016-05-02T10:28:10.000Z</time>
      </trkpt>
      <trkpt lat="45.86399" lon="6.07144">
        <ele>551</ele>
        <time>2016-05-02T10:28:11.000Z</time>
      </trkpt>
      <trkpt lat="45.86396" lon="6.07143">
        <ele>551</ele>
        <time>2016-05-02T10:28:12.000Z</time>
      </trkpt>
      <trkpt lat="45.86394" lon="6.07142">
        <ele>551</ele>
        <time>2016-05-02T10:28:13.000Z</time>
      </trkpt>
      <trkpt lat="45.86391" lon="6.07141">
        <ele>551</ele>
        <time>2016-05-02T10:28:14.000Z</time>
      </trkpt>
      <trkpt lat="45.86388" lon="6.0714">
        <ele>551</ele>
        <time>2016-05-02T10:28:15.000Z</time>
      </trkpt>
      <trkpt lat="45.86385" lon="6.0714">
        <ele>551</ele>
        <time>2016-05-02T10:28:16.000Z</time>
      </trkpt>
      <trkpt lat="45.86382" lon="6.0714">
        <ele>551</ele>
        <time>2016-05-02T10:28:17.000Z</time>
      </trkpt>
      <trkpt lat="45.86379" lon="6.0714">
        <ele>551</ele>
        <time>2016-05-02T10:28:18.000Z</time>
      </trkpt>
      <trkpt lat="45.86377" lon="6.07141">
        <ele>551</ele>
        <time>2016-05-02T10:28:19.000Z</time>
      </trkpt>
      <trkpt lat="45.86374" lon="6.07141">
        <ele>551</ele>
        <time>2016-05-02T10:28:20.000Z</time>
      </trkpt>
      <trkpt lat="45.86372" lon="6.07142">
        <ele>551</ele>
        <time>2016-05-02T10:28:21.000Z</time>
      </trkpt>
      <trkpt lat="45.86369" lon="6.07142">
        <ele>552</ele>
        <time>2016-05-02T10:28:22.000Z</time>
      </trkpt>
      <trkpt lat="45.86366" lon="6.07143">
        <ele>552</ele>
        <time>2016-05-02T10:28:23.000Z</time>
      </trkpt>
      <trkpt lat="45.86364" lon="6.07143">
        <ele>552</ele>
        <time>2016-05-02T10:28:24.000Z</time>
      </trkpt>
      <trkpt lat="45.86361" lon="6.07143">
        <ele>552</ele>
        <time>2016-05-02T10:28:25.000Z</time>
      </trkpt>
      <trkpt lat="45.86358" lon="6.07143">
        <ele>552</ele>
        <time>2016-05-02T10:28:26.000Z</time>
      </trkpt>
      <trkpt lat="45.86355" lon="6.07143">
        <ele>552</ele>
        <time>2016-05-02T10:28:27.000Z</time>
      </trkpt>
      <trkpt lat="45.86353" lon="6.07143">
        <ele>552</ele>
        <time>2016-05-02T10:28:28.000Z</time>
      </trkpt>
      <trkpt lat="45.8635" lon="6.07144">
        <ele>552</ele>
        <time>2016-05-02T10:28:29.000Z</time>
      </trkpt>
      <trkpt lat="45.86347" lon="6.07143">
        <ele>552</ele>
        <time>2016-05-02T10:28:30.000Z</time>
      </trkpt>
      <trkpt lat="45.86345" lon="6.07143">
        <ele>552</ele>
        <time>2016-05-02T10:28:31.000Z</time>
      </trkpt>
      <trkpt lat="45.86342" lon="6.07143">
        <ele>552</ele>
        <time>2016-05-02T10:28:32.000Z</time>
      </trkpt>
      <trkpt lat="45.86339" lon="6.07143">
        <ele>552</ele>
        <time>2016-05-02T10:28:33.000Z</time>
      </trkpt>
      <trkpt lat="45.86337" lon="6.07143">
        <ele>552</ele>
        <time>2016-05-02T10:28:34.000Z</time>
      </trkpt>
      <trkpt lat="45.86334" lon="6.07144">
        <ele>553</ele>
        <time>2016-05-02T10:28:35.000Z</time>
      </trkpt>
      <trkpt lat="45.86332" lon="6.07144">
        <ele>553</ele>
        <time>2016-05-02T10:28:36.000Z</time>
      </trkpt>
      <trkpt lat="45.8633" lon="6.07146">
        <ele>553</ele>
        <time>2016-05-02T10:28:37.000Z</time>
      </trkpt>
      <trkpt lat="45.86328" lon="6.07149">
        <ele>553</ele>
        <time>2016-05-02T10:28:38.000Z</time>
      </trkpt>
      <trkpt lat="45.86326" lon="6.07152">
        <ele>553</ele>
        <time>2016-05-02T10:28:39.000Z</time>
      </trkpt>
      <trkpt lat="45.86325" lon="6.07155">
        <ele>553</ele>
        <time>2016-05-02T10:28:40.000Z</time>
      </trkpt>
      <trkpt lat="45.86323" lon="6.07159">
        <ele>553</ele>
        <time>2016-05-02T10:28:41.000Z</time>
      </trkpt>
      <trkpt lat="45.86322" lon="6.07162">
        <ele>553</ele>
        <time>2016-05-02T10:28:42.000Z</time>
      </trkpt>
      <trkpt lat="45.86321" lon="6.07165">
        <ele>553</ele>
        <time>2016-05-02T10:28:43.000Z</time>
      </trkpt>
      <trkpt lat="45.8632" lon="6.07169">
        <ele>553</ele>
        <time>2016-05-02T10:28:44.000Z</time>
      </trkpt>
      <trkpt lat="45.86318" lon="6.07172">
        <ele>553</ele>
        <time>2016-05-02T10:28:45.000Z</time>
      </trkpt>
      <trkpt lat="45.86317" lon="6.07175">
        <ele>553</ele>
        <time>2016-05-02T10:28:46.000Z</time>
      </trkpt>
      <trkpt lat="45.86315" lon="6.07178">
        <ele>553</ele>
        <time>2016-05-02T10:28:47.000Z</time>
      </trkpt>
      <trkpt lat="45.86313" lon="6.0718">
        <ele>553</ele>
        <time>2016-05-02T10:28:48.000Z</time>
      </trkpt>
      <trkpt lat="45.86311" lon="6.07183">
        <ele>553</ele>
        <time>2016-05-02T10:28:49.000Z</time>
      </trkpt>
      <trkpt lat="45.86309" lon="6.07186">
        <ele>553</ele>
        <time>2016-05-02T10:28:50.000Z</time>
      </trkpt>
      <trkpt lat="45.86306" lon="6.07188">
        <ele>553</ele>
        <time>2016-05-02T10:28:51.000Z</time>
      </trkpt>
      <trkpt lat="45.86304" lon="6.0719">
        <ele>553</ele>
        <time>2016-05-02T10:28:52.000Z</time>
      </trkpt>
      <trkpt lat="45.86302" lon="6.07192">
        <ele>553</ele>
        <time>2016-05-02T10:28:53.000Z</time>
      </trkpt>
      <trkpt lat="45.86299" lon="6.07194">
        <ele>553</ele>
        <time>2016-05-02T10:28:54.000Z</time>
      </trkpt>
      <trkpt lat="45.86297" lon="6.07195">
        <ele>554</ele>
        <time>2016-05-02T10:28:55.000Z</time>
      </trkpt>
      <trkpt lat="45.86294" lon="6.07196">
        <ele>554</ele>
        <time>2016-05-02T10:28:56.000Z</time>
      </trkpt>
      <trkpt lat="45.86292" lon="6.07197">
        <ele>554</ele>
        <time>2016-05-02T10:28:57.000Z</time>
      </trkpt>
      <trkpt lat="45.86289" lon="6.07198">
        <ele>554</ele>
        <time>2016-05-02T10:28:58.000Z</time>
      </trkpt>
      <trkpt lat="45.86287" lon="6.07198">
        <ele>554</ele>
        <time>2016-05-02T10:28:59.000Z</time>
      </trkpt>
      <trkpt lat="45.86284" lon="6.07198">
        <ele>554</ele>
        <time>2016-05-02T10:29:00.000Z</time>
      </trkpt>
      <trkpt lat="45.86281" lon="6.07198">
        <ele>554</ele>
        <time>2016-05-02T10:29:01.000Z</time>
      </trkpt>
      <trkpt lat="45.86278" lon="6.07197">
        <ele>554</ele>
        <time>2016-05-02T10:29:02.000Z</time>
      </trkpt>
      <trkpt lat="45.86275" lon="6.07196">
        <ele>554</ele>
        <time>2016-05-02T10:29:03.000Z</time>
      </trkpt>
      <trkpt lat="45.86272" lon="6.07196">
        <ele>554</ele>
        <time>2016-05-02T10:29:04.000Z</time>
      </trkpt>
      <trkpt lat="45.86269" lon="6.07195">
        <ele>553</ele>
        <time>2016-05-02T10:29:05.000Z</time>
      </trkpt>
      <trkpt lat="45.86266" lon="6.07194">
        <ele>553</ele>
        <time>2016-05-02T10:29:06.000Z</time>
      </trkpt>
      <trkpt lat="45.86263" lon="6.07193">
        <ele>553</ele>
        <time>2016-05-02T10:29:07.000Z</time>
      </trkpt>
      <trkpt lat="45.8626" lon="6.07192">
        <ele>553</ele>
        <time>2016-05-02T10:29:08.000Z</time>
      </trkpt>
      <trkpt lat="45.86257" lon="6.07191">
        <ele>552</ele>
        <time>2016-05-02T10:29:09.000Z</time>
      </trkpt>
      <trkpt lat="45.86255" lon="6.0719">
        <ele>552</ele>
        <time>2016-05-02T10:29:10.000Z</time>
      </trkpt>
      <trkpt lat="45.86253" lon="6.07189">
        <ele>552</ele>
        <time>2016-05-02T10:29:11.000Z</time>
      </trkpt>
      <trkpt lat="45.8625" lon="6.07188">
        <ele>552</ele>
        <time>2016-05-02T10:29:12.000Z</time>
      </trkpt>
      <trkpt lat="45.86248" lon="6.07188">
        <ele>552</ele>
        <time>2016-05-02T10:29:13.000Z</time>
      </trkpt>
      <trkpt lat="45.86245" lon="6.07187">
        <ele>552</ele>
        <time>2016-05-02T10:29:14.000Z</time>
      </trkpt>
      <trkpt lat="45.86243" lon="6.07186">
        <ele>552</ele>
        <time>2016-05-02T10:29:15.000Z</time>
      </trkpt>
      <trkpt lat="45.86241" lon="6.07185">
        <ele>552</ele>
        <time>2016-05-02T10:29:16.000Z</time>
      </trkpt>
      <trkpt lat="45.86238" lon="6.07184">
        <ele>552</ele>
        <time>2016-05-02T10:29:17.000Z</time>
      </trkpt>
      <trkpt lat="45.86236" lon="6.07183">
        <ele>552</ele>
        <time>2016-05-02T10:29:18.000Z</time>
      </trkpt>
      <trkpt lat="45.86234" lon="6.07182">
        <ele>552</ele>
        <time>2016-05-02T10:29:19.000Z</time>
      </trkpt>
      <trkpt lat="45.86231" lon="6.07181">
        <ele>551</ele>
        <time>2016-05-02T10:29:20.000Z</time>
      </trkpt>
      <trkpt lat="45.86229" lon="6.07181">
        <ele>551</ele>
        <time>2016-05-02T10:29:21.000Z</time>
      </trkpt>
      <trkpt lat="45.86226" lon="6.0718">
        <ele>551</ele>
        <time>2016-05-02T10:29:22.000Z</time>
      </trkpt>
      <trkpt lat="45.86223" lon="6.07179">
        <ele>551</ele>
        <time>2016-05-02T10:29:23.000Z</time>
      </trkpt>
      <trkpt lat="45.8622" lon="6.07179">
        <ele>551</ele>
        <time>2016-05-02T10:29:24.000Z</time>
      </trkpt>
      <trkpt lat="45.86217" lon="6.07178">
        <ele>551</ele>
        <time>2016-05-02T10:29:25.000Z</time>
      </trkpt>
      <trkpt lat="45.86214" lon="6.07177">
        <ele>551</ele>
        <time>2016-05-02T10:29:26.000Z</time>
      </trkpt>
      <trkpt lat="45.86211" lon="6.07176">
        <ele>551</ele>
        <time>2016-05-02T10:29:27.000Z</time>
      </trkpt>
      <trkpt lat="45.86209" lon="6.07175">
        <ele>551</ele>
        <time>2016-05-02T10:29:28.000Z</time>
      </trkpt>
      <trkpt lat="45.86206" lon="6.07174">
        <ele>551</ele>
        <time>2016-05-02T10:29:29.000Z</time>
      </trkpt>
      <trkpt lat="45.86203" lon="6.07173">
        <ele>551</ele>
        <time>2016-05-02T10:29:30.000Z</time>
      </trkpt>
      <trkpt lat="45.862" lon="6.07172">
        <ele>551</ele>
        <time>2016-05-02T10:29:31.000Z</time>
      </trkpt>
      <trkpt lat="45.86197" lon="6.07171">
        <ele>551</ele>
        <time>2016-05-02T10:29:32.000Z</time>
      </trkpt>
      <trkpt lat="45.86195" lon="6.0717">
        <ele>551</ele>
        <time>2016-05-02T10:29:33.000Z</time>
      </trkpt>
      <trkpt lat="45.86192" lon="6.0717">
        <ele>551</ele>
        <time>2016-05-02T10:29:34.000Z</time>
      </trkpt>
      <trkpt lat="45.8619" lon="6.07169">
        <ele>551</ele>
        <time>2016-05-02T10:29:35.000Z</time>
      </trkpt>
      <trkpt lat="45.86187" lon="6.07169">
        <ele>552</ele>
        <time>2016-05-02T10:29:36.000Z</time>
      </trkpt>
      <trkpt lat="45.86184" lon="6.07168">
        <ele>552</ele>
        <time>2016-05-02T10:29:37.000Z</time>
      </trkpt>
      <trkpt lat="45.86181" lon="6.07168">
        <ele>552</ele>
        <time>2016-05-02T10:29:38.000Z</time>
      </trkpt>
      <trkpt lat="45.86179" lon="6.07167">
        <ele>552</ele>
        <time>2016-05-02T10:29:39.000Z</time>
      </trkpt>
      <trkpt lat="45.86176" lon="6.07167">
        <ele>552</ele>
        <time>2016-05-02T10:29:40.000Z</time>
      </trkpt>
      <trkpt lat="45.86174" lon="6.07167">
        <ele>552</ele>
        <time>2016-05-02T10:29:41.000Z</time>
      </trkpt>
      <trkpt lat="45.86171" lon="6.07167">
        <ele>552</ele>
        <time>2016-05-02T10:29:42.000Z</time>
      </trkpt>
      <trkpt lat="45.86168" lon="6.07167">
        <ele>552</ele>
        <time>2016-05-02T10:29:43.000Z</time>
      </trkpt>
      <trkpt lat="45.86166" lon="6.07167">
        <ele>552</ele>
        <time>2016-05-02T10:29:44.000Z</time>
      </trkpt>
      <trkpt lat="45.86163" lon="6.07168">
        <ele>552</ele>
        <time>2016-05-02T10:29:45.000Z</time>
      </trkpt>
      <trkpt lat="45.86161" lon="6.07169">
        <ele>553</ele>
        <time>2016-05-02T10:29:46.000Z</time>
      </trkpt>
      <trkpt lat="45.86159" lon="6.07169">
        <ele>553</ele>
        <time>2016-05-02T10:29:47.000Z</time>
      </trkpt>
      <trkpt lat="45.86157" lon="6.0717">
        <ele>553</ele>
        <time>2016-05-02T10:29:48.000Z</time>
      </trkpt>
      <trkpt lat="45.86154" lon="6.0717">
        <ele>553</ele>
        <time>2016-05-02T10:29:49.000Z</time>
      </trkpt>
      <trkpt lat="45.86152" lon="6.0717">
        <ele>553</ele>
        <time>2016-05-02T10:29:50.000Z</time>
      </trkpt>
      <trkpt lat="45.8615" lon="6.07171">
        <ele>553</ele>
        <time>2016-05-02T10:29:51.000Z</time>
      </trkpt>
      <trkpt lat="45.86148" lon="6.07171">
        <ele>553</ele>
        <time>2016-05-02T10:29:52.000Z</time>
      </trkpt>
      <trkpt lat="45.86146" lon="6.07171">
        <ele>553</ele>
        <time>2016-05-02T10:29:53.000Z</time>
      </trkpt>
      <trkpt lat="45.86144" lon="6.07172">
        <ele>554</ele>
        <time>2016-05-02T10:29:54.000Z</time>
      </trkpt>
      <trkpt lat="45.86142" lon="6.07172">
        <ele>554</ele>
        <time>2016-05-02T10:29:55.000Z</time>
      </trkpt>
      <trkpt lat="45.86139" lon="6.07172">
        <ele>554</ele>
        <time>2016-05-02T10:29:56.000Z</time>
      </trkpt>
      <trkpt lat="45.86138" lon="6.07172">
        <ele>554</ele>
        <time>2016-05-02T10:29:57.000Z</time>
      </trkpt>
      <trkpt lat="45.86136" lon="6.07172">
        <ele>554</ele>
        <time>2016-05-02T10:29:58.000Z</time>
      </trkpt>
      <trkpt lat="45.86133" lon="6.07173">
        <ele>555</ele>
        <time>2016-05-02T10:29:59.000Z</time>
      </trkpt>
      <trkpt lat="45.86131" lon="6.07173">
        <ele>555</ele>
        <time>2016-05-02T10:30:00.000Z</time>
      </trkpt>
      <trkpt lat="45.86129" lon="6.07173">
        <ele>555</ele>
        <time>2016-05-02T10:30:01.000Z</time>
      </trkpt>
      <trkpt lat="45.86127" lon="6.07173">
        <ele>555</ele>
        <time>2016-05-02T10:30:02.000Z</time>
      </trkpt>
      <trkpt lat="45.86125" lon="6.07174">
        <ele>555</ele>
        <time>2016-05-02T10:30:03.000Z</time>
      </trkpt>
      <trkpt lat="45.86124" lon="6.07174">
        <ele>555</ele>
        <time>2016-05-02T10:30:04.000Z</time>
      </trkpt>
      <trkpt lat="45.86122" lon="6.07174">
        <ele>555</ele>
        <time>2016-05-02T10:30:05.000Z</time>
      </trkpt>
      <trkpt lat="45.8612" lon="6.07174">
        <ele>556</ele>
        <time>2016-05-02T10:30:06.000Z</time>
      </trkpt>
      <trkpt lat="45.86118" lon="6.07175">
        <ele>556</ele>
        <time>2016-05-02T10:30:07.000Z</time>
      </trkpt>
      <trkpt lat="45.86116" lon="6.07175">
        <ele>556</ele>
        <time>2016-05-02T10:30:08.000Z</time>
      </trkpt>
      <trkpt lat="45.86115" lon="6.07175">
        <ele>557</ele>
        <time>2016-05-02T10:30:09.000Z</time>
      </trkpt>
      <trkpt lat="45.86113" lon="6.07175">
        <ele>557</ele>
        <time>2016-05-02T10:30:10.000Z</time>
      </trkpt>
      <trkpt lat="45.86112" lon="6.07175">
        <ele>557</ele>
        <time>2016-05-02T10:30:11.000Z</time>
      </trkpt>
      <trkpt lat="45.86111" lon="6.07174">
        <ele>558</ele>
        <time>2016-05-02T10:30:12.000Z</time>
      </trkpt>
      <trkpt lat="45.86109" lon="6.07174">
        <ele>558</ele>
        <time>2016-05-02T10:30:13.000Z</time>
      </trkpt>
      <trkpt lat="45.86107" lon="6.07174">
        <ele>558</ele>
        <time>2016-05-02T10:30:14.000Z</time>
      </trkpt>
      <trkpt lat="45.86106" lon="6.07174">
        <ele>559</ele>
        <time>2016-05-02T10:30:15.000Z</time>
      </trkpt>
      <trkpt lat="45.86104" lon="6.07174">
        <ele>559</ele>
        <time>2016-05-02T10:30:16.000Z</time>
      </trkpt>
      <trkpt lat="45.86102" lon="6.07174">
        <ele>559</ele>
        <time>2016-05-02T10:30:17.000Z</time>
      </trkpt>
      <trkpt lat="45.861" lon="6.07174">
        <ele>560</ele>
        <time>2016-05-02T10:30:18.000Z</time>
      </trkpt>
      <trkpt lat="45.86098" lon="6.07174">
        <ele>560</ele>
        <time>2016-05-02T10:30:19.000Z</time>
      </trkpt>
      <trkpt lat="45.86097" lon="6.07174">
        <ele>560</ele>
        <time>2016-05-02T10:30:20.000Z</time>
      </trkpt>
      <trkpt lat="45.86095" lon="6.07174">
        <ele>561</ele>
        <time>2016-05-02T10:30:21.000Z</time>
      </trkpt>
      <trkpt lat="45.86092" lon="6.07173">
        <ele>561</ele>
        <time>2016-05-02T10:30:22.000Z</time>
      </trkpt>
      <trkpt lat="45.8609" lon="6.07172">
        <ele>561</ele>
        <time>2016-05-02T10:30:23.000Z</time>
      </trkpt>
      <trkpt lat="45.86088" lon="6.0717">
        <ele>562</ele>
        <time>2016-05-02T10:30:24.000Z</time>
      </trkpt>
      <trkpt lat="45.86085" lon="6.07169">
        <ele>562</ele>
        <time>2016-05-02T10:30:25.000Z</time>
      </trkpt>
      <trkpt lat="45.86083" lon="6.07167">
        <ele>563</ele>
        <time>2016-05-02T10:30:26.000Z</time>
      </trkpt>
      <trkpt lat="45.8608" lon="6.07165">
        <ele>563</ele>
        <time>2016-05-02T10:30:27.000Z</time>
      </trkpt>
      <trkpt lat="45.86077" lon="6.07163">
        <ele>563</ele>
        <time>2016-05-02T10:30:28.000Z</time>
      </trkpt>
      <trkpt lat="45.86075" lon="6.07161">
        <ele>564</ele>
        <time>2016-05-02T10:30:29.000Z</time>
      </trkpt>
      <trkpt lat="45.86073" lon="6.07159">
        <ele>564</ele>
        <time>2016-05-02T10:30:30.000Z</time>
      </trkpt>
      <trkpt lat="45.86071" lon="6.07158">
        <ele>564</ele>
        <time>2016-05-02T10:30:31.000Z</time>
      </trkpt>
      <trkpt lat="45.86069" lon="6.07156">
        <ele>565</ele>
        <time>2016-05-02T10:30:32.000Z</time>
      </trkpt>
      <trkpt lat="45.86067" lon="6.07154">
        <ele>565</ele>
        <time>2016-05-02T10:30:33.000Z</time>
      </trkpt>
      <trkpt lat="45.86065" lon="6.07151">
        <ele>565</ele>
        <time>2016-05-02T10:30:34.000Z</time>
      </trkpt>
      <trkpt lat="45.86063" lon="6.07149">
        <ele>566</ele>
        <time>2016-05-02T10:30:35.000Z</time>
      </trkpt>
      <trkpt lat="45.86061" lon="6.07147">
        <ele>566</ele>
        <time>2016-05-02T10:30:36.000Z</time>
      </trkpt>
      <trkpt lat="45.86059" lon="6.07145">
        <ele>566</ele>
        <time>2016-05-02T10:30:37.000Z</time>
      </trkpt>
      <trkpt lat="45.86056" lon="6.07143">
        <ele>567</ele>
        <time>2016-05-02T10:30:38.000Z</time>
      </trkpt>
      <trkpt lat="45.86054" lon="6.07142">
        <ele>567</ele>
        <time>2016-05-02T10:30:39.000Z</time>
      </trkpt>
      <trkpt lat="45.86052" lon="6.0714">
        <ele>567</ele>
        <time>2016-05-02T10:30:40.000Z</time>
      </trkpt>
      <trkpt lat="45.8605" lon="6.07138">
        <ele>567</ele>
        <time>2016-05-02T10:30:41.000Z</time>
      </trkpt>
      <trkpt lat="45.86048" lon="6.07136">
        <ele>568</ele>
        <time>2016-05-02T10:30:42.000Z</time>
      </trkpt>
      <trkpt lat="45.86046" lon="6.07134">
        <ele>568</ele>
        <time>2016-05-02T10:30:43.000Z</time>
      </trkpt>
      <trkpt lat="45.86044" lon="6.07132">
        <ele>568</ele>
        <time>2016-05-02T10:30:44.000Z</time>
      </trkpt>
      <trkpt lat="45.86042" lon="6.0713">
        <ele>568</ele>
        <time>2016-05-02T10:30:45.000Z</time>
      </trkpt>
      <trkpt lat="45.86041" lon="6.07128">
        <ele>568</ele>
        <time>2016-05-02T10:30:46.000Z</time>
      </trkpt>
      <trkpt lat="45.86039" lon="6.07126">
        <ele>568</ele>
        <time>2016-05-02T10:30:47.000Z</time>
      </trkpt>
      <trkpt lat="45.86037" lon="6.07123">
        <ele>569</ele>
        <time>2016-05-02T10:30:48.000Z</time>
      </trkpt>
      <trkpt lat="45.86036" lon="6.07121">
        <ele>569</ele>
        <time>2016-05-02T10:30:49.000Z</time>
      </trkpt>
      <trkpt lat="45.86034" lon="6.0712">
        <ele>569</ele>
        <time>2016-05-02T10:30:50.000Z</time>
      </trkpt>
      <trkpt lat="45.86032" lon="6.07118">
        <ele>569</ele>
        <time>2016-05-02T10:30:51.000Z</time>
      </trkpt>
      <trkpt lat="45.8603" lon="6.07115">
        <ele>569</ele>
        <time>2016-05-02T10:30:52.000Z</time>
      </trkpt>
      <trkpt lat="45.86029" lon="6.07113">
        <ele>570</ele>
        <time>2016-05-02T10:30:53.000Z</time>
      </trkpt>
      <trkpt lat="45.86027" lon="6.0711">
        <ele>570</ele>
        <time>2016-05-02T10:30:54.000Z</time>
      </trkpt>
      <trkpt lat="45.86024" lon="6.07107">
        <ele>570</ele>
        <time>2016-05-02T10:30:55.000Z</time>
      </trkpt>
      <trkpt lat="45.86022" lon="6.07104">
        <ele>570</ele>
        <time>2016-05-02T10:30:56.000Z</time>
      </trkpt>
      <trkpt lat="45.8602" lon="6.07102">
        <ele>571</ele>
        <time>2016-05-02T10:30:57.000Z</time>
      </trkpt>
      <trkpt lat="45.86018" lon="6.07099">
        <ele>571</ele>
        <time>2016-05-02T10:30:58.000Z</time>
      </trkpt>
      <trkpt lat="45.86016" lon="6.07097">
        <ele>571</ele>
        <time>2016-05-02T10:30:59.000Z</time>
      </trkpt>
      <trkpt lat="45.86014" lon="6.07094">
        <ele>571</ele>
        <time>2016-05-02T10:31:00.000Z</time>
      </trkpt>
      <trkpt lat="45.86012" lon="6.07092">
        <ele>571</ele>
        <time>2016-05-02T10:31:01.000Z</time>
      </trkpt>
      <trkpt lat="45.8601" lon="6.07089">
        <ele>571</ele>
        <time>2016-05-02T10:31:02.000Z</time>
      </trkpt>
      <trkpt lat="45.86008" lon="6.07087">
        <ele>571</ele>
        <time>2016-05-02T10:31:03.000Z</time>
      </trkpt>
      <trkpt lat="45.86006" lon="6.07084">
        <ele>571</ele>
        <time>2016-05-02T10:31:04.000Z</time>
      </trkpt>
      <trkpt lat="45.86005" lon="6.07082">
        <ele>571</ele>
        <time>2016-05-02T10:31:05.000Z</time>
      </trkpt>
      <trkpt lat="45.86003" lon="6.07081">
        <ele>571</ele>
        <time>2016-05-02T10:31:06.000Z</time>
      </trkpt>
      <trkpt lat="45.86001" lon="6.07079">
        <ele>571</ele>
        <time>2016-05-02T10:31:07.000Z</time>
      </trkpt>
      <trkpt lat="45.86" lon="6.07077">
        <ele>571</ele>
        <time>2016-05-02T10:31:08.000Z</time>
      </trkpt>
      <trkpt lat="45.85999" lon="6.07075">
        <ele>572</ele>
        <time>2016-05-02T10:31:09.000Z</time>
      </trkpt>
      <trkpt lat="45.85997" lon="6.07073">
        <ele>572</ele>
        <time>2016-05-02T10:31:10.000Z</time>
      </trkpt>
      <trkpt lat="45.85995" lon="6.07071">
        <ele>572</ele>
        <time>2016-05-02T10:31:11.000Z</time>
      </trkpt>
      <trkpt lat="45.85994" lon="6.07068">
        <ele>572</ele>
        <time>2016-05-02T10:31:12.000Z</time>
      </trkpt>
      <trkpt lat="45.85992" lon="6.07066">
        <ele>572</ele>
        <time>2016-05-02T10:31:13.000Z</time>
      </trkpt>
      <trkpt lat="45.8599" lon="6.07063">
        <ele>572</ele>
        <time>2016-05-02T10:31:14.000Z</time>
      </trkpt>
      <trkpt lat="45.85988" lon="6.07061">
        <ele>572</ele>
        <time>2016-05-02T10:31:15.000Z</time>
      </trkpt>
      <trkpt lat="45.85986" lon="6.07058">
        <ele>573</ele>
        <time>2016-05-02T10:31:16.000Z</time>
      </trkpt>
      <trkpt lat="45.85983" lon="6.07055">
        <ele>573</ele>
        <time>2016-05-02T10:31:17.000Z</time>
      </trkpt>
      <trkpt lat="45.85982" lon="6.07052">
        <ele>573</ele>
        <time>2016-05-02T10:31:18.000Z</time>
      </trkpt>
      <trkpt lat="45.8598" lon="6.07049">
        <ele>573</ele>
        <time>2016-05-02T10:31:19.000Z</time>
      </trkpt>
      <trkpt lat="45.85978" lon="6.07046">
        <ele>573</ele>
        <time>2016-05-02T10:31:20.000Z</time>
      </trkpt>
      <trkpt lat="45.85977" lon="6.07043">
        <ele>573</ele>
        <time>2016-05-02T10:31:21.000Z</time>
      </trkpt>
      <trkpt lat="45.85975" lon="6.07039">
        <ele>573</ele>
        <time>2016-05-02T10:31:22.000Z</time>
      </trkpt>
      <trkpt lat="45.85973" lon="6.07036">
        <ele>573</ele>
        <time>2016-05-02T10:31:23.000Z</time>
      </trkpt>
      <trkpt lat="45.85972" lon="6.07032">
        <ele>573</ele>
        <time>2016-05-02T10:31:24.000Z</time>
      </trkpt>
      <trkpt lat="45.85971" lon="6.07028">
        <ele>573</ele>
        <time>2016-05-02T10:31:25.000Z</time>
      </trkpt>
      <trkpt lat="45.8597" lon="6.07024">
        <ele>574</ele>
        <time>2016-05-02T10:31:26.000Z</time>
      </trkpt>
      <trkpt lat="45.85968" lon="6.0702">
        <ele>574</ele>
        <time>2016-05-02T10:31:27.000Z</time>
      </trkpt>
      <trkpt lat="45.85966" lon="6.07017">
        <ele>574</ele>
        <time>2016-05-02T10:31:28.000Z</time>
      </trkpt>
      <trkpt lat="45.85964" lon="6.07013">
        <ele>574</ele>
        <time>2016-05-02T10:31:29.000Z</time>
      </trkpt>
      <trkpt lat="45.85962" lon="6.0701">
        <ele>574</ele>
        <time>2016-05-02T10:31:30.000Z</time>
      </trkpt>
      <trkpt lat="45.8596" lon="6.07007">
        <ele>574</ele>
        <time>2016-05-02T10:31:31.000Z</time>
      </trkpt>
      <trkpt lat="45.85958" lon="6.07004">
        <ele>574</ele>
        <time>2016-05-02T10:31:32.000Z</time>
      </trkpt>
      <trkpt lat="45.85956" lon="6.07002">
        <ele>575</ele>
        <time>2016-05-02T10:31:33.000Z</time>
      </trkpt>
      <trkpt lat="45.85954" lon="6.06999">
        <ele>575</ele>
        <time>2016-05-02T10:31:34.000Z</time>
      </trkpt>
      <trkpt lat="45.85952" lon="6.06997">
        <ele>575</ele>
        <time>2016-05-02T10:31:35.000Z</time>
      </trkpt>
      <trkpt lat="45.8595" lon="6.06994">
        <ele>575</ele>
        <time>2016-05-02T10:31:36.000Z</time>
      </trkpt>
      <trkpt lat="45.85948" lon="6.06991">
        <ele>575</ele>
        <time>2016-05-02T10:31:37.000Z</time>
      </trkpt>
      <trkpt lat="45.85946" lon="6.06989">
        <ele>575</ele>
        <time>2016-05-02T10:31:38.000Z</time>
      </trkpt>
      <trkpt lat="45.85943" lon="6.06986">
        <ele>575</ele>
        <time>2016-05-02T10:31:39.000Z</time>
      </trkpt>
      <trkpt lat="45.85941" lon="6.06983">
        <ele>575</ele>
        <time>2016-05-02T10:31:40.000Z</time>
      </trkpt>
      <trkpt lat="45.85938" lon="6.0698">
        <ele>575</ele>
        <time>2016-05-02T10:31:41.000Z</time>
      </trkpt>
      <trkpt lat="45.85936" lon="6.06977">
        <ele>575</ele>
        <time>2016-05-02T10:31:42.000Z</time>
      </trkpt>
      <trkpt lat="45.85934" lon="6.06974">
        <ele>575</ele>
        <time>2016-05-02T10:31:43.000Z</time>
      </trkpt>
      <trkpt lat="45.85932" lon="6.06971">
        <ele>575</ele>
        <time>2016-05-02T10:31:44.000Z</time>
      </trkpt>
      <trkpt lat="45.85929" lon="6.06968">
        <ele>575</ele>
        <time>2016-05-02T10:31:45.000Z</time>
      </trkpt>
      <trkpt lat="45.85927" lon="6.06965">
        <ele>575</ele>
        <time>2016-05-02T10:31:46.000Z</time>
      </trkpt>
      <trkpt lat="45.85925" lon="6.06962">
        <ele>574</ele>
        <time>2016-05-02T10:31:47.000Z</time>
      </trkpt>
      <trkpt lat="45.85922" lon="6.06959">
        <ele>574</ele>
        <time>2016-05-02T10:31:48.000Z</time>
      </trkpt>
      <trkpt lat="45.8592" lon="6.06957">
        <ele>574</ele>
        <time>2016-05-02T10:31:49.000Z</time>
      </trkpt>
      <trkpt lat="45.85918" lon="6.06954">
        <ele>574</ele>
        <time>2016-05-02T10:31:50.000Z</time>
      </trkpt>
      <trkpt lat="45.85916" lon="6.06951">
        <ele>574</ele>
        <time>2016-05-02T10:31:51.000Z</time>
      </trkpt>
      <trkpt lat="45.85914" lon="6.06949">
        <ele>574</ele>
        <time>2016-05-02T10:31:52.000Z</time>
      </trkpt>
      <trkpt lat="45.85912" lon="6.06946">
        <ele>574</ele>
        <time>2016-05-02T10:31:53.000Z</time>
      </trkpt>
      <trkpt lat="45.8591" lon="6.06945">
        <ele>574</ele>
        <time>2016-05-02T10:31:54.000Z</time>
      </trkpt>
      <trkpt lat="45.85908" lon="6.06943">
        <ele>574</ele>
        <time>2016-05-02T10:31:55.000Z</time>
      </trkpt>
      <trkpt lat="45.85906" lon="6.0694">
        <ele>574</ele>
        <time>2016-05-02T10:31:56.000Z</time>
      </trkpt>
      <trkpt lat="45.85903" lon="6.06938">
        <ele>574</ele>
        <time>2016-05-02T10:31:57.000Z</time>
      </trkpt>
      <trkpt lat="45.85901" lon="6.06936">
        <ele>574</ele>
        <time>2016-05-02T10:31:58.000Z</time>
      </trkpt>
      <trkpt lat="45.85899" lon="6.06934">
        <ele>574</ele>
        <time>2016-05-02T10:31:59.000Z</time>
      </trkpt>
      <trkpt lat="45.85896" lon="6.06932">
        <ele>574</ele>
        <time>2016-05-02T10:32:00.000Z</time>
      </trkpt>
      <trkpt lat="45.85894" lon="6.06929">
        <ele>574</ele>
        <time>2016-05-02T10:32:01.000Z</time>
      </trkpt>
      <trkpt lat="45.85892" lon="6.06927">
        <ele>573</ele>
        <time>2016-05-02T10:32:02.000Z</time>
      </trkpt>
      <trkpt lat="45.85889" lon="6.06925">
        <ele>573</ele>
        <time>2016-05-02T10:32:03.000Z</time>
      </trkpt>
      <trkpt lat="45.85887" lon="6.06923">
        <ele>573</ele>
        <time>2016-05-02T10:32:04.000Z</time>
      </trkpt>
      <trkpt lat="45.85885" lon="6.0692">
        <ele>573</ele>
        <time>2016-05-02T10:32:05.000Z</time>
      </trkpt>
      <trkpt lat="45.85883" lon="6.06918">
        <ele>573</ele>
        <time>2016-05-02T10:32:06.000Z</time>
      </trkpt>
      <trkpt lat="45.8588" lon="6.06916">
        <ele>573</ele>
        <time>2016-05-02T10:32:07.000Z</time>
      </trkpt>
      <trkpt lat="45.85878" lon="6.06914">
        <ele>573</ele>
        <time>2016-05-02T10:32:08.000Z</time>
      </trkpt>
      <trkpt lat="45.85876" lon="6.06912">
        <ele>573</ele>
        <time>2016-05-02T10:32:09.000Z</time>
      </trkpt>
      <trkpt lat="45.85874" lon="6.06911">
        <ele>574</ele>
        <time>2016-05-02T10:32:10.000Z</time>
      </trkpt>
      <trkpt lat="45.85871" lon="6.06909">
        <ele>574</ele>
        <time>2016-05-02T10:32:11.000Z</time>
      </trkpt>
      <trkpt lat="45.85869" lon="6.06907">
        <ele>574</ele>
        <time>2016-05-02T10:32:12.000Z</time>
      </trkpt>
      <trkpt lat="45.85866" lon="6.06906">
        <ele>574</ele>
        <time>2016-05-02T10:32:13.000Z</time>
      </trkpt>
      <trkpt lat="45.85864" lon="6.06904">
        <ele>574</ele>
        <time>2016-05-02T10:32:14.000Z</time>
      </trkpt>
      <trkpt lat="45.85861" lon="6.06902">
        <ele>574</ele>
        <time>2016-05-02T10:32:15.000Z</time>
      </trkpt>
      <trkpt lat="45.85859" lon="6.06901">
        <ele>574</ele>
        <time>2016-05-02T10:32:16.000Z</time>
      </trkpt>
      <trkpt lat="45.85856" lon="6.06899">
        <ele>574</ele>
        <time>2016-05-02T10:32:17.000Z</time>
      </trkpt>
      <trkpt lat="45.85854" lon="6.06897">
        <ele>574</ele>
        <time>2016-05-02T10:32:18.000Z</time>
      </trkpt>
      <trkpt lat="45.85851" lon="6.06896">
        <ele>574</ele>
        <time>2016-05-02T10:32:19.000Z</time>
      </trkpt>
      <trkpt lat="45.85848" lon="6.06894">
        <ele>574</ele>
        <time>2016-05-02T10:32:20.000Z</time>
      </trkpt>
      <trkpt lat="45.85846" lon="6.06892">
        <ele>574</ele>
        <time>2016-05-02T10:32:21.000Z</time>
      </trkpt>
      <trkpt lat="45.85843" lon="6.0689">
        <ele>575</ele>
        <time>2016-05-02T10:32:22.000Z</time>
      </trkpt>
      <trkpt lat="45.8584" lon="6.06888">
        <ele>575</ele>
        <time>2016-05-02T10:32:23.000Z</time>
      </trkpt>
      <trkpt lat="45.85838" lon="6.06886">
        <ele>575</ele>
        <time>2016-05-02T10:32:24.000Z</time>
      </trkpt>
      <trkpt lat="45.85835" lon="6.06884">
        <ele>575</ele>
        <time>2016-05-02T10:32:25.000Z</time>
      </trkpt>
      <trkpt lat="45.85833" lon="6.06882">
        <ele>575</ele>
        <time>2016-05-02T10:32:26.000Z</time>
      </trkpt>
      <trkpt lat="45.8583" lon="6.06881">
        <ele>575</ele>
        <time>2016-05-02T10:32:27.000Z</time>
      </trkpt>
      <trkpt lat="45.85827" lon="6.06879">
        <ele>575</ele>
        <time>2016-05-02T10:32:28.000Z</time>
      </trkpt>
      <trkpt lat="45.85825" lon="6.06877">
        <ele>575</ele>
        <time>2016-05-02T10:32:29.000Z</time>
      </trkpt>
      <trkpt lat="45.85822" lon="6.06875">
        <ele>575</ele>
        <time>2016-05-02T10:32:30.000Z</time>
      </trkpt>
      <trkpt lat="45.8582" lon="6.06873">
        <ele>575</ele>
        <time>2016-05-02T10:32:31.000Z</time>
      </trkpt>
      <trkpt lat="45.85817" lon="6.06871">
        <ele>575</ele>
        <time>2016-05-02T10:32:32.000Z</time>
      </trkpt>
      <trkpt lat="45.85814" lon="6.06869">
        <ele>575</ele>
        <time>2016-05-02T10:32:33.000Z</time>
      </trkpt>
      <trkpt lat="45.85812" lon="6.06867">
        <ele>575</ele>
        <time>2016-05-02T10:32:34.000Z</time>
      </trkpt>
      <trkpt lat="45.85809" lon="6.06866">
        <ele>575</ele>
        <time>2016-05-02T10:32:35.000Z</time>
      </trkpt>
      <trkpt lat="45.85806" lon="6.06864">
        <ele>575</ele>
        <time>2016-05-02T10:32:36.000Z</time>
      </trkpt>
      <trkpt lat="45.85804" lon="6.06862">
        <ele>575</ele>
        <time>2016-05-02T10:32:37.000Z</time>
      </trkpt>
      <trkpt lat="45.85801" lon="6.06861">
        <ele>575</ele>
        <time>2016-05-02T10:32:38.000Z</time>
      </trkpt>
      <trkpt lat="45.85798" lon="6.06859">
        <ele>574</ele>
        <time>2016-05-02T10:32:39.000Z</time>
      </trkpt>
      <trkpt lat="45.85796" lon="6.06858">
        <ele>574</ele>
        <time>2016-05-02T10:32:40.000Z</time>
      </trkpt>
      <trkpt lat="45.85793" lon="6.06857">
        <ele>574</ele>
        <time>2016-05-02T10:32:41.000Z</time>
      </trkpt>
      <trkpt lat="45.8579" lon="6.06856">
        <ele>574</ele>
        <time>2016-05-02T10:32:42.000Z</time>
      </trkpt>
      <trkpt lat="45.85787" lon="6.06855">
        <ele>574</ele>
        <time>2016-05-02T10:32:43.000Z</time>
      </trkpt>
      <trkpt lat="45.85784" lon="6.06854">
        <ele>574</ele>
        <time>2016-05-02T10:32:44.000Z</time>
      </trkpt>
      <trkpt lat="45.85781" lon="6.06853">
        <ele>574</ele>
        <time>2016-05-02T10:32:45.000Z</time>
      </trkpt>
      <trkpt lat="45.85778" lon="6.06852">
        <ele>574</ele>
        <time>2016-05-02T10:32:46.000Z</time>
      </trkpt>
      <trkpt lat="45.85775" lon="6.06851">
        <ele>574</ele>
        <time>2016-05-02T10:32:47.000Z</time>
      </trkpt>
      <trkpt lat="45.85772" lon="6.0685">
        <ele>573</ele>
        <time>2016-05-02T10:32:48.000Z</time>
      </trkpt>
      <trkpt lat="45.85769" lon="6.06849">
        <ele>573</ele>
        <time>2016-05-02T10:32:49.000Z</time>
      </trkpt>
      <trkpt lat="45.85767" lon="6.06848">
        <ele>573</ele>
        <time>2016-05-02T10:32:50.000Z</time>
      </trkpt>
      <trkpt lat="45.85764" lon="6.06847">
        <ele>573</ele>
        <time>2016-05-02T10:32:51.000Z</time>
      </trkpt>
      <trkpt lat="45.85761" lon="6.06845">
        <ele>573</ele>
        <time>2016-05-02T10:32:52.000Z</time>
      </trkpt>
      <trkpt lat="45.85759" lon="6.06844">
        <ele>573</ele>
        <time>2016-05-02T10:32:53.000Z</time>
      </trkpt>
      <trkpt lat="45.85756" lon="6.06842">
        <ele>573</ele>
        <time>2016-05-02T10:32:54.000Z</time>
      </trkpt>
      <trkpt lat="45.85754" lon="6.06839">
        <ele>572</ele>
        <time>2016-05-02T10:32:55.000Z</time>
      </trkpt>
      <trkpt lat="45.85752" lon="6.06837">
        <ele>572</ele>
        <time>2016-05-02T10:32:56.000Z</time>
      </trkpt>
      <trkpt lat="45.85749" lon="6.06834">
        <ele>572</ele>
        <time>2016-05-02T10:32:57.000Z</time>
      </trkpt>
      <trkpt lat="45.85747" lon="6.06831">
        <ele>572</ele>
        <time>2016-05-02T10:32:58.000Z</time>
      </trkpt>
      <trkpt lat="45.85745" lon="6.06828">
        <ele>572</ele>
        <time>2016-05-02T10:32:59.000Z</time>
      </trkpt>
      <trkpt lat="45.85743" lon="6.06825">
        <ele>572</ele>
        <time>2016-05-02T10:33:00.000Z</time>
      </trkpt>
      <trkpt lat="45.85741" lon="6.06821">
        <ele>572</ele>
        <time>2016-05-02T10:33:01.000Z</time>
      </trkpt>
      <trkpt lat="45.85739" lon="6.06818">
        <ele>571</ele>
        <time>2016-05-02T10:33:02.000Z</time>
      </trkpt>
      <trkpt lat="45.85737" lon="6.06815">
        <ele>571</ele>
        <time>2016-05-02T10:33:03.000Z</time>
      </trkpt>
      <trkpt lat="45.85736" lon="6.06812">
        <ele>571</ele>
        <time>2016-05-02T10:33:04.000Z</time>
      </trkpt>
      <trkpt lat="45.85734" lon="6.06808">
        <ele>571</ele>
        <time>2016-05-02T10:33:05.000Z</time>
      </trkpt>
      <trkpt lat="45.85732" lon="6.06805">
        <ele>571</ele>
        <time>2016-05-02T10:33:06.000Z</time>
      </trkpt>
      <trkpt lat="45.85731" lon="6.06802">
        <ele>571</ele>
        <time>2016-05-02T10:33:07.000Z</time>
      </trkpt>
      <trkpt lat="45.85729" lon="6.06798">
        <ele>571</ele>
        <time>2016-05-02T10:33:08.000Z</time>
      </trkpt>
      <trkpt lat="45.85728" lon="6.06795">
        <ele>571</ele>
        <time>2016-05-02T10:33:09.000Z</time>
      </trkpt>
      <trkpt lat="45.85727" lon="6.06791">
        <ele>571</ele>
        <time>2016-05-02T10:33:10.000Z</time>
      </trkpt>
      <trkpt lat="45.85725" lon="6.06788">
        <ele>571</ele>
        <time>2016-05-02T10:33:11.000Z</time>
      </trkpt>
      <trkpt lat="45.85723" lon="6.06784">
        <ele>571</ele>
        <time>2016-05-02T10:33:12.000Z</time>
      </trkpt>
      <trkpt lat="45.85721" lon="6.06781">
        <ele>571</ele>
        <time>2016-05-02T10:33:13.000Z</time>
      </trkpt>
      <trkpt lat="45.85719" lon="6.06778">
        <ele>571</ele>
        <time>2016-05-02T10:33:14.000Z</time>
      </trkpt>
      <trkpt lat="45.85717" lon="6.06775">
        <ele>571</ele>
        <time>2016-05-02T10:33:15.000Z</time>
      </trkpt>
      <trkpt lat="45.85715" lon="6.06772">
        <ele>571</ele>
        <time>2016-05-02T10:33:16.000Z</time>
      </trkpt>
      <trkpt lat="45.85713" lon="6.06769">
        <ele>571</ele>
        <time>2016-05-02T10:33:17.000Z</time>
      </trkpt>
      <trkpt lat="45.85711" lon="6.06766">
        <ele>571</ele>
        <time>2016-05-02T10:33:18.000Z</time>
      </trkpt>
      <trkpt lat="45.85709" lon="6.06763">
        <ele>570</ele>
        <time>2016-05-02T10:33:19.000Z</time>
      </trkpt>
      <trkpt lat="45.85707" lon="6.06761">
        <ele>570</ele>
        <time>2016-05-02T10:33:20.000Z</time>
      </trkpt>
      <trkpt lat="45.85704" lon="6.06758">
        <ele>570</ele>
        <time>2016-05-02T10:33:21.000Z</time>
      </trkpt>
      <trkpt lat="45.85702" lon="6.06756">
        <ele>570</ele>
        <time>2016-05-02T10:33:22.000Z</time>
      </trkpt>
      <trkpt lat="45.857" lon="6.06754">
        <ele>570</ele>
        <time>2016-05-02T10:33:23.000Z</time>
      </trkpt>
      <trkpt lat="45.85697" lon="6.06752">
        <ele>570</ele>
        <time>2016-05-02T10:33:24.000Z</time>
      </trkpt>
      <trkpt lat="45.85695" lon="6.0675">
        <ele>570</ele>
        <time>2016-05-02T10:33:25.000Z</time>
      </trkpt>
      <trkpt lat="45.85692" lon="6.06748">
        <ele>570</ele>
        <time>2016-05-02T10:33:26.000Z</time>
      </trkpt>
      <trkpt lat="45.85689" lon="6.06746">
        <ele>570</ele>
        <time>2016-05-02T10:33:27.000Z</time>
      </trkpt>
      <trkpt lat="45.85687" lon="6.06744">
        <ele>570</ele>
        <time>2016-05-02T10:33:28.000Z</time>
      </trkpt>
      <trkpt lat="45.85684" lon="6.06742">
        <ele>570</ele>
        <time>2016-05-02T10:33:29.000Z</time>
      </trkpt>
      <trkpt lat="45.85682" lon="6.06741">
        <ele>570</ele>
        <time>2016-05-02T10:33:30.000Z</time>
      </trkpt>
      <trkpt lat="45.8568" lon="6.06739">
        <ele>571</ele>
        <time>2016-05-02T10:33:31.000Z</time>
      </trkpt>
      <trkpt lat="45.85677" lon="6.06737">
        <ele>571</ele>
        <time>2016-05-02T10:33:32.000Z</time>
      </trkpt>
      <trkpt lat="45.85675" lon="6.06735">
        <ele>571</ele>
        <time>2016-05-02T10:33:33.000Z</time>
      </trkpt>
      <trkpt lat="45.85672" lon="6.06733">
        <ele>571</ele>
        <time>2016-05-02T10:33:34.000Z</time>
      </trkpt>
      <trkpt lat="45.8567" lon="6.06731">
        <ele>571</ele>
        <time>2016-05-02T10:33:35.000Z</time>
      </trkpt>
      <trkpt lat="45.85667" lon="6.06728">
        <ele>571</ele>
        <time>2016-05-02T10:33:36.000Z</time>
      </trkpt>
      <trkpt lat="45.85665" lon="6.06726">
        <ele>571</ele>
        <time>2016-05-02T10:33:37.000Z</time>
      </trkpt>
      <trkpt lat="45.85662" lon="6.06723">
        <ele>571</ele>
        <time>2016-05-02T10:33:38.000Z</time>
      </trkpt>
      <trkpt lat="45.8566" lon="6.0672">
        <ele>571</ele>
        <time>2016-05-02T10:33:39.000Z</time>
      </trkpt>
      <trkpt lat="45.85657" lon="6.06718">
        <ele>571</ele>
        <time>2016-05-02T10:33:40.000Z</time>
      </trkpt>
      <trkpt lat="45.85655" lon="6.06716">
        <ele>571</ele>
        <time>2016-05-02T10:33:41.000Z</time>
      </trkpt>
      <trkpt lat="45.85652" lon="6.06714">
        <ele>571</ele>
        <time>2016-05-02T10:33:42.000Z</time>
      </trkpt>
      <trkpt lat="45.85649" lon="6.06713">
        <ele>571</ele>
        <time>2016-05-02T10:33:43.000Z</time>
      </trkpt>
      <trkpt lat="45.85647" lon="6.06713">
        <ele>571</ele>
        <time>2016-05-02T10:33:44.000Z</time>
      </trkpt>
      <trkpt lat="45.85644" lon="6.06713">
        <ele>571</ele>
        <time>2016-05-02T10:33:45.000Z</time>
      </trkpt>
      <trkpt lat="45.85641" lon="6.06712">
        <ele>571</ele>
        <time>2016-05-02T10:33:46.000Z</time>
      </trkpt>
      <trkpt lat="45.85638" lon="6.06712">
        <ele>571</ele>
        <time>2016-05-02T10:33:47.000Z</time>
      </trkpt>
      <trkpt lat="45.85635" lon="6.06713">
        <ele>571</ele>
        <time>2016-05-02T10:33:48.000Z</time>
      </trkpt>
      <trkpt lat="45.85632" lon="6.06713">
        <ele>571</ele>
        <time>2016-05-02T10:33:49.000Z</time>
      </trkpt>
      <trkpt lat="45.85629" lon="6.06714">
        <ele>571</ele>
        <time>2016-05-02T10:33:50.000Z</time>
      </trkpt>
      <trkpt lat="45.85626" lon="6.06715">
        <ele>571</ele>
        <time>2016-05-02T10:33:51.000Z</time>
      </trkpt>
      <trkpt lat="45.85624" lon="6.06715">
        <ele>571</ele>
        <time>2016-05-02T10:33:52.000Z</time>
      </trkpt>
      <trkpt lat="45.85622" lon="6.06716">
        <ele>571</ele>
        <time>2016-05-02T10:33:53.000Z</time>
      </trkpt>
      <trkpt lat="45.85619" lon="6.06717">
        <ele>571</ele>
        <time>2016-05-02T10:33:54.000Z</time>
      </trkpt>
      <trkpt lat="45.85617" lon="6.06718">
        <ele>571</ele>
        <time>2016-05-02T10:33:55.000Z</time>
      </trkpt>
      <trkpt lat="45.85615" lon="6.06719">
        <ele>571</ele>
        <time>2016-05-02T10:33:56.000Z</time>
      </trkpt>
      <trkpt lat="45.85613" lon="6.0672">
        <ele>571</ele>
        <time>2016-05-02T10:33:57.000Z</time>
      </trkpt>
      <trkpt lat="45.85611" lon="6.06721">
        <ele>571</ele>
        <time>2016-05-02T10:33:58.000Z</time>
      </trkpt>
      <trkpt lat="45.85609" lon="6.06722">
        <ele>571</ele>
        <time>2016-05-02T10:33:59.000Z</time>
      </trkpt>
      <trkpt lat="45.85607" lon="6.06724">
        <ele>572</ele>
        <time>2016-05-02T10:34:00.000Z</time>
      </trkpt>
      <trkpt lat="45.85605" lon="6.06726">
        <ele>572</ele>
        <time>2016-05-02T10:34:01.000Z</time>
      </trkpt>
      <trkpt lat="45.85603" lon="6.06727">
        <ele>572</ele>
        <time>2016-05-02T10:34:02.000Z</time>
      </trkpt>
      <trkpt lat="45.85601" lon="6.06729">
        <ele>572</ele>
        <time>2016-05-02T10:34:03.000Z</time>
      </trkpt>
      <trkpt lat="45.856" lon="6.06731">
        <ele>572</ele>
        <time>2016-05-02T10:34:04.000Z</time>
      </trkpt>
      <trkpt lat="45.85599" lon="6.06733">
        <ele>572</ele>
        <time>2016-05-02T10:34:05.000Z</time>
      </trkpt>
      <trkpt lat="45.85597" lon="6.06736">
        <ele>572</ele>
        <time>2016-05-02T10:34:06.000Z</time>
      </trkpt>
      <trkpt lat="45.85596" lon="6.06738">
        <ele>572</ele>
        <time>2016-05-02T10:34:07.000Z</time>
      </trkpt>
      <trkpt lat="45.85594" lon="6.06741">
        <ele>572</ele>
        <time>2016-05-02T10:34:08.000Z</time>
      </trkpt>
      <trkpt lat="45.85593" lon="6.06743">
        <ele>572</ele>
        <time>2016-05-02T10:34:09.000Z</time>
      </trkpt>
      <trkpt lat="45.85592" lon="6.06745">
        <ele>573</ele>
        <time>2016-05-02T10:34:10.000Z</time>
      </trkpt>
      <trkpt lat="45.85591" lon="6.06747">
        <ele>573</ele>
        <time>2016-05-02T10:34:11.000Z</time>
      </trkpt>
      <trkpt lat="45.8559" lon="6.06749">
        <ele>573</ele>
        <time>2016-05-02T10:34:12.000Z</time>
      </trkpt>
      <trkpt lat="45.85588" lon="6.06751">
        <ele>573</ele>
        <time>2016-05-02T10:34:13.000Z</time>
      </trkpt>
      <trkpt lat="45.85587" lon="6.06752">
        <ele>573</ele>
        <time>2016-05-02T10:34:14.000Z</time>
      </trkpt>
      <trkpt lat="45.85586" lon="6.06753">
        <ele>574</ele>
        <time>2016-05-02T10:34:15.000Z</time>
      </trkpt>
      <trkpt lat="45.85584" lon="6.06754">
        <ele>574</ele>
        <time>2016-05-02T10:34:16.000Z</time>
      </trkpt>
      <trkpt lat="45.85583" lon="6.06754">
        <ele>574</ele>
        <time>2016-05-02T10:34:17.000Z</time>
      </trkpt>
      <trkpt lat="45.85581" lon="6.06755">
        <ele>575</ele>
        <time>2016-05-02T10:34:18.000Z</time>
      </trkpt>
      <trkpt lat="45.85579" lon="6.06756">
        <ele>575</ele>
        <time>2016-05-02T10:34:19.000Z</time>
      </trkpt>
      <trkpt lat="45.85578" lon="6.06757">
        <ele>575</ele>
        <time>2016-05-02T10:34:20.000Z</time>
      </trkpt>
      <trkpt lat="45.85576" lon="6.06758">
        <ele>576</ele>
        <time>2016-05-02T10:34:21.000Z</time>
      </trkpt>
      <trkpt lat="45.85575" lon="6.0676">
        <ele>576</ele>
        <time>2016-05-02T10:34:22.000Z</time>
      </trkpt>
      <trkpt lat="45.85572" lon="6.06764">
        <ele>577</ele>
        <time>2016-05-02T10:34:23.109Z</time>
      </trkpt>
      <trkpt lat="45.85572" lon="6.06764">
        <ele>578</ele>
        <time>2016-05-02T10:34:24.109Z</time>
      </trkpt>
      <trkpt lat="45.85572" lon="6.06765">
        <ele>578</ele>
        <time>2016-05-02T10:34:25.109Z</time>
      </trkpt>
      <trkpt lat="45.85571" lon="6.06767">
        <ele>578</ele>
        <time>2016-05-02T10:34:26.109Z</time>
      </trkpt>
      <trkpt lat="45.85571" lon="6.06769">
        <ele>578</ele>
        <time>2016-05-02T10:34:27.109Z</time>
      </trkpt>
      <trkpt lat="45.85571" lon="6.06771">
        <ele>578</ele>
        <time>2016-05-02T10:34:28.109Z</time>
      </trkpt>
      <trkpt lat="45.85571" lon="6.06774">
        <ele>578</ele>
        <time>2016-05-02T10:34:29.109Z</time>
      </trkpt>
      <trkpt lat="45.8557" lon="6.06776">
        <ele>578</ele>
        <time>2016-05-02T10:34:30.109Z</time>
      </trkpt>
      <trkpt lat="45.8557" lon="6.06778">
        <ele>578</ele>
        <time>2016-05-02T10:34:31.109Z</time>
      </trkpt>
      <trkpt lat="45.8557" lon="6.0678">
        <ele>578</ele>
        <time>2016-05-02T10:34:32.109Z</time>
      </trkpt>
      <trkpt lat="45.8557" lon="6.06782">
        <ele>578</ele>
        <time>2016-05-02T10:34:33.109Z</time>
      </trkpt>
      <trkpt lat="45.8557" lon="6.06785">
        <ele>578</ele>
        <time>2016-05-02T10:34:34.109Z</time>
      </trkpt>
      <trkpt lat="45.8557" lon="6.06787">
        <ele>578</ele>
        <time>2016-05-02T10:34:35.109Z</time>
      </trkpt>
      <trkpt lat="45.8557" lon="6.0679">
        <ele>578</ele>
        <time>2016-05-02T10:34:36.109Z</time>
      </trkpt>
      <trkpt lat="45.8557" lon="6.06794">
        <ele>578</ele>
        <time>2016-05-02T10:34:37.109Z</time>
      </trkpt>
      <trkpt lat="45.8557" lon="6.06796">
        <ele>578</ele>
        <time>2016-05-02T10:34:38.109Z</time>
      </trkpt>
      <trkpt lat="45.8557" lon="6.068">
        <ele>578</ele>
        <time>2016-05-02T10:34:39.109Z</time>
      </trkpt>
      <trkpt lat="45.85569" lon="6.06803">
        <ele>578</ele>
        <time>2016-05-02T10:34:40.109Z</time>
      </trkpt>
      <trkpt lat="45.85569" lon="6.06806">
        <ele>578</ele>
        <time>2016-05-02T10:34:41.109Z</time>
      </trkpt>
      <trkpt lat="45.85569" lon="6.06809">
        <ele>579</ele>
        <time>2016-05-02T10:34:42.109Z</time>
      </trkpt>
      <trkpt lat="45.85569" lon="6.06812">
        <ele>579</ele>
        <time>2016-05-02T10:34:43.109Z</time>
      </trkpt>
      <trkpt lat="45.85569" lon="6.06815">
        <ele>579</ele>
        <time>2016-05-02T10:34:44.109Z</time>
      </trkpt>
      <trkpt lat="45.85569" lon="6.06819">
        <ele>579</ele>
        <time>2016-05-02T10:34:45.109Z</time>
      </trkpt>
      <trkpt lat="45.85569" lon="6.06822">
        <ele>579</ele>
        <time>2016-05-02T10:34:46.109Z</time>
      </trkpt>
      <trkpt lat="45.85569" lon="6.06825">
        <ele>579</ele>
        <time>2016-05-02T10:34:47.109Z</time>
      </trkpt>
      <trkpt lat="45.85568" lon="6.06828">
        <ele>579</ele>
        <time>2016-05-02T10:34:48.109Z</time>
      </trkpt>
      <trkpt lat="45.85568" lon="6.0683">
        <ele>580</ele>
        <time>2016-05-02T10:34:49.109Z</time>
      </trkpt>
      <trkpt lat="45.85568" lon="6.06833">
        <ele>580</ele>
        <time>2016-05-02T10:34:50.109Z</time>
      </trkpt>
      <trkpt lat="45.85569" lon="6.06835">
        <ele>580</ele>
        <time>2016-05-02T10:34:51.109Z</time>
      </trkpt>
      <trkpt lat="45.85569" lon="6.06838">
        <ele>580</ele>
        <time>2016-05-02T10:34:52.109Z</time>
      </trkpt>
      <trkpt lat="45.85569" lon="6.06841">
        <ele>580</ele>
        <time>2016-05-02T10:34:53.109Z</time>
      </trkpt>
      <trkpt lat="45.85569" lon="6.06843">
        <ele>581</ele>
        <time>2016-05-02T10:34:54.109Z</time>
      </trkpt>
      <trkpt lat="45.85569" lon="6.06846">
        <ele>581</ele>
        <time>2016-05-02T10:34:55.109Z</time>
      </trkpt>
      <trkpt lat="45.85569" lon="6.06849">
        <ele>581</ele>
        <time>2016-05-02T10:34:56.109Z</time>
      </trkpt>
      <trkpt lat="45.85569" lon="6.06851">
        <ele>581</ele>
        <time>2016-05-02T10:34:57.109Z</time>
      </trkpt>
      <trkpt lat="45.85569" lon="6.06854">
        <ele>581</ele>
        <time>2016-05-02T10:34:58.109Z</time>
      </trkpt>
      <trkpt lat="45.85569" lon="6.06857">
        <ele>582</ele>
        <time>2016-05-02T10:34:59.109Z</time>
      </trkpt>
      <trkpt lat="45.85569" lon="6.06859">
        <ele>582</ele>
        <time>2016-05-02T10:35:00.109Z</time>
      </trkpt>
      <trkpt lat="45.85569" lon="6.06861">
        <ele>582</ele>
        <time>2016-05-02T10:35:01.109Z</time>
      </trkpt>
      <trkpt lat="45.85569" lon="6.06864">
        <ele>583</ele>
        <time>2016-05-02T10:35:02.109Z</time>
      </trkpt>
      <trkpt lat="45.85569" lon="6.06866">
        <ele>583</ele>
        <time>2016-05-02T10:35:03.109Z</time>
      </trkpt>
      <trkpt lat="45.85569" lon="6.06869">
        <ele>583</ele>
        <time>2016-05-02T10:35:04.109Z</time>
      </trkpt>
      <trkpt lat="45.85569" lon="6.06871">
        <ele>584</ele>
        <time>2016-05-02T10:35:05.109Z</time>
      </trkpt>
      <trkpt lat="45.85569" lon="6.06874">
        <ele>584</ele>
        <time>2016-05-02T10:35:06.109Z</time>
      </trkpt>
      <trkpt lat="45.85569" lon="6.06876">
        <ele>585</ele>
        <time>2016-05-02T10:35:07.109Z</time>
      </trkpt>
      <trkpt lat="45.85569" lon="6.06879">
        <ele>585</ele>
        <time>2016-05-02T10:35:08.109Z</time>
      </trkpt>
      <trkpt lat="45.85569" lon="6.06881">
        <ele>585</ele>
        <time>2016-05-02T10:35:09.109Z</time>
      </trkpt>
      <trkpt lat="45.8557" lon="6.06883">
        <ele>586</ele>
        <time>2016-05-02T10:35:10.109Z</time>
      </trkpt>
      <trkpt lat="45.8557" lon="6.06885">
        <ele>586</ele>
        <time>2016-05-02T10:35:11.109Z</time>
      </trkpt>
      <trkpt lat="45.8557" lon="6.06888">
        <ele>587</ele>
        <time>2016-05-02T10:35:12.109Z</time>
      </trkpt>
      <trkpt lat="45.8557" lon="6.0689">
        <ele>587</ele>
        <time>2016-05-02T10:35:13.109Z</time>
      </trkpt>
      <trkpt lat="45.8557" lon="6.06893">
        <ele>587</ele>
        <time>2016-05-02T10:35:14.109Z</time>
      </trkpt>
      <trkpt lat="45.85571" lon="6.06895">
        <ele>587</ele>
        <time>2016-05-02T10:35:15.109Z</time>
      </trkpt>
      <trkpt lat="45.85571" lon="6.06898">
        <ele>588</ele>
        <time>2016-05-02T10:35:16.109Z</time>
      </trkpt>
      <trkpt lat="45.85571" lon="6.06901">
        <ele>588</ele>
        <time>2016-05-02T10:35:17.109Z</time>
      </trkpt>
      <trkpt lat="45.85571" lon="6.06904">
        <ele>589</ele>
        <time>2016-05-02T10:35:18.109Z</time>
      </trkpt>
      <trkpt lat="45.85571" lon="6.06907">
        <ele>589</ele>
        <time>2016-05-02T10:35:19.109Z</time>
      </trkpt>
      <trkpt lat="45.85571" lon="6.06911">
        <ele>589</ele>
        <time>2016-05-02T10:35:20.109Z</time>
      </trkpt>
      <trkpt lat="45.85571" lon="6.06914">
        <ele>590</ele>
        <time>2016-05-02T10:35:21.109Z</time>
      </trkpt>
      <trkpt lat="45.85571" lon="6.06917">
        <ele>590</ele>
        <time>2016-05-02T10:35:22.109Z</time>
      </trkpt>
      <trkpt lat="45.85572" lon="6.06919">
        <ele>591</ele>
        <time>2016-05-02T10:35:23.109Z</time>
      </trkpt>
      <trkpt lat="45.85572" lon="6.06923">
        <ele>591</ele>
        <time>2016-05-02T10:35:24.109Z</time>
      </trkpt>
      <trkpt lat="45.85572" lon="6.06926">
        <ele>591</ele>
        <time>2016-05-02T10:35:25.109Z</time>
      </trkpt>
      <trkpt lat="45.85573" lon="6.06928">
        <ele>592</ele>
        <time>2016-05-02T10:35:26.109Z</time>
      </trkpt>
      <trkpt lat="45.85573" lon="6.06931">
        <ele>592</ele>
        <time>2016-05-02T10:35:27.109Z</time>
      </trkpt>
      <trkpt lat="45.85573" lon="6.06933">
        <ele>592</ele>
        <time>2016-05-02T10:35:28.109Z</time>
      </trkpt>
      <trkpt lat="45.85573" lon="6.06936">
        <ele>593</ele>
        <time>2016-05-02T10:35:29.109Z</time>
      </trkpt>
      <trkpt lat="45.85573" lon="6.06939">
        <ele>593</ele>
        <time>2016-05-02T10:35:30.109Z</time>
      </trkpt>
      <trkpt lat="45.85573" lon="6.06943">
        <ele>593</ele>
        <time>2016-05-02T10:35:31.109Z</time>
      </trkpt>
      <trkpt lat="45.85573" lon="6.06946">
        <ele>593</ele>
        <time>2016-05-02T10:35:32.109Z</time>
      </trkpt>
      <trkpt lat="45.85572" lon="6.06948">
        <ele>594</ele>
        <time>2016-05-02T10:35:33.109Z</time>
      </trkpt>
      <trkpt lat="45.85572" lon="6.06953">
        <ele>594</ele>
        <time>2016-05-02T10:35:34.109Z</time>
      </trkpt>
      <trkpt lat="45.85572" lon="6.06955">
        <ele>594</ele>
        <time>2016-05-02T10:35:35.109Z</time>
      </trkpt>
      <trkpt lat="45.85572" lon="6.06958">
        <ele>595</ele>
        <time>2016-05-02T10:35:36.109Z</time>
      </trkpt>
      <trkpt lat="45.85572" lon="6.0696">
        <ele>595</ele>
        <time>2016-05-02T10:35:37.109Z</time>
      </trkpt>
      <trkpt lat="45.85572" lon="6.06963">
        <ele>595</ele>
        <time>2016-05-02T10:35:38.109Z</time>
      </trkpt>
      <trkpt lat="45.85572" lon="6.06963">
        <ele>595</ele>
        <time>2016-05-02T10:35:39.109Z</time>
      </trkpt>
      <trkpt lat="45.85572" lon="6.06968">
        <ele>596</ele>
        <time>2016-05-02T10:35:40.109Z</time>
      </trkpt>
      <trkpt lat="45.85572" lon="6.06971">
        <ele>596</ele>
        <time>2016-05-02T10:35:41.109Z</time>
      </trkpt>
      <trkpt lat="45.85572" lon="6.06974">
        <ele>596</ele>
        <time>2016-05-02T10:35:42.109Z</time>
      </trkpt>
      <trkpt lat="45.85572" lon="6.06977">
        <ele>596</ele>
        <time>2016-05-02T10:35:43.109Z</time>
      </trkpt>
      <trkpt lat="45.85571" lon="6.06981">
        <ele>596</ele>
        <time>2016-05-02T10:35:44.109Z</time>
      </trkpt>
      <trkpt lat="45.85571" lon="6.06983">
        <ele>597</ele>
        <time>2016-05-02T10:35:45.109Z</time>
      </trkpt>
      <trkpt lat="45.85571" lon="6.06986">
        <ele>597</ele>
        <time>2016-05-02T10:35:46.109Z</time>
      </trkpt>
      <trkpt lat="45.8557" lon="6.06989">
        <ele>597</ele>
        <time>2016-05-02T10:35:47.109Z</time>
      </trkpt>
      <trkpt lat="45.85569" lon="6.06992">
        <ele>598</ele>
        <time>2016-05-02T10:35:48.109Z</time>
      </trkpt>
      <trkpt lat="45.85569" lon="6.06995">
        <ele>598</ele>
        <time>2016-05-02T10:35:49.109Z</time>
      </trkpt>
      <trkpt lat="45.85568" lon="6.06998">
        <ele>598</ele>
        <time>2016-05-02T10:35:50.109Z</time>
      </trkpt>
      <trkpt lat="45.85567" lon="6.07001">
        <ele>599</ele>
        <time>2016-05-02T10:35:51.109Z</time>
      </trkpt>
      <trkpt lat="45.85567" lon="6.07003">
        <ele>599</ele>
        <time>2016-05-02T10:35:52.109Z</time>
      </trkpt>
      <trkpt lat="45.85566" lon="6.07006">
        <ele>599</ele>
        <time>2016-05-02T10:35:53.109Z</time>
      </trkpt>
      <trkpt lat="45.85565" lon="6.07009">
        <ele>599</ele>
        <time>2016-05-02T10:35:54.109Z</time>
      </trkpt>
      <trkpt lat="45.85565" lon="6.07012">
        <ele>600</ele>
        <time>2016-05-02T10:35:55.109Z</time>
      </trkpt>
      <trkpt lat="45.85564" lon="6.07014">
        <ele>600</ele>
        <time>2016-05-02T10:35:56.109Z</time>
      </trkpt>
      <trkpt lat="45.85564" lon="6.07014">
        <ele>600</ele>
        <time>2016-05-02T10:35:57.109Z</time>
      </trkpt>
      <trkpt lat="45.85562" lon="6.0702">
        <ele>600</ele>
        <time>2016-05-02T10:35:58.109Z</time>
      </trkpt>
      <trkpt lat="45.85562" lon="6.07023">
        <ele>601</ele>
        <time>2016-05-02T10:35:59.109Z</time>
      </trkpt>
      <trkpt lat="45.85561" lon="6.07026">
        <ele>601</ele>
        <time>2016-05-02T10:36:00.109Z</time>
      </trkpt>
      <trkpt lat="45.8556" lon="6.07029">
        <ele>601</ele>
        <time>2016-05-02T10:36:01.109Z</time>
      </trkpt>
      <trkpt lat="45.8556" lon="6.07033">
        <ele>601</ele>
        <time>2016-05-02T10:36:02.109Z</time>
      </trkpt>
      <trkpt lat="45.85559" lon="6.07036">
        <ele>601</ele>
        <time>2016-05-02T10:36:03.109Z</time>
      </trkpt>
      <trkpt lat="45.85559" lon="6.07039">
        <ele>602</ele>
        <time>2016-05-02T10:36:04.109Z</time>
      </trkpt>
      <trkpt lat="45.85559" lon="6.07043">
        <ele>602</ele>
        <time>2016-05-02T10:36:05.109Z</time>
      </trkpt>
      <trkpt lat="45.85558" lon="6.07046">
        <ele>602</ele>
        <time>2016-05-02T10:36:06.109Z</time>
      </trkpt>
      <trkpt lat="45.85557" lon="6.07049">
        <ele>603</ele>
        <time>2016-05-02T10:36:07.109Z</time>
      </trkpt>
      <trkpt lat="45.85557" lon="6.07053">
        <ele>603</ele>
        <time>2016-05-02T10:36:08.109Z</time>
      </trkpt>
      <trkpt lat="45.85556" lon="6.07056">
        <ele>603</ele>
        <time>2016-05-02T10:36:09.109Z</time>
      </trkpt>
      <trkpt lat="45.85555" lon="6.0706">
        <ele>604</ele>
        <time>2016-05-02T10:36:10.109Z</time>
      </trkpt>
      <trkpt lat="45.85555" lon="6.07064">
        <ele>604</ele>
        <time>2016-05-02T10:36:11.109Z</time>
      </trkpt>
      <trkpt lat="45.85555" lon="6.07067">
        <ele>604</ele>
        <time>2016-05-02T10:36:12.109Z</time>
      </trkpt>
      <trkpt lat="45.85556" lon="6.0707">
        <ele>604</ele>
        <time>2016-05-02T10:36:13.109Z</time>
      </trkpt>
      <trkpt lat="45.85557" lon="6.07073">
        <ele>604</ele>
        <time>2016-05-02T10:36:14.109Z</time>
      </trkpt>
      <trkpt lat="45.85559" lon="6.07076">
        <ele>605</ele>
        <time>2016-05-02T10:36:15.109Z</time>
      </trkpt>
      <trkpt lat="45.85561" lon="6.07079">
        <ele>605</ele>
        <time>2016-05-02T10:36:16.109Z</time>
      </trkpt>
      <trkpt lat="45.85563" lon="6.07082">
        <ele>605</ele>
        <time>2016-05-02T10:36:17.109Z</time>
      </trkpt>
      <trkpt lat="45.85565" lon="6.07084">
        <ele>605</ele>
        <time>2016-05-02T10:36:18.109Z</time>
      </trkpt>
      <trkpt lat="45.85567" lon="6.07086">
        <ele>605</ele>
        <time>2016-05-02T10:36:19.109Z</time>
      </trkpt>
      <trkpt lat="45.8557" lon="6.07088">
        <ele>606</ele>
        <time>2016-05-02T10:36:20.109Z</time>
      </trkpt>
      <trkpt lat="45.85572" lon="6.0709">
        <ele>606</ele>
        <time>2016-05-02T10:36:21.109Z</time>
      </trkpt>
      <trkpt lat="45.85574" lon="6.07093">
        <ele>606</ele>
        <time>2016-05-02T10:36:22.109Z</time>
      </trkpt>
      <trkpt lat="45.85577" lon="6.07095">
        <ele>606</ele>
        <time>2016-05-02T10:36:23.109Z</time>
      </trkpt>
      <trkpt lat="45.85577" lon="6.07095">
        <ele>606</ele>
        <time>2016-05-02T10:36:24.109Z</time>
      </trkpt>
      <trkpt lat="45.85582" lon="6.07098">
        <ele>606</ele>
        <time>2016-05-02T10:36:25.109Z</time>
      </trkpt>
      <trkpt lat="45.85584" lon="6.071">
        <ele>606</ele>
        <time>2016-05-02T10:36:26.109Z</time>
      </trkpt>
      <trkpt lat="45.85587" lon="6.07101">
        <ele>606</ele>
        <time>2016-05-02T10:36:27.109Z</time>
      </trkpt>
      <trkpt lat="45.85589" lon="6.07103">
        <ele>606</ele>
        <time>2016-05-02T10:36:28.109Z</time>
      </trkpt>
      <trkpt lat="45.85592" lon="6.07105">
        <ele>606</ele>
        <time>2016-05-02T10:36:29.109Z</time>
      </trkpt>
      <trkpt lat="45.85592" lon="6.07105">
        <ele>606</ele>
        <time>2016-05-02T10:36:30.109Z</time>
      </trkpt>
      <trkpt lat="45.85598" lon="6.07109">
        <ele>606</ele>
        <time>2016-05-02T10:36:31.109Z</time>
      </trkpt>
      <trkpt lat="45.85601" lon="6.07111">
        <ele>606</ele>
        <time>2016-05-02T10:36:32.109Z</time>
      </trkpt>
      <trkpt lat="45.85603" lon="6.07113">
        <ele>606</ele>
        <time>2016-05-02T10:36:33.109Z</time>
      </trkpt>
      <trkpt lat="45.85606" lon="6.07115">
        <ele>606</ele>
        <time>2016-05-02T10:36:34.109Z</time>
      </trkpt>
      <trkpt lat="45.85609" lon="6.07116">
        <ele>606</ele>
        <time>2016-05-02T10:36:35.109Z</time>
      </trkpt>
      <trkpt lat="45.85612" lon="6.07117">
        <ele>606</ele>
        <time>2016-05-02T10:36:36.109Z</time>
      </trkpt>
      <trkpt lat="45.85615" lon="6.07119">
        <ele>606</ele>
        <time>2016-05-02T10:36:37.109Z</time>
      </trkpt>
      <trkpt lat="45.85617" lon="6.0712">
        <ele>606</ele>
        <time>2016-05-02T10:36:38.109Z</time>
      </trkpt>
      <trkpt lat="45.8562" lon="6.07123">
        <ele>605</ele>
        <time>2016-05-02T10:36:39.109Z</time>
      </trkpt>
      <trkpt lat="45.85622" lon="6.07125">
        <ele>605</ele>
        <time>2016-05-02T10:36:40.109Z</time>
      </trkpt>
      <trkpt lat="45.85624" lon="6.07129">
        <ele>605</ele>
        <time>2016-05-02T10:36:41.109Z</time>
      </trkpt>
      <trkpt lat="45.85625" lon="6.07133">
        <ele>605</ele>
        <time>2016-05-02T10:36:42.109Z</time>
      </trkpt>
      <trkpt lat="45.85625" lon="6.07137">
        <ele>605</ele>
        <time>2016-05-02T10:36:43.109Z</time>
      </trkpt>
      <trkpt lat="45.85625" lon="6.07141">
        <ele>605</ele>
        <time>2016-05-02T10:36:44.109Z</time>
      </trkpt>
      <trkpt lat="45.85624" lon="6.07146">
        <ele>605</ele>
        <time>2016-05-02T10:36:45.109Z</time>
      </trkpt>
      <trkpt lat="45.85623" lon="6.0715">
        <ele>605</ele>
        <time>2016-05-02T10:36:46.109Z</time>
      </trkpt>
      <trkpt lat="45.85622" lon="6.07154">
        <ele>605</ele>
        <time>2016-05-02T10:36:47.109Z</time>
      </trkpt>
      <trkpt lat="45.85622" lon="6.07154">
        <ele>605</ele>
        <time>2016-05-02T10:36:48.109Z</time>
      </trkpt>
      <trkpt lat="45.85618" lon="6.0716">
        <ele>605</ele>
        <time>2016-05-02T10:36:49.109Z</time>
      </trkpt>
      <trkpt lat="45.85616" lon="6.07164">
        <ele>605</ele>
        <time>2016-05-02T10:36:50.109Z</time>
      </trkpt>
      <trkpt lat="45.85613" lon="6.07167">
        <ele>605</ele>
        <time>2016-05-02T10:36:51.109Z</time>
      </trkpt>
      <trkpt lat="45.8561" lon="6.0717">
        <ele>605</ele>
        <time>2016-05-02T10:36:52.109Z</time>
      </trkpt>
      <trkpt lat="45.85607" lon="6.07172">
        <ele>605</ele>
        <time>2016-05-02T10:36:53.109Z</time>
      </trkpt>
      <trkpt lat="45.85604" lon="6.07174">
        <ele>605</ele>
        <time>2016-05-02T10:36:54.109Z</time>
      </trkpt>
      <trkpt lat="45.85602" lon="6.07177">
        <ele>605</ele>
        <time>2016-05-02T10:36:55.109Z</time>
      </trkpt>
      <trkpt lat="45.85599" lon="6.07179">
        <ele>605</ele>
        <time>2016-05-02T10:36:56.109Z</time>
      </trkpt>
      <trkpt lat="45.85596" lon="6.07181">
        <ele>605</ele>
        <time>2016-05-02T10:36:57.109Z</time>
      </trkpt>
      <trkpt lat="45.85593" lon="6.07183">
        <ele>605</ele>
        <time>2016-05-02T10:36:58.109Z</time>
      </trkpt>
      <trkpt lat="45.85591" lon="6.07185">
        <ele>605</ele>
        <time>2016-05-02T10:36:59.109Z</time>
      </trkpt>
      <trkpt lat="45.85588" lon="6.07187">
        <ele>605</ele>
        <time>2016-05-02T10:37:00.109Z</time>
      </trkpt>
      <trkpt lat="45.85586" lon="6.07189">
        <ele>605</ele>
        <time>2016-05-02T10:37:01.109Z</time>
      </trkpt>
      <trkpt lat="45.85583" lon="6.0719">
        <ele>605</ele>
        <time>2016-05-02T10:37:02.109Z</time>
      </trkpt>
      <trkpt lat="45.8558" lon="6.07192">
        <ele>604</ele>
        <time>2016-05-02T10:37:03.109Z</time>
      </trkpt>
      <trkpt lat="45.85577" lon="6.07194">
        <ele>604</ele>
        <time>2016-05-02T10:37:04.109Z</time>
      </trkpt>
      <trkpt lat="45.85575" lon="6.07196">
        <ele>604</ele>
        <time>2016-05-02T10:37:05.109Z</time>
      </trkpt>
      <trkpt lat="45.85572" lon="6.07199">
        <ele>604</ele>
        <time>2016-05-02T10:37:06.109Z</time>
      </trkpt>
      <trkpt lat="45.85572" lon="6.07199">
        <ele>604</ele>
        <time>2016-05-02T10:37:07.109Z</time>
      </trkpt>
      <trkpt lat="45.85568" lon="6.07202">
        <ele>603</ele>
        <time>2016-05-02T10:37:08.109Z</time>
      </trkpt>
      <trkpt lat="45.85565" lon="6.07203">
        <ele>603</ele>
        <time>2016-05-02T10:37:09.109Z</time>
      </trkpt>
      <trkpt lat="45.85563" lon="6.07204">
        <ele>603</ele>
        <time>2016-05-02T10:37:10.109Z</time>
      </trkpt>
      <trkpt lat="45.8556" lon="6.07204">
        <ele>603</ele>
        <time>2016-05-02T10:37:11.109Z</time>
      </trkpt>
      <trkpt lat="45.85557" lon="6.07203">
        <ele>603</ele>
        <time>2016-05-02T10:37:12.109Z</time>
      </trkpt>
      <trkpt lat="45.85555" lon="6.07202">
        <ele>602</ele>
        <time>2016-05-02T10:37:13.109Z</time>
      </trkpt>
      <trkpt lat="45.85555" lon="6.07202">
        <ele>602</ele>
        <time>2016-05-02T10:37:14.109Z</time>
      </trkpt>
      <trkpt lat="45.85549" lon="6.07197">
        <ele>602</ele>
        <time>2016-05-02T10:37:15.109Z</time>
      </trkpt>
      <trkpt lat="45.85547" lon="6.07195">
        <ele>602</ele>
        <time>2016-05-02T10:37:16.109Z</time>
      </trkpt>
      <trkpt lat="45.85544" lon="6.07193">
        <ele>601</ele>
        <time>2016-05-02T10:37:17.109Z</time>
      </trkpt>
      <trkpt lat="45.85541" lon="6.07191">
        <ele>601</ele>
        <time>2016-05-02T10:37:18.109Z</time>
      </trkpt>
      <trkpt lat="45.85538" lon="6.07189">
        <ele>601</ele>
        <time>2016-05-02T10:37:19.109Z</time>
      </trkpt>
      <trkpt lat="45.85538" lon="6.07189">
        <ele>601</ele>
        <time>2016-05-02T10:37:20.109Z</time>
      </trkpt>
      <trkpt lat="45.85533" lon="6.07185">
        <ele>600</ele>
        <time>2016-05-02T10:37:21.109Z</time>
      </trkpt>
      <trkpt lat="45.8553" lon="6.07183">
        <ele>600</ele>
        <time>2016-05-02T10:37:22.109Z</time>
      </trkpt>
      <trkpt lat="45.85527" lon="6.07181">
        <ele>600</ele>
        <time>2016-05-02T10:37:23.109Z</time>
      </trkpt>
      <trkpt lat="45.85525" lon="6.07179">
        <ele>599</ele>
        <time>2016-05-02T10:37:24.109Z</time>
      </trkpt>
      <trkpt lat="45.85522" lon="6.07176">
        <ele>599</ele>
        <time>2016-05-02T10:37:25.109Z</time>
      </trkpt>
      <trkpt lat="45.8552" lon="6.07174">
        <ele>599</ele>
        <time>2016-05-02T10:37:26.109Z</time>
      </trkpt>
      <trkpt lat="45.85517" lon="6.07172">
        <ele>599</ele>
        <time>2016-05-02T10:37:27.109Z</time>
      </trkpt>
      <trkpt lat="45.85514" lon="6.0717">
        <ele>598</ele>
        <time>2016-05-02T10:37:28.109Z</time>
      </trkpt>
      <trkpt lat="45.85512" lon="6.07168">
        <ele>598</ele>
        <time>2016-05-02T10:37:29.109Z</time>
      </trkpt>
      <trkpt lat="45.85509" lon="6.07166">
        <ele>598</ele>
        <time>2016-05-02T10:37:30.109Z</time>
      </trkpt>
      <trkpt lat="45.85507" lon="6.07163">
        <ele>598</ele>
        <time>2016-05-02T10:37:31.109Z</time>
      </trkpt>
      <trkpt lat="45.85504" lon="6.07161">
        <ele>598</ele>
        <time>2016-05-02T10:37:32.109Z</time>
      </trkpt>
      <trkpt lat="45.85502" lon="6.07159">
        <ele>598</ele>
        <time>2016-05-02T10:37:33.109Z</time>
      </trkpt>
      <trkpt lat="45.85499" lon="6.07157">
        <ele>598</ele>
        <time>2016-05-02T10:37:34.109Z</time>
      </trkpt>
      <trkpt lat="45.85497" lon="6.07155">
        <ele>598</ele>
        <time>2016-05-02T10:37:35.109Z</time>
      </trkpt>
      <trkpt lat="45.85494" lon="6.07153">
        <ele>598</ele>
        <time>2016-05-02T10:37:36.109Z</time>
      </trkpt>
      <trkpt lat="45.85492" lon="6.07151">
        <ele>598</ele>
        <time>2016-05-02T10:37:37.109Z</time>
      </trkpt>
      <trkpt lat="45.85492" lon="6.07151">
        <ele>598</ele>
        <time>2016-05-02T10:37:38.109Z</time>
      </trkpt>
      <trkpt lat="45.85487" lon="6.07147">
        <ele>598</ele>
        <time>2016-05-02T10:37:39.109Z</time>
      </trkpt>
      <trkpt lat="45.85485" lon="6.07144">
        <ele>598</ele>
        <time>2016-05-02T10:37:40.109Z</time>
      </trkpt>
      <trkpt lat="45.85482" lon="6.07142">
        <ele>598</ele>
        <time>2016-05-02T10:37:41.109Z</time>
      </trkpt>
      <trkpt lat="45.8548" lon="6.0714">
        <ele>598</ele>
        <time>2016-05-02T10:37:42.109Z</time>
      </trkpt>
      <trkpt lat="45.85478" lon="6.07137">
        <ele>598</ele>
        <time>2016-05-02T10:37:43.109Z</time>
      </trkpt>
      <trkpt lat="45.85476" lon="6.07135">
        <ele>598</ele>
        <time>2016-05-02T10:37:44.109Z</time>
      </trkpt>
      <trkpt lat="45.85474" lon="6.07133">
        <ele>598</ele>
        <time>2016-05-02T10:37:45.109Z</time>
      </trkpt>
      <trkpt lat="45.85471" lon="6.0713">
        <ele>598</ele>
        <time>2016-05-02T10:37:46.109Z</time>
      </trkpt>
      <trkpt lat="45.85469" lon="6.07128">
        <ele>598</ele>
        <time>2016-05-02T10:37:47.109Z</time>
      </trkpt>
      <trkpt lat="45.85467" lon="6.07125">
        <ele>598</ele>
        <time>2016-05-02T10:37:48.109Z</time>
      </trkpt>
      <trkpt lat="45.85465" lon="6.07123">
        <ele>598</ele>
        <time>2016-05-02T10:37:49.109Z</time>
      </trkpt>
      <trkpt lat="45.85463" lon="6.0712">
        <ele>598</ele>
        <time>2016-05-02T10:37:50.109Z</time>
      </trkpt>
      <trkpt lat="45.85461" lon="6.07118">
        <ele>597</ele>
        <time>2016-05-02T10:37:51.109Z</time>
      </trkpt>
      <trkpt lat="45.85459" lon="6.07116">
        <ele>597</ele>
        <time>2016-05-02T10:37:52.109Z</time>
      </trkpt>
      <trkpt lat="45.85457" lon="6.07113">
        <ele>597</ele>
        <time>2016-05-02T10:37:53.109Z</time>
      </trkpt>
      <trkpt lat="45.85455" lon="6.07111">
        <ele>597</ele>
        <time>2016-05-02T10:37:54.109Z</time>
      </trkpt>
      <trkpt lat="45.85453" lon="6.07109">
        <ele>597</ele>
        <time>2016-05-02T10:37:55.109Z</time>
      </trkpt>
      <trkpt lat="45.85451" lon="6.07107">
        <ele>597</ele>
        <time>2016-05-02T10:37:56.109Z</time>
      </trkpt>
      <trkpt lat="45.85449" lon="6.07105">
        <ele>597</ele>
        <time>2016-05-02T10:37:57.109Z</time>
      </trkpt>
      <trkpt lat="45.85447" lon="6.07103">
        <ele>597</ele>
        <time>2016-05-02T10:37:58.109Z</time>
      </trkpt>
      <trkpt lat="45.85445" lon="6.07101">
        <ele>597</ele>
        <time>2016-05-02T10:37:59.109Z</time>
      </trkpt>
      <trkpt lat="45.85443" lon="6.07099">
        <ele>597</ele>
        <time>2016-05-02T10:38:00.109Z</time>
      </trkpt>
      <trkpt lat="45.85441" lon="6.07097">
        <ele>597</ele>
        <time>2016-05-02T10:38:01.109Z</time>
      </trkpt>
      <trkpt lat="45.85439" lon="6.07095">
        <ele>597</ele>
        <time>2016-05-02T10:38:02.109Z</time>
      </trkpt>
      <trkpt lat="45.85437" lon="6.07093">
        <ele>597</ele>
        <time>2016-05-02T10:38:03.109Z</time>
      </trkpt>
      <trkpt lat="45.85435" lon="6.0709">
        <ele>597</ele>
        <time>2016-05-02T10:38:04.109Z</time>
      </trkpt>
      <trkpt lat="45.85435" lon="6.0709">
        <ele>597</ele>
        <time>2016-05-02T10:38:05.109Z</time>
      </trkpt>
      <trkpt lat="45.85431" lon="6.07085">
        <ele>597</ele>
        <time>2016-05-02T10:38:06.109Z</time>
      </trkpt>
      <trkpt lat="45.85429" lon="6.07082">
        <ele>597</ele>
        <time>2016-05-02T10:38:07.109Z</time>
      </trkpt>
      <trkpt lat="45.85427" lon="6.07079">
        <ele>596</ele>
        <time>2016-05-02T10:38:08.109Z</time>
      </trkpt>
      <trkpt lat="45.85425" lon="6.07076">
        <ele>596</ele>
        <time>2016-05-02T10:38:09.109Z</time>
      </trkpt>
      <trkpt lat="45.85422" lon="6.07074">
        <ele>596</ele>
        <time>2016-05-02T10:38:10.109Z</time>
      </trkpt>
      <trkpt lat="45.85422" lon="6.07074">
        <ele>596</ele>
        <time>2016-05-02T10:38:11.109Z</time>
      </trkpt>
      <trkpt lat="45.85418" lon="6.07068">
        <ele>596</ele>
        <time>2016-05-02T10:38:12.109Z</time>
      </trkpt>
      <trkpt lat="45.85416" lon="6.07065">
        <ele>596</ele>
        <time>2016-05-02T10:38:13.109Z</time>
      </trkpt>
      <trkpt lat="45.85414" lon="6.07062">
        <ele>596</ele>
        <time>2016-05-02T10:38:14.109Z</time>
      </trkpt>
      <trkpt lat="45.85412" lon="6.07058">
        <ele>595</ele>
        <time>2016-05-02T10:38:15.109Z</time>
      </trkpt>
      <trkpt lat="45.8541" lon="6.07055">
        <ele>595</ele>
        <time>2016-05-02T10:38:16.109Z</time>
      </trkpt>
      <trkpt lat="45.85408" lon="6.07052">
        <ele>595</ele>
        <time>2016-05-02T10:38:17.109Z</time>
      </trkpt>
      <trkpt lat="45.85407" lon="6.07049">
        <ele>595</ele>
        <time>2016-05-02T10:38:18.109Z</time>
      </trkpt>
      <trkpt lat="45.85405" lon="6.07046">
        <ele>595</ele>
        <time>2016-05-02T10:38:19.109Z</time>
      </trkpt>
      <trkpt lat="45.85403" lon="6.07043">
        <ele>595</ele>
        <time>2016-05-02T10:38:20.109Z</time>
      </trkpt>
      <trkpt lat="45.854" lon="6.0704">
        <ele>594</ele>
        <time>2016-05-02T10:38:21.109Z</time>
      </trkpt>
      <trkpt lat="45.85398" lon="6.07037">
        <ele>594</ele>
        <time>2016-05-02T10:38:22.109Z</time>
      </trkpt>
      <trkpt lat="45.85396" lon="6.07034">
        <ele>594</ele>
        <time>2016-05-02T10:38:23.109Z</time>
      </trkpt>
      <trkpt lat="45.85394" lon="6.07031">
        <ele>594</ele>
        <time>2016-05-02T10:38:24.109Z</time>
      </trkpt>
      <trkpt lat="45.85392" lon="6.07028">
        <ele>594</ele>
        <time>2016-05-02T10:38:25.109Z</time>
      </trkpt>
      <trkpt lat="45.85391" lon="6.07026">
        <ele>594</ele>
        <time>2016-05-02T10:38:26.109Z</time>
      </trkpt>
      <trkpt lat="45.85389" lon="6.07023">
        <ele>594</ele>
        <time>2016-05-02T10:38:27.109Z</time>
      </trkpt>
      <trkpt lat="45.85387" lon="6.0702">
        <ele>593</ele>
        <time>2016-05-02T10:38:28.109Z</time>
      </trkpt>
      <trkpt lat="45.85387" lon="6.0702">
        <ele>593</ele>
        <time>2016-05-02T10:38:29.109Z</time>
      </trkpt>
      <trkpt lat="45.85383" lon="6.07014">
        <ele>593</ele>
        <time>2016-05-02T10:38:30.109Z</time>
      </trkpt>
      <trkpt lat="45.85381" lon="6.07011">
        <ele>593</ele>
        <time>2016-05-02T10:38:31.109Z</time>
      </trkpt>
      <trkpt lat="45.85379" lon="6.07008">
        <ele>593</ele>
        <time>2016-05-02T10:38:32.109Z</time>
      </trkpt>
      <trkpt lat="45.85377" lon="6.07005">
        <ele>593</ele>
        <time>2016-05-02T10:38:33.109Z</time>
      </trkpt>
      <trkpt lat="45.85375" lon="6.07002">
        <ele>592</ele>
        <time>2016-05-02T10:38:34.109Z</time>
      </trkpt>
      <trkpt lat="45.85373" lon="6.06999">
        <ele>592</ele>
        <time>2016-05-02T10:38:35.109Z</time>
      </trkpt>
      <trkpt lat="45.85372" lon="6.06996">
        <ele>592</ele>
        <time>2016-05-02T10:38:36.109Z</time>
      </trkpt>
      <trkpt lat="45.8537" lon="6.06993">
        <ele>592</ele>
        <time>2016-05-02T10:38:37.109Z</time>
      </trkpt>
      <trkpt lat="45.85368" lon="6.0699">
        <ele>592</ele>
        <time>2016-05-02T10:38:38.109Z</time>
      </trkpt>
      <trkpt lat="45.85366" lon="6.06987">
        <ele>592</ele>
        <time>2016-05-02T10:38:39.109Z</time>
      </trkpt>
      <trkpt lat="45.85364" lon="6.06984">
        <ele>592</ele>
        <time>2016-05-02T10:38:40.109Z</time>
      </trkpt>
      <trkpt lat="45.85362" lon="6.06981">
        <ele>592</ele>
        <time>2016-05-02T10:38:41.109Z</time>
      </trkpt>
      <trkpt lat="45.85359" lon="6.06978">
        <ele>592</ele>
        <time>2016-05-02T10:38:42.109Z</time>
      </trkpt>
      <trkpt lat="45.85357" lon="6.06974">
        <ele>592</ele>
        <time>2016-05-02T10:38:43.109Z</time>
      </trkpt>
      <trkpt lat="45.85355" lon="6.06971">
        <ele>592</ele>
        <time>2016-05-02T10:38:44.109Z</time>
      </trkpt>
      <trkpt lat="45.85353" lon="6.06968">
        <ele>591</ele>
        <time>2016-05-02T10:38:45.109Z</time>
      </trkpt>
      <trkpt lat="45.85351" lon="6.06964">
        <ele>591</ele>
        <time>2016-05-02T10:38:46.109Z</time>
      </trkpt>
      <trkpt lat="45.85348" lon="6.06961">
        <ele>591</ele>
        <time>2016-05-02T10:38:47.109Z</time>
      </trkpt>
      <trkpt lat="45.85346" lon="6.06958">
        <ele>591</ele>
        <time>2016-05-02T10:38:48.109Z</time>
      </trkpt>
      <trkpt lat="45.85344" lon="6.06955">
        <ele>591</ele>
        <time>2016-05-02T10:38:49.109Z</time>
      </trkpt>
      <trkpt lat="45.85342" lon="6.06952">
        <ele>591</ele>
        <time>2016-05-02T10:38:50.109Z</time>
      </trkpt>
      <trkpt lat="45.8534" lon="6.0695">
        <ele>590</ele>
        <time>2016-05-02T10:38:51.109Z</time>
      </trkpt>
      <trkpt lat="45.85338" lon="6.06947">
        <ele>590</ele>
        <time>2016-05-02T10:38:52.109Z</time>
      </trkpt>
      <trkpt lat="45.85335" lon="6.06944">
        <ele>590</ele>
        <time>2016-05-02T10:38:53.109Z</time>
      </trkpt>
      <trkpt lat="45.85333" lon="6.06942">
        <ele>590</ele>
        <time>2016-05-02T10:38:54.109Z</time>
      </trkpt>
      <trkpt lat="45.85333" lon="6.06942">
        <ele>590</ele>
        <time>2016-05-02T10:38:55.109Z</time>
      </trkpt>
      <trkpt lat="45.85329" lon="6.06938">
        <ele>589</ele>
        <time>2016-05-02T10:38:56.109Z</time>
      </trkpt>
      <trkpt lat="45.85326" lon="6.06936">
        <ele>589</ele>
        <time>2016-05-02T10:38:57.109Z</time>
      </trkpt>
      <trkpt lat="45.85324" lon="6.06935">
        <ele>589</ele>
        <time>2016-05-02T10:38:58.109Z</time>
      </trkpt>
      <trkpt lat="45.85321" lon="6.06933">
        <ele>588</ele>
        <time>2016-05-02T10:38:59.109Z</time>
      </trkpt>
      <trkpt lat="45.85318" lon="6.06932">
        <ele>588</ele>
        <time>2016-05-02T10:39:00.109Z</time>
      </trkpt>
      <trkpt lat="45.85315" lon="6.0693">
        <ele>588</ele>
        <time>2016-05-02T10:39:01.109Z</time>
      </trkpt>
      <trkpt lat="45.85315" lon="6.0693">
        <ele>588</ele>
        <time>2016-05-02T10:39:02.109Z</time>
      </trkpt>
      <trkpt lat="45.8531" lon="6.06927">
        <ele>587</ele>
        <time>2016-05-02T10:39:03.109Z</time>
      </trkpt>
      <trkpt lat="45.85307" lon="6.06926">
        <ele>587</ele>
        <time>2016-05-02T10:39:04.109Z</time>
      </trkpt>
      <trkpt lat="45.85304" lon="6.06925">
        <ele>586</ele>
        <time>2016-05-02T10:39:05.109Z</time>
      </trkpt>
      <trkpt lat="45.85301" lon="6.06925">
        <ele>586</ele>
        <time>2016-05-02T10:39:06.109Z</time>
      </trkpt>
      <trkpt lat="45.85299" lon="6.06924">
        <ele>586</ele>
        <time>2016-05-02T10:39:07.109Z</time>
      </trkpt>
      <trkpt lat="45.85296" lon="6.06924">
        <ele>585</ele>
        <time>2016-05-02T10:39:08.109Z</time>
      </trkpt>
      <trkpt lat="45.85293" lon="6.06923">
        <ele>585</ele>
        <time>2016-05-02T10:39:09.109Z</time>
      </trkpt>
      <trkpt lat="45.8529" lon="6.06923">
        <ele>585</ele>
        <time>2016-05-02T10:39:10.109Z</time>
      </trkpt>
      <trkpt lat="45.85287" lon="6.06923">
        <ele>585</ele>
        <time>2016-05-02T10:39:11.109Z</time>
      </trkpt>
      <trkpt lat="45.85284" lon="6.06924">
        <ele>585</ele>
        <time>2016-05-02T10:39:12.109Z</time>
      </trkpt>
      <trkpt lat="45.85281" lon="6.06924">
        <ele>585</ele>
        <time>2016-05-02T10:39:13.109Z</time>
      </trkpt>
      <trkpt lat="45.85278" lon="6.06925">
        <ele>585</ele>
        <time>2016-05-02T10:39:14.109Z</time>
      </trkpt>
      <trkpt lat="45.85276" lon="6.06925">
        <ele>585</ele>
        <time>2016-05-02T10:39:15.109Z</time>
      </trkpt>
      <trkpt lat="45.85273" lon="6.06925">
        <ele>585</ele>
        <time>2016-05-02T10:39:16.109Z</time>
      </trkpt>
      <trkpt lat="45.85271" lon="6.06925">
        <ele>585</ele>
        <time>2016-05-02T10:39:17.109Z</time>
      </trkpt>
      <trkpt lat="45.85269" lon="6.06925">
        <ele>585</ele>
        <time>2016-05-02T10:39:18.109Z</time>
      </trkpt>
      <trkpt lat="45.85269" lon="6.06925">
        <ele>585</ele>
        <time>2016-05-02T10:39:19.109Z</time>
      </trkpt>
      <trkpt lat="45.85264" lon="6.06926">
        <ele>585</ele>
        <time>2016-05-02T10:39:20.109Z</time>
      </trkpt>
      <trkpt lat="45.85262" lon="6.06928">
        <ele>585</ele>
        <time>2016-05-02T10:39:21.109Z</time>
      </trkpt>
      <trkpt lat="45.85259" lon="6.0693">
        <ele>585</ele>
        <time>2016-05-02T10:39:22.109Z</time>
      </trkpt>
      <trkpt lat="45.85257" lon="6.06932">
        <ele>584</ele>
        <time>2016-05-02T10:39:23.109Z</time>
      </trkpt>
      <trkpt lat="45.85255" lon="6.06934">
        <ele>584</ele>
        <time>2016-05-02T10:39:24.109Z</time>
      </trkpt>
      <trkpt lat="45.85253" lon="6.06937">
        <ele>584</ele>
        <time>2016-05-02T10:39:25.109Z</time>
      </trkpt>
      <trkpt lat="45.85252" lon="6.06939">
        <ele>584</ele>
        <time>2016-05-02T10:39:26.109Z</time>
      </trkpt>
      <trkpt lat="45.85252" lon="6.06942">
        <ele>584</ele>
        <time>2016-05-02T10:39:27.109Z</time>
      </trkpt>
      <trkpt lat="45.85252" lon="6.06946">
        <ele>584</ele>
        <time>2016-05-02T10:39:28.109Z</time>
      </trkpt>
      <trkpt lat="45.85252" lon="6.06949">
        <ele>584</ele>
        <time>2016-05-02T10:39:29.109Z</time>
      </trkpt>
      <trkpt lat="45.85253" lon="6.06952">
        <ele>584</ele>
        <time>2016-05-02T10:39:30.109Z</time>
      </trkpt>
      <trkpt lat="45.85253" lon="6.06952">
        <ele>584</ele>
        <time>2016-05-02T10:39:31.109Z</time>
      </trkpt>
      <trkpt lat="45.85253" lon="6.06959">
        <ele>584</ele>
        <time>2016-05-02T10:39:32.109Z</time>
      </trkpt>
      <trkpt lat="45.85252" lon="6.06962">
        <ele>584</ele>
        <time>2016-05-02T10:39:33.109Z</time>
      </trkpt>
      <trkpt lat="45.85252" lon="6.06965">
        <ele>584</ele>
        <time>2016-05-02T10:39:34.109Z</time>
      </trkpt>
      <trkpt lat="45.85251" lon="6.06969">
        <ele>584</ele>
        <time>2016-05-02T10:39:35.109Z</time>
      </trkpt>
      <trkpt lat="45.85251" lon="6.06972">
        <ele>584</ele>
        <time>2016-05-02T10:39:36.109Z</time>
      </trkpt>
      <trkpt lat="45.85251" lon="6.06972">
        <ele>584</ele>
        <time>2016-05-02T10:39:37.109Z</time>
      </trkpt>
      <trkpt lat="45.85249" lon="6.06978">
        <ele>585</ele>
        <time>2016-05-02T10:39:38.109Z</time>
      </trkpt>
      <trkpt lat="45.85248" lon="6.06981">
        <ele>585</ele>
        <time>2016-05-02T10:39:39.109Z</time>
      </trkpt>
      <trkpt lat="45.85247" lon="6.06985">
        <ele>585</ele>
        <time>2016-05-02T10:39:40.109Z</time>
      </trkpt>
      <trkpt lat="45.85246" lon="6.06987">
        <ele>585</ele>
        <time>2016-05-02T10:39:41.109Z</time>
      </trkpt>
      <trkpt lat="45.85245" lon="6.0699">
        <ele>585</ele>
        <time>2016-05-02T10:39:42.109Z</time>
      </trkpt>
      <trkpt lat="45.85245" lon="6.06994">
        <ele>586</ele>
        <time>2016-05-02T10:39:43.109Z</time>
      </trkpt>
      <trkpt lat="45.85244" lon="6.06997">
        <ele>586</ele>
        <time>2016-05-02T10:39:44.109Z</time>
      </trkpt>
      <trkpt lat="45.85243" lon="6.07">
        <ele>586</ele>
        <time>2016-05-02T10:39:45.109Z</time>
      </trkpt>
      <trkpt lat="45.85243" lon="6.07">
        <ele>586</ele>
        <time>2016-05-02T10:39:46.109Z</time>
      </trkpt>
      <trkpt lat="45.85241" lon="6.07005">
        <ele>586</ele>
        <time>2016-05-02T10:39:47.109Z</time>
      </trkpt>
      <trkpt lat="45.85241" lon="6.07008">
        <ele>587</ele>
        <time>2016-05-02T10:39:48.109Z</time>
      </trkpt>
      <trkpt lat="45.8524" lon="6.07011">
        <ele>587</ele>
        <time>2016-05-02T10:39:49.109Z</time>
      </trkpt>
      <trkpt lat="45.85239" lon="6.07014">
        <ele>587</ele>
        <time>2016-05-02T10:39:50.109Z</time>
      </trkpt>
      <trkpt lat="45.85238" lon="6.07017">
        <ele>587</ele>
        <time>2016-05-02T10:39:51.109Z</time>
      </trkpt>
      <trkpt lat="45.85238" lon="6.07019">
        <ele>588</ele>
        <time>2016-05-02T10:39:52.109Z</time>
      </trkpt>
      <trkpt lat="45.85238" lon="6.07019">
        <ele>588</ele>
        <time>2016-05-02T10:39:53.109Z</time>
      </trkpt>
      <trkpt lat="45.85236" lon="6.07024">
        <ele>588</ele>
        <time>2016-05-02T10:39:54.109Z</time>
      </trkpt>
      <trkpt lat="45.85235" lon="6.07027">
        <ele>588</ele>
        <time>2016-05-02T10:39:55.109Z</time>
      </trkpt>
      <trkpt lat="45.85234" lon="6.07029">
        <ele>589</ele>
        <time>2016-05-02T10:39:56.109Z</time>
      </trkpt>
      <trkpt lat="45.85233" lon="6.07032">
        <ele>589</ele>
        <time>2016-05-02T10:39:57.109Z</time>
      </trkpt>
      <trkpt lat="45.85232" lon="6.07035">
        <ele>589</ele>
        <time>2016-05-02T10:39:58.109Z</time>
      </trkpt>
      <trkpt lat="45.85231" lon="6.07037">
        <ele>589</ele>
        <time>2016-05-02T10:39:59.109Z</time>
      </trkpt>
      <trkpt lat="45.8523" lon="6.0704">
        <ele>590</ele>
        <time>2016-05-02T10:40:00.109Z</time>
      </trkpt>
      <trkpt lat="45.85229" lon="6.07042">
        <ele>590</ele>
        <time>2016-05-02T10:40:01.109Z</time>
      </trkpt>
      <trkpt lat="45.85228" lon="6.07044">
        <ele>590</ele>
        <time>2016-05-02T10:40:02.109Z</time>
      </trkpt>
      <trkpt lat="45.85226" lon="6.07046">
        <ele>591</ele>
        <time>2016-05-02T10:40:03.109Z</time>
      </trkpt>
      <trkpt lat="45.85225" lon="6.07049">
        <ele>591</ele>
        <time>2016-05-02T10:40:04.109Z</time>
      </trkpt>
      <trkpt lat="45.85224" lon="6.07051">
        <ele>591</ele>
        <time>2016-05-02T10:40:05.109Z</time>
      </trkpt>
      <trkpt lat="45.85223" lon="6.07052">
        <ele>592</ele>
        <time>2016-05-02T10:40:06.109Z</time>
      </trkpt>
      <trkpt lat="45.85222" lon="6.07055">
        <ele>592</ele>
        <time>2016-05-02T10:40:07.109Z</time>
      </trkpt>
      <trkpt lat="45.85221" lon="6.07057">
        <ele>592</ele>
        <time>2016-05-02T10:40:08.109Z</time>
      </trkpt>
      <trkpt lat="45.85219" lon="6.07059">
        <ele>592</ele>
        <time>2016-05-02T10:40:09.109Z</time>
      </trkpt>
      <trkpt lat="45.85219" lon="6.07059">
        <ele>592</ele>
        <time>2016-05-02T10:40:10.109Z</time>
      </trkpt>
      <trkpt lat="45.85217" lon="6.07064">
        <ele>593</ele>
        <time>2016-05-02T10:40:11.109Z</time>
      </trkpt>
      <trkpt lat="45.85215" lon="6.07066">
        <ele>594</ele>
        <time>2016-05-02T10:40:12.109Z</time>
      </trkpt>
      <trkpt lat="45.85214" lon="6.07068">
        <ele>594</ele>
        <time>2016-05-02T10:40:13.109Z</time>
      </trkpt>
      <trkpt lat="45.85212" lon="6.07071">
        <ele>594</ele>
        <time>2016-05-02T10:40:14.109Z</time>
      </trkpt>
      <trkpt lat="45.85211" lon="6.07073">
        <ele>595</ele>
        <time>2016-05-02T10:40:15.109Z</time>
      </trkpt>
      <trkpt lat="45.8521" lon="6.07075">
        <ele>595</ele>
        <time>2016-05-02T10:40:16.109Z</time>
      </trkpt>
      <trkpt lat="45.85209" lon="6.07077">
        <ele>595</ele>
        <time>2016-05-02T10:40:17.109Z</time>
      </trkpt>
      <trkpt lat="45.85208" lon="6.07079">
        <ele>596</ele>
        <time>2016-05-02T10:40:18.109Z</time>
      </trkpt>
      <trkpt lat="45.85207" lon="6.07081">
        <ele>596</ele>
        <time>2016-05-02T10:40:19.109Z</time>
      </trkpt>
      <trkpt lat="45.85206" lon="6.07083">
        <ele>596</ele>
        <time>2016-05-02T10:40:20.109Z</time>
      </trkpt>
      <trkpt lat="45.85206" lon="6.07085">
        <ele>596</ele>
        <time>2016-05-02T10:40:21.109Z</time>
      </trkpt>
      <trkpt lat="45.85205" lon="6.07087">
        <ele>597</ele>
        <time>2016-05-02T10:40:22.109Z</time>
      </trkpt>
      <trkpt lat="45.85204" lon="6.07088">
        <ele>597</ele>
        <time>2016-05-02T10:40:23.109Z</time>
      </trkpt>
      <trkpt lat="45.85202" lon="6.0709">
        <ele>598</ele>
        <time>2016-05-02T10:40:24.109Z</time>
      </trkpt>
      <trkpt lat="45.85201" lon="6.07092">
        <ele>598</ele>
        <time>2016-05-02T10:40:25.109Z</time>
      </trkpt>
      <trkpt lat="45.852" lon="6.07093">
        <ele>598</ele>
        <time>2016-05-02T10:40:26.109Z</time>
      </trkpt>
      <trkpt lat="45.85199" lon="6.07095">
        <ele>598</ele>
        <time>2016-05-02T10:40:27.109Z</time>
      </trkpt>
      <trkpt lat="45.85197" lon="6.07096">
        <ele>599</ele>
        <time>2016-05-02T10:40:28.109Z</time>
      </trkpt>
      <trkpt lat="45.85196" lon="6.07097">
        <ele>599</ele>
        <time>2016-05-02T10:40:29.109Z</time>
      </trkpt>
      <trkpt lat="45.85194" lon="6.07098">
        <ele>599</ele>
        <time>2016-05-02T10:40:30.109Z</time>
      </trkpt>
      <trkpt lat="45.85193" lon="6.07099">
        <ele>599</ele>
        <time>2016-05-02T10:40:31.109Z</time>
      </trkpt>
      <trkpt lat="45.85191" lon="6.071">
        <ele>600</ele>
        <time>2016-05-02T10:40:32.109Z</time>
      </trkpt>
      <trkpt lat="45.8519" lon="6.071">
        <ele>600</ele>
        <time>2016-05-02T10:40:33.109Z</time>
      </trkpt>
      <trkpt lat="45.85188" lon="6.071">
        <ele>600</ele>
        <time>2016-05-02T10:40:34.109Z</time>
      </trkpt>
      <trkpt lat="45.85186" lon="6.07099">
        <ele>600</ele>
        <time>2016-05-02T10:40:35.109Z</time>
      </trkpt>
      <trkpt lat="45.85186" lon="6.07099">
        <ele>600</ele>
        <time>2016-05-02T10:40:36.109Z</time>
      </trkpt>
      <trkpt lat="45.85183" lon="6.07097">
        <ele>601</ele>
        <time>2016-05-02T10:40:37.109Z</time>
      </trkpt>
      <trkpt lat="45.85181" lon="6.07096">
        <ele>601</ele>
        <time>2016-05-02T10:40:38.109Z</time>
      </trkpt>
      <trkpt lat="45.85179" lon="6.07095">
        <ele>601</ele>
        <time>2016-05-02T10:40:39.109Z</time>
      </trkpt>
      <trkpt lat="45.85178" lon="6.07094">
        <ele>601</ele>
        <time>2016-05-02T10:40:40.109Z</time>
      </trkpt>
      <trkpt lat="45.85176" lon="6.07092">
        <ele>601</ele>
        <time>2016-05-02T10:40:41.109Z</time>
      </trkpt>
      <trkpt lat="45.85174" lon="6.0709">
        <ele>602</ele>
        <time>2016-05-02T10:40:42.109Z</time>
      </trkpt>
      <trkpt lat="45.85174" lon="6.0709">
        <ele>602</ele>
        <time>2016-05-02T10:40:43.109Z</time>
      </trkpt>
      <trkpt lat="45.85171" lon="6.07087">
        <ele>602</ele>
        <time>2016-05-02T10:40:44.109Z</time>
      </trkpt>
      <trkpt lat="45.8517" lon="6.07085">
        <ele>602</ele>
        <time>2016-05-02T10:40:45.109Z</time>
      </trkpt>
      <trkpt lat="45.85168" lon="6.07083">
        <ele>602</ele>
        <time>2016-05-02T10:40:46.109Z</time>
      </trkpt>
      <trkpt lat="45.85167" lon="6.07081">
        <ele>602</ele>
        <time>2016-05-02T10:40:47.109Z</time>
      </trkpt>
      <trkpt lat="45.85165" lon="6.0708">
        <ele>602</ele>
        <time>2016-05-02T10:40:48.109Z</time>
      </trkpt>
      <trkpt lat="45.85164" lon="6.07078">
        <ele>602</ele>
        <time>2016-05-02T10:40:49.109Z</time>
      </trkpt>
      <trkpt lat="45.85162" lon="6.07076">
        <ele>602</ele>
        <time>2016-05-02T10:40:50.109Z</time>
      </trkpt>
      <trkpt lat="45.8516" lon="6.07074">
        <ele>602</ele>
        <time>2016-05-02T10:40:51.109Z</time>
      </trkpt>
      <trkpt lat="45.85158" lon="6.07072">
        <ele>602</ele>
        <time>2016-05-02T10:40:52.109Z</time>
      </trkpt>
      <trkpt lat="45.85156" lon="6.07071">
        <ele>602</ele>
        <time>2016-05-02T10:40:53.109Z</time>
      </trkpt>
      <trkpt lat="45.85154" lon="6.0707">
        <ele>602</ele>
        <time>2016-05-02T10:40:54.109Z</time>
      </trkpt>
      <trkpt lat="45.85152" lon="6.07069">
        <ele>602</ele>
        <time>2016-05-02T10:40:55.109Z</time>
      </trkpt>
      <trkpt lat="45.85149" lon="6.07068">
        <ele>602</ele>
        <time>2016-05-02T10:40:56.109Z</time>
      </trkpt>
      <trkpt lat="45.85147" lon="6.07068">
        <ele>602</ele>
        <time>2016-05-02T10:40:57.109Z</time>
      </trkpt>
      <trkpt lat="45.85145" lon="6.07067">
        <ele>602</ele>
        <time>2016-05-02T10:40:58.109Z</time>
      </trkpt>
      <trkpt lat="45.85143" lon="6.07066">
        <ele>602</ele>
        <time>2016-05-02T10:40:59.109Z</time>
      </trkpt>
      <trkpt lat="45.85143" lon="6.07066">
        <ele>602</ele>
        <time>2016-05-02T10:41:00.109Z</time>
      </trkpt>
      <trkpt lat="45.8514" lon="6.07066">
        <ele>602</ele>
        <time>2016-05-02T10:41:01.109Z</time>
      </trkpt>
      <trkpt lat="45.85138" lon="6.07065">
        <ele>602</ele>
        <time>2016-05-02T10:41:02.109Z</time>
      </trkpt>
      <trkpt lat="45.85136" lon="6.07064">
        <ele>602</ele>
        <time>2016-05-02T10:41:03.109Z</time>
      </trkpt>
      <trkpt lat="45.85134" lon="6.07063">
        <ele>602</ele>
        <time>2016-05-02T10:41:04.109Z</time>
      </trkpt>
      <trkpt lat="45.85133" lon="6.07062">
        <ele>603</ele>
        <time>2016-05-02T10:41:05.109Z</time>
      </trkpt>
      <trkpt lat="45.85131" lon="6.07061">
        <ele>603</ele>
        <time>2016-05-02T10:41:06.109Z</time>
      </trkpt>
      <trkpt lat="45.85129" lon="6.0706">
        <ele>603</ele>
        <time>2016-05-02T10:41:07.109Z</time>
      </trkpt>
      <trkpt lat="45.85128" lon="6.07058">
        <ele>603</ele>
        <time>2016-05-02T10:41:08.109Z</time>
      </trkpt>
      <trkpt lat="45.85126" lon="6.07056">
        <ele>603</ele>
        <time>2016-05-02T10:41:09.109Z</time>
      </trkpt>
      <trkpt lat="45.85124" lon="6.07055">
        <ele>604</ele>
        <time>2016-05-02T10:41:10.109Z</time>
      </trkpt>
      <trkpt lat="45.85123" lon="6.07054">
        <ele>604</ele>
        <time>2016-05-02T10:41:11.109Z</time>
      </trkpt>
      <trkpt lat="45.85121" lon="6.07052">
        <ele>604</ele>
        <time>2016-05-02T10:41:12.109Z</time>
      </trkpt>
      <trkpt lat="45.8512" lon="6.0705">
        <ele>605</ele>
        <time>2016-05-02T10:41:13.109Z</time>
      </trkpt>
      <trkpt lat="45.85119" lon="6.07049">
        <ele>605</ele>
        <time>2016-05-02T10:41:14.109Z</time>
      </trkpt>
      <trkpt lat="45.85118" lon="6.07047">
        <ele>605</ele>
        <time>2016-05-02T10:41:15.109Z</time>
      </trkpt>
      <trkpt lat="45.85116" lon="6.07045">
        <ele>606</ele>
        <time>2016-05-02T10:41:16.109Z</time>
      </trkpt>
      <trkpt lat="45.85115" lon="6.07043">
        <ele>606</ele>
        <time>2016-05-02T10:41:17.109Z</time>
      </trkpt>
      <trkpt lat="45.85113" lon="6.07042">
        <ele>606</ele>
        <time>2016-05-02T10:41:18.109Z</time>
      </trkpt>
      <trkpt lat="45.85111" lon="6.0704">
        <ele>607</ele>
        <time>2016-05-02T10:41:19.109Z</time>
      </trkpt>
      <trkpt lat="45.85109" lon="6.07038">
        <ele>607</ele>
        <time>2016-05-02T10:41:20.109Z</time>
      </trkpt>
      <trkpt lat="45.85108" lon="6.07036">
        <ele>607</ele>
        <time>2016-05-02T10:41:21.109Z</time>
      </trkpt>
      <trkpt lat="45.85105" lon="6.07035">
        <ele>608</ele>
        <time>2016-05-02T10:41:22.109Z</time>
      </trkpt>
      <trkpt lat="45.85103" lon="6.07033">
        <ele>608</ele>
        <time>2016-05-02T10:41:23.109Z</time>
      </trkpt>
      <trkpt lat="45.85101" lon="6.07031">
        <ele>608</ele>
        <time>2016-05-02T10:41:24.109Z</time>
      </trkpt>
      <trkpt lat="45.85099" lon="6.0703">
        <ele>609</ele>
        <time>2016-05-02T10:41:25.109Z</time>
      </trkpt>
      <trkpt lat="45.85097" lon="6.07028">
        <ele>609</ele>
        <time>2016-05-02T10:41:26.109Z</time>
      </trkpt>
      <trkpt lat="45.85097" lon="6.07028">
        <ele>609</ele>
        <time>2016-05-02T10:41:27.109Z</time>
      </trkpt>
      <trkpt lat="45.85093" lon="6.07025">
        <ele>610</ele>
        <time>2016-05-02T10:41:28.109Z</time>
      </trkpt>
      <trkpt lat="45.8509" lon="6.07024">
        <ele>610</ele>
        <time>2016-05-02T10:41:29.109Z</time>
      </trkpt>
      <trkpt lat="45.85088" lon="6.07022">
        <ele>610</ele>
        <time>2016-05-02T10:41:30.109Z</time>
      </trkpt>
      <trkpt lat="45.85086" lon="6.0702">
        <ele>610</ele>
        <time>2016-05-02T10:41:31.109Z</time>
      </trkpt>
      <trkpt lat="45.85085" lon="6.07019">
        <ele>610</ele>
        <time>2016-05-02T10:41:32.109Z</time>
      </trkpt>
      <trkpt lat="45.85083" lon="6.07017">
        <ele>611</ele>
        <time>2016-05-02T10:41:33.109Z</time>
      </trkpt>
      <trkpt lat="45.85083" lon="6.07017">
        <ele>611</ele>
        <time>2016-05-02T10:41:34.109Z</time>
      </trkpt>
      <trkpt lat="45.85079" lon="6.07014">
        <ele>611</ele>
        <time>2016-05-02T10:41:35.109Z</time>
      </trkpt>
      <trkpt lat="45.85077" lon="6.07012">
        <ele>612</ele>
        <time>2016-05-02T10:41:36.109Z</time>
      </trkpt>
      <trkpt lat="45.85075" lon="6.0701">
        <ele>612</ele>
        <time>2016-05-02T10:41:37.109Z</time>
      </trkpt>
      <trkpt lat="45.85073" lon="6.07008">
        <ele>612</ele>
        <time>2016-05-02T10:41:38.109Z</time>
      </trkpt>
      <trkpt lat="45.85071" lon="6.07007">
        <ele>612</ele>
        <time>2016-05-02T10:41:39.109Z</time>
      </trkpt>
      <trkpt lat="45.85069" lon="6.07005">
        <ele>612</ele>
        <time>2016-05-02T10:41:40.109Z</time>
      </trkpt>
      <trkpt lat="45.85067" lon="6.07003">
        <ele>613</ele>
        <time>2016-05-02T10:41:41.109Z</time>
      </trkpt>
      <trkpt lat="45.85065" lon="6.07001">
        <ele>613</ele>
        <time>2016-05-02T10:41:42.109Z</time>
      </trkpt>
      <trkpt lat="45.85063" lon="6.06999">
        <ele>613</ele>
        <time>2016-05-02T10:41:43.109Z</time>
      </trkpt>
      <trkpt lat="45.85061" lon="6.06997">
        <ele>614</ele>
        <time>2016-05-02T10:41:44.109Z</time>
      </trkpt>
      <trkpt lat="45.8506" lon="6.06994">
        <ele>614</ele>
        <time>2016-05-02T10:41:45.109Z</time>
      </trkpt>
      <trkpt lat="45.85058" lon="6.06992">
        <ele>614</ele>
        <time>2016-05-02T10:41:46.109Z</time>
      </trkpt>
      <trkpt lat="45.85056" lon="6.0699">
        <ele>615</ele>
        <time>2016-05-02T10:41:47.109Z</time>
      </trkpt>
      <trkpt lat="45.85054" lon="6.06988">
        <ele>615</ele>
        <time>2016-05-02T10:41:48.109Z</time>
      </trkpt>
      <trkpt lat="45.85052" lon="6.06986">
        <ele>615</ele>
        <time>2016-05-02T10:41:49.109Z</time>
      </trkpt>
      <trkpt lat="45.8505" lon="6.06984">
        <ele>615</ele>
        <time>2016-05-02T10:41:50.109Z</time>
      </trkpt>
      <trkpt lat="45.8505" lon="6.06984">
        <ele>615</ele>
        <time>2016-05-02T10:41:51.109Z</time>
      </trkpt>
      <trkpt lat="45.85046" lon="6.0698">
        <ele>616</ele>
        <time>2016-05-02T10:41:52.109Z</time>
      </trkpt>
      <trkpt lat="45.85044" lon="6.06978">
        <ele>616</ele>
        <time>2016-05-02T10:41:53.109Z</time>
      </trkpt>
      <trkpt lat="45.85043" lon="6.06976">
        <ele>616</ele>
        <time>2016-05-02T10:41:54.109Z</time>
      </trkpt>
      <trkpt lat="45.8504" lon="6.06974">
        <ele>616</ele>
        <time>2016-05-02T10:41:55.109Z</time>
      </trkpt>
      <trkpt lat="45.85038" lon="6.06972">
        <ele>616</ele>
        <time>2016-05-02T10:41:56.109Z</time>
      </trkpt>
      <trkpt lat="45.85036" lon="6.0697">
        <ele>617</ele>
        <time>2016-05-02T10:41:57.109Z</time>
      </trkpt>
      <trkpt lat="45.85034" lon="6.06968">
        <ele>617</ele>
        <time>2016-05-02T10:41:58.109Z</time>
      </trkpt>
      <trkpt lat="45.85032" lon="6.06967">
        <ele>617</ele>
        <time>2016-05-02T10:41:59.109Z</time>
      </trkpt>
      <trkpt lat="45.8503" lon="6.06966">
        <ele>617</ele>
        <time>2016-05-02T10:42:00.109Z</time>
      </trkpt>
      <trkpt lat="45.85027" lon="6.06967">
        <ele>617</ele>
        <time>2016-05-02T10:42:01.109Z</time>
      </trkpt>
      <trkpt lat="45.85026" lon="6.06968">
        <ele>616</ele>
        <time>2016-05-02T10:42:02.109Z</time>
      </trkpt>
      <trkpt lat="45.85024" lon="6.06969">
        <ele>616</ele>
        <time>2016-05-02T10:42:03.109Z</time>
      </trkpt>
      <trkpt lat="45.85023" lon="6.06971">
        <ele>616</ele>
        <time>2016-05-02T10:42:04.109Z</time>
      </trkpt>
      <trkpt lat="45.85022" lon="6.06972">
        <ele>616</ele>
        <time>2016-05-02T10:42:05.109Z</time>
      </trkpt>
      <trkpt lat="45.85021" lon="6.06974">
        <ele>616</ele>
        <time>2016-05-02T10:42:06.109Z</time>
      </trkpt>
      <trkpt lat="45.85021" lon="6.06976">
        <ele>616</ele>
        <time>2016-05-02T10:42:07.109Z</time>
      </trkpt>
      <trkpt lat="45.85021" lon="6.06978">
        <ele>616</ele>
        <time>2016-05-02T10:42:08.109Z</time>
      </trkpt>
      <trkpt lat="45.85021" lon="6.0698">
        <ele>615</ele>
        <time>2016-05-02T10:42:09.109Z</time>
      </trkpt>
      <trkpt lat="45.85022" lon="6.06982">
        <ele>615</ele>
        <time>2016-05-02T10:42:10.109Z</time>
      </trkpt>
      <trkpt lat="45.85023" lon="6.06984">
        <ele>615</ele>
        <time>2016-05-02T10:42:11.109Z</time>
      </trkpt>
      <trkpt lat="45.85024" lon="6.06986">
        <ele>615</ele>
        <time>2016-05-02T10:42:12.109Z</time>
      </trkpt>
      <trkpt lat="45.85025" lon="6.06988">
        <ele>615</ele>
        <time>2016-05-02T10:42:13.109Z</time>
      </trkpt>
      <trkpt lat="45.85026" lon="6.0699">
        <ele>615</ele>
        <time>2016-05-02T10:42:14.109Z</time>
      </trkpt>
      <trkpt lat="45.85028" lon="6.06992">
        <ele>615</ele>
        <time>2016-05-02T10:42:15.109Z</time>
      </trkpt>
      <trkpt lat="45.85029" lon="6.06994">
        <ele>615</ele>
        <time>2016-05-02T10:42:16.109Z</time>
      </trkpt>
      <trkpt lat="45.85029" lon="6.06994">
        <ele>615</ele>
        <time>2016-05-02T10:42:17.109Z</time>
      </trkpt>
      <trkpt lat="45.85031" lon="6.06997">
        <ele>615</ele>
        <time>2016-05-02T10:42:18.109Z</time>
      </trkpt>
      <trkpt lat="45.85032" lon="6.06999">
        <ele>616</ele>
        <time>2016-05-02T10:42:19.109Z</time>
      </trkpt>
      <trkpt lat="45.85033" lon="6.07001">
        <ele>616</ele>
        <time>2016-05-02T10:42:20.109Z</time>
      </trkpt>
      <trkpt lat="45.85033" lon="6.07003">
        <ele>616</ele>
        <time>2016-05-02T10:42:21.109Z</time>
      </trkpt>
      <trkpt lat="45.85034" lon="6.07006">
        <ele>616</ele>
        <time>2016-05-02T10:42:22.109Z</time>
      </trkpt>
      <trkpt lat="45.85034" lon="6.07007">
        <ele>616</ele>
        <time>2016-05-02T10:42:23.109Z</time>
      </trkpt>
      <trkpt lat="45.85034" lon="6.07007">
        <ele>616</ele>
        <time>2016-05-02T10:42:24.109Z</time>
      </trkpt>
      <trkpt lat="45.85034" lon="6.07011">
        <ele>616</ele>
        <time>2016-05-02T10:42:25.109Z</time>
      </trkpt>
      <trkpt lat="45.85033" lon="6.07012">
        <ele>616</ele>
        <time>2016-05-02T10:42:26.109Z</time>
      </trkpt>
      <trkpt lat="45.85033" lon="6.07014">
        <ele>617</ele>
        <time>2016-05-02T10:42:27.109Z</time>
      </trkpt>
      <trkpt lat="45.85032" lon="6.07016">
        <ele>617</ele>
        <time>2016-05-02T10:42:28.109Z</time>
      </trkpt>
      <trkpt lat="45.85032" lon="6.07017">
        <ele>617</ele>
        <time>2016-05-02T10:42:29.109Z</time>
      </trkpt>
      <trkpt lat="45.85031" lon="6.07019">
        <ele>618</ele>
        <time>2016-05-02T10:42:30.109Z</time>
      </trkpt>
      <trkpt lat="45.8503" lon="6.07021">
        <ele>618</ele>
        <time>2016-05-02T10:42:31.109Z</time>
      </trkpt>
      <trkpt lat="45.85029" lon="6.07023">
        <ele>618</ele>
        <time>2016-05-02T10:42:32.109Z</time>
      </trkpt>
      <trkpt lat="45.85029" lon="6.07025">
        <ele>619</ele>
        <time>2016-05-02T10:42:33.109Z</time>
      </trkpt>
      <trkpt lat="45.85028" lon="6.07028">
        <ele>619</ele>
        <time>2016-05-02T10:42:34.109Z</time>
      </trkpt>
      <trkpt lat="45.85027" lon="6.0703">
        <ele>620</ele>
        <time>2016-05-02T10:42:35.109Z</time>
      </trkpt>
      <trkpt lat="45.85026" lon="6.07032">
        <ele>620</ele>
        <time>2016-05-02T10:42:36.109Z</time>
      </trkpt>
      <trkpt lat="45.85025" lon="6.07035">
        <ele>621</ele>
        <time>2016-05-02T10:42:37.109Z</time>
      </trkpt>
      <trkpt lat="45.85024" lon="6.07037">
        <ele>621</ele>
        <time>2016-05-02T10:42:38.109Z</time>
      </trkpt>
      <trkpt lat="45.85023" lon="6.0704">
        <ele>622</ele>
        <time>2016-05-02T10:42:39.109Z</time>
      </trkpt>
      <trkpt lat="45.85022" lon="6.07042">
        <ele>623</ele>
        <time>2016-05-02T10:42:40.109Z</time>
      </trkpt>
      <trkpt lat="45.85022" lon="6.07042">
        <ele>623</ele>
        <time>2016-05-02T10:42:41.109Z</time>
      </trkpt>
      <trkpt lat="45.8502" lon="6.07047">
        <ele>624</ele>
        <time>2016-05-02T10:42:42.109Z</time>
      </trkpt>
      <trkpt lat="45.85019" lon="6.0705">
        <ele>625</ele>
        <time>2016-05-02T10:42:43.109Z</time>
      </trkpt>
      <trkpt lat="45.85018" lon="6.07053">
        <ele>625</ele>
        <time>2016-05-02T10:42:44.109Z</time>
      </trkpt>
      <trkpt lat="45.85017" lon="6.07056">
        <ele>626</ele>
        <time>2016-05-02T10:42:45.109Z</time>
      </trkpt>
      <trkpt lat="45.85016" lon="6.07058">
        <ele>626</ele>
        <time>2016-05-02T10:42:46.109Z</time>
      </trkpt>
      <trkpt lat="45.85015" lon="6.07061">
        <ele>627</ele>
        <time>2016-05-02T10:42:47.109Z</time>
      </trkpt>
      <trkpt lat="45.85014" lon="6.07064">
        <ele>627</ele>
        <time>2016-05-02T10:42:48.109Z</time>
      </trkpt>
      <trkpt lat="45.85013" lon="6.07067">
        <ele>628</ele>
        <time>2016-05-02T10:42:49.109Z</time>
      </trkpt>
      <trkpt lat="45.85012" lon="6.07069">
        <ele>628</ele>
        <time>2016-05-02T10:42:50.109Z</time>
      </trkpt>
      <trkpt lat="45.85012" lon="6.07072">
        <ele>628</ele>
        <time>2016-05-02T10:42:51.109Z</time>
      </trkpt>
      <trkpt lat="45.8501" lon="6.07075">
        <ele>629</ele>
        <time>2016-05-02T10:42:52.109Z</time>
      </trkpt>
      <trkpt lat="45.85009" lon="6.07077">
        <ele>629</ele>
        <time>2016-05-02T10:42:53.109Z</time>
      </trkpt>
      <trkpt lat="45.85009" lon="6.0708">
        <ele>629</ele>
        <time>2016-05-02T10:42:54.109Z</time>
      </trkpt>
      <trkpt lat="45.85008" lon="6.07083">
        <ele>630</ele>
        <time>2016-05-02T10:42:55.109Z</time>
      </trkpt>
      <trkpt lat="45.85007" lon="6.07086">
        <ele>630</ele>
        <time>2016-05-02T10:42:56.109Z</time>
      </trkpt>
      <trkpt lat="45.85006" lon="6.07089">
        <ele>630</ele>
        <time>2016-05-02T10:42:57.109Z</time>
      </trkpt>
      <trkpt lat="45.85006" lon="6.07091">
        <ele>631</ele>
        <time>2016-05-02T10:42:58.109Z</time>
      </trkpt>
      <trkpt lat="45.85005" lon="6.07094">
        <ele>631</ele>
        <time>2016-05-02T10:42:59.109Z</time>
      </trkpt>
      <trkpt lat="45.85004" lon="6.07096">
        <ele>631</ele>
        <time>2016-05-02T10:43:00.109Z</time>
      </trkpt>
      <trkpt lat="45.85002" lon="6.07098">
        <ele>632</ele>
        <time>2016-05-02T10:43:01.109Z</time>
      </trkpt>
      <trkpt lat="45.85001" lon="6.071">
        <ele>632</ele>
        <time>2016-05-02T10:43:02.109Z</time>
      </trkpt>
      <trkpt lat="45.85" lon="6.07101">
        <ele>633</ele>
        <time>2016-05-02T10:43:03.109Z</time>
      </trkpt>
      <trkpt lat="45.84999" lon="6.07103">
        <ele>633</ele>
        <time>2016-05-02T10:43:04.109Z</time>
      </trkpt>
      <trkpt lat="45.84997" lon="6.07104">
        <ele>634</ele>
        <time>2016-05-02T10:43:05.109Z</time>
      </trkpt>
      <trkpt lat="45.84996" lon="6.07106">
        <ele>634</ele>
        <time>2016-05-02T10:43:06.109Z</time>
      </trkpt>
      <trkpt lat="45.84994" lon="6.07108">
        <ele>635</ele>
        <time>2016-05-02T10:43:07.109Z</time>
      </trkpt>
      <trkpt lat="45.84994" lon="6.07108">
        <ele>635</ele>
        <time>2016-05-02T10:43:08.109Z</time>
      </trkpt>
      <trkpt lat="45.84991" lon="6.07112">
        <ele>636</ele>
        <time>2016-05-02T10:43:09.109Z</time>
      </trkpt>
      <trkpt lat="45.8499" lon="6.07113">
        <ele>636</ele>
        <time>2016-05-02T10:43:10.109Z</time>
      </trkpt>
      <trkpt lat="45.84989" lon="6.07115">
        <ele>636</ele>
        <time>2016-05-02T10:43:11.109Z</time>
      </trkpt>
      <trkpt lat="45.84988" lon="6.07117">
        <ele>637</ele>
        <time>2016-05-02T10:43:12.109Z</time>
      </trkpt>
      <trkpt lat="45.84986" lon="6.07119">
        <ele>637</ele>
        <time>2016-05-02T10:43:13.109Z</time>
      </trkpt>
      <trkpt lat="45.84984" lon="6.07121">
        <ele>637</ele>
        <time>2016-05-02T10:43:14.109Z</time>
      </trkpt>
      <trkpt lat="45.84983" lon="6.07123">
        <ele>637</ele>
        <time>2016-05-02T10:43:15.109Z</time>
      </trkpt>
      <trkpt lat="45.84983" lon="6.07123">
        <ele>637</ele>
        <time>2016-05-02T10:43:16.109Z</time>
      </trkpt>
      <trkpt lat="45.8498" lon="6.07126">
        <ele>638</ele>
        <time>2016-05-02T10:43:17.109Z</time>
      </trkpt>
      <trkpt lat="45.84978" lon="6.07128">
        <ele>638</ele>
        <time>2016-05-02T10:43:18.109Z</time>
      </trkpt>
      <trkpt lat="45.84976" lon="6.07129">
        <ele>639</ele>
        <time>2016-05-02T10:43:19.109Z</time>
      </trkpt>
      <trkpt lat="45.84975" lon="6.07131">
        <ele>639</ele>
        <time>2016-05-02T10:43:20.109Z</time>
      </trkpt>
      <trkpt lat="45.84973" lon="6.07132">
        <ele>640</ele>
        <time>2016-05-02T10:43:21.109Z</time>
      </trkpt>
      <trkpt lat="45.84972" lon="6.07134">
        <ele>640</ele>
        <time>2016-05-02T10:43:22.109Z</time>
      </trkpt>
      <trkpt lat="45.8497" lon="6.07137">
        <ele>640</ele>
        <time>2016-05-02T10:43:23.109Z</time>
      </trkpt>
      <trkpt lat="45.84968" lon="6.07139">
        <ele>641</ele>
        <time>2016-05-02T10:43:24.109Z</time>
      </trkpt>
      <trkpt lat="45.84967" lon="6.07142">
        <ele>641</ele>
        <time>2016-05-02T10:43:25.109Z</time>
      </trkpt>
      <trkpt lat="45.84965" lon="6.07145">
        <ele>641</ele>
        <time>2016-05-02T10:43:26.109Z</time>
      </trkpt>
      <trkpt lat="45.84964" lon="6.07148">
        <ele>642</ele>
        <time>2016-05-02T10:43:27.109Z</time>
      </trkpt>
      <trkpt lat="45.84962" lon="6.0715">
        <ele>642</ele>
        <time>2016-05-02T10:43:28.109Z</time>
      </trkpt>
      <trkpt lat="45.84961" lon="6.07153">
        <ele>642</ele>
        <time>2016-05-02T10:43:29.109Z</time>
      </trkpt>
      <trkpt lat="45.84959" lon="6.07156">
        <ele>643</ele>
        <time>2016-05-02T10:43:30.109Z</time>
      </trkpt>
      <trkpt lat="45.84958" lon="6.07158">
        <ele>643</ele>
        <time>2016-05-02T10:43:31.109Z</time>
      </trkpt>
      <trkpt lat="45.84958" lon="6.07158">
        <ele>643</ele>
        <time>2016-05-02T10:43:32.109Z</time>
      </trkpt>
      <trkpt lat="45.84955" lon="6.07162">
        <ele>644</ele>
        <time>2016-05-02T10:43:33.109Z</time>
      </trkpt>
      <trkpt lat="45.84953" lon="6.07164">
        <ele>644</ele>
        <time>2016-05-02T10:43:34.109Z</time>
      </trkpt>
      <trkpt lat="45.84952" lon="6.07166">
        <ele>645</ele>
        <time>2016-05-02T10:43:35.109Z</time>
      </trkpt>
      <trkpt lat="45.8495" lon="6.07168">
        <ele>645</ele>
        <time>2016-05-02T10:43:36.109Z</time>
      </trkpt>
      <trkpt lat="45.84948" lon="6.07169">
        <ele>646</ele>
        <time>2016-05-02T10:43:37.109Z</time>
      </trkpt>
      <trkpt lat="45.84947" lon="6.07171">
        <ele>646</ele>
        <time>2016-05-02T10:43:38.109Z</time>
      </trkpt>
      <trkpt lat="45.84945" lon="6.07172">
        <ele>646</ele>
        <time>2016-05-02T10:43:39.109Z</time>
      </trkpt>
      <trkpt lat="45.84943" lon="6.07172">
        <ele>646</ele>
        <time>2016-05-02T10:43:40.109Z</time>
      </trkpt>
      <trkpt lat="45.84941" lon="6.07173">
        <ele>647</ele>
        <time>2016-05-02T10:43:41.109Z</time>
      </trkpt>
      <trkpt lat="45.84939" lon="6.07175">
        <ele>647</ele>
        <time>2016-05-02T10:43:42.109Z</time>
      </trkpt>
      <trkpt lat="45.84937" lon="6.07176">
        <ele>647</ele>
        <time>2016-05-02T10:43:43.109Z</time>
      </trkpt>
      <trkpt lat="45.84934" lon="6.07177">
        <ele>647</ele>
        <time>2016-05-02T10:43:44.109Z</time>
      </trkpt>
      <trkpt lat="45.84932" lon="6.07179">
        <ele>647</ele>
        <time>2016-05-02T10:43:45.109Z</time>
      </trkpt>
      <trkpt lat="45.84929" lon="6.07181">
        <ele>648</ele>
        <time>2016-05-02T10:43:46.109Z</time>
      </trkpt>
      <trkpt lat="45.84927" lon="6.07183">
        <ele>648</ele>
        <time>2016-05-02T10:43:47.109Z</time>
      </trkpt>
      <trkpt lat="45.84924" lon="6.07185">
        <ele>648</ele>
        <time>2016-05-02T10:43:48.109Z</time>
      </trkpt>
      <trkpt lat="45.84921" lon="6.07188">
        <ele>648</ele>
        <time>2016-05-02T10:43:49.109Z</time>
      </trkpt>
      <trkpt lat="45.84918" lon="6.07191">
        <ele>648</ele>
        <time>2016-05-02T10:43:50.109Z</time>
      </trkpt>
      <trkpt lat="45.84914" lon="6.07194">
        <ele>648</ele>
        <time>2016-05-02T10:43:51.109Z</time>
      </trkpt>
      <trkpt lat="45.84911" lon="6.07197">
        <ele>648</ele>
        <time>2016-05-02T10:43:52.109Z</time>
      </trkpt>
      <trkpt lat="45.84908" lon="6.072">
        <ele>648</ele>
        <time>2016-05-02T10:43:53.109Z</time>
      </trkpt>
      <trkpt lat="45.84905" lon="6.07204">
        <ele>648</ele>
        <time>2016-05-02T10:43:54.109Z</time>
      </trkpt>
      <trkpt lat="45.84903" lon="6.07208">
        <ele>648</ele>
        <time>2016-05-02T10:43:55.109Z</time>
      </trkpt>
      <trkpt lat="45.849" lon="6.07212">
        <ele>649</ele>
        <time>2016-05-02T10:43:56.109Z</time>
      </trkpt>
      <trkpt lat="45.84898" lon="6.07217">
        <ele>649</ele>
        <time>2016-05-02T10:43:57.109Z</time>
      </trkpt>
      <trkpt lat="45.84898" lon="6.07217">
        <ele>649</ele>
        <time>2016-05-02T10:43:58.109Z</time>
      </trkpt>
      <trkpt lat="45.84895" lon="6.07226">
        <ele>649</ele>
        <time>2016-05-02T10:43:59.109Z</time>
      </trkpt>
      <trkpt lat="45.84894" lon="6.0723">
        <ele>649</ele>
        <time>2016-05-02T10:44:00.109Z</time>
      </trkpt>
      <trkpt lat="45.84893" lon="6.07233">
        <ele>649</ele>
        <time>2016-05-02T10:44:01.109Z</time>
      </trkpt>
      <trkpt lat="45.84892" lon="6.07235">
        <ele>649</ele>
        <time>2016-05-02T10:44:02.109Z</time>
      </trkpt>
      <trkpt lat="45.84891" lon="6.07238">
        <ele>648</ele>
        <time>2016-05-02T10:44:03.047Z</time>
      </trkpt>
      <trkpt lat="45.84891" lon="6.07239">
        <ele>648</ele>
        <time>2016-05-02T10:44:04.047Z</time>
      </trkpt>
      <trkpt lat="45.84892" lon="6.0724">
        <ele>648</ele>
        <time>2016-05-02T10:44:05.047Z</time>
      </trkpt>
      <trkpt lat="45.84892" lon="6.07242">
        <ele>648</ele>
        <time>2016-05-02T10:44:06.047Z</time>
      </trkpt>
      <trkpt lat="45.84893" lon="6.07245">
        <ele>648</ele>
        <time>2016-05-02T10:44:07.047Z</time>
      </trkpt>
      <trkpt lat="45.84894" lon="6.07247">
        <ele>648</ele>
        <time>2016-05-02T10:44:08.047Z</time>
      </trkpt>
      <trkpt lat="45.84895" lon="6.0725">
        <ele>648</ele>
        <time>2016-05-02T10:44:09.047Z</time>
      </trkpt>
      <trkpt lat="45.84897" lon="6.07253">
        <ele>648</ele>
        <time>2016-05-02T10:44:10.047Z</time>
      </trkpt>
      <trkpt lat="45.84899" lon="6.07256">
        <ele>647</ele>
        <time>2016-05-02T10:44:11.047Z</time>
      </trkpt>
      <trkpt lat="45.84901" lon="6.07259">
        <ele>647</ele>
        <time>2016-05-02T10:44:12.047Z</time>
      </trkpt>
      <trkpt lat="45.84904" lon="6.07262">
        <ele>647</ele>
        <time>2016-05-02T10:44:13.047Z</time>
      </trkpt>
      <trkpt lat="45.84906" lon="6.07265">
        <ele>647</ele>
        <time>2016-05-02T10:44:14.047Z</time>
      </trkpt>
      <trkpt lat="45.84908" lon="6.07268">
        <ele>647</ele>
        <time>2016-05-02T10:44:15.047Z</time>
      </trkpt>
      <trkpt lat="45.8491" lon="6.07271">
        <ele>647</ele>
        <time>2016-05-02T10:44:16.047Z</time>
      </trkpt>
      <trkpt lat="45.84912" lon="6.07273">
        <ele>647</ele>
        <time>2016-05-02T10:44:17.047Z</time>
      </trkpt>
      <trkpt lat="45.84914" lon="6.07276">
        <ele>647</ele>
        <time>2016-05-02T10:44:18.047Z</time>
      </trkpt>
      <trkpt lat="45.84916" lon="6.07279">
        <ele>647</ele>
        <time>2016-05-02T10:44:19.047Z</time>
      </trkpt>
      <trkpt lat="45.84918" lon="6.07282">
        <ele>647</ele>
        <time>2016-05-02T10:44:20.047Z</time>
      </trkpt>
      <trkpt lat="45.8492" lon="6.07285">
        <ele>647</ele>
        <time>2016-05-02T10:44:21.047Z</time>
      </trkpt>
      <trkpt lat="45.84922" lon="6.07288">
        <ele>647</ele>
        <time>2016-05-02T10:44:22.047Z</time>
      </trkpt>
      <trkpt lat="45.84924" lon="6.07291">
        <ele>646</ele>
        <time>2016-05-02T10:44:23.047Z</time>
      </trkpt>
      <trkpt lat="45.84927" lon="6.07294">
        <ele>646</ele>
        <time>2016-05-02T10:44:24.047Z</time>
      </trkpt>
      <trkpt lat="45.84929" lon="6.07297">
        <ele>646</ele>
        <time>2016-05-02T10:44:25.047Z</time>
      </trkpt>
      <trkpt lat="45.84931" lon="6.073">
        <ele>646</ele>
        <time>2016-05-02T10:44:26.047Z</time>
      </trkpt>
      <trkpt lat="45.84934" lon="6.07302">
        <ele>646</ele>
        <time>2016-05-02T10:44:27.047Z</time>
      </trkpt>
      <trkpt lat="45.84936" lon="6.07305">
        <ele>646</ele>
        <time>2016-05-02T10:44:28.047Z</time>
      </trkpt>
      <trkpt lat="45.84938" lon="6.07308">
        <ele>646</ele>
        <time>2016-05-02T10:44:29.047Z</time>
      </trkpt>
      <trkpt lat="45.8494" lon="6.07311">
        <ele>646</ele>
        <time>2016-05-02T10:44:30.047Z</time>
      </trkpt>
      <trkpt lat="45.84943" lon="6.07313">
        <ele>646</ele>
        <time>2016-05-02T10:44:31.047Z</time>
      </trkpt>
      <trkpt lat="45.84945" lon="6.07316">
        <ele>646</ele>
        <time>2016-05-02T10:44:32.047Z</time>
      </trkpt>
      <trkpt lat="45.84947" lon="6.07318">
        <ele>646</ele>
        <time>2016-05-02T10:44:33.047Z</time>
      </trkpt>
      <trkpt lat="45.84949" lon="6.07321">
        <ele>646</ele>
        <time>2016-05-02T10:44:34.047Z</time>
      </trkpt>
      <trkpt lat="45.84951" lon="6.07323">
        <ele>646</ele>
        <time>2016-05-02T10:44:35.047Z</time>
      </trkpt>
      <trkpt lat="45.84953" lon="6.07325">
        <ele>646</ele>
        <time>2016-05-02T10:44:36.047Z</time>
      </trkpt>
      <trkpt lat="45.84956" lon="6.07328">
        <ele>646</ele>
        <time>2016-05-02T10:44:37.047Z</time>
      </trkpt>
      <trkpt lat="45.84957" lon="6.0733">
        <ele>645</ele>
        <time>2016-05-02T10:44:38.047Z</time>
      </trkpt>
      <trkpt lat="45.84959" lon="6.07332">
        <ele>645</ele>
        <time>2016-05-02T10:44:39.047Z</time>
      </trkpt>
      <trkpt lat="45.84961" lon="6.07334">
        <ele>645</ele>
        <time>2016-05-02T10:44:40.047Z</time>
      </trkpt>
      <trkpt lat="45.84963" lon="6.07336">
        <ele>645</ele>
        <time>2016-05-02T10:44:41.047Z</time>
      </trkpt>
      <trkpt lat="45.84965" lon="6.07338">
        <ele>646</ele>
        <time>2016-05-02T10:44:42.047Z</time>
      </trkpt>
      <trkpt lat="45.84968" lon="6.0734">
        <ele>646</ele>
        <time>2016-05-02T10:44:43.047Z</time>
      </trkpt>
      <trkpt lat="45.8497" lon="6.07342">
        <ele>646</ele>
        <time>2016-05-02T10:44:44.047Z</time>
      </trkpt>
      <trkpt lat="45.84973" lon="6.07345">
        <ele>646</ele>
        <time>2016-05-02T10:44:45.047Z</time>
      </trkpt>
      <trkpt lat="45.84975" lon="6.07348">
        <ele>645</ele>
        <time>2016-05-02T10:44:46.047Z</time>
      </trkpt>
      <trkpt lat="45.84978" lon="6.0735">
        <ele>645</ele>
        <time>2016-05-02T10:44:47.047Z</time>
      </trkpt>
      <trkpt lat="45.84981" lon="6.07353">
        <ele>645</ele>
        <time>2016-05-02T10:44:48.047Z</time>
      </trkpt>
      <trkpt lat="45.84983" lon="6.07356">
        <ele>645</ele>
        <time>2016-05-02T10:44:49.047Z</time>
      </trkpt>
      <trkpt lat="45.84986" lon="6.07359">
        <ele>645</ele>
        <time>2016-05-02T10:44:50.047Z</time>
      </trkpt>
      <trkpt lat="45.84989" lon="6.07362">
        <ele>644</ele>
        <time>2016-05-02T10:44:51.047Z</time>
      </trkpt>
      <trkpt lat="45.84992" lon="6.07364">
        <ele>644</ele>
        <time>2016-05-02T10:44:52.047Z</time>
      </trkpt>
      <trkpt lat="45.84994" lon="6.07367">
        <ele>644</ele>
        <time>2016-05-02T10:44:53.047Z</time>
      </trkpt>
      <trkpt lat="45.84997" lon="6.07369">
        <ele>644</ele>
        <time>2016-05-02T10:44:54.047Z</time>
      </trkpt>
      <trkpt lat="45.85" lon="6.07372">
        <ele>644</ele>
        <time>2016-05-02T10:44:55.047Z</time>
      </trkpt>
      <trkpt lat="45.85002" lon="6.07374">
        <ele>644</ele>
        <time>2016-05-02T10:44:56.047Z</time>
      </trkpt>
      <trkpt lat="45.85004" lon="6.07376">
        <ele>644</ele>
        <time>2016-05-02T10:44:57.047Z</time>
      </trkpt>
      <trkpt lat="45.85007" lon="6.07378">
        <ele>644</ele>
        <time>2016-05-02T10:44:58.047Z</time>
      </trkpt>
      <trkpt lat="45.85009" lon="6.07381">
        <ele>644</ele>
        <time>2016-05-02T10:44:59.047Z</time>
      </trkpt>
      <trkpt lat="45.85011" lon="6.07383">
        <ele>644</ele>
        <time>2016-05-02T10:45:00.047Z</time>
      </trkpt>
      <trkpt lat="45.85012" lon="6.07386">
        <ele>644</ele>
        <time>2016-05-02T10:45:01.047Z</time>
      </trkpt>
      <trkpt lat="45.85014" lon="6.07388">
        <ele>644</ele>
        <time>2016-05-02T10:45:02.047Z</time>
      </trkpt>
      <trkpt lat="45.85017" lon="6.07391">
        <ele>644</ele>
        <time>2016-05-02T10:45:03.047Z</time>
      </trkpt>
      <trkpt lat="45.85019" lon="6.07394">
        <ele>644</ele>
        <time>2016-05-02T10:45:04.047Z</time>
      </trkpt>
      <trkpt lat="45.85021" lon="6.07397">
        <ele>645</ele>
        <time>2016-05-02T10:45:05.047Z</time>
      </trkpt>
      <trkpt lat="45.85023" lon="6.07399">
        <ele>645</ele>
        <time>2016-05-02T10:45:06.047Z</time>
      </trkpt>
      <trkpt lat="45.85024" lon="6.07402">
        <ele>645</ele>
        <time>2016-05-02T10:45:07.047Z</time>
      </trkpt>
      <trkpt lat="45.85026" lon="6.07404">
        <ele>645</ele>
        <time>2016-05-02T10:45:08.047Z</time>
      </trkpt>
      <trkpt lat="45.85028" lon="6.07406">
        <ele>645</ele>
        <time>2016-05-02T10:45:09.047Z</time>
      </trkpt>
      <trkpt lat="45.8503" lon="6.07409">
        <ele>645</ele>
        <time>2016-05-02T10:45:10.047Z</time>
      </trkpt>
      <trkpt lat="45.85032" lon="6.07412">
        <ele>645</ele>
        <time>2016-05-02T10:45:11.047Z</time>
      </trkpt>
      <trkpt lat="45.85035" lon="6.07414">
        <ele>645</ele>
        <time>2016-05-02T10:45:12.047Z</time>
      </trkpt>
      <trkpt lat="45.85037" lon="6.07417">
        <ele>645</ele>
        <time>2016-05-02T10:45:13.047Z</time>
      </trkpt>
      <trkpt lat="45.85039" lon="6.0742">
        <ele>645</ele>
        <time>2016-05-02T10:45:14.047Z</time>
      </trkpt>
      <trkpt lat="45.85042" lon="6.07423">
        <ele>645</ele>
        <time>2016-05-02T10:45:15.047Z</time>
      </trkpt>
      <trkpt lat="45.85044" lon="6.07426">
        <ele>645</ele>
        <time>2016-05-02T10:45:16.047Z</time>
      </trkpt>
      <trkpt lat="45.85047" lon="6.07429">
        <ele>645</ele>
        <time>2016-05-02T10:45:17.047Z</time>
      </trkpt>
      <trkpt lat="45.85049" lon="6.07432">
        <ele>645</ele>
        <time>2016-05-02T10:45:18.047Z</time>
      </trkpt>
      <trkpt lat="45.85051" lon="6.07434">
        <ele>645</ele>
        <time>2016-05-02T10:45:19.047Z</time>
      </trkpt>
      <trkpt lat="45.85053" lon="6.07436">
        <ele>645</ele>
        <time>2016-05-02T10:45:20.047Z</time>
      </trkpt>
      <trkpt lat="45.85056" lon="6.07439">
        <ele>645</ele>
        <time>2016-05-02T10:45:21.047Z</time>
      </trkpt>
      <trkpt lat="45.85058" lon="6.07441">
        <ele>644</ele>
        <time>2016-05-02T10:45:22.047Z</time>
      </trkpt>
      <trkpt lat="45.8506" lon="6.07443">
        <ele>644</ele>
        <time>2016-05-02T10:45:23.047Z</time>
      </trkpt>
      <trkpt lat="45.85062" lon="6.07445">
        <ele>644</ele>
        <time>2016-05-02T10:45:24.047Z</time>
      </trkpt>
      <trkpt lat="45.85064" lon="6.07447">
        <ele>644</ele>
        <time>2016-05-02T10:45:25.047Z</time>
      </trkpt>
      <trkpt lat="45.85066" lon="6.07448">
        <ele>644</ele>
        <time>2016-05-02T10:45:26.047Z</time>
      </trkpt>
      <trkpt lat="45.85068" lon="6.0745">
        <ele>644</ele>
        <time>2016-05-02T10:45:27.047Z</time>
      </trkpt>
      <trkpt lat="45.85071" lon="6.07452">
        <ele>644</ele>
        <time>2016-05-02T10:45:28.047Z</time>
      </trkpt>
      <trkpt lat="45.85073" lon="6.07455">
        <ele>644</ele>
        <time>2016-05-02T10:45:29.047Z</time>
      </trkpt>
      <trkpt lat="45.85075" lon="6.07457">
        <ele>643</ele>
        <time>2016-05-02T10:45:30.047Z</time>
      </trkpt>
      <trkpt lat="45.85078" lon="6.0746">
        <ele>643</ele>
        <time>2016-05-02T10:45:31.047Z</time>
      </trkpt>
      <trkpt lat="45.85081" lon="6.07462">
        <ele>643</ele>
        <time>2016-05-02T10:45:32.047Z</time>
      </trkpt>
      <trkpt lat="45.85083" lon="6.07465">
        <ele>643</ele>
        <time>2016-05-02T10:45:33.047Z</time>
      </trkpt>
      <trkpt lat="45.85086" lon="6.07467">
        <ele>643</ele>
        <time>2016-05-02T10:45:34.047Z</time>
      </trkpt>
      <trkpt lat="45.85089" lon="6.07469">
        <ele>643</ele>
        <time>2016-05-02T10:45:35.047Z</time>
      </trkpt>
      <trkpt lat="45.85091" lon="6.07471">
        <ele>643</ele>
        <time>2016-05-02T10:45:36.047Z</time>
      </trkpt>
      <trkpt lat="45.85094" lon="6.07473">
        <ele>643</ele>
        <time>2016-05-02T10:45:37.047Z</time>
      </trkpt>
      <trkpt lat="45.85096" lon="6.07476">
        <ele>643</ele>
        <time>2016-05-02T10:45:38.047Z</time>
      </trkpt>
      <trkpt lat="45.85098" lon="6.07478">
        <ele>643</ele>
        <time>2016-05-02T10:45:39.047Z</time>
      </trkpt>
      <trkpt lat="45.85101" lon="6.07481">
        <ele>644</ele>
        <time>2016-05-02T10:45:40.047Z</time>
      </trkpt>
      <trkpt lat="45.85103" lon="6.07484">
        <ele>644</ele>
        <time>2016-05-02T10:45:41.047Z</time>
      </trkpt>
      <trkpt lat="45.85106" lon="6.07486">
        <ele>644</ele>
        <time>2016-05-02T10:45:42.047Z</time>
      </trkpt>
      <trkpt lat="45.85108" lon="6.07489">
        <ele>644</ele>
        <time>2016-05-02T10:45:43.047Z</time>
      </trkpt>
      <trkpt lat="45.85111" lon="6.07492">
        <ele>644</ele>
        <time>2016-05-02T10:45:44.047Z</time>
      </trkpt>
      <trkpt lat="45.85114" lon="6.07496">
        <ele>644</ele>
        <time>2016-05-02T10:45:45.047Z</time>
      </trkpt>
      <trkpt lat="45.85116" lon="6.07499">
        <ele>644</ele>
        <time>2016-05-02T10:45:46.047Z</time>
      </trkpt>
      <trkpt lat="45.85118" lon="6.07502">
        <ele>644</ele>
        <time>2016-05-02T10:45:47.047Z</time>
      </trkpt>
      <trkpt lat="45.8512" lon="6.07505">
        <ele>645</ele>
        <time>2016-05-02T10:45:48.047Z</time>
      </trkpt>
      <trkpt lat="45.85123" lon="6.07509">
        <ele>645</ele>
        <time>2016-05-02T10:45:49.047Z</time>
      </trkpt>
      <trkpt lat="45.85125" lon="6.07512">
        <ele>645</ele>
        <time>2016-05-02T10:45:50.047Z</time>
      </trkpt>
      <trkpt lat="45.85127" lon="6.07516">
        <ele>645</ele>
        <time>2016-05-02T10:45:51.047Z</time>
      </trkpt>
      <trkpt lat="45.85129" lon="6.07519">
        <ele>645</ele>
        <time>2016-05-02T10:45:52.047Z</time>
      </trkpt>
      <trkpt lat="45.85132" lon="6.07522">
        <ele>645</ele>
        <time>2016-05-02T10:45:53.047Z</time>
      </trkpt>
      <trkpt lat="45.85134" lon="6.07525">
        <ele>645</ele>
        <time>2016-05-02T10:45:54.047Z</time>
      </trkpt>
      <trkpt lat="45.85136" lon="6.07528">
        <ele>645</ele>
        <time>2016-05-02T10:45:55.047Z</time>
      </trkpt>
      <trkpt lat="45.85137" lon="6.07531">
        <ele>645</ele>
        <time>2016-05-02T10:45:56.047Z</time>
      </trkpt>
      <trkpt lat="45.85139" lon="6.07535">
        <ele>645</ele>
        <time>2016-05-02T10:45:57.047Z</time>
      </trkpt>
      <trkpt lat="45.85141" lon="6.07538">
        <ele>645</ele>
        <time>2016-05-02T10:45:58.047Z</time>
      </trkpt>
      <trkpt lat="45.85143" lon="6.0754">
        <ele>645</ele>
        <time>2016-05-02T10:45:59.047Z</time>
      </trkpt>
      <trkpt lat="45.85145" lon="6.07543">
        <ele>645</ele>
        <time>2016-05-02T10:46:00.047Z</time>
      </trkpt>
      <trkpt lat="45.85147" lon="6.07546">
        <ele>645</ele>
        <time>2016-05-02T10:46:01.047Z</time>
      </trkpt>
      <trkpt lat="45.85149" lon="6.07549">
        <ele>645</ele>
        <time>2016-05-02T10:46:02.047Z</time>
      </trkpt>
      <trkpt lat="45.85151" lon="6.07551">
        <ele>645</ele>
        <time>2016-05-02T10:46:03.047Z</time>
      </trkpt>
      <trkpt lat="45.85152" lon="6.07554">
        <ele>645</ele>
        <time>2016-05-02T10:46:04.047Z</time>
      </trkpt>
      <trkpt lat="45.85154" lon="6.07557">
        <ele>645</ele>
        <time>2016-05-02T10:46:05.047Z</time>
      </trkpt>
      <trkpt lat="45.85155" lon="6.0756">
        <ele>646</ele>
        <time>2016-05-02T10:46:06.047Z</time>
      </trkpt>
      <trkpt lat="45.85156" lon="6.07563">
        <ele>646</ele>
        <time>2016-05-02T10:46:07.047Z</time>
      </trkpt>
      <trkpt lat="45.85158" lon="6.07566">
        <ele>646</ele>
        <time>2016-05-02T10:46:08.047Z</time>
      </trkpt>
      <trkpt lat="45.8516" lon="6.0757">
        <ele>646</ele>
        <time>2016-05-02T10:46:09.047Z</time>
      </trkpt>
      <trkpt lat="45.85161" lon="6.07573">
        <ele>646</ele>
        <time>2016-05-02T10:46:10.047Z</time>
      </trkpt>
      <trkpt lat="45.85163" lon="6.07576">
        <ele>646</ele>
        <time>2016-05-02T10:46:11.047Z</time>
      </trkpt>
      <trkpt lat="45.85165" lon="6.07579">
        <ele>646</ele>
        <time>2016-05-02T10:46:12.047Z</time>
      </trkpt>
      <trkpt lat="45.85166" lon="6.07582">
        <ele>646</ele>
        <time>2016-05-02T10:46:13.047Z</time>
      </trkpt>
      <trkpt lat="45.85168" lon="6.07585">
        <ele>647</ele>
        <time>2016-05-02T10:46:14.047Z</time>
      </trkpt>
      <trkpt lat="45.8517" lon="6.07588">
        <ele>647</ele>
        <time>2016-05-02T10:46:15.047Z</time>
      </trkpt>
      <trkpt lat="45.85171" lon="6.07591">
        <ele>647</ele>
        <time>2016-05-02T10:46:16.047Z</time>
      </trkpt>
      <trkpt lat="45.85173" lon="6.07594">
        <ele>647</ele>
        <time>2016-05-02T10:46:17.047Z</time>
      </trkpt>
      <trkpt lat="45.85175" lon="6.07597">
        <ele>647</ele>
        <time>2016-05-02T10:46:18.047Z</time>
      </trkpt>
      <trkpt lat="45.85176" lon="6.07601">
        <ele>647</ele>
        <time>2016-05-02T10:46:19.047Z</time>
      </trkpt>
      <trkpt lat="45.85178" lon="6.07604">
        <ele>647</ele>
        <time>2016-05-02T10:46:20.047Z</time>
      </trkpt>
      <trkpt lat="45.8518" lon="6.07608">
        <ele>647</ele>
        <time>2016-05-02T10:46:21.047Z</time>
      </trkpt>
      <trkpt lat="45.85182" lon="6.07612">
        <ele>647</ele>
        <time>2016-05-02T10:46:22.047Z</time>
      </trkpt>
      <trkpt lat="45.85184" lon="6.07615">
        <ele>648</ele>
        <time>2016-05-02T10:46:23.047Z</time>
      </trkpt>
      <trkpt lat="45.85185" lon="6.07619">
        <ele>648</ele>
        <time>2016-05-02T10:46:24.047Z</time>
      </trkpt>
      <trkpt lat="45.85187" lon="6.07622">
        <ele>648</ele>
        <time>2016-05-02T10:46:25.047Z</time>
      </trkpt>
      <trkpt lat="45.85188" lon="6.07626">
        <ele>647</ele>
        <time>2016-05-02T10:46:26.047Z</time>
      </trkpt>
      <trkpt lat="45.8519" lon="6.07629">
        <ele>647</ele>
        <time>2016-05-02T10:46:27.047Z</time>
      </trkpt>
      <trkpt lat="45.85191" lon="6.07632">
        <ele>647</ele>
        <time>2016-05-02T10:46:28.047Z</time>
      </trkpt>
      <trkpt lat="45.85193" lon="6.07635">
        <ele>647</ele>
        <time>2016-05-02T10:46:29.047Z</time>
      </trkpt>
      <trkpt lat="45.85195" lon="6.07638">
        <ele>647</ele>
        <time>2016-05-02T10:46:30.047Z</time>
      </trkpt>
      <trkpt lat="45.85196" lon="6.07642">
        <ele>647</ele>
        <time>2016-05-02T10:46:31.047Z</time>
      </trkpt>
      <trkpt lat="45.85198" lon="6.07644">
        <ele>647</ele>
        <time>2016-05-02T10:46:32.047Z</time>
      </trkpt>
      <trkpt lat="45.85199" lon="6.07647">
        <ele>647</ele>
        <time>2016-05-02T10:46:33.047Z</time>
      </trkpt>
      <trkpt lat="45.85201" lon="6.0765">
        <ele>647</ele>
        <time>2016-05-02T10:46:34.047Z</time>
      </trkpt>
      <trkpt lat="45.85203" lon="6.07653">
        <ele>647</ele>
        <time>2016-05-02T10:46:35.047Z</time>
      </trkpt>
      <trkpt lat="45.85205" lon="6.07656">
        <ele>647</ele>
        <time>2016-05-02T10:46:36.047Z</time>
      </trkpt>
      <trkpt lat="45.85206" lon="6.07659">
        <ele>647</ele>
        <time>2016-05-02T10:46:37.047Z</time>
      </trkpt>
      <trkpt lat="45.85208" lon="6.07662">
        <ele>647</ele>
        <time>2016-05-02T10:46:38.047Z</time>
      </trkpt>
      <trkpt lat="45.85209" lon="6.07666">
        <ele>647</ele>
        <time>2016-05-02T10:46:39.047Z</time>
      </trkpt>
      <trkpt lat="45.85211" lon="6.07669">
        <ele>647</ele>
        <time>2016-05-02T10:46:40.047Z</time>
      </trkpt>
      <trkpt lat="45.85213" lon="6.07673">
        <ele>647</ele>
        <time>2016-05-02T10:46:41.047Z</time>
      </trkpt>
      <trkpt lat="45.85214" lon="6.07676">
        <ele>647</ele>
        <time>2016-05-02T10:46:42.047Z</time>
      </trkpt>
      <trkpt lat="45.85216" lon="6.0768">
        <ele>647</ele>
        <time>2016-05-02T10:46:43.047Z</time>
      </trkpt>
      <trkpt lat="45.85218" lon="6.07684">
        <ele>647</ele>
        <time>2016-05-02T10:46:44.047Z</time>
      </trkpt>
      <trkpt lat="45.85219" lon="6.07688">
        <ele>647</ele>
        <time>2016-05-02T10:46:45.047Z</time>
      </trkpt>
      <trkpt lat="45.85221" lon="6.07692">
        <ele>647</ele>
        <time>2016-05-02T10:46:46.047Z</time>
      </trkpt>
      <trkpt lat="45.85222" lon="6.07696">
        <ele>647</ele>
        <time>2016-05-02T10:46:47.047Z</time>
      </trkpt>
      <trkpt lat="45.85223" lon="6.077">
        <ele>647</ele>
        <time>2016-05-02T10:46:48.047Z</time>
      </trkpt>
      <trkpt lat="45.85223" lon="6.07704">
        <ele>647</ele>
        <time>2016-05-02T10:46:49.047Z</time>
      </trkpt>
      <trkpt lat="45.85223" lon="6.07707">
        <ele>647</ele>
        <time>2016-05-02T10:46:50.047Z</time>
      </trkpt>
      <trkpt lat="45.85223" lon="6.07711">
        <ele>647</ele>
        <time>2016-05-02T10:46:51.047Z</time>
      </trkpt>
      <trkpt lat="45.85224" lon="6.07714">
        <ele>647</ele>
        <time>2016-05-02T10:46:52.047Z</time>
      </trkpt>
      <trkpt lat="45.85224" lon="6.07718">
        <ele>647</ele>
        <time>2016-05-02T10:46:53.047Z</time>
      </trkpt>
      <trkpt lat="45.85224" lon="6.07721">
        <ele>647</ele>
        <time>2016-05-02T10:46:54.047Z</time>
      </trkpt>
      <trkpt lat="45.85225" lon="6.07725">
        <ele>647</ele>
        <time>2016-05-02T10:46:55.047Z</time>
      </trkpt>
      <trkpt lat="45.85225" lon="6.07729">
        <ele>647</ele>
        <time>2016-05-02T10:46:56.047Z</time>
      </trkpt>
      <trkpt lat="45.85226" lon="6.07733">
        <ele>647</ele>
        <time>2016-05-02T10:46:57.047Z</time>
      </trkpt>
      <trkpt lat="45.85226" lon="6.07737">
        <ele>647</ele>
        <time>2016-05-02T10:46:58.047Z</time>
      </trkpt>
      <trkpt lat="45.85227" lon="6.07741">
        <ele>647</ele>
        <time>2016-05-02T10:46:59.047Z</time>
      </trkpt>
      <trkpt lat="45.85227" lon="6.07745">
        <ele>647</ele>
        <time>2016-05-02T10:47:00.047Z</time>
      </trkpt>
      <trkpt lat="45.85228" lon="6.07748">
        <ele>647</ele>
        <time>2016-05-02T10:47:01.047Z</time>
      </trkpt>
      <trkpt lat="45.85228" lon="6.07751">
        <ele>647</ele>
        <time>2016-05-02T10:47:02.047Z</time>
      </trkpt>
      <trkpt lat="45.85229" lon="6.07754">
        <ele>646</ele>
        <time>2016-05-02T10:47:03.047Z</time>
      </trkpt>
      <trkpt lat="45.85229" lon="6.07757">
        <ele>646</ele>
        <time>2016-05-02T10:47:04.047Z</time>
      </trkpt>
      <trkpt lat="45.85231" lon="6.0776">
        <ele>646</ele>
        <time>2016-05-02T10:47:05.047Z</time>
      </trkpt>
      <trkpt lat="45.85232" lon="6.07763">
        <ele>646</ele>
        <time>2016-05-02T10:47:06.047Z</time>
      </trkpt>
      <trkpt lat="45.85233" lon="6.07766">
        <ele>646</ele>
        <time>2016-05-02T10:47:07.047Z</time>
      </trkpt>
      <trkpt lat="45.85235" lon="6.07769">
        <ele>646</ele>
        <time>2016-05-02T10:47:08.047Z</time>
      </trkpt>
      <trkpt lat="45.85236" lon="6.07771">
        <ele>646</ele>
        <time>2016-05-02T10:47:09.047Z</time>
      </trkpt>
      <trkpt lat="45.85238" lon="6.07774">
        <ele>646</ele>
        <time>2016-05-02T10:47:10.047Z</time>
      </trkpt>
      <trkpt lat="45.85241" lon="6.07777">
        <ele>646</ele>
        <time>2016-05-02T10:47:11.047Z</time>
      </trkpt>
      <trkpt lat="45.85243" lon="6.0778">
        <ele>646</ele>
        <time>2016-05-02T10:47:12.047Z</time>
      </trkpt>
      <trkpt lat="45.85245" lon="6.07782">
        <ele>646</ele>
        <time>2016-05-02T10:47:13.047Z</time>
      </trkpt>
      <trkpt lat="45.85247" lon="6.07785">
        <ele>646</ele>
        <time>2016-05-02T10:47:14.047Z</time>
      </trkpt>
      <trkpt lat="45.85248" lon="6.07788">
        <ele>646</ele>
        <time>2016-05-02T10:47:15.047Z</time>
      </trkpt>
      <trkpt lat="45.8525" lon="6.07791">
        <ele>646</ele>
        <time>2016-05-02T10:47:16.047Z</time>
      </trkpt>
      <trkpt lat="45.85252" lon="6.07793">
        <ele>646</ele>
        <time>2016-05-02T10:47:17.047Z</time>
      </trkpt>
      <trkpt lat="45.85254" lon="6.07795">
        <ele>646</ele>
        <time>2016-05-02T10:47:18.047Z</time>
      </trkpt>
      <trkpt lat="45.85255" lon="6.07798">
        <ele>646</ele>
        <time>2016-05-02T10:47:19.047Z</time>
      </trkpt>
      <trkpt lat="45.85257" lon="6.078">
        <ele>646</ele>
        <time>2016-05-02T10:47:20.047Z</time>
      </trkpt>
      <trkpt lat="45.85258" lon="6.07803">
        <ele>646</ele>
        <time>2016-05-02T10:47:21.047Z</time>
      </trkpt>
      <trkpt lat="45.85259" lon="6.07805">
        <ele>646</ele>
        <time>2016-05-02T10:47:22.047Z</time>
      </trkpt>
      <trkpt lat="45.8526" lon="6.07808">
        <ele>646</ele>
        <time>2016-05-02T10:47:23.047Z</time>
      </trkpt>
      <trkpt lat="45.85261" lon="6.0781">
        <ele>646</ele>
        <time>2016-05-02T10:47:24.047Z</time>
      </trkpt>
      <trkpt lat="45.85262" lon="6.07813">
        <ele>647</ele>
        <time>2016-05-02T10:47:25.047Z</time>
      </trkpt>
      <trkpt lat="45.85263" lon="6.07816">
        <ele>647</ele>
        <time>2016-05-02T10:47:26.047Z</time>
      </trkpt>
      <trkpt lat="45.85265" lon="6.0782">
        <ele>647</ele>
        <time>2016-05-02T10:47:27.047Z</time>
      </trkpt>
      <trkpt lat="45.85266" lon="6.07823">
        <ele>647</ele>
        <time>2016-05-02T10:47:28.047Z</time>
      </trkpt>
      <trkpt lat="45.85267" lon="6.07827">
        <ele>647</ele>
        <time>2016-05-02T10:47:29.047Z</time>
      </trkpt>
      <trkpt lat="45.85268" lon="6.0783">
        <ele>647</ele>
        <time>2016-05-02T10:47:30.047Z</time>
      </trkpt>
      <trkpt lat="45.85269" lon="6.07834">
        <ele>648</ele>
        <time>2016-05-02T10:47:31.047Z</time>
      </trkpt>
      <trkpt lat="45.8527" lon="6.07837">
        <ele>648</ele>
        <time>2016-05-02T10:47:32.047Z</time>
      </trkpt>
      <trkpt lat="45.85271" lon="6.07841">
        <ele>648</ele>
        <time>2016-05-02T10:47:33.047Z</time>
      </trkpt>
      <trkpt lat="45.85273" lon="6.07844">
        <ele>648</ele>
        <time>2016-05-02T10:47:34.047Z</time>
      </trkpt>
      <trkpt lat="45.85274" lon="6.07847">
        <ele>648</ele>
        <time>2016-05-02T10:47:35.047Z</time>
      </trkpt>
      <trkpt lat="45.85276" lon="6.07851">
        <ele>648</ele>
        <time>2016-05-02T10:47:36.047Z</time>
      </trkpt>
      <trkpt lat="45.85278" lon="6.07855">
        <ele>648</ele>
        <time>2016-05-02T10:47:37.047Z</time>
      </trkpt>
      <trkpt lat="45.85279" lon="6.07859">
        <ele>648</ele>
        <time>2016-05-02T10:47:38.047Z</time>
      </trkpt>
      <trkpt lat="45.85281" lon="6.07862">
        <ele>648</ele>
        <time>2016-05-02T10:47:39.047Z</time>
      </trkpt>
      <trkpt lat="45.85282" lon="6.07866">
        <ele>648</ele>
        <time>2016-05-02T10:47:40.047Z</time>
      </trkpt>
      <trkpt lat="45.85284" lon="6.07869">
        <ele>649</ele>
        <time>2016-05-02T10:47:41.047Z</time>
      </trkpt>
      <trkpt lat="45.85285" lon="6.07872">
        <ele>649</ele>
        <time>2016-05-02T10:47:42.047Z</time>
      </trkpt>
      <trkpt lat="45.85286" lon="6.07875">
        <ele>649</ele>
        <time>2016-05-02T10:47:43.047Z</time>
      </trkpt>
      <trkpt lat="45.85286" lon="6.07879">
        <ele>649</ele>
        <time>2016-05-02T10:47:44.047Z</time>
      </trkpt>
      <trkpt lat="45.85287" lon="6.07883">
        <ele>649</ele>
        <time>2016-05-02T10:47:45.047Z</time>
      </trkpt>
      <trkpt lat="45.85288" lon="6.07886">
        <ele>650</ele>
        <time>2016-05-02T10:47:46.047Z</time>
      </trkpt>
      <trkpt lat="45.8529" lon="6.0789">
        <ele>650</ele>
        <time>2016-05-02T10:47:47.047Z</time>
      </trkpt>
      <trkpt lat="45.85291" lon="6.07893">
        <ele>650</ele>
        <time>2016-05-02T10:47:48.047Z</time>
      </trkpt>
      <trkpt lat="45.85292" lon="6.07896">
        <ele>651</ele>
        <time>2016-05-02T10:47:49.047Z</time>
      </trkpt>
      <trkpt lat="45.85294" lon="6.07899">
        <ele>651</ele>
        <time>2016-05-02T10:47:50.047Z</time>
      </trkpt>
      <trkpt lat="45.85296" lon="6.07902">
        <ele>651</ele>
        <time>2016-05-02T10:47:51.047Z</time>
      </trkpt>
      <trkpt lat="45.85297" lon="6.07905">
        <ele>651</ele>
        <time>2016-05-02T10:47:52.047Z</time>
      </trkpt>
      <trkpt lat="45.85299" lon="6.07908">
        <ele>652</ele>
        <time>2016-05-02T10:47:53.047Z</time>
      </trkpt>
      <trkpt lat="45.85301" lon="6.0791">
        <ele>652</ele>
        <time>2016-05-02T10:47:54.047Z</time>
      </trkpt>
      <trkpt lat="45.85302" lon="6.07912">
        <ele>652</ele>
        <time>2016-05-02T10:47:55.047Z</time>
      </trkpt>
      <trkpt lat="45.85304" lon="6.07915">
        <ele>653</ele>
        <time>2016-05-02T10:47:56.047Z</time>
      </trkpt>
      <trkpt lat="45.85306" lon="6.07918">
        <ele>653</ele>
        <time>2016-05-02T10:47:57.047Z</time>
      </trkpt>
      <trkpt lat="45.85308" lon="6.0792">
        <ele>653</ele>
        <time>2016-05-02T10:47:58.047Z</time>
      </trkpt>
      <trkpt lat="45.8531" lon="6.07922">
        <ele>653</ele>
        <time>2016-05-02T10:47:59.047Z</time>
      </trkpt>
      <trkpt lat="45.85312" lon="6.07925">
        <ele>653</ele>
        <time>2016-05-02T10:48:00.047Z</time>
      </trkpt>
      <trkpt lat="45.85314" lon="6.07927">
        <ele>654</ele>
        <time>2016-05-02T10:48:01.047Z</time>
      </trkpt>
      <trkpt lat="45.85316" lon="6.07929">
        <ele>654</ele>
        <time>2016-05-02T10:48:02.047Z</time>
      </trkpt>
      <trkpt lat="45.85318" lon="6.07932">
        <ele>654</ele>
        <time>2016-05-02T10:48:03.047Z</time>
      </trkpt>
      <trkpt lat="45.8532" lon="6.07935">
        <ele>654</ele>
        <time>2016-05-02T10:48:04.047Z</time>
      </trkpt>
      <trkpt lat="45.85322" lon="6.07937">
        <ele>654</ele>
        <time>2016-05-02T10:48:05.047Z</time>
      </trkpt>
      <trkpt lat="45.85324" lon="6.07941">
        <ele>654</ele>
        <time>2016-05-02T10:48:06.047Z</time>
      </trkpt>
      <trkpt lat="45.85326" lon="6.07944">
        <ele>654</ele>
        <time>2016-05-02T10:48:07.047Z</time>
      </trkpt>
      <trkpt lat="45.85328" lon="6.07946">
        <ele>654</ele>
        <time>2016-05-02T10:48:08.047Z</time>
      </trkpt>
      <trkpt lat="45.8533" lon="6.07949">
        <ele>655</ele>
        <time>2016-05-02T10:48:09.047Z</time>
      </trkpt>
      <trkpt lat="45.85332" lon="6.07951">
        <ele>655</ele>
        <time>2016-05-02T10:48:10.047Z</time>
      </trkpt>
      <trkpt lat="45.85333" lon="6.07954">
        <ele>655</ele>
        <time>2016-05-02T10:48:11.047Z</time>
      </trkpt>
      <trkpt lat="45.85335" lon="6.07956">
        <ele>655</ele>
        <time>2016-05-02T10:48:12.047Z</time>
      </trkpt>
      <trkpt lat="45.85336" lon="6.07959">
        <ele>655</ele>
        <time>2016-05-02T10:48:13.047Z</time>
      </trkpt>
      <trkpt lat="45.85337" lon="6.07962">
        <ele>655</ele>
        <time>2016-05-02T10:48:14.047Z</time>
      </trkpt>
      <trkpt lat="45.85339" lon="6.07965">
        <ele>655</ele>
        <time>2016-05-02T10:48:15.047Z</time>
      </trkpt>
      <trkpt lat="45.8534" lon="6.07968">
        <ele>656</ele>
        <time>2016-05-02T10:48:16.047Z</time>
      </trkpt>
      <trkpt lat="45.85341" lon="6.07971">
        <ele>656</ele>
        <time>2016-05-02T10:48:17.047Z</time>
      </trkpt>
      <trkpt lat="45.85343" lon="6.07974">
        <ele>656</ele>
        <time>2016-05-02T10:48:18.047Z</time>
      </trkpt>
      <trkpt lat="45.85345" lon="6.07978">
        <ele>656</ele>
        <time>2016-05-02T10:48:19.047Z</time>
      </trkpt>
      <trkpt lat="45.85346" lon="6.07981">
        <ele>656</ele>
        <time>2016-05-02T10:48:20.047Z</time>
      </trkpt>
      <trkpt lat="45.85348" lon="6.07985">
        <ele>657</ele>
        <time>2016-05-02T10:48:21.047Z</time>
      </trkpt>
      <trkpt lat="45.85349" lon="6.07988">
        <ele>657</ele>
        <time>2016-05-02T10:48:22.047Z</time>
      </trkpt>
      <trkpt lat="45.85351" lon="6.07991">
        <ele>657</ele>
        <time>2016-05-02T10:48:23.047Z</time>
      </trkpt>
      <trkpt lat="45.85353" lon="6.07995">
        <ele>657</ele>
        <time>2016-05-02T10:48:24.047Z</time>
      </trkpt>
      <trkpt lat="45.85354" lon="6.07998">
        <ele>657</ele>
        <time>2016-05-02T10:48:25.047Z</time>
      </trkpt>
      <trkpt lat="45.85355" lon="6.08001">
        <ele>657</ele>
        <time>2016-05-02T10:48:26.047Z</time>
      </trkpt>
      <trkpt lat="45.85357" lon="6.08004">
        <ele>657</ele>
        <time>2016-05-02T10:48:27.047Z</time>
      </trkpt>
      <trkpt lat="45.85358" lon="6.08007">
        <ele>657</ele>
        <time>2016-05-02T10:48:28.047Z</time>
      </trkpt>
      <trkpt lat="45.85359" lon="6.0801">
        <ele>657</ele>
        <time>2016-05-02T10:48:29.047Z</time>
      </trkpt>
      <trkpt lat="45.8536" lon="6.08013">
        <ele>657</ele>
        <time>2016-05-02T10:48:30.047Z</time>
      </trkpt>
      <trkpt lat="45.85361" lon="6.08016">
        <ele>657</ele>
        <time>2016-05-02T10:48:31.047Z</time>
      </trkpt>
      <trkpt lat="45.85362" lon="6.08018">
        <ele>657</ele>
        <time>2016-05-02T10:48:32.047Z</time>
      </trkpt>
      <trkpt lat="45.85363" lon="6.08021">
        <ele>657</ele>
        <time>2016-05-02T10:48:33.047Z</time>
      </trkpt>
      <trkpt lat="45.85364" lon="6.08024">
        <ele>657</ele>
        <time>2016-05-02T10:48:34.047Z</time>
      </trkpt>
      <trkpt lat="45.85365" lon="6.08028">
        <ele>657</ele>
        <time>2016-05-02T10:48:35.047Z</time>
      </trkpt>
      <trkpt lat="45.85366" lon="6.08031">
        <ele>657</ele>
        <time>2016-05-02T10:48:36.047Z</time>
      </trkpt>
      <trkpt lat="45.85367" lon="6.08034">
        <ele>658</ele>
        <time>2016-05-02T10:48:37.047Z</time>
      </trkpt>
      <trkpt lat="45.85368" lon="6.08038">
        <ele>658</ele>
        <time>2016-05-02T10:48:38.047Z</time>
      </trkpt>
      <trkpt lat="45.85369" lon="6.08042">
        <ele>658</ele>
        <time>2016-05-02T10:48:39.047Z</time>
      </trkpt>
      <trkpt lat="45.85371" lon="6.08047">
        <ele>658</ele>
        <time>2016-05-02T10:48:40.047Z</time>
      </trkpt>
      <trkpt lat="45.85372" lon="6.08052">
        <ele>658</ele>
        <time>2016-05-02T10:48:41.047Z</time>
      </trkpt>
      <trkpt lat="45.85374" lon="6.08056">
        <ele>658</ele>
        <time>2016-05-02T10:48:42.047Z</time>
      </trkpt>
      <trkpt lat="45.85376" lon="6.08061">
        <ele>658</ele>
        <time>2016-05-02T10:48:43.047Z</time>
      </trkpt>
      <trkpt lat="45.85378" lon="6.08065">
        <ele>658</ele>
        <time>2016-05-02T10:48:44.047Z</time>
      </trkpt>
      <trkpt lat="45.85379" lon="6.08069">
        <ele>658</ele>
        <time>2016-05-02T10:48:45.047Z</time>
      </trkpt>
      <trkpt lat="45.85381" lon="6.08073">
        <ele>658</ele>
        <time>2016-05-02T10:48:46.047Z</time>
      </trkpt>
      <trkpt lat="45.85382" lon="6.08077">
        <ele>658</ele>
        <time>2016-05-02T10:48:47.047Z</time>
      </trkpt>
      <trkpt lat="45.85383" lon="6.08081">
        <ele>658</ele>
        <time>2016-05-02T10:48:48.047Z</time>
      </trkpt>
      <trkpt lat="45.85385" lon="6.08084">
        <ele>658</ele>
        <time>2016-05-02T10:48:49.047Z</time>
      </trkpt>
      <trkpt lat="45.85386" lon="6.08087">
        <ele>658</ele>
        <time>2016-05-02T10:48:50.047Z</time>
      </trkpt>
      <trkpt lat="45.85387" lon="6.08091">
        <ele>658</ele>
        <time>2016-05-02T10:48:51.047Z</time>
      </trkpt>
      <trkpt lat="45.85388" lon="6.08095">
        <ele>658</ele>
        <time>2016-05-02T10:48:52.047Z</time>
      </trkpt>
      <trkpt lat="45.85389" lon="6.08099">
        <ele>658</ele>
        <time>2016-05-02T10:48:53.047Z</time>
      </trkpt>
      <trkpt lat="45.8539" lon="6.08103">
        <ele>659</ele>
        <time>2016-05-02T10:48:54.047Z</time>
      </trkpt>
      <trkpt lat="45.85392" lon="6.08108">
        <ele>658</ele>
        <time>2016-05-02T10:48:55.047Z</time>
      </trkpt>
      <trkpt lat="45.85393" lon="6.08112">
        <ele>658</ele>
        <time>2016-05-02T10:48:56.047Z</time>
      </trkpt>
      <trkpt lat="45.85394" lon="6.08116">
        <ele>658</ele>
        <time>2016-05-02T10:48:57.047Z</time>
      </trkpt>
      <trkpt lat="45.85396" lon="6.0812">
        <ele>658</ele>
        <time>2016-05-02T10:48:58.047Z</time>
      </trkpt>
      <trkpt lat="45.85397" lon="6.08124">
        <ele>658</ele>
        <time>2016-05-02T10:48:59.047Z</time>
      </trkpt>
      <trkpt lat="45.85399" lon="6.08128">
        <ele>658</ele>
        <time>2016-05-02T10:49:00.047Z</time>
      </trkpt>
      <trkpt lat="45.854" lon="6.08132">
        <ele>658</ele>
        <time>2016-05-02T10:49:01.047Z</time>
      </trkpt>
      <trkpt lat="45.85402" lon="6.08136">
        <ele>658</ele>
        <time>2016-05-02T10:49:02.047Z</time>
      </trkpt>
      <trkpt lat="45.85403" lon="6.08139">
        <ele>658</ele>
        <time>2016-05-02T10:49:03.047Z</time>
      </trkpt>
      <trkpt lat="45.85405" lon="6.08143">
        <ele>658</ele>
        <time>2016-05-02T10:49:04.047Z</time>
      </trkpt>
      <trkpt lat="45.85406" lon="6.08146">
        <ele>658</ele>
        <time>2016-05-02T10:49:05.047Z</time>
      </trkpt>
      <trkpt lat="45.85407" lon="6.08149">
        <ele>658</ele>
        <time>2016-05-02T10:49:06.047Z</time>
      </trkpt>
      <trkpt lat="45.85408" lon="6.08152">
        <ele>658</ele>
        <time>2016-05-02T10:49:07.047Z</time>
      </trkpt>
      <trkpt lat="45.8541" lon="6.08155">
        <ele>658</ele>
        <time>2016-05-02T10:49:08.047Z</time>
      </trkpt>
      <trkpt lat="45.85411" lon="6.08158">
        <ele>658</ele>
        <time>2016-05-02T10:49:09.047Z</time>
      </trkpt>
      <trkpt lat="45.85413" lon="6.08161">
        <ele>658</ele>
        <time>2016-05-02T10:49:10.047Z</time>
      </trkpt>
      <trkpt lat="45.85415" lon="6.08164">
        <ele>658</ele>
        <time>2016-05-02T10:49:11.047Z</time>
      </trkpt>
      <trkpt lat="45.85417" lon="6.08167">
        <ele>658</ele>
        <time>2016-05-02T10:49:12.047Z</time>
      </trkpt>
      <trkpt lat="45.85419" lon="6.0817">
        <ele>659</ele>
        <time>2016-05-02T10:49:13.047Z</time>
      </trkpt>
      <trkpt lat="45.85421" lon="6.08174">
        <ele>659</ele>
        <time>2016-05-02T10:49:14.047Z</time>
      </trkpt>
      <trkpt lat="45.85423" lon="6.08178">
        <ele>659</ele>
        <time>2016-05-02T10:49:15.047Z</time>
      </trkpt>
      <trkpt lat="45.85424" lon="6.08181">
        <ele>659</ele>
        <time>2016-05-02T10:49:16.047Z</time>
      </trkpt>
      <trkpt lat="45.85426" lon="6.08184">
        <ele>659</ele>
        <time>2016-05-02T10:49:17.047Z</time>
      </trkpt>
      <trkpt lat="45.85428" lon="6.08187">
        <ele>658</ele>
        <time>2016-05-02T10:49:18.047Z</time>
      </trkpt>
      <trkpt lat="45.8543" lon="6.0819">
        <ele>658</ele>
        <time>2016-05-02T10:49:19.047Z</time>
      </trkpt>
      <trkpt lat="45.85432" lon="6.08193">
        <ele>658</ele>
        <time>2016-05-02T10:49:20.047Z</time>
      </trkpt>
      <trkpt lat="45.85433" lon="6.08196">
        <ele>658</ele>
        <time>2016-05-02T10:49:21.047Z</time>
      </trkpt>
      <trkpt lat="45.85435" lon="6.08199">
        <ele>658</ele>
        <time>2016-05-02T10:49:22.047Z</time>
      </trkpt>
      <trkpt lat="45.85437" lon="6.08202">
        <ele>658</ele>
        <time>2016-05-02T10:49:23.047Z</time>
      </trkpt>
      <trkpt lat="45.85439" lon="6.08205">
        <ele>658</ele>
        <time>2016-05-02T10:49:24.047Z</time>
      </trkpt>
      <trkpt lat="45.85441" lon="6.08208">
        <ele>658</ele>
        <time>2016-05-02T10:49:25.047Z</time>
      </trkpt>
      <trkpt lat="45.85442" lon="6.08211">
        <ele>658</ele>
        <time>2016-05-02T10:49:26.047Z</time>
      </trkpt>
      <trkpt lat="45.85444" lon="6.08214">
        <ele>658</ele>
        <time>2016-05-02T10:49:27.047Z</time>
      </trkpt>
      <trkpt lat="45.85445" lon="6.08217">
        <ele>658</ele>
        <time>2016-05-02T10:49:28.047Z</time>
      </trkpt>
      <trkpt lat="45.85447" lon="6.08219">
        <ele>657</ele>
        <time>2016-05-02T10:49:29.047Z</time>
      </trkpt>
      <trkpt lat="45.85449" lon="6.08222">
        <ele>657</ele>
        <time>2016-05-02T10:49:30.047Z</time>
      </trkpt>
      <trkpt lat="45.85451" lon="6.08226">
        <ele>657</ele>
        <time>2016-05-02T10:49:31.047Z</time>
      </trkpt>
      <trkpt lat="45.85453" lon="6.08229">
        <ele>657</ele>
        <time>2016-05-02T10:49:32.047Z</time>
      </trkpt>
      <trkpt lat="45.85456" lon="6.08233">
        <ele>657</ele>
        <time>2016-05-02T10:49:33.047Z</time>
      </trkpt>
      <trkpt lat="45.85458" lon="6.08236">
        <ele>657</ele>
        <time>2016-05-02T10:49:34.047Z</time>
      </trkpt>
      <trkpt lat="45.85461" lon="6.08239">
        <ele>656</ele>
        <time>2016-05-02T10:49:35.047Z</time>
      </trkpt>
      <trkpt lat="45.85463" lon="6.08243">
        <ele>656</ele>
        <time>2016-05-02T10:49:36.047Z</time>
      </trkpt>
      <trkpt lat="45.85465" lon="6.08246">
        <ele>656</ele>
        <time>2016-05-02T10:49:37.047Z</time>
      </trkpt>
      <trkpt lat="45.85467" lon="6.08249">
        <ele>656</ele>
        <time>2016-05-02T10:49:38.047Z</time>
      </trkpt>
      <trkpt lat="45.85469" lon="6.08252">
        <ele>656</ele>
        <time>2016-05-02T10:49:39.047Z</time>
      </trkpt>
      <trkpt lat="45.85471" lon="6.08256">
        <ele>656</ele>
        <time>2016-05-02T10:49:40.047Z</time>
      </trkpt>
      <trkpt lat="45.85473" lon="6.0826">
        <ele>656</ele>
        <time>2016-05-02T10:49:41.047Z</time>
      </trkpt>
      <trkpt lat="45.85475" lon="6.08263">
        <ele>656</ele>
        <time>2016-05-02T10:49:42.047Z</time>
      </trkpt>
      <trkpt lat="45.85477" lon="6.08267">
        <ele>656</ele>
        <time>2016-05-02T10:49:43.047Z</time>
      </trkpt>
      <trkpt lat="45.85479" lon="6.08271">
        <ele>656</ele>
        <time>2016-05-02T10:49:44.047Z</time>
      </trkpt>
      <trkpt lat="45.85482" lon="6.08275">
        <ele>656</ele>
        <time>2016-05-02T10:49:45.047Z</time>
      </trkpt>
      <trkpt lat="45.85484" lon="6.08279">
        <ele>656</ele>
        <time>2016-05-02T10:49:46.047Z</time>
      </trkpt>
      <trkpt lat="45.85486" lon="6.08283">
        <ele>656</ele>
        <time>2016-05-02T10:49:47.047Z</time>
      </trkpt>
      <trkpt lat="45.85488" lon="6.08287">
        <ele>656</ele>
        <time>2016-05-02T10:49:48.047Z</time>
      </trkpt>
      <trkpt lat="45.85489" lon="6.08291">
        <ele>656</ele>
        <time>2016-05-02T10:49:49.047Z</time>
      </trkpt>
      <trkpt lat="45.85491" lon="6.08296">
        <ele>656</ele>
        <time>2016-05-02T10:49:50.047Z</time>
      </trkpt>
      <trkpt lat="45.85492" lon="6.08301">
        <ele>656</ele>
        <time>2016-05-02T10:49:51.047Z</time>
      </trkpt>
      <trkpt lat="45.85494" lon="6.08306">
        <ele>655</ele>
        <time>2016-05-02T10:49:52.047Z</time>
      </trkpt>
      <trkpt lat="45.85495" lon="6.08311">
        <ele>655</ele>
        <time>2016-05-02T10:49:53.047Z</time>
      </trkpt>
      <trkpt lat="45.85496" lon="6.08315">
        <ele>655</ele>
        <time>2016-05-02T10:49:54.047Z</time>
      </trkpt>
      <trkpt lat="45.85498" lon="6.08319">
        <ele>655</ele>
        <time>2016-05-02T10:49:55.047Z</time>
      </trkpt>
      <trkpt lat="45.85499" lon="6.08323">
        <ele>655</ele>
        <time>2016-05-02T10:49:56.047Z</time>
      </trkpt>
      <trkpt lat="45.85501" lon="6.08327">
        <ele>654</ele>
        <time>2016-05-02T10:49:57.047Z</time>
      </trkpt>
      <trkpt lat="45.85502" lon="6.08331">
        <ele>654</ele>
        <time>2016-05-02T10:49:58.047Z</time>
      </trkpt>
      <trkpt lat="45.85503" lon="6.08334">
        <ele>654</ele>
        <time>2016-05-02T10:49:59.047Z</time>
      </trkpt>
      <trkpt lat="45.85505" lon="6.08337">
        <ele>654</ele>
        <time>2016-05-02T10:50:00.047Z</time>
      </trkpt>
      <trkpt lat="45.85506" lon="6.08341">
        <ele>653</ele>
        <time>2016-05-02T10:50:01.047Z</time>
      </trkpt>
      <trkpt lat="45.85507" lon="6.08344">
        <ele>653</ele>
        <time>2016-05-02T10:50:02.047Z</time>
      </trkpt>
      <trkpt lat="45.85508" lon="6.08347">
        <ele>653</ele>
        <time>2016-05-02T10:50:03.047Z</time>
      </trkpt>
      <trkpt lat="45.85509" lon="6.08351">
        <ele>653</ele>
        <time>2016-05-02T10:50:04.047Z</time>
      </trkpt>
      <trkpt lat="45.85509" lon="6.08354">
        <ele>652</ele>
        <time>2016-05-02T10:50:05.047Z</time>
      </trkpt>
      <trkpt lat="45.8551" lon="6.08358">
        <ele>652</ele>
        <time>2016-05-02T10:50:06.047Z</time>
      </trkpt>
      <trkpt lat="45.8551" lon="6.08362">
        <ele>652</ele>
        <time>2016-05-02T10:50:07.047Z</time>
      </trkpt>
      <trkpt lat="45.85511" lon="6.08365">
        <ele>652</ele>
        <time>2016-05-02T10:50:08.047Z</time>
      </trkpt>
      <trkpt lat="45.85512" lon="6.08368">
        <ele>651</ele>
        <time>2016-05-02T10:50:09.047Z</time>
      </trkpt>
      <trkpt lat="45.85513" lon="6.08372">
        <ele>651</ele>
        <time>2016-05-02T10:50:10.047Z</time>
      </trkpt>
      <trkpt lat="45.85514" lon="6.08375">
        <ele>651</ele>
        <time>2016-05-02T10:50:11.047Z</time>
      </trkpt>
      <trkpt lat="45.85516" lon="6.08378">
        <ele>651</ele>
        <time>2016-05-02T10:50:12.047Z</time>
      </trkpt>
      <trkpt lat="45.85517" lon="6.08382">
        <ele>651</ele>
        <time>2016-05-02T10:50:13.047Z</time>
      </trkpt>
      <trkpt lat="45.85518" lon="6.08385">
        <ele>650</ele>
        <time>2016-05-02T10:50:14.047Z</time>
      </trkpt>
      <trkpt lat="45.8552" lon="6.0839">
        <ele>650</ele>
        <time>2016-05-02T10:50:15.047Z</time>
      </trkpt>
      <trkpt lat="45.85521" lon="6.08393">
        <ele>650</ele>
        <time>2016-05-02T10:50:16.047Z</time>
      </trkpt>
      <trkpt lat="45.85523" lon="6.08397">
        <ele>650</ele>
        <time>2016-05-02T10:50:17.047Z</time>
      </trkpt>
      <trkpt lat="45.85524" lon="6.08401">
        <ele>650</ele>
        <time>2016-05-02T10:50:18.047Z</time>
      </trkpt>
      <trkpt lat="45.85526" lon="6.08405">
        <ele>650</ele>
        <time>2016-05-02T10:50:19.047Z</time>
      </trkpt>
      <trkpt lat="45.85527" lon="6.08408">
        <ele>650</ele>
        <time>2016-05-02T10:50:20.047Z</time>
      </trkpt>
      <trkpt lat="45.85528" lon="6.08412">
        <ele>649</ele>
        <time>2016-05-02T10:50:21.047Z</time>
      </trkpt>
      <trkpt lat="45.85529" lon="6.08415">
        <ele>649</ele>
        <time>2016-05-02T10:50:22.047Z</time>
      </trkpt>
      <trkpt lat="45.8553" lon="6.08419">
        <ele>649</ele>
        <time>2016-05-02T10:50:23.047Z</time>
      </trkpt>
      <trkpt lat="45.8553" lon="6.08423">
        <ele>649</ele>
        <time>2016-05-02T10:50:24.047Z</time>
      </trkpt>
      <trkpt lat="45.85531" lon="6.08427">
        <ele>649</ele>
        <time>2016-05-02T10:50:25.047Z</time>
      </trkpt>
      <trkpt lat="45.85532" lon="6.08432">
        <ele>649</ele>
        <time>2016-05-02T10:50:26.047Z</time>
      </trkpt>
      <trkpt lat="45.85533" lon="6.08436">
        <ele>649</ele>
        <time>2016-05-02T10:50:27.047Z</time>
      </trkpt>
      <trkpt lat="45.85534" lon="6.08441">
        <ele>649</ele>
        <time>2016-05-02T10:50:28.047Z</time>
      </trkpt>
      <trkpt lat="45.85535" lon="6.08445">
        <ele>648</ele>
        <time>2016-05-02T10:50:29.047Z</time>
      </trkpt>
      <trkpt lat="45.85536" lon="6.08449">
        <ele>648</ele>
        <time>2016-05-02T10:50:30.047Z</time>
      </trkpt>
      <trkpt lat="45.85537" lon="6.08453">
        <ele>648</ele>
        <time>2016-05-02T10:50:31.047Z</time>
      </trkpt>
      <trkpt lat="45.85538" lon="6.08457">
        <ele>648</ele>
        <time>2016-05-02T10:50:32.047Z</time>
      </trkpt>
      <trkpt lat="45.85539" lon="6.0846">
        <ele>648</ele>
        <time>2016-05-02T10:50:33.047Z</time>
      </trkpt>
      <trkpt lat="45.85539" lon="6.08463">
        <ele>648</ele>
        <time>2016-05-02T10:50:34.047Z</time>
      </trkpt>
      <trkpt lat="45.8554" lon="6.08467">
        <ele>647</ele>
        <time>2016-05-02T10:50:35.047Z</time>
      </trkpt>
      <trkpt lat="45.85541" lon="6.0847">
        <ele>647</ele>
        <time>2016-05-02T10:50:36.047Z</time>
      </trkpt>
      <trkpt lat="45.85542" lon="6.08473">
        <ele>647</ele>
        <time>2016-05-02T10:50:37.047Z</time>
      </trkpt>
      <trkpt lat="45.85543" lon="6.08476">
        <ele>647</ele>
        <time>2016-05-02T10:50:38.047Z</time>
      </trkpt>
      <trkpt lat="45.85544" lon="6.0848">
        <ele>647</ele>
        <time>2016-05-02T10:50:39.047Z</time>
      </trkpt>
      <trkpt lat="45.85545" lon="6.08483">
        <ele>647</ele>
        <time>2016-05-02T10:50:40.047Z</time>
      </trkpt>
      <trkpt lat="45.85546" lon="6.08487">
        <ele>646</ele>
        <time>2016-05-02T10:50:41.047Z</time>
      </trkpt>
      <trkpt lat="45.85547" lon="6.08491">
        <ele>646</ele>
        <time>2016-05-02T10:50:42.047Z</time>
      </trkpt>
      <trkpt lat="45.85547" lon="6.08494">
        <ele>646</ele>
        <time>2016-05-02T10:50:43.047Z</time>
      </trkpt>
      <trkpt lat="45.85548" lon="6.08498">
        <ele>646</ele>
        <time>2016-05-02T10:50:44.047Z</time>
      </trkpt>
      <trkpt lat="45.85549" lon="6.08501">
        <ele>646</ele>
        <time>2016-05-02T10:50:45.047Z</time>
      </trkpt>
      <trkpt lat="45.8555" lon="6.08503">
        <ele>646</ele>
        <time>2016-05-02T10:50:46.047Z</time>
      </trkpt>
      <trkpt lat="45.85552" lon="6.08506">
        <ele>646</ele>
        <time>2016-05-02T10:50:47.047Z</time>
      </trkpt>
      <trkpt lat="45.85553" lon="6.08509">
        <ele>646</ele>
        <time>2016-05-02T10:50:48.047Z</time>
      </trkpt>
      <trkpt lat="45.85555" lon="6.08513">
        <ele>646</ele>
        <time>2016-05-02T10:50:49.047Z</time>
      </trkpt>
      <trkpt lat="45.85557" lon="6.08516">
        <ele>646</ele>
        <time>2016-05-02T10:50:50.047Z</time>
      </trkpt>
      <trkpt lat="45.85558" lon="6.0852">
        <ele>645</ele>
        <time>2016-05-02T10:50:51.047Z</time>
      </trkpt>
      <trkpt lat="45.8556" lon="6.08524">
        <ele>645</ele>
        <time>2016-05-02T10:50:52.047Z</time>
      </trkpt>
      <trkpt lat="45.85562" lon="6.08528">
        <ele>645</ele>
        <time>2016-05-02T10:50:53.047Z</time>
      </trkpt>
      <trkpt lat="45.85563" lon="6.08532">
        <ele>645</ele>
        <time>2016-05-02T10:50:54.047Z</time>
      </trkpt>
      <trkpt lat="45.85565" lon="6.08536">
        <ele>645</ele>
        <time>2016-05-02T10:50:55.047Z</time>
      </trkpt>
      <trkpt lat="45.85566" lon="6.0854">
        <ele>645</ele>
        <time>2016-05-02T10:50:56.047Z</time>
      </trkpt>
      <trkpt lat="45.85566" lon="6.08544">
        <ele>644</ele>
        <time>2016-05-02T10:50:57.047Z</time>
      </trkpt>
      <trkpt lat="45.85567" lon="6.08549">
        <ele>644</ele>
        <time>2016-05-02T10:50:58.047Z</time>
      </trkpt>
      <trkpt lat="45.85568" lon="6.08553">
        <ele>644</ele>
        <time>2016-05-02T10:50:59.047Z</time>
      </trkpt>
      <trkpt lat="45.85568" lon="6.08557">
        <ele>644</ele>
        <time>2016-05-02T10:51:00.047Z</time>
      </trkpt>
      <trkpt lat="45.8557" lon="6.08561">
        <ele>644</ele>
        <time>2016-05-02T10:51:01.047Z</time>
      </trkpt>
      <trkpt lat="45.85571" lon="6.08565">
        <ele>644</ele>
        <time>2016-05-02T10:51:02.047Z</time>
      </trkpt>
      <trkpt lat="45.85573" lon="6.08569">
        <ele>643</ele>
        <time>2016-05-02T10:51:03.047Z</time>
      </trkpt>
      <trkpt lat="45.85575" lon="6.08572">
        <ele>643</ele>
        <time>2016-05-02T10:51:04.047Z</time>
      </trkpt>
      <trkpt lat="45.85577" lon="6.08574">
        <ele>643</ele>
        <time>2016-05-02T10:51:05.047Z</time>
      </trkpt>
      <trkpt lat="45.85579" lon="6.08577">
        <ele>643</ele>
        <time>2016-05-02T10:51:06.047Z</time>
      </trkpt>
      <trkpt lat="45.85582" lon="6.0858">
        <ele>643</ele>
        <time>2016-05-02T10:51:07.047Z</time>
      </trkpt>
      <trkpt lat="45.85584" lon="6.08583">
        <ele>642</ele>
        <time>2016-05-02T10:51:08.047Z</time>
      </trkpt>
      <trkpt lat="45.85587" lon="6.08585">
        <ele>642</ele>
        <time>2016-05-02T10:51:09.047Z</time>
      </trkpt>
      <trkpt lat="45.85589" lon="6.08588">
        <ele>642</ele>
        <time>2016-05-02T10:51:10.047Z</time>
      </trkpt>
      <trkpt lat="45.85591" lon="6.0859">
        <ele>642</ele>
        <time>2016-05-02T10:51:11.047Z</time>
      </trkpt>
      <trkpt lat="45.85593" lon="6.08593">
        <ele>641</ele>
        <time>2016-05-02T10:51:12.047Z</time>
      </trkpt>
      <trkpt lat="45.85595" lon="6.08595">
        <ele>641</ele>
        <time>2016-05-02T10:51:13.047Z</time>
      </trkpt>
      <trkpt lat="45.85598" lon="6.08598">
        <ele>641</ele>
        <time>2016-05-02T10:51:14.047Z</time>
      </trkpt>
      <trkpt lat="45.856" lon="6.086">
        <ele>641</ele>
        <time>2016-05-02T10:51:15.047Z</time>
      </trkpt>
      <trkpt lat="45.85602" lon="6.08603">
        <ele>641</ele>
        <time>2016-05-02T10:51:16.047Z</time>
      </trkpt>
      <trkpt lat="45.85605" lon="6.08605">
        <ele>640</ele>
        <time>2016-05-02T10:51:17.047Z</time>
      </trkpt>
      <trkpt lat="45.85607" lon="6.08608">
        <ele>640</ele>
        <time>2016-05-02T10:51:18.047Z</time>
      </trkpt>
      <trkpt lat="45.85609" lon="6.08611">
        <ele>640</ele>
        <time>2016-05-02T10:51:19.047Z</time>
      </trkpt>
      <trkpt lat="45.85612" lon="6.08613">
        <ele>640</ele>
        <time>2016-05-02T10:51:20.047Z</time>
      </trkpt>
      <trkpt lat="45.85614" lon="6.08616">
        <ele>640</ele>
        <time>2016-05-02T10:51:21.047Z</time>
      </trkpt>
      <trkpt lat="45.85616" lon="6.08618">
        <ele>640</ele>
        <time>2016-05-02T10:51:22.047Z</time>
      </trkpt>
      <trkpt lat="45.85618" lon="6.0862">
        <ele>640</ele>
        <time>2016-05-02T10:51:23.047Z</time>
      </trkpt>
      <trkpt lat="45.85621" lon="6.08623">
        <ele>640</ele>
        <time>2016-05-02T10:51:24.047Z</time>
      </trkpt>
      <trkpt lat="45.85623" lon="6.08625">
        <ele>640</ele>
        <time>2016-05-02T10:51:25.047Z</time>
      </trkpt>
      <trkpt lat="45.85626" lon="6.08627">
        <ele>640</ele>
        <time>2016-05-02T10:51:26.047Z</time>
      </trkpt>
      <trkpt lat="45.85628" lon="6.0863">
        <ele>640</ele>
        <time>2016-05-02T10:51:27.047Z</time>
      </trkpt>
      <trkpt lat="45.85631" lon="6.08632">
        <ele>640</ele>
        <time>2016-05-02T10:51:28.047Z</time>
      </trkpt>
      <trkpt lat="45.85634" lon="6.08634">
        <ele>640</ele>
        <time>2016-05-02T10:51:29.047Z</time>
      </trkpt>
      <trkpt lat="45.85637" lon="6.08636">
        <ele>641</ele>
        <time>2016-05-02T10:51:30.047Z</time>
      </trkpt>
      <trkpt lat="45.8564" lon="6.08638">
        <ele>641</ele>
        <time>2016-05-02T10:51:31.047Z</time>
      </trkpt>
      <trkpt lat="45.85643" lon="6.08641">
        <ele>641</ele>
        <time>2016-05-02T10:51:32.047Z</time>
      </trkpt>
      <trkpt lat="45.85645" lon="6.08643">
        <ele>641</ele>
        <time>2016-05-02T10:51:33.047Z</time>
      </trkpt>
      <trkpt lat="45.85647" lon="6.08646">
        <ele>641</ele>
        <time>2016-05-02T10:51:34.047Z</time>
      </trkpt>
      <trkpt lat="45.85649" lon="6.08648">
        <ele>641</ele>
        <time>2016-05-02T10:51:35.047Z</time>
      </trkpt>
      <trkpt lat="45.85651" lon="6.08651">
        <ele>641</ele>
        <time>2016-05-02T10:51:36.047Z</time>
      </trkpt>
      <trkpt lat="45.85653" lon="6.08654">
        <ele>641</ele>
        <time>2016-05-02T10:51:37.047Z</time>
      </trkpt>
      <trkpt lat="45.85656" lon="6.08657">
        <ele>641</ele>
        <time>2016-05-02T10:51:38.047Z</time>
      </trkpt>
      <trkpt lat="45.85658" lon="6.08659">
        <ele>641</ele>
        <time>2016-05-02T10:51:39.047Z</time>
      </trkpt>
      <trkpt lat="45.8566" lon="6.08662">
        <ele>641</ele>
        <time>2016-05-02T10:51:40.047Z</time>
      </trkpt>
      <trkpt lat="45.85663" lon="6.08665">
        <ele>640</ele>
        <time>2016-05-02T10:51:41.047Z</time>
      </trkpt>
      <trkpt lat="45.85665" lon="6.08667">
        <ele>640</ele>
        <time>2016-05-02T10:51:42.047Z</time>
      </trkpt>
      <trkpt lat="45.85668" lon="6.0867">
        <ele>640</ele>
        <time>2016-05-02T10:51:43.047Z</time>
      </trkpt>
      <trkpt lat="45.85671" lon="6.08673">
        <ele>639</ele>
        <time>2016-05-02T10:51:44.047Z</time>
      </trkpt>
      <trkpt lat="45.85673" lon="6.08676">
        <ele>639</ele>
        <time>2016-05-02T10:51:45.047Z</time>
      </trkpt>
      <trkpt lat="45.85675" lon="6.08679">
        <ele>639</ele>
        <time>2016-05-02T10:51:46.047Z</time>
      </trkpt>
      <trkpt lat="45.85678" lon="6.08682">
        <ele>638</ele>
        <time>2016-05-02T10:51:47.047Z</time>
      </trkpt>
      <trkpt lat="45.8568" lon="6.08685">
        <ele>638</ele>
        <time>2016-05-02T10:51:48.047Z</time>
      </trkpt>
      <trkpt lat="45.85682" lon="6.08688">
        <ele>637</ele>
        <time>2016-05-02T10:51:49.047Z</time>
      </trkpt>
      <trkpt lat="45.85684" lon="6.08691">
        <ele>637</ele>
        <time>2016-05-02T10:51:50.047Z</time>
      </trkpt>
      <trkpt lat="45.85686" lon="6.08694">
        <ele>637</ele>
        <time>2016-05-02T10:51:51.047Z</time>
      </trkpt>
      <trkpt lat="45.85689" lon="6.08697">
        <ele>636</ele>
        <time>2016-05-02T10:51:52.047Z</time>
      </trkpt>
      <trkpt lat="45.85691" lon="6.087">
        <ele>636</ele>
        <time>2016-05-02T10:51:53.047Z</time>
      </trkpt>
      <trkpt lat="45.85693" lon="6.08703">
        <ele>635</ele>
        <time>2016-05-02T10:51:54.047Z</time>
      </trkpt>
      <trkpt lat="45.85695" lon="6.08706">
        <ele>635</ele>
        <time>2016-05-02T10:51:55.047Z</time>
      </trkpt>
      <trkpt lat="45.85697" lon="6.08709">
        <ele>634</ele>
        <time>2016-05-02T10:51:56.047Z</time>
      </trkpt>
      <trkpt lat="45.85699" lon="6.08712">
        <ele>634</ele>
        <time>2016-05-02T10:51:57.047Z</time>
      </trkpt>
      <trkpt lat="45.85701" lon="6.08715">
        <ele>634</ele>
        <time>2016-05-02T10:51:58.047Z</time>
      </trkpt>
      <trkpt lat="45.85703" lon="6.08718">
        <ele>633</ele>
        <time>2016-05-02T10:51:59.047Z</time>
      </trkpt>
      <trkpt lat="45.85705" lon="6.08721">
        <ele>633</ele>
        <time>2016-05-02T10:52:00.047Z</time>
      </trkpt>
      <trkpt lat="45.85708" lon="6.08724">
        <ele>633</ele>
        <time>2016-05-02T10:52:01.047Z</time>
      </trkpt>
      <trkpt lat="45.8571" lon="6.08727">
        <ele>632</ele>
        <time>2016-05-02T10:52:02.047Z</time>
      </trkpt>
      <trkpt lat="45.85713" lon="6.08729">
        <ele>632</ele>
        <time>2016-05-02T10:52:03.047Z</time>
      </trkpt>
      <trkpt lat="45.85715" lon="6.08731">
        <ele>631</ele>
        <time>2016-05-02T10:52:04.047Z</time>
      </trkpt>
      <trkpt lat="45.85718" lon="6.08733">
        <ele>631</ele>
        <time>2016-05-02T10:52:05.047Z</time>
      </trkpt>
      <trkpt lat="45.8572" lon="6.08736">
        <ele>631</ele>
        <time>2016-05-02T10:52:06.047Z</time>
      </trkpt>
      <trkpt lat="45.85723" lon="6.08738">
        <ele>630</ele>
        <time>2016-05-02T10:52:07.047Z</time>
      </trkpt>
      <trkpt lat="45.85726" lon="6.0874">
        <ele>630</ele>
        <time>2016-05-02T10:52:08.047Z</time>
      </trkpt>
      <trkpt lat="45.85729" lon="6.08741">
        <ele>630</ele>
        <time>2016-05-02T10:52:09.047Z</time>
      </trkpt>
      <trkpt lat="45.85732" lon="6.08742">
        <ele>629</ele>
        <time>2016-05-02T10:52:10.047Z</time>
      </trkpt>
      <trkpt lat="45.85735" lon="6.08744">
        <ele>629</ele>
        <time>2016-05-02T10:52:11.047Z</time>
      </trkpt>
      <trkpt lat="45.85738" lon="6.08746">
        <ele>628</ele>
        <time>2016-05-02T10:52:12.047Z</time>
      </trkpt>
      <trkpt lat="45.85741" lon="6.08748">
        <ele>628</ele>
        <time>2016-05-02T10:52:13.047Z</time>
      </trkpt>
      <trkpt lat="45.85743" lon="6.08749">
        <ele>628</ele>
        <time>2016-05-02T10:52:14.047Z</time>
      </trkpt>
      <trkpt lat="45.85746" lon="6.0875">
        <ele>627</ele>
        <time>2016-05-02T10:52:15.047Z</time>
      </trkpt>
      <trkpt lat="45.85749" lon="6.08752">
        <ele>627</ele>
        <time>2016-05-02T10:52:16.047Z</time>
      </trkpt>
      <trkpt lat="45.85752" lon="6.08753">
        <ele>626</ele>
        <time>2016-05-02T10:52:17.047Z</time>
      </trkpt>
      <trkpt lat="45.85755" lon="6.08754">
        <ele>626</ele>
        <time>2016-05-02T10:52:18.047Z</time>
      </trkpt>
      <trkpt lat="45.85758" lon="6.08756">
        <ele>625</ele>
        <time>2016-05-02T10:52:19.047Z</time>
      </trkpt>
      <trkpt lat="45.85761" lon="6.08757">
        <ele>625</ele>
        <time>2016-05-02T10:52:20.047Z</time>
      </trkpt>
      <trkpt lat="45.85764" lon="6.08758">
        <ele>625</ele>
        <time>2016-05-02T10:52:21.047Z</time>
      </trkpt>
      <trkpt lat="45.85767" lon="6.08759">
        <ele>625</ele>
        <time>2016-05-02T10:52:22.047Z</time>
      </trkpt>
      <trkpt lat="45.8577" lon="6.0876">
        <ele>624</ele>
        <time>2016-05-02T10:52:23.047Z</time>
      </trkpt>
      <trkpt lat="45.85772" lon="6.08761">
        <ele>624</ele>
        <time>2016-05-02T10:52:24.047Z</time>
      </trkpt>
      <trkpt lat="45.85775" lon="6.08762">
        <ele>624</ele>
        <time>2016-05-02T10:52:25.047Z</time>
      </trkpt>
      <trkpt lat="45.85777" lon="6.08763">
        <ele>623</ele>
        <time>2016-05-02T10:52:26.047Z</time>
      </trkpt>
      <trkpt lat="45.8578" lon="6.08763">
        <ele>623</ele>
        <time>2016-05-02T10:52:27.047Z</time>
      </trkpt>
      <trkpt lat="45.85782" lon="6.08764">
        <ele>623</ele>
        <time>2016-05-02T10:52:28.047Z</time>
      </trkpt>
      <trkpt lat="45.85785" lon="6.08764">
        <ele>623</ele>
        <time>2016-05-02T10:52:29.047Z</time>
      </trkpt>
      <trkpt lat="45.85788" lon="6.08765">
        <ele>622</ele>
        <time>2016-05-02T10:52:30.047Z</time>
      </trkpt>
      <trkpt lat="45.85791" lon="6.08765">
        <ele>622</ele>
        <time>2016-05-02T10:52:31.047Z</time>
      </trkpt>
      <trkpt lat="45.85793" lon="6.08766">
        <ele>622</ele>
        <time>2016-05-02T10:52:32.047Z</time>
      </trkpt>
      <trkpt lat="45.85796" lon="6.08767">
        <ele>622</ele>
        <time>2016-05-02T10:52:33.047Z</time>
      </trkpt>
      <trkpt lat="45.85799" lon="6.08768">
        <ele>622</ele>
        <time>2016-05-02T10:52:34.047Z</time>
      </trkpt>
      <trkpt lat="45.85801" lon="6.08769">
        <ele>622</ele>
        <time>2016-05-02T10:52:35.047Z</time>
      </trkpt>
      <trkpt lat="45.85803" lon="6.08771">
        <ele>621</ele>
        <time>2016-05-02T10:52:36.047Z</time>
      </trkpt>
      <trkpt lat="45.85806" lon="6.08772">
        <ele>621</ele>
        <time>2016-05-02T10:52:37.047Z</time>
      </trkpt>
      <trkpt lat="45.85808" lon="6.08774">
        <ele>621</ele>
        <time>2016-05-02T10:52:38.047Z</time>
      </trkpt>
      <trkpt lat="45.8581" lon="6.08776">
        <ele>621</ele>
        <time>2016-05-02T10:52:39.047Z</time>
      </trkpt>
      <trkpt lat="45.85812" lon="6.08778">
        <ele>621</ele>
        <time>2016-05-02T10:52:40.047Z</time>
      </trkpt>
      <trkpt lat="45.85815" lon="6.0878">
        <ele>621</ele>
        <time>2016-05-02T10:52:41.047Z</time>
      </trkpt>
      <trkpt lat="45.85817" lon="6.08782">
        <ele>621</ele>
        <time>2016-05-02T10:52:42.047Z</time>
      </trkpt>
      <trkpt lat="45.85819" lon="6.08785">
        <ele>620</ele>
        <time>2016-05-02T10:52:43.047Z</time>
      </trkpt>
      <trkpt lat="45.85821" lon="6.08787">
        <ele>620</ele>
        <time>2016-05-02T10:52:44.047Z</time>
      </trkpt>
      <trkpt lat="45.85823" lon="6.0879">
        <ele>620</ele>
        <time>2016-05-02T10:52:45.047Z</time>
      </trkpt>
      <trkpt lat="45.85826" lon="6.08793">
        <ele>620</ele>
        <time>2016-05-02T10:52:46.047Z</time>
      </trkpt>
      <trkpt lat="45.85828" lon="6.08796">
        <ele>620</ele>
        <time>2016-05-02T10:52:47.047Z</time>
      </trkpt>
      <trkpt lat="45.8583" lon="6.08798">
        <ele>619</ele>
        <time>2016-05-02T10:52:48.047Z</time>
      </trkpt>
      <trkpt lat="45.85832" lon="6.08801">
        <ele>619</ele>
        <time>2016-05-02T10:52:49.047Z</time>
      </trkpt>
      <trkpt lat="45.85834" lon="6.08804">
        <ele>619</ele>
        <time>2016-05-02T10:52:50.047Z</time>
      </trkpt>
      <trkpt lat="45.85836" lon="6.08807">
        <ele>619</ele>
        <time>2016-05-02T10:52:51.047Z</time>
      </trkpt>
      <trkpt lat="45.85838" lon="6.08809">
        <ele>619</ele>
        <time>2016-05-02T10:52:52.047Z</time>
      </trkpt>
      <trkpt lat="45.8584" lon="6.08812">
        <ele>618</ele>
        <time>2016-05-02T10:52:53.047Z</time>
      </trkpt>
      <trkpt lat="45.85842" lon="6.08816">
        <ele>618</ele>
        <time>2016-05-02T10:52:54.047Z</time>
      </trkpt>
      <trkpt lat="45.85844" lon="6.08819">
        <ele>618</ele>
        <time>2016-05-02T10:52:55.047Z</time>
      </trkpt>
      <trkpt lat="45.85845" lon="6.08823">
        <ele>618</ele>
        <time>2016-05-02T10:52:56.047Z</time>
      </trkpt>
      <trkpt lat="45.85847" lon="6.08827">
        <ele>617</ele>
        <time>2016-05-02T10:52:57.047Z</time>
      </trkpt>
      <trkpt lat="45.85849" lon="6.0883">
        <ele>617</ele>
        <time>2016-05-02T10:52:58.047Z</time>
      </trkpt>
      <trkpt lat="45.85851" lon="6.08834">
        <ele>616</ele>
        <time>2016-05-02T10:52:59.047Z</time>
      </trkpt>
      <trkpt lat="45.85853" lon="6.08838">
        <ele>616</ele>
        <time>2016-05-02T10:53:00.047Z</time>
      </trkpt>
      <trkpt lat="45.85855" lon="6.08841">
        <ele>616</ele>
        <time>2016-05-02T10:53:01.047Z</time>
      </trkpt>
      <trkpt lat="45.85857" lon="6.08845">
        <ele>616</ele>
        <time>2016-05-02T10:53:02.047Z</time>
      </trkpt>
      <trkpt lat="45.8586" lon="6.08848">
        <ele>615</ele>
        <time>2016-05-02T10:53:03.047Z</time>
      </trkpt>
      <trkpt lat="45.85862" lon="6.08852">
        <ele>615</ele>
        <time>2016-05-02T10:53:04.047Z</time>
      </trkpt>
      <trkpt lat="45.85864" lon="6.08855">
        <ele>615</ele>
        <time>2016-05-02T10:53:05.047Z</time>
      </trkpt>
      <trkpt lat="45.85865" lon="6.08859">
        <ele>615</ele>
        <time>2016-05-02T10:53:06.047Z</time>
      </trkpt>
      <trkpt lat="45.85868" lon="6.08863">
        <ele>615</ele>
        <time>2016-05-02T10:53:07.047Z</time>
      </trkpt>
      <trkpt lat="45.85869" lon="6.08866">
        <ele>615</ele>
        <time>2016-05-02T10:53:08.047Z</time>
      </trkpt>
      <trkpt lat="45.85871" lon="6.08869">
        <ele>614</ele>
        <time>2016-05-02T10:53:09.047Z</time>
      </trkpt>
      <trkpt lat="45.85873" lon="6.08872">
        <ele>614</ele>
        <time>2016-05-02T10:53:10.047Z</time>
      </trkpt>
      <trkpt lat="45.85875" lon="6.08876">
        <ele>614</ele>
        <time>2016-05-02T10:53:11.047Z</time>
      </trkpt>
      <trkpt lat="45.85877" lon="6.08879">
        <ele>614</ele>
        <time>2016-05-02T10:53:12.047Z</time>
      </trkpt>
      <trkpt lat="45.85879" lon="6.08883">
        <ele>614</ele>
        <time>2016-05-02T10:53:13.047Z</time>
      </trkpt>
      <trkpt lat="45.85881" lon="6.08887">
        <ele>613</ele>
        <time>2016-05-02T10:53:14.047Z</time>
      </trkpt>
      <trkpt lat="45.85884" lon="6.0889">
        <ele>613</ele>
        <time>2016-05-02T10:53:15.047Z</time>
      </trkpt>
      <trkpt lat="45.85886" lon="6.08893">
        <ele>613</ele>
        <time>2016-05-02T10:53:16.047Z</time>
      </trkpt>
      <trkpt lat="45.85888" lon="6.08896">
        <ele>613</ele>
        <time>2016-05-02T10:53:17.047Z</time>
      </trkpt>
      <trkpt lat="45.8589" lon="6.08898">
        <ele>613</ele>
        <time>2016-05-02T10:53:18.047Z</time>
      </trkpt>
      <trkpt lat="45.85893" lon="6.08899">
        <ele>613</ele>
        <time>2016-05-02T10:53:19.047Z</time>
      </trkpt>
      <trkpt lat="45.85895" lon="6.08901">
        <ele>613</ele>
        <time>2016-05-02T10:53:20.047Z</time>
      </trkpt>
      <trkpt lat="45.85898" lon="6.08901">
        <ele>613</ele>
        <time>2016-05-02T10:53:21.047Z</time>
      </trkpt>
      <trkpt lat="45.85901" lon="6.08901">
        <ele>612</ele>
        <time>2016-05-02T10:53:22.047Z</time>
      </trkpt>
      <trkpt lat="45.85904" lon="6.08901">
        <ele>612</ele>
        <time>2016-05-02T10:53:23.047Z</time>
      </trkpt>
      <trkpt lat="45.85907" lon="6.08902">
        <ele>612</ele>
        <time>2016-05-02T10:53:24.047Z</time>
      </trkpt>
      <trkpt lat="45.8591" lon="6.08902">
        <ele>612</ele>
        <time>2016-05-02T10:53:25.047Z</time>
      </trkpt>
      <trkpt lat="45.85913" lon="6.08902">
        <ele>612</ele>
        <time>2016-05-02T10:53:26.047Z</time>
      </trkpt>
      <trkpt lat="45.85916" lon="6.08903">
        <ele>611</ele>
        <time>2016-05-02T10:53:27.047Z</time>
      </trkpt>
      <trkpt lat="45.85919" lon="6.08904">
        <ele>611</ele>
        <time>2016-05-02T10:53:28.047Z</time>
      </trkpt>
      <trkpt lat="45.85921" lon="6.08905">
        <ele>611</ele>
        <time>2016-05-02T10:53:29.047Z</time>
      </trkpt>
      <trkpt lat="45.85924" lon="6.08907">
        <ele>611</ele>
        <time>2016-05-02T10:53:30.047Z</time>
      </trkpt>
      <trkpt lat="45.85926" lon="6.08909">
        <ele>611</ele>
        <time>2016-05-02T10:53:31.047Z</time>
      </trkpt>
      <trkpt lat="45.85929" lon="6.08912">
        <ele>610</ele>
        <time>2016-05-02T10:53:32.047Z</time>
      </trkpt>
      <trkpt lat="45.85931" lon="6.08914">
        <ele>610</ele>
        <time>2016-05-02T10:53:33.047Z</time>
      </trkpt>
      <trkpt lat="45.85934" lon="6.08917">
        <ele>610</ele>
        <time>2016-05-02T10:53:34.047Z</time>
      </trkpt>
      <trkpt lat="45.85936" lon="6.08919">
        <ele>610</ele>
        <time>2016-05-02T10:53:35.047Z</time>
      </trkpt>
      <trkpt lat="45.85938" lon="6.08922">
        <ele>610</ele>
        <time>2016-05-02T10:53:36.047Z</time>
      </trkpt>
      <trkpt lat="45.85941" lon="6.08924">
        <ele>609</ele>
        <time>2016-05-02T10:53:37.047Z</time>
      </trkpt>
      <trkpt lat="45.85944" lon="6.08925">
        <ele>609</ele>
        <time>2016-05-02T10:53:38.047Z</time>
      </trkpt>
      <trkpt lat="45.85947" lon="6.08927">
        <ele>609</ele>
        <time>2016-05-02T10:53:39.047Z</time>
      </trkpt>
      <trkpt lat="45.8595" lon="6.08928">
        <ele>609</ele>
        <time>2016-05-02T10:53:40.047Z</time>
      </trkpt>
      <trkpt lat="45.85953" lon="6.08929">
        <ele>608</ele>
        <time>2016-05-02T10:53:41.047Z</time>
      </trkpt>
      <trkpt lat="45.85955" lon="6.0893">
        <ele>608</ele>
        <time>2016-05-02T10:53:42.047Z</time>
      </trkpt>
      <trkpt lat="45.85958" lon="6.08931">
        <ele>608</ele>
        <time>2016-05-02T10:53:43.047Z</time>
      </trkpt>
      <trkpt lat="45.85961" lon="6.08933">
        <ele>608</ele>
        <time>2016-05-02T10:53:44.047Z</time>
      </trkpt>
      <trkpt lat="45.85964" lon="6.08935">
        <ele>608</ele>
        <time>2016-05-02T10:53:45.047Z</time>
      </trkpt>
      <trkpt lat="45.85966" lon="6.08937">
        <ele>607</ele>
        <time>2016-05-02T10:53:46.047Z</time>
      </trkpt>
      <trkpt lat="45.85968" lon="6.0894">
        <ele>607</ele>
        <time>2016-05-02T10:53:47.047Z</time>
      </trkpt>
      <trkpt lat="45.8597" lon="6.08942">
        <ele>607</ele>
        <time>2016-05-02T10:53:48.047Z</time>
      </trkpt>
      <trkpt lat="45.85972" lon="6.08945">
        <ele>607</ele>
        <time>2016-05-02T10:53:49.047Z</time>
      </trkpt>
      <trkpt lat="45.85975" lon="6.08947">
        <ele>607</ele>
        <time>2016-05-02T10:53:50.047Z</time>
      </trkpt>
      <trkpt lat="45.85977" lon="6.0895">
        <ele>606</ele>
        <time>2016-05-02T10:53:51.047Z</time>
      </trkpt>
      <trkpt lat="45.85979" lon="6.08951">
        <ele>606</ele>
        <time>2016-05-02T10:53:52.047Z</time>
      </trkpt>
      <trkpt lat="45.85982" lon="6.08952">
        <ele>606</ele>
        <time>2016-05-02T10:53:53.047Z</time>
      </trkpt>
      <trkpt lat="45.85984" lon="6.08952">
        <ele>606</ele>
        <time>2016-05-02T10:53:54.047Z</time>
      </trkpt>
      <trkpt lat="45.85987" lon="6.08952">
        <ele>605</ele>
        <time>2016-05-02T10:53:55.047Z</time>
      </trkpt>
      <trkpt lat="45.8599" lon="6.08951">
        <ele>605</ele>
        <time>2016-05-02T10:53:56.047Z</time>
      </trkpt>
      <trkpt lat="45.85993" lon="6.0895">
        <ele>605</ele>
        <time>2016-05-02T10:53:57.047Z</time>
      </trkpt>
      <trkpt lat="45.85995" lon="6.08948">
        <ele>605</ele>
        <time>2016-05-02T10:53:58.047Z</time>
      </trkpt>
      <trkpt lat="45.85998" lon="6.08947">
        <ele>604</ele>
        <time>2016-05-02T10:53:59.047Z</time>
      </trkpt>
      <trkpt lat="45.86001" lon="6.08946">
        <ele>604</ele>
        <time>2016-05-02T10:54:00.047Z</time>
      </trkpt>
      <trkpt lat="45.86003" lon="6.08945">
        <ele>604</ele>
        <time>2016-05-02T10:54:01.047Z</time>
      </trkpt>
      <trkpt lat="45.86006" lon="6.08945">
        <ele>604</ele>
        <time>2016-05-02T10:54:02.047Z</time>
      </trkpt>
      <trkpt lat="45.86008" lon="6.08946">
        <ele>604</ele>
        <time>2016-05-02T10:54:03.047Z</time>
      </trkpt>
      <trkpt lat="45.86011" lon="6.08947">
        <ele>604</ele>
        <time>2016-05-02T10:54:04.047Z</time>
      </trkpt>
      <trkpt lat="45.86013" lon="6.0895">
        <ele>604</ele>
        <time>2016-05-02T10:54:05.047Z</time>
      </trkpt>
      <trkpt lat="45.86015" lon="6.08953">
        <ele>603</ele>
        <time>2016-05-02T10:54:06.047Z</time>
      </trkpt>
      <trkpt lat="45.86016" lon="6.08956">
        <ele>603</ele>
        <time>2016-05-02T10:54:07.047Z</time>
      </trkpt>
      <trkpt lat="45.86018" lon="6.08959">
        <ele>603</ele>
        <time>2016-05-02T10:54:08.047Z</time>
      </trkpt>
      <trkpt lat="45.8602" lon="6.08963">
        <ele>603</ele>
        <time>2016-05-02T10:54:09.047Z</time>
      </trkpt>
      <trkpt lat="45.86021" lon="6.08966">
        <ele>603</ele>
        <time>2016-05-02T10:54:10.047Z</time>
      </trkpt>
      <trkpt lat="45.86023" lon="6.08969">
        <ele>603</ele>
        <time>2016-05-02T10:54:11.047Z</time>
      </trkpt>
      <trkpt lat="45.86025" lon="6.08972">
        <ele>603</ele>
        <time>2016-05-02T10:54:12.047Z</time>
      </trkpt>
      <trkpt lat="45.86026" lon="6.08975">
        <ele>603</ele>
        <time>2016-05-02T10:54:13.047Z</time>
      </trkpt>
      <trkpt lat="45.86028" lon="6.08978">
        <ele>603</ele>
        <time>2016-05-02T10:54:14.047Z</time>
      </trkpt>
      <trkpt lat="45.8603" lon="6.08981">
        <ele>603</ele>
        <time>2016-05-02T10:54:15.047Z</time>
      </trkpt>
      <trkpt lat="45.86032" lon="6.08985">
        <ele>603</ele>
        <time>2016-05-02T10:54:16.047Z</time>
      </trkpt>
      <trkpt lat="45.86033" lon="6.08988">
        <ele>603</ele>
        <time>2016-05-02T10:54:17.047Z</time>
      </trkpt>
      <trkpt lat="45.86035" lon="6.08991">
        <ele>603</ele>
        <time>2016-05-02T10:54:18.047Z</time>
      </trkpt>
      <trkpt lat="45.86036" lon="6.08993">
        <ele>603</ele>
        <time>2016-05-02T10:54:19.047Z</time>
      </trkpt>
      <trkpt lat="45.86038" lon="6.08996">
        <ele>603</ele>
        <time>2016-05-02T10:54:20.047Z</time>
      </trkpt>
      <trkpt lat="45.86039" lon="6.08998">
        <ele>602</ele>
        <time>2016-05-02T10:54:21.047Z</time>
      </trkpt>
      <trkpt lat="45.86041" lon="6.09001">
        <ele>602</ele>
        <time>2016-05-02T10:54:22.047Z</time>
      </trkpt>
      <trkpt lat="45.86043" lon="6.09004">
        <ele>602</ele>
        <time>2016-05-02T10:54:23.047Z</time>
      </trkpt>
      <trkpt lat="45.86045" lon="6.09006">
        <ele>602</ele>
        <time>2016-05-02T10:54:24.047Z</time>
      </trkpt>
      <trkpt lat="45.86047" lon="6.09009">
        <ele>602</ele>
        <time>2016-05-02T10:54:25.047Z</time>
      </trkpt>
      <trkpt lat="45.86049" lon="6.09011">
        <ele>602</ele>
        <time>2016-05-02T10:54:26.047Z</time>
      </trkpt>
      <trkpt lat="45.86051" lon="6.09013">
        <ele>602</ele>
        <time>2016-05-02T10:54:27.047Z</time>
      </trkpt>
      <trkpt lat="45.86053" lon="6.09015">
        <ele>602</ele>
        <time>2016-05-02T10:54:28.047Z</time>
      </trkpt>
      <trkpt lat="45.86055" lon="6.09017">
        <ele>602</ele>
        <time>2016-05-02T10:54:29.047Z</time>
      </trkpt>
      <trkpt lat="45.86057" lon="6.0902">
        <ele>602</ele>
        <time>2016-05-02T10:54:30.047Z</time>
      </trkpt>
      <trkpt lat="45.86059" lon="6.09022">
        <ele>603</ele>
        <time>2016-05-02T10:54:31.047Z</time>
      </trkpt>
      <trkpt lat="45.8606" lon="6.09023">
        <ele>603</ele>
        <time>2016-05-02T10:54:32.047Z</time>
      </trkpt>
      <trkpt lat="45.86062" lon="6.09025">
        <ele>603</ele>
        <time>2016-05-02T10:54:33.047Z</time>
      </trkpt>
      <trkpt lat="45.86064" lon="6.09027">
        <ele>603</ele>
        <time>2016-05-02T10:54:34.047Z</time>
      </trkpt>
      <trkpt lat="45.86066" lon="6.0903">
        <ele>603</ele>
        <time>2016-05-02T10:54:35.047Z</time>
      </trkpt>
      <trkpt lat="45.86068" lon="6.09032">
        <ele>603</ele>
        <time>2016-05-02T10:54:36.047Z</time>
      </trkpt>
      <trkpt lat="45.86071" lon="6.09035">
        <ele>603</ele>
        <time>2016-05-02T10:54:37.047Z</time>
      </trkpt>
      <trkpt lat="45.86073" lon="6.09037">
        <ele>603</ele>
        <time>2016-05-02T10:54:38.047Z</time>
      </trkpt>
      <trkpt lat="45.86075" lon="6.0904">
        <ele>603</ele>
        <time>2016-05-02T10:54:39.047Z</time>
      </trkpt>
      <trkpt lat="45.86077" lon="6.09042">
        <ele>603</ele>
        <time>2016-05-02T10:54:40.047Z</time>
      </trkpt>
      <trkpt lat="45.8608" lon="6.09046">
        <ele>603</ele>
        <time>2016-05-02T10:54:41.047Z</time>
      </trkpt>
      <trkpt lat="45.86082" lon="6.09049">
        <ele>603</ele>
        <time>2016-05-02T10:54:42.047Z</time>
      </trkpt>
      <trkpt lat="45.86084" lon="6.09052">
        <ele>603</ele>
        <time>2016-05-02T10:54:43.047Z</time>
      </trkpt>
      <trkpt lat="45.86086" lon="6.09055">
        <ele>603</ele>
        <time>2016-05-02T10:54:44.047Z</time>
      </trkpt>
      <trkpt lat="45.86089" lon="6.09058">
        <ele>603</ele>
        <time>2016-05-02T10:54:45.047Z</time>
      </trkpt>
      <trkpt lat="45.86091" lon="6.09061">
        <ele>603</ele>
        <time>2016-05-02T10:54:46.047Z</time>
      </trkpt>
      <trkpt lat="45.86093" lon="6.09063">
        <ele>603</ele>
        <time>2016-05-02T10:54:47.047Z</time>
      </trkpt>
      <trkpt lat="45.86096" lon="6.09065">
        <ele>603</ele>
        <time>2016-05-02T10:54:48.047Z</time>
      </trkpt>
      <trkpt lat="45.86098" lon="6.09067">
        <ele>603</ele>
        <time>2016-05-02T10:54:49.047Z</time>
      </trkpt>
      <trkpt lat="45.86101" lon="6.09069">
        <ele>603</ele>
        <time>2016-05-02T10:54:50.047Z</time>
      </trkpt>
      <trkpt lat="45.86103" lon="6.09071">
        <ele>603</ele>
        <time>2016-05-02T10:54:51.047Z</time>
      </trkpt>
      <trkpt lat="45.86106" lon="6.09073">
        <ele>603</ele>
        <time>2016-05-02T10:54:52.047Z</time>
      </trkpt>
      <trkpt lat="45.86109" lon="6.09075">
        <ele>603</ele>
        <time>2016-05-02T10:54:53.047Z</time>
      </trkpt>
      <trkpt lat="45.86111" lon="6.09077">
        <ele>603</ele>
        <time>2016-05-02T10:54:54.047Z</time>
      </trkpt>
      <trkpt lat="45.86114" lon="6.09079">
        <ele>603</ele>
        <time>2016-05-02T10:54:55.047Z</time>
      </trkpt>
      <trkpt lat="45.86116" lon="6.09082">
        <ele>603</ele>
        <time>2016-05-02T10:54:56.047Z</time>
      </trkpt>
      <trkpt lat="45.86119" lon="6.09084">
        <ele>602</ele>
        <time>2016-05-02T10:54:57.047Z</time>
      </trkpt>
      <trkpt lat="45.86121" lon="6.09087">
        <ele>603</ele>
        <time>2016-05-02T10:54:58.047Z</time>
      </trkpt>
      <trkpt lat="45.86123" lon="6.09089">
        <ele>603</ele>
        <time>2016-05-02T10:54:59.047Z</time>
      </trkpt>
      <trkpt lat="45.86125" lon="6.09091">
        <ele>603</ele>
        <time>2016-05-02T10:55:00.047Z</time>
      </trkpt>
      <trkpt lat="45.86127" lon="6.09094">
        <ele>603</ele>
        <time>2016-05-02T10:55:01.047Z</time>
      </trkpt>
      <trkpt lat="45.86128" lon="6.09097">
        <ele>602</ele>
        <time>2016-05-02T10:55:02.047Z</time>
      </trkpt>
      <trkpt lat="45.86129" lon="6.09101">
        <ele>602</ele>
        <time>2016-05-02T10:55:03.047Z</time>
      </trkpt>
      <trkpt lat="45.8613" lon="6.09106">
        <ele>602</ele>
        <time>2016-05-02T10:55:04.047Z</time>
      </trkpt>
      <trkpt lat="45.86131" lon="6.0911">
        <ele>602</ele>
        <time>2016-05-02T10:55:05.047Z</time>
      </trkpt>
      <trkpt lat="45.86132" lon="6.09113">
        <ele>602</ele>
        <time>2016-05-02T10:55:06.047Z</time>
      </trkpt>
      <trkpt lat="45.86132" lon="6.09117">
        <ele>602</ele>
        <time>2016-05-02T10:55:07.047Z</time>
      </trkpt>
      <trkpt lat="45.86132" lon="6.09121">
        <ele>602</ele>
        <time>2016-05-02T10:55:08.047Z</time>
      </trkpt>
      <trkpt lat="45.86132" lon="6.09125">
        <ele>602</ele>
        <time>2016-05-02T10:55:09.047Z</time>
      </trkpt>
      <trkpt lat="45.86132" lon="6.09128">
        <ele>602</ele>
        <time>2016-05-02T10:55:10.047Z</time>
      </trkpt>
      <trkpt lat="45.86131" lon="6.09132">
        <ele>602</ele>
        <time>2016-05-02T10:55:11.047Z</time>
      </trkpt>
      <trkpt lat="45.86131" lon="6.09136">
        <ele>602</ele>
        <time>2016-05-02T10:55:12.047Z</time>
      </trkpt>
      <trkpt lat="45.8613" lon="6.09139">
        <ele>602</ele>
        <time>2016-05-02T10:55:13.047Z</time>
      </trkpt>
      <trkpt lat="45.86129" lon="6.09143">
        <ele>602</ele>
        <time>2016-05-02T10:55:14.047Z</time>
      </trkpt>
      <trkpt lat="45.86128" lon="6.09147">
        <ele>602</ele>
        <time>2016-05-02T10:55:15.047Z</time>
      </trkpt>
      <trkpt lat="45.86127" lon="6.09151">
        <ele>602</ele>
        <time>2016-05-02T10:55:16.047Z</time>
      </trkpt>
      <trkpt lat="45.86126" lon="6.09155">
        <ele>602</ele>
        <time>2016-05-02T10:55:17.047Z</time>
      </trkpt>
      <trkpt lat="45.86126" lon="6.09159">
        <ele>602</ele>
        <time>2016-05-02T10:55:18.047Z</time>
      </trkpt>
      <trkpt lat="45.86125" lon="6.09163">
        <ele>602</ele>
        <time>2016-05-02T10:55:19.047Z</time>
      </trkpt>
      <trkpt lat="45.86124" lon="6.09167">
        <ele>602</ele>
        <time>2016-05-02T10:55:20.047Z</time>
      </trkpt>
      <trkpt lat="45.86123" lon="6.09171">
        <ele>602</ele>
        <time>2016-05-02T10:55:21.047Z</time>
      </trkpt>
      <trkpt lat="45.86123" lon="6.09176">
        <ele>601</ele>
        <time>2016-05-02T10:55:22.047Z</time>
      </trkpt>
      <trkpt lat="45.86124" lon="6.0918">
        <ele>601</ele>
        <time>2016-05-02T10:55:23.047Z</time>
      </trkpt>
      <trkpt lat="45.86125" lon="6.09185">
        <ele>601</ele>
        <time>2016-05-02T10:55:24.047Z</time>
      </trkpt>
      <trkpt lat="45.86126" lon="6.09189">
        <ele>601</ele>
        <time>2016-05-02T10:55:25.047Z</time>
      </trkpt>
      <trkpt lat="45.86127" lon="6.09192">
        <ele>601</ele>
        <time>2016-05-02T10:55:26.047Z</time>
      </trkpt>
      <trkpt lat="45.86129" lon="6.09196">
        <ele>600</ele>
        <time>2016-05-02T10:55:27.047Z</time>
      </trkpt>
      <trkpt lat="45.86131" lon="6.09199">
        <ele>600</ele>
        <time>2016-05-02T10:55:28.047Z</time>
      </trkpt>
      <trkpt lat="45.86134" lon="6.09202">
        <ele>600</ele>
        <time>2016-05-02T10:55:29.047Z</time>
      </trkpt>
      <trkpt lat="45.86136" lon="6.09204">
        <ele>599</ele>
        <time>2016-05-02T10:55:30.047Z</time>
      </trkpt>
      <trkpt lat="45.86138" lon="6.09206">
        <ele>599</ele>
        <time>2016-05-02T10:55:31.047Z</time>
      </trkpt>
      <trkpt lat="45.8614" lon="6.09209">
        <ele>599</ele>
        <time>2016-05-02T10:55:32.047Z</time>
      </trkpt>
      <trkpt lat="45.86142" lon="6.09211">
        <ele>598</ele>
        <time>2016-05-02T10:55:33.047Z</time>
      </trkpt>
      <trkpt lat="45.86145" lon="6.09214">
        <ele>598</ele>
        <time>2016-05-02T10:55:34.047Z</time>
      </trkpt>
      <trkpt lat="45.86146" lon="6.09217">
        <ele>598</ele>
        <time>2016-05-02T10:55:35.047Z</time>
      </trkpt>
      <trkpt lat="45.86148" lon="6.09221">
        <ele>597</ele>
        <time>2016-05-02T10:55:36.047Z</time>
      </trkpt>
      <trkpt lat="45.86149" lon="6.09225">
        <ele>597</ele>
        <time>2016-05-02T10:55:37.047Z</time>
      </trkpt>
      <trkpt lat="45.8615" lon="6.09229">
        <ele>597</ele>
        <time>2016-05-02T10:55:38.047Z</time>
      </trkpt>
      <trkpt lat="45.8615" lon="6.09233">
        <ele>597</ele>
        <time>2016-05-02T10:55:39.047Z</time>
      </trkpt>
      <trkpt lat="45.8615" lon="6.09237">
        <ele>596</ele>
        <time>2016-05-02T10:55:40.047Z</time>
      </trkpt>
      <trkpt lat="45.8615" lon="6.09241">
        <ele>596</ele>
        <time>2016-05-02T10:55:41.047Z</time>
      </trkpt>
      <trkpt lat="45.8615" lon="6.09246">
        <ele>596</ele>
        <time>2016-05-02T10:55:42.047Z</time>
      </trkpt>
      <trkpt lat="45.8615" lon="6.0925">
        <ele>596</ele>
        <time>2016-05-02T10:55:43.047Z</time>
      </trkpt>
      <trkpt lat="45.8615" lon="6.09254">
        <ele>595</ele>
        <time>2016-05-02T10:55:44.047Z</time>
      </trkpt>
      <trkpt lat="45.86151" lon="6.09257">
        <ele>595</ele>
        <time>2016-05-02T10:55:45.047Z</time>
      </trkpt>
      <trkpt lat="45.86153" lon="6.0926">
        <ele>594</ele>
        <time>2016-05-02T10:55:46.047Z</time>
      </trkpt>
      <trkpt lat="45.86155" lon="6.09262">
        <ele>594</ele>
        <time>2016-05-02T10:55:47.047Z</time>
      </trkpt>
      <trkpt lat="45.86157" lon="6.09263">
        <ele>594</ele>
        <time>2016-05-02T10:55:48.047Z</time>
      </trkpt>
      <trkpt lat="45.8616" lon="6.09264">
        <ele>593</ele>
        <time>2016-05-02T10:55:49.047Z</time>
      </trkpt>
      <trkpt lat="45.86163" lon="6.09264">
        <ele>593</ele>
        <time>2016-05-02T10:55:50.047Z</time>
      </trkpt>
      <trkpt lat="45.86166" lon="6.09265">
        <ele>593</ele>
        <time>2016-05-02T10:55:51.047Z</time>
      </trkpt>
      <trkpt lat="45.86168" lon="6.09265">
        <ele>592</ele>
        <time>2016-05-02T10:55:52.047Z</time>
      </trkpt>
      <trkpt lat="45.86171" lon="6.09266">
        <ele>592</ele>
        <time>2016-05-02T10:55:53.047Z</time>
      </trkpt>
      <trkpt lat="45.86174" lon="6.09266">
        <ele>592</ele>
        <time>2016-05-02T10:55:54.047Z</time>
      </trkpt>
      <trkpt lat="45.86177" lon="6.09266">
        <ele>592</ele>
        <time>2016-05-02T10:55:55.047Z</time>
      </trkpt>
      <trkpt lat="45.86179" lon="6.09267">
        <ele>592</ele>
        <time>2016-05-02T10:55:56.047Z</time>
      </trkpt>
      <trkpt lat="45.86182" lon="6.09267">
        <ele>591</ele>
        <time>2016-05-02T10:55:57.047Z</time>
      </trkpt>
      <trkpt lat="45.86185" lon="6.09267">
        <ele>591</ele>
        <time>2016-05-02T10:55:58.047Z</time>
      </trkpt>
      <trkpt lat="45.86188" lon="6.09267">
        <ele>591</ele>
        <time>2016-05-02T10:55:59.047Z</time>
      </trkpt>
      <trkpt lat="45.86191" lon="6.09267">
        <ele>591</ele>
        <time>2016-05-02T10:56:00.047Z</time>
      </trkpt>
      <trkpt lat="45.86194" lon="6.09267">
        <ele>591</ele>
        <time>2016-05-02T10:56:01.047Z</time>
      </trkpt>
      <trkpt lat="45.86197" lon="6.09267">
        <ele>591</ele>
        <time>2016-05-02T10:56:02.047Z</time>
      </trkpt>
      <trkpt lat="45.862" lon="6.09267">
        <ele>591</ele>
        <time>2016-05-02T10:56:03.047Z</time>
      </trkpt>
      <trkpt lat="45.86204" lon="6.09267">
        <ele>591</ele>
        <time>2016-05-02T10:56:04.047Z</time>
      </trkpt>
      <trkpt lat="45.86207" lon="6.09266">
        <ele>591</ele>
        <time>2016-05-02T10:56:05.047Z</time>
      </trkpt>
      <trkpt lat="45.8621" lon="6.09266">
        <ele>590</ele>
        <time>2016-05-02T10:56:06.047Z</time>
      </trkpt>
      <trkpt lat="45.86213" lon="6.09265">
        <ele>590</ele>
        <time>2016-05-02T10:56:07.047Z</time>
      </trkpt>
      <trkpt lat="45.86216" lon="6.09264">
        <ele>590</ele>
        <time>2016-05-02T10:56:08.047Z</time>
      </trkpt>
      <trkpt lat="45.86218" lon="6.09264">
        <ele>590</ele>
        <time>2016-05-02T10:56:09.047Z</time>
      </trkpt>
      <trkpt lat="45.8622" lon="6.09263">
        <ele>590</ele>
        <time>2016-05-02T10:56:10.047Z</time>
      </trkpt>
      <trkpt lat="45.86222" lon="6.09263">
        <ele>590</ele>
        <time>2016-05-02T10:56:11.047Z</time>
      </trkpt>
      <trkpt lat="45.86224" lon="6.09262">
        <ele>590</ele>
        <time>2016-05-02T10:56:12.047Z</time>
      </trkpt>
      <trkpt lat="45.86226" lon="6.09261">
        <ele>590</ele>
        <time>2016-05-02T10:56:13.047Z</time>
      </trkpt>
      <trkpt lat="45.86229" lon="6.0926">
        <ele>590</ele>
        <time>2016-05-02T10:56:14.047Z</time>
      </trkpt>
      <trkpt lat="45.86231" lon="6.09259">
        <ele>590</ele>
        <time>2016-05-02T10:56:15.047Z</time>
      </trkpt>
      <trkpt lat="45.86234" lon="6.09259">
        <ele>590</ele>
        <time>2016-05-02T10:56:16.047Z</time>
      </trkpt>
      <trkpt lat="45.86237" lon="6.09259">
        <ele>590</ele>
        <time>2016-05-02T10:56:17.047Z</time>
      </trkpt>
      <trkpt lat="45.8624" lon="6.09259">
        <ele>590</ele>
        <time>2016-05-02T10:56:18.047Z</time>
      </trkpt>
      <trkpt lat="45.86243" lon="6.09259">
        <ele>590</ele>
        <time>2016-05-02T10:56:19.047Z</time>
      </trkpt>
      <trkpt lat="45.86245" lon="6.09259">
        <ele>590</ele>
        <time>2016-05-02T10:56:20.047Z</time>
      </trkpt>
      <trkpt lat="45.86248" lon="6.09259">
        <ele>590</ele>
        <time>2016-05-02T10:56:21.047Z</time>
      </trkpt>
      <trkpt lat="45.86251" lon="6.0926">
        <ele>590</ele>
        <time>2016-05-02T10:56:22.047Z</time>
      </trkpt>
      <trkpt lat="45.86254" lon="6.0926">
        <ele>590</ele>
        <time>2016-05-02T10:56:23.047Z</time>
      </trkpt>
      <trkpt lat="45.86257" lon="6.0926">
        <ele>590</ele>
        <time>2016-05-02T10:56:24.047Z</time>
      </trkpt>
      <trkpt lat="45.8626" lon="6.09261">
        <ele>590</ele>
        <time>2016-05-02T10:56:25.047Z</time>
      </trkpt>
      <trkpt lat="45.86263" lon="6.09261">
        <ele>590</ele>
        <time>2016-05-02T10:56:26.047Z</time>
      </trkpt>
      <trkpt lat="45.86266" lon="6.09261">
        <ele>590</ele>
        <time>2016-05-02T10:56:27.047Z</time>
      </trkpt>
      <trkpt lat="45.86268" lon="6.09262">
        <ele>590</ele>
        <time>2016-05-02T10:56:28.047Z</time>
      </trkpt>
      <trkpt lat="45.86271" lon="6.09262">
        <ele>590</ele>
        <time>2016-05-02T10:56:29.047Z</time>
      </trkpt>
      <trkpt lat="45.86273" lon="6.09262">
        <ele>590</ele>
        <time>2016-05-02T10:56:30.047Z</time>
      </trkpt>
      <trkpt lat="45.86276" lon="6.09263">
        <ele>589</ele>
        <time>2016-05-02T10:56:31.047Z</time>
      </trkpt>
      <trkpt lat="45.86278" lon="6.09263">
        <ele>589</ele>
        <time>2016-05-02T10:56:32.047Z</time>
      </trkpt>
      <trkpt lat="45.86281" lon="6.09263">
        <ele>589</ele>
        <time>2016-05-02T10:56:33.047Z</time>
      </trkpt>
      <trkpt lat="45.86283" lon="6.09263">
        <ele>589</ele>
        <time>2016-05-02T10:56:34.047Z</time>
      </trkpt>
      <trkpt lat="45.86286" lon="6.09263">
        <ele>589</ele>
        <time>2016-05-02T10:56:35.047Z</time>
      </trkpt>
      <trkpt lat="45.86289" lon="6.09262">
        <ele>589</ele>
        <time>2016-05-02T10:56:36.047Z</time>
      </trkpt>
      <trkpt lat="45.86291" lon="6.09262">
        <ele>588</ele>
        <time>2016-05-02T10:56:37.047Z</time>
      </trkpt>
      <trkpt lat="45.86293" lon="6.09261">
        <ele>588</ele>
        <time>2016-05-02T10:56:38.047Z</time>
      </trkpt>
      <trkpt lat="45.86296" lon="6.09261">
        <ele>588</ele>
        <time>2016-05-02T10:56:39.047Z</time>
      </trkpt>
      <trkpt lat="45.86298" lon="6.09261">
        <ele>588</ele>
        <time>2016-05-02T10:56:40.047Z</time>
      </trkpt>
      <trkpt lat="45.863" lon="6.09261">
        <ele>588</ele>
        <time>2016-05-02T10:56:41.047Z</time>
      </trkpt>
      <trkpt lat="45.86302" lon="6.09261">
        <ele>588</ele>
        <time>2016-05-02T10:56:42.047Z</time>
      </trkpt>
      <trkpt lat="45.86304" lon="6.09261">
        <ele>587</ele>
        <time>2016-05-02T10:56:43.047Z</time>
      </trkpt>
      <trkpt lat="45.86306" lon="6.0926">
        <ele>587</ele>
        <time>2016-05-02T10:56:44.047Z</time>
      </trkpt>
      <trkpt lat="45.86309" lon="6.09259">
        <ele>587</ele>
        <time>2016-05-02T10:56:45.047Z</time>
      </trkpt>
      <trkpt lat="45.86311" lon="6.09259">
        <ele>587</ele>
        <time>2016-05-02T10:56:46.047Z</time>
      </trkpt>
      <trkpt lat="45.86313" lon="6.09259">
        <ele>587</ele>
        <time>2016-05-02T10:56:47.047Z</time>
      </trkpt>
      <trkpt lat="45.86316" lon="6.09259">
        <ele>587</ele>
        <time>2016-05-02T10:56:48.047Z</time>
      </trkpt>
      <trkpt lat="45.86319" lon="6.09259">
        <ele>586</ele>
        <time>2016-05-02T10:56:49.047Z</time>
      </trkpt>
      <trkpt lat="45.86322" lon="6.0926">
        <ele>586</ele>
        <time>2016-05-02T10:56:50.047Z</time>
      </trkpt>
      <trkpt lat="45.86325" lon="6.09262">
        <ele>586</ele>
        <time>2016-05-02T10:56:51.047Z</time>
      </trkpt>
      <trkpt lat="45.86328" lon="6.09264">
        <ele>585</ele>
        <time>2016-05-02T10:56:52.047Z</time>
      </trkpt>
      <trkpt lat="45.86331" lon="6.09266">
        <ele>585</ele>
        <time>2016-05-02T10:56:53.047Z</time>
      </trkpt>
      <trkpt lat="45.86334" lon="6.09268">
        <ele>584</ele>
        <time>2016-05-02T10:56:54.047Z</time>
      </trkpt>
      <trkpt lat="45.86337" lon="6.0927">
        <ele>584</ele>
        <time>2016-05-02T10:56:55.047Z</time>
      </trkpt>
      <trkpt lat="45.86339" lon="6.09273">
        <ele>584</ele>
        <time>2016-05-02T10:56:56.047Z</time>
      </trkpt>
      <trkpt lat="45.86342" lon="6.09276">
        <ele>583</ele>
        <time>2016-05-02T10:56:57.047Z</time>
      </trkpt>
      <trkpt lat="45.86344" lon="6.09279">
        <ele>583</ele>
        <time>2016-05-02T10:56:58.047Z</time>
      </trkpt>
      <trkpt lat="45.86346" lon="6.09282">
        <ele>582</ele>
        <time>2016-05-02T10:56:59.047Z</time>
      </trkpt>
      <trkpt lat="45.86348" lon="6.09286">
        <ele>582</ele>
        <time>2016-05-02T10:57:00.047Z</time>
      </trkpt>
      <trkpt lat="45.8635" lon="6.0929">
        <ele>582</ele>
        <time>2016-05-02T10:57:01.047Z</time>
      </trkpt>
      <trkpt lat="45.86352" lon="6.09293">
        <ele>582</ele>
        <time>2016-05-02T10:57:02.047Z</time>
      </trkpt>
      <trkpt lat="45.86354" lon="6.09295">
        <ele>581</ele>
        <time>2016-05-02T10:57:03.047Z</time>
      </trkpt>
      <trkpt lat="45.86356" lon="6.09298">
        <ele>581</ele>
        <time>2016-05-02T10:57:04.047Z</time>
      </trkpt>
      <trkpt lat="45.86358" lon="6.09302">
        <ele>581</ele>
        <time>2016-05-02T10:57:05.047Z</time>
      </trkpt>
      <trkpt lat="45.8636" lon="6.09305">
        <ele>581</ele>
        <time>2016-05-02T10:57:06.047Z</time>
      </trkpt>
      <trkpt lat="45.86362" lon="6.09309">
        <ele>581</ele>
        <time>2016-05-02T10:57:07.047Z</time>
      </trkpt>
      <trkpt lat="45.86364" lon="6.09313">
        <ele>581</ele>
        <time>2016-05-02T10:57:08.047Z</time>
      </trkpt>
      <trkpt lat="45.86366" lon="6.09316">
        <ele>581</ele>
        <time>2016-05-02T10:57:09.047Z</time>
      </trkpt>
      <trkpt lat="45.86368" lon="6.0932">
        <ele>580</ele>
        <time>2016-05-02T10:57:10.047Z</time>
      </trkpt>
      <trkpt lat="45.8637" lon="6.09323">
        <ele>580</ele>
        <time>2016-05-02T10:57:11.047Z</time>
      </trkpt>
      <trkpt lat="45.86372" lon="6.09326">
        <ele>580</ele>
        <time>2016-05-02T10:57:12.047Z</time>
      </trkpt>
      <trkpt lat="45.86374" lon="6.0933">
        <ele>580</ele>
        <time>2016-05-02T10:57:13.047Z</time>
      </trkpt>
      <trkpt lat="45.86376" lon="6.09334">
        <ele>580</ele>
        <time>2016-05-02T10:57:14.047Z</time>
      </trkpt>
      <trkpt lat="45.86377" lon="6.09337">
        <ele>580</ele>
        <time>2016-05-02T10:57:15.047Z</time>
      </trkpt>
      <trkpt lat="45.86379" lon="6.0934">
        <ele>580</ele>
        <time>2016-05-02T10:57:16.047Z</time>
      </trkpt>
      <trkpt lat="45.8638" lon="6.09343">
        <ele>580</ele>
        <time>2016-05-02T10:57:17.047Z</time>
      </trkpt>
      <trkpt lat="45.86382" lon="6.09346">
        <ele>580</ele>
        <time>2016-05-02T10:57:18.047Z</time>
      </trkpt>
      <trkpt lat="45.86384" lon="6.0935">
        <ele>580</ele>
        <time>2016-05-02T10:57:19.047Z</time>
      </trkpt>
      <trkpt lat="45.86386" lon="6.09354">
        <ele>579</ele>
        <time>2016-05-02T10:57:20.047Z</time>
      </trkpt>
      <trkpt lat="45.86388" lon="6.09357">
        <ele>579</ele>
        <time>2016-05-02T10:57:21.047Z</time>
      </trkpt>
      <trkpt lat="45.86389" lon="6.0936">
        <ele>579</ele>
        <time>2016-05-02T10:57:22.047Z</time>
      </trkpt>
      <trkpt lat="45.86391" lon="6.09364">
        <ele>579</ele>
        <time>2016-05-02T10:57:23.047Z</time>
      </trkpt>
      <trkpt lat="45.86393" lon="6.09367">
        <ele>579</ele>
        <time>2016-05-02T10:57:24.047Z</time>
      </trkpt>
      <trkpt lat="45.86394" lon="6.0937">
        <ele>578</ele>
        <time>2016-05-02T10:57:25.047Z</time>
      </trkpt>
      <trkpt lat="45.86395" lon="6.09373">
        <ele>578</ele>
        <time>2016-05-02T10:57:26.047Z</time>
      </trkpt>
      <trkpt lat="45.86396" lon="6.09376">
        <ele>578</ele>
        <time>2016-05-02T10:57:27.047Z</time>
      </trkpt>
      <trkpt lat="45.86397" lon="6.09379">
        <ele>578</ele>
        <time>2016-05-02T10:57:28.047Z</time>
      </trkpt>
      <trkpt lat="45.86398" lon="6.09382">
        <ele>578</ele>
        <time>2016-05-02T10:57:29.047Z</time>
      </trkpt>
      <trkpt lat="45.86399" lon="6.09386">
        <ele>577</ele>
        <time>2016-05-02T10:57:30.047Z</time>
      </trkpt>
      <trkpt lat="45.864" lon="6.09389">
        <ele>577</ele>
        <time>2016-05-02T10:57:31.047Z</time>
      </trkpt>
      <trkpt lat="45.86402" lon="6.09392">
        <ele>577</ele>
        <time>2016-05-02T10:57:32.047Z</time>
      </trkpt>
      <trkpt lat="45.86403" lon="6.09395">
        <ele>577</ele>
        <time>2016-05-02T10:57:33.047Z</time>
      </trkpt>
      <trkpt lat="45.86405" lon="6.09399">
        <ele>577</ele>
        <time>2016-05-02T10:57:34.047Z</time>
      </trkpt>
      <trkpt lat="45.86407" lon="6.09403">
        <ele>576</ele>
        <time>2016-05-02T10:57:35.047Z</time>
      </trkpt>
      <trkpt lat="45.86409" lon="6.09406">
        <ele>576</ele>
        <time>2016-05-02T10:57:36.047Z</time>
      </trkpt>
      <trkpt lat="45.8641" lon="6.09409">
        <ele>576</ele>
        <time>2016-05-02T10:57:37.047Z</time>
      </trkpt>
      <trkpt lat="45.86411" lon="6.09412">
        <ele>576</ele>
        <time>2016-05-02T10:57:38.047Z</time>
      </trkpt>
      <trkpt lat="45.86412" lon="6.09415">
        <ele>576</ele>
        <time>2016-05-02T10:57:39.047Z</time>
      </trkpt>
      <trkpt lat="45.86413" lon="6.09418">
        <ele>576</ele>
        <time>2016-05-02T10:57:40.047Z</time>
      </trkpt>
      <trkpt lat="45.86414" lon="6.09422">
        <ele>576</ele>
        <time>2016-05-02T10:57:41.047Z</time>
      </trkpt>
      <trkpt lat="45.86416" lon="6.09425">
        <ele>576</ele>
        <time>2016-05-02T10:57:42.047Z</time>
      </trkpt>
      <trkpt lat="45.86417" lon="6.09428">
        <ele>576</ele>
        <time>2016-05-02T10:57:43.047Z</time>
      </trkpt>
      <trkpt lat="45.86419" lon="6.09431">
        <ele>576</ele>
        <time>2016-05-02T10:57:44.047Z</time>
      </trkpt>
      <trkpt lat="45.8642" lon="6.09434">
        <ele>575</ele>
        <time>2016-05-02T10:57:45.047Z</time>
      </trkpt>
      <trkpt lat="45.86421" lon="6.09437">
        <ele>575</ele>
        <time>2016-05-02T10:57:46.047Z</time>
      </trkpt>
      <trkpt lat="45.86422" lon="6.09441">
        <ele>575</ele>
        <time>2016-05-02T10:57:47.047Z</time>
      </trkpt>
      <trkpt lat="45.86423" lon="6.09444">
        <ele>575</ele>
        <time>2016-05-02T10:57:48.047Z</time>
      </trkpt>
      <trkpt lat="45.86424" lon="6.09448">
        <ele>575</ele>
        <time>2016-05-02T10:57:49.047Z</time>
      </trkpt>
      <trkpt lat="45.86425" lon="6.09452">
        <ele>575</ele>
        <time>2016-05-02T10:57:50.047Z</time>
      </trkpt>
      <trkpt lat="45.86427" lon="6.09455">
        <ele>575</ele>
        <time>2016-05-02T10:57:51.047Z</time>
      </trkpt>
      <trkpt lat="45.86428" lon="6.09459">
        <ele>575</ele>
        <time>2016-05-02T10:57:52.047Z</time>
      </trkpt>
      <trkpt lat="45.8643" lon="6.09463">
        <ele>574</ele>
        <time>2016-05-02T10:57:53.047Z</time>
      </trkpt>
      <trkpt lat="45.86431" lon="6.09467">
        <ele>574</ele>
        <time>2016-05-02T10:57:54.047Z</time>
      </trkpt>
      <trkpt lat="45.86432" lon="6.09471">
        <ele>574</ele>
        <time>2016-05-02T10:57:55.047Z</time>
      </trkpt>
      <trkpt lat="45.86433" lon="6.09474">
        <ele>574</ele>
        <time>2016-05-02T10:57:56.047Z</time>
      </trkpt>
      <trkpt lat="45.86434" lon="6.09477">
        <ele>574</ele>
        <time>2016-05-02T10:57:57.047Z</time>
      </trkpt>
      <trkpt lat="45.86435" lon="6.09481">
        <ele>574</ele>
        <time>2016-05-02T10:57:58.047Z</time>
      </trkpt>
      <trkpt lat="45.86436" lon="6.09485">
        <ele>574</ele>
        <time>2016-05-02T10:57:59.047Z</time>
      </trkpt>
      <trkpt lat="45.86437" lon="6.09488">
        <ele>574</ele>
        <time>2016-05-02T10:58:00.047Z</time>
      </trkpt>
      <trkpt lat="45.86438" lon="6.09492">
        <ele>573</ele>
        <time>2016-05-02T10:58:01.047Z</time>
      </trkpt>
      <trkpt lat="45.8644" lon="6.09496">
        <ele>573</ele>
        <time>2016-05-02T10:58:02.047Z</time>
      </trkpt>
      <trkpt lat="45.86441" lon="6.095">
        <ele>573</ele>
        <time>2016-05-02T10:58:03.047Z</time>
      </trkpt>
      <trkpt lat="45.86443" lon="6.09503">
        <ele>573</ele>
        <time>2016-05-02T10:58:04.047Z</time>
      </trkpt>
      <trkpt lat="45.86445" lon="6.09506">
        <ele>573</ele>
        <time>2016-05-02T10:58:05.047Z</time>
      </trkpt>
      <trkpt lat="45.86446" lon="6.0951">
        <ele>573</ele>
        <time>2016-05-02T10:58:06.047Z</time>
      </trkpt>
      <trkpt lat="45.86447" lon="6.09513">
        <ele>573</ele>
        <time>2016-05-02T10:58:07.047Z</time>
      </trkpt>
      <trkpt lat="45.86449" lon="6.09516">
        <ele>573</ele>
        <time>2016-05-02T10:58:08.047Z</time>
      </trkpt>
      <trkpt lat="45.8645" lon="6.09519">
        <ele>573</ele>
        <time>2016-05-02T10:58:09.047Z</time>
      </trkpt>
      <trkpt lat="45.86452" lon="6.09523">
        <ele>573</ele>
        <time>2016-05-02T10:58:10.047Z</time>
      </trkpt>
      <trkpt lat="45.86453" lon="6.09526">
        <ele>572</ele>
        <time>2016-05-02T10:58:11.047Z</time>
      </trkpt>
      <trkpt lat="45.86454" lon="6.0953">
        <ele>572</ele>
        <time>2016-05-02T10:58:12.047Z</time>
      </trkpt>
      <trkpt lat="45.86456" lon="6.09534">
        <ele>572</ele>
        <time>2016-05-02T10:58:13.047Z</time>
      </trkpt>
      <trkpt lat="45.86457" lon="6.09538">
        <ele>572</ele>
        <time>2016-05-02T10:58:14.047Z</time>
      </trkpt>
      <trkpt lat="45.86459" lon="6.09541">
        <ele>572</ele>
        <time>2016-05-02T10:58:15.047Z</time>
      </trkpt>
      <trkpt lat="45.86461" lon="6.09544">
        <ele>572</ele>
        <time>2016-05-02T10:58:16.047Z</time>
      </trkpt>
      <trkpt lat="45.86463" lon="6.09548">
        <ele>572</ele>
        <time>2016-05-02T10:58:17.047Z</time>
      </trkpt>
      <trkpt lat="45.86465" lon="6.09552">
        <ele>572</ele>
        <time>2016-05-02T10:58:18.047Z</time>
      </trkpt>
      <trkpt lat="45.86466" lon="6.09555">
        <ele>572</ele>
        <time>2016-05-02T10:58:19.047Z</time>
      </trkpt>
      <trkpt lat="45.86469" lon="6.09558">
        <ele>571</ele>
        <time>2016-05-02T10:58:20.047Z</time>
      </trkpt>
      <trkpt lat="45.86471" lon="6.0956">
        <ele>571</ele>
        <time>2016-05-02T10:58:21.047Z</time>
      </trkpt>
      <trkpt lat="45.86474" lon="6.09561">
        <ele>571</ele>
        <time>2016-05-02T10:58:22.047Z</time>
      </trkpt>
      <trkpt lat="45.86477" lon="6.09561">
        <ele>571</ele>
        <time>2016-05-02T10:58:23.047Z</time>
      </trkpt>
      <trkpt lat="45.8648" lon="6.0956">
        <ele>571</ele>
        <time>2016-05-02T10:58:24.047Z</time>
      </trkpt>
      <trkpt lat="45.86482" lon="6.09559">
        <ele>570</ele>
        <time>2016-05-02T10:58:25.047Z</time>
      </trkpt>
      <trkpt lat="45.86485" lon="6.09557">
        <ele>570</ele>
        <time>2016-05-02T10:58:26.047Z</time>
      </trkpt>
      <trkpt lat="45.86487" lon="6.09555">
        <ele>570</ele>
        <time>2016-05-02T10:58:27.047Z</time>
      </trkpt>
      <trkpt lat="45.86489" lon="6.09553">
        <ele>570</ele>
        <time>2016-05-02T10:58:28.047Z</time>
      </trkpt>
      <trkpt lat="45.86491" lon="6.0955">
        <ele>570</ele>
        <time>2016-05-02T10:58:29.047Z</time>
      </trkpt>
      <trkpt lat="45.86492" lon="6.09548">
        <ele>570</ele>
        <time>2016-05-02T10:58:30.047Z</time>
      </trkpt>
      <trkpt lat="45.86494" lon="6.09545">
        <ele>569</ele>
        <time>2016-05-02T10:58:31.047Z</time>
      </trkpt>
      <trkpt lat="45.86496" lon="6.09543">
        <ele>569</ele>
        <time>2016-05-02T10:58:32.047Z</time>
      </trkpt>
      <trkpt lat="45.86497" lon="6.09541">
        <ele>569</ele>
        <time>2016-05-02T10:58:33.047Z</time>
      </trkpt>
      <trkpt lat="45.86499" lon="6.09538">
        <ele>569</ele>
        <time>2016-05-02T10:58:34.047Z</time>
      </trkpt>
      <trkpt lat="45.86501" lon="6.09535">
        <ele>569</ele>
        <time>2016-05-02T10:58:35.047Z</time>
      </trkpt>
      <trkpt lat="45.86502" lon="6.09533">
        <ele>569</ele>
        <time>2016-05-02T10:58:36.047Z</time>
      </trkpt>
      <trkpt lat="45.86504" lon="6.0953">
        <ele>569</ele>
        <time>2016-05-02T10:58:37.047Z</time>
      </trkpt>
      <trkpt lat="45.86506" lon="6.09527">
        <ele>569</ele>
        <time>2016-05-02T10:58:38.047Z</time>
      </trkpt>
      <trkpt lat="45.86507" lon="6.09524">
        <ele>569</ele>
        <time>2016-05-02T10:58:39.047Z</time>
      </trkpt>
      <trkpt lat="45.86508" lon="6.09522">
        <ele>569</ele>
        <time>2016-05-02T10:58:40.047Z</time>
      </trkpt>
      <trkpt lat="45.8651" lon="6.0952">
        <ele>569</ele>
        <time>2016-05-02T10:58:41.047Z</time>
      </trkpt>
      <trkpt lat="45.86511" lon="6.09518">
        <ele>569</ele>
        <time>2016-05-02T10:58:42.047Z</time>
      </trkpt>
      <trkpt lat="45.86513" lon="6.09515">
        <ele>569</ele>
        <time>2016-05-02T10:58:43.047Z</time>
      </trkpt>
      <trkpt lat="45.86514" lon="6.09513">
        <ele>569</ele>
        <time>2016-05-02T10:58:44.047Z</time>
      </trkpt>
      <trkpt lat="45.86515" lon="6.0951">
        <ele>569</ele>
        <time>2016-05-02T10:58:45.047Z</time>
      </trkpt>
      <trkpt lat="45.86517" lon="6.09508">
        <ele>569</ele>
        <time>2016-05-02T10:58:46.047Z</time>
      </trkpt>
      <trkpt lat="45.86518" lon="6.09505">
        <ele>569</ele>
        <time>2016-05-02T10:58:47.047Z</time>
      </trkpt>
      <trkpt lat="45.8652" lon="6.09503">
        <ele>569</ele>
        <time>2016-05-02T10:58:48.047Z</time>
      </trkpt>
      <trkpt lat="45.86521" lon="6.09501">
        <ele>569</ele>
        <time>2016-05-02T10:58:49.047Z</time>
      </trkpt>
      <trkpt lat="45.86522" lon="6.09499">
        <ele>569</ele>
        <time>2016-05-02T10:58:50.047Z</time>
      </trkpt>
      <trkpt lat="45.86524" lon="6.09496">
        <ele>569</ele>
        <time>2016-05-02T10:58:51.047Z</time>
      </trkpt>
      <trkpt lat="45.86525" lon="6.09493">
        <ele>569</ele>
        <time>2016-05-02T10:58:52.047Z</time>
      </trkpt>
      <trkpt lat="45.86526" lon="6.09491">
        <ele>569</ele>
        <time>2016-05-02T10:58:53.047Z</time>
      </trkpt>
      <trkpt lat="45.86527" lon="6.09488">
        <ele>569</ele>
        <time>2016-05-02T10:58:54.047Z</time>
      </trkpt>
      <trkpt lat="45.86529" lon="6.09486">
        <ele>569</ele>
        <time>2016-05-02T10:58:55.047Z</time>
      </trkpt>
      <trkpt lat="45.8653" lon="6.09484">
        <ele>569</ele>
        <time>2016-05-02T10:58:56.047Z</time>
      </trkpt>
      <trkpt lat="45.86531" lon="6.09481">
        <ele>569</ele>
        <time>2016-05-02T10:58:57.047Z</time>
      </trkpt>
      <trkpt lat="45.86532" lon="6.09478">
        <ele>569</ele>
        <time>2016-05-02T10:58:58.047Z</time>
      </trkpt>
      <trkpt lat="45.86533" lon="6.09476">
        <ele>569</ele>
        <time>2016-05-02T10:58:59.047Z</time>
      </trkpt>
      <trkpt lat="45.86534" lon="6.09473">
        <ele>569</ele>
        <time>2016-05-02T10:59:00.047Z</time>
      </trkpt>
      <trkpt lat="45.86536" lon="6.09471">
        <ele>569</ele>
        <time>2016-05-02T10:59:01.047Z</time>
      </trkpt>
      <trkpt lat="45.86537" lon="6.09468">
        <ele>570</ele>
        <time>2016-05-02T10:59:02.047Z</time>
      </trkpt>
      <trkpt lat="45.86538" lon="6.09466">
        <ele>570</ele>
        <time>2016-05-02T10:59:03.047Z</time>
      </trkpt>
      <trkpt lat="45.86539" lon="6.09463">
        <ele>570</ele>
        <time>2016-05-02T10:59:04.047Z</time>
      </trkpt>
      <trkpt lat="45.86541" lon="6.09461">
        <ele>570</ele>
        <time>2016-05-02T10:59:05.047Z</time>
      </trkpt>
      <trkpt lat="45.86542" lon="6.09459">
        <ele>570</ele>
        <time>2016-05-02T10:59:06.047Z</time>
      </trkpt>
      <trkpt lat="45.86544" lon="6.09456">
        <ele>570</ele>
        <time>2016-05-02T10:59:07.047Z</time>
      </trkpt>
      <trkpt lat="45.86545" lon="6.09454">
        <ele>570</ele>
        <time>2016-05-02T10:59:08.047Z</time>
      </trkpt>
      <trkpt lat="45.86546" lon="6.09451">
        <ele>570</ele>
        <time>2016-05-02T10:59:09.047Z</time>
      </trkpt>
      <trkpt lat="45.86548" lon="6.09449">
        <ele>570</ele>
        <time>2016-05-02T10:59:10.047Z</time>
      </trkpt>
      <trkpt lat="45.86549" lon="6.09446">
        <ele>570</ele>
        <time>2016-05-02T10:59:11.047Z</time>
      </trkpt>
      <trkpt lat="45.8655" lon="6.09443">
        <ele>570</ele>
        <time>2016-05-02T10:59:12.047Z</time>
      </trkpt>
      <trkpt lat="45.86552" lon="6.0944">
        <ele>570</ele>
        <time>2016-05-02T10:59:13.047Z</time>
      </trkpt>
      <trkpt lat="45.86553" lon="6.09438">
        <ele>571</ele>
        <time>2016-05-02T10:59:14.047Z</time>
      </trkpt>
      <trkpt lat="45.86554" lon="6.09435">
        <ele>571</ele>
        <time>2016-05-02T10:59:15.047Z</time>
      </trkpt>
      <trkpt lat="45.86556" lon="6.09432">
        <ele>571</ele>
        <time>2016-05-02T10:59:16.047Z</time>
      </trkpt>
      <trkpt lat="45.86557" lon="6.09429">
        <ele>571</ele>
        <time>2016-05-02T10:59:17.047Z</time>
      </trkpt>
      <trkpt lat="45.86559" lon="6.09426">
        <ele>572</ele>
        <time>2016-05-02T10:59:18.047Z</time>
      </trkpt>
      <trkpt lat="45.8656" lon="6.09423">
        <ele>572</ele>
        <time>2016-05-02T10:59:19.047Z</time>
      </trkpt>
      <trkpt lat="45.86561" lon="6.0942">
        <ele>572</ele>
        <time>2016-05-02T10:59:20.047Z</time>
      </trkpt>
      <trkpt lat="45.86563" lon="6.09417">
        <ele>573</ele>
        <time>2016-05-02T10:59:21.047Z</time>
      </trkpt>
      <trkpt lat="45.86564" lon="6.09415">
        <ele>573</ele>
        <time>2016-05-02T10:59:22.047Z</time>
      </trkpt>
      <trkpt lat="45.86566" lon="6.09412">
        <ele>573</ele>
        <time>2016-05-02T10:59:23.047Z</time>
      </trkpt>
      <trkpt lat="45.86567" lon="6.09409">
        <ele>574</ele>
        <time>2016-05-02T10:59:24.047Z</time>
      </trkpt>
      <trkpt lat="45.86568" lon="6.09406">
        <ele>574</ele>
        <time>2016-05-02T10:59:25.047Z</time>
      </trkpt>
      <trkpt lat="45.8657" lon="6.09403">
        <ele>574</ele>
        <time>2016-05-02T10:59:26.047Z</time>
      </trkpt>
      <trkpt lat="45.86571" lon="6.094">
        <ele>574</ele>
        <time>2016-05-02T10:59:27.047Z</time>
      </trkpt>
      <trkpt lat="45.86572" lon="6.09398">
        <ele>575</ele>
        <time>2016-05-02T10:59:28.047Z</time>
      </trkpt>
      <trkpt lat="45.86573" lon="6.09395">
        <ele>575</ele>
        <time>2016-05-02T10:59:29.047Z</time>
      </trkpt>
      <trkpt lat="45.86574" lon="6.09393">
        <ele>575</ele>
        <time>2016-05-02T10:59:30.047Z</time>
      </trkpt>
      <trkpt lat="45.86576" lon="6.0939">
        <ele>575</ele>
        <time>2016-05-02T10:59:31.047Z</time>
      </trkpt>
      <trkpt lat="45.86577" lon="6.09388">
        <ele>576</ele>
        <time>2016-05-02T10:59:32.047Z</time>
      </trkpt>
      <trkpt lat="45.86579" lon="6.09386">
        <ele>576</ele>
        <time>2016-05-02T10:59:33.047Z</time>
      </trkpt>
      <trkpt lat="45.8658" lon="6.09384">
        <ele>576</ele>
        <time>2016-05-02T10:59:34.047Z</time>
      </trkpt>
      <trkpt lat="45.86582" lon="6.09383">
        <ele>576</ele>
        <time>2016-05-02T10:59:35.047Z</time>
      </trkpt>
      <trkpt lat="45.86584" lon="6.09382">
        <ele>576</ele>
        <time>2016-05-02T10:59:36.047Z</time>
      </trkpt>
      <trkpt lat="45.86586" lon="6.09383">
        <ele>576</ele>
        <time>2016-05-02T10:59:37.047Z</time>
      </trkpt>
      <trkpt lat="45.86588" lon="6.09384">
        <ele>576</ele>
        <time>2016-05-02T10:59:38.047Z</time>
      </trkpt>
      <trkpt lat="45.8659" lon="6.09385">
        <ele>577</ele>
        <time>2016-05-02T10:59:39.047Z</time>
      </trkpt>
      <trkpt lat="45.86592" lon="6.09387">
        <ele>577</ele>
        <time>2016-05-02T10:59:40.047Z</time>
      </trkpt>
      <trkpt lat="45.86594" lon="6.09388">
        <ele>577</ele>
        <time>2016-05-02T10:59:41.047Z</time>
      </trkpt>
      <trkpt lat="45.86597" lon="6.0939">
        <ele>577</ele>
        <time>2016-05-02T10:59:42.047Z</time>
      </trkpt>
      <trkpt lat="45.86599" lon="6.09392">
        <ele>577</ele>
        <time>2016-05-02T10:59:43.047Z</time>
      </trkpt>
      <trkpt lat="45.86602" lon="6.09394">
        <ele>577</ele>
        <time>2016-05-02T10:59:44.047Z</time>
      </trkpt>
      <trkpt lat="45.86604" lon="6.09396">
        <ele>577</ele>
        <time>2016-05-02T10:59:45.047Z</time>
      </trkpt>
      <trkpt lat="45.86606" lon="6.09398">
        <ele>577</ele>
        <time>2016-05-02T10:59:46.047Z</time>
      </trkpt>
      <trkpt lat="45.86609" lon="6.094">
        <ele>577</ele>
        <time>2016-05-02T10:59:47.047Z</time>
      </trkpt>
      <trkpt lat="45.86611" lon="6.09401">
        <ele>577</ele>
        <time>2016-05-02T10:59:48.047Z</time>
      </trkpt>
      <trkpt lat="45.86613" lon="6.09403">
        <ele>577</ele>
        <time>2016-05-02T10:59:49.047Z</time>
      </trkpt>
      <trkpt lat="45.86616" lon="6.09404">
        <ele>578</ele>
        <time>2016-05-02T10:59:50.047Z</time>
      </trkpt>
      <trkpt lat="45.86618" lon="6.09406">
        <ele>578</ele>
        <time>2016-05-02T10:59:51.047Z</time>
      </trkpt>
      <trkpt lat="45.8662" lon="6.09408">
        <ele>578</ele>
        <time>2016-05-02T10:59:52.047Z</time>
      </trkpt>
      <trkpt lat="45.86623" lon="6.0941">
        <ele>578</ele>
        <time>2016-05-02T10:59:53.047Z</time>
      </trkpt>
      <trkpt lat="45.86625" lon="6.09412">
        <ele>578</ele>
        <time>2016-05-02T10:59:54.047Z</time>
      </trkpt>
      <trkpt lat="45.86627" lon="6.09414">
        <ele>578</ele>
        <time>2016-05-02T10:59:55.047Z</time>
      </trkpt>
      <trkpt lat="45.86629" lon="6.09416">
        <ele>578</ele>
        <time>2016-05-02T10:59:56.047Z</time>
      </trkpt>
      <trkpt lat="45.86631" lon="6.09418">
        <ele>578</ele>
        <time>2016-05-02T10:59:57.047Z</time>
      </trkpt>
      <trkpt lat="45.86633" lon="6.09419">
        <ele>578</ele>
        <time>2016-05-02T10:59:58.047Z</time>
      </trkpt>
      <trkpt lat="45.86635" lon="6.09421">
        <ele>577</ele>
        <time>2016-05-02T10:59:59.047Z</time>
      </trkpt>
      <trkpt lat="45.86637" lon="6.09422">
        <ele>577</ele>
        <time>2016-05-02T11:00:00.047Z</time>
      </trkpt>
      <trkpt lat="45.8664" lon="6.09424">
        <ele>577</ele>
        <time>2016-05-02T11:00:01.047Z</time>
      </trkpt>
      <trkpt lat="45.86642" lon="6.09426">
        <ele>577</ele>
        <time>2016-05-02T11:00:02.047Z</time>
      </trkpt>
      <trkpt lat="45.86645" lon="6.09427">
        <ele>577</ele>
        <time>2016-05-02T11:00:03.047Z</time>
      </trkpt>
      <trkpt lat="45.86647" lon="6.09429">
        <ele>577</ele>
        <time>2016-05-02T11:00:04.047Z</time>
      </trkpt>
      <trkpt lat="45.8665" lon="6.09431">
        <ele>577</ele>
        <time>2016-05-02T11:00:05.047Z</time>
      </trkpt>
      <trkpt lat="45.86652" lon="6.09432">
        <ele>577</ele>
        <time>2016-05-02T11:00:06.047Z</time>
      </trkpt>
      <trkpt lat="45.86655" lon="6.09434">
        <ele>577</ele>
        <time>2016-05-02T11:00:07.047Z</time>
      </trkpt>
      <trkpt lat="45.86657" lon="6.09436">
        <ele>577</ele>
        <time>2016-05-02T11:00:08.047Z</time>
      </trkpt>
      <trkpt lat="45.8666" lon="6.09438">
        <ele>577</ele>
        <time>2016-05-02T11:00:09.047Z</time>
      </trkpt>
      <trkpt lat="45.86662" lon="6.0944">
        <ele>577</ele>
        <time>2016-05-02T11:00:10.047Z</time>
      </trkpt>
      <trkpt lat="45.86665" lon="6.09441">
        <ele>577</ele>
        <time>2016-05-02T11:00:11.047Z</time>
      </trkpt>
      <trkpt lat="45.86668" lon="6.09443">
        <ele>577</ele>
        <time>2016-05-02T11:00:12.047Z</time>
      </trkpt>
      <trkpt lat="45.8667" lon="6.09445">
        <ele>577</ele>
        <time>2016-05-02T11:00:13.047Z</time>
      </trkpt>
      <trkpt lat="45.86673" lon="6.09447">
        <ele>577</ele>
        <time>2016-05-02T11:00:14.047Z</time>
      </trkpt>
      <trkpt lat="45.86675" lon="6.09448">
        <ele>577</ele>
        <time>2016-05-02T11:00:15.047Z</time>
      </trkpt>
      <trkpt lat="45.86677" lon="6.0945">
        <ele>577</ele>
        <time>2016-05-02T11:00:16.047Z</time>
      </trkpt>
      <trkpt lat="45.86679" lon="6.09451">
        <ele>577</ele>
        <time>2016-05-02T11:00:17.047Z</time>
      </trkpt>
      <trkpt lat="45.86681" lon="6.09451">
        <ele>577</ele>
        <time>2016-05-02T11:00:18.047Z</time>
      </trkpt>
      <trkpt lat="45.86683" lon="6.09451">
        <ele>577</ele>
        <time>2016-05-02T11:00:19.047Z</time>
      </trkpt>
      <trkpt lat="45.86685" lon="6.09451">
        <ele>577</ele>
        <time>2016-05-02T11:00:20.047Z</time>
      </trkpt>
      <trkpt lat="45.86687" lon="6.09452">
        <ele>577</ele>
        <time>2016-05-02T11:00:21.047Z</time>
      </trkpt>
      <trkpt lat="45.8669" lon="6.09451">
        <ele>577</ele>
        <time>2016-05-02T11:00:22.047Z</time>
      </trkpt>
      <trkpt lat="45.86692" lon="6.09451">
        <ele>577</ele>
        <time>2016-05-02T11:00:23.047Z</time>
      </trkpt>
      <trkpt lat="45.86695" lon="6.09451">
        <ele>576</ele>
        <time>2016-05-02T11:00:24.047Z</time>
      </trkpt>
      <trkpt lat="45.86698" lon="6.0945">
        <ele>576</ele>
        <time>2016-05-02T11:00:25.047Z</time>
      </trkpt>
      <trkpt lat="45.867" lon="6.09449">
        <ele>576</ele>
        <time>2016-05-02T11:00:26.047Z</time>
      </trkpt>
      <trkpt lat="45.86703" lon="6.09447">
        <ele>576</ele>
        <time>2016-05-02T11:00:27.047Z</time>
      </trkpt>
      <trkpt lat="45.86704" lon="6.09444">
        <ele>576</ele>
        <time>2016-05-02T11:00:28.047Z</time>
      </trkpt>
      <trkpt lat="45.86706" lon="6.09441">
        <ele>576</ele>
        <time>2016-05-02T11:00:29.047Z</time>
      </trkpt>
      <trkpt lat="45.86707" lon="6.09438">
        <ele>576</ele>
        <time>2016-05-02T11:00:30.047Z</time>
      </trkpt>
      <trkpt lat="45.86709" lon="6.09434">
        <ele>576</ele>
        <time>2016-05-02T11:00:31.047Z</time>
      </trkpt>
      <trkpt lat="45.8671" lon="6.09431">
        <ele>576</ele>
        <time>2016-05-02T11:00:32.047Z</time>
      </trkpt>
      <trkpt lat="45.86711" lon="6.09427">
        <ele>576</ele>
        <time>2016-05-02T11:00:33.047Z</time>
      </trkpt>
      <trkpt lat="45.86712" lon="6.09424">
        <ele>576</ele>
        <time>2016-05-02T11:00:34.047Z</time>
      </trkpt>
      <trkpt lat="45.86713" lon="6.0942">
        <ele>576</ele>
        <time>2016-05-02T11:00:35.047Z</time>
      </trkpt>
      <trkpt lat="45.86714" lon="6.09416">
        <ele>577</ele>
        <time>2016-05-02T11:00:36.047Z</time>
      </trkpt>
      <trkpt lat="45.86715" lon="6.09413">
        <ele>577</ele>
        <time>2016-05-02T11:00:37.047Z</time>
      </trkpt>
      <trkpt lat="45.86716" lon="6.09409">
        <ele>577</ele>
        <time>2016-05-02T11:00:38.047Z</time>
      </trkpt>
      <trkpt lat="45.86717" lon="6.09405">
        <ele>577</ele>
        <time>2016-05-02T11:00:39.047Z</time>
      </trkpt>
      <trkpt lat="45.86718" lon="6.09401">
        <ele>577</ele>
        <time>2016-05-02T11:00:40.047Z</time>
      </trkpt>
      <trkpt lat="45.86719" lon="6.09398">
        <ele>577</ele>
        <time>2016-05-02T11:00:41.047Z</time>
      </trkpt>
      <trkpt lat="45.8672" lon="6.09394">
        <ele>578</ele>
        <time>2016-05-02T11:00:42.047Z</time>
      </trkpt>
      <trkpt lat="45.86721" lon="6.0939">
        <ele>578</ele>
        <time>2016-05-02T11:00:43.047Z</time>
      </trkpt>
      <trkpt lat="45.86722" lon="6.09386">
        <ele>578</ele>
        <time>2016-05-02T11:00:44.047Z</time>
      </trkpt>
      <trkpt lat="45.86724" lon="6.09383">
        <ele>578</ele>
        <time>2016-05-02T11:00:45.047Z</time>
      </trkpt>
      <trkpt lat="45.86725" lon="6.0938">
        <ele>578</ele>
        <time>2016-05-02T11:00:46.047Z</time>
      </trkpt>
      <trkpt lat="45.86726" lon="6.09376">
        <ele>578</ele>
        <time>2016-05-02T11:00:47.047Z</time>
      </trkpt>
      <trkpt lat="45.86727" lon="6.09372">
        <ele>579</ele>
        <time>2016-05-02T11:00:48.047Z</time>
      </trkpt>
      <trkpt lat="45.86728" lon="6.09369">
        <ele>579</ele>
        <time>2016-05-02T11:00:49.047Z</time>
      </trkpt>
      <trkpt lat="45.86729" lon="6.09365">
        <ele>579</ele>
        <time>2016-05-02T11:00:50.047Z</time>
      </trkpt>
      <trkpt lat="45.8673" lon="6.09361">
        <ele>579</ele>
        <time>2016-05-02T11:00:51.047Z</time>
      </trkpt>
      <trkpt lat="45.86731" lon="6.09357">
        <ele>579</ele>
        <time>2016-05-02T11:00:52.047Z</time>
      </trkpt>
      <trkpt lat="45.86733" lon="6.09354">
        <ele>579</ele>
        <time>2016-05-02T11:00:53.047Z</time>
      </trkpt>
      <trkpt lat="45.86734" lon="6.09351">
        <ele>579</ele>
        <time>2016-05-02T11:00:54.047Z</time>
      </trkpt>
      <trkpt lat="45.86736" lon="6.09347">
        <ele>579</ele>
        <time>2016-05-02T11:00:55.047Z</time>
      </trkpt>
      <trkpt lat="45.86738" lon="6.09344">
        <ele>579</ele>
        <time>2016-05-02T11:00:56.047Z</time>
      </trkpt>
      <trkpt lat="45.8674" lon="6.0934">
        <ele>579</ele>
        <time>2016-05-02T11:00:57.047Z</time>
      </trkpt>
      <trkpt lat="45.86741" lon="6.09337">
        <ele>579</ele>
        <time>2016-05-02T11:00:58.047Z</time>
      </trkpt>
      <trkpt lat="45.86743" lon="6.09334">
        <ele>579</ele>
        <time>2016-05-02T11:00:59.047Z</time>
      </trkpt>
      <trkpt lat="45.86745" lon="6.09331">
        <ele>579</ele>
        <time>2016-05-02T11:01:00.047Z</time>
      </trkpt>
      <trkpt lat="45.86747" lon="6.09327">
        <ele>579</ele>
        <time>2016-05-02T11:01:01.047Z</time>
      </trkpt>
      <trkpt lat="45.86748" lon="6.09324">
        <ele>579</ele>
        <time>2016-05-02T11:01:02.047Z</time>
      </trkpt>
      <trkpt lat="45.8675" lon="6.09321">
        <ele>579</ele>
        <time>2016-05-02T11:01:03.047Z</time>
      </trkpt>
      <trkpt lat="45.86752" lon="6.09318">
        <ele>579</ele>
        <time>2016-05-02T11:01:04.047Z</time>
      </trkpt>
      <trkpt lat="45.86754" lon="6.09315">
        <ele>579</ele>
        <time>2016-05-02T11:01:05.047Z</time>
      </trkpt>
      <trkpt lat="45.86756" lon="6.09312">
        <ele>579</ele>
        <time>2016-05-02T11:01:06.047Z</time>
      </trkpt>
      <trkpt lat="45.86758" lon="6.09309">
        <ele>579</ele>
        <time>2016-05-02T11:01:07.047Z</time>
      </trkpt>
      <trkpt lat="45.8676" lon="6.09306">
        <ele>579</ele>
        <time>2016-05-02T11:01:08.047Z</time>
      </trkpt>
      <trkpt lat="45.86762" lon="6.09303">
        <ele>579</ele>
        <time>2016-05-02T11:01:09.047Z</time>
      </trkpt>
      <trkpt lat="45.86764" lon="6.093">
        <ele>579</ele>
        <time>2016-05-02T11:01:10.047Z</time>
      </trkpt>
      <trkpt lat="45.86766" lon="6.09296">
        <ele>579</ele>
        <time>2016-05-02T11:01:11.047Z</time>
      </trkpt>
      <trkpt lat="45.86768" lon="6.09293">
        <ele>579</ele>
        <time>2016-05-02T11:01:12.047Z</time>
      </trkpt>
      <trkpt lat="45.8677" lon="6.0929">
        <ele>578</ele>
        <time>2016-05-02T11:01:13.047Z</time>
      </trkpt>
      <trkpt lat="45.86772" lon="6.09287">
        <ele>578</ele>
        <time>2016-05-02T11:01:14.047Z</time>
      </trkpt>
      <trkpt lat="45.86773" lon="6.09284">
        <ele>578</ele>
        <time>2016-05-02T11:01:15.047Z</time>
      </trkpt>
      <trkpt lat="45.86776" lon="6.09281">
        <ele>578</ele>
        <time>2016-05-02T11:01:16.047Z</time>
      </trkpt>
      <trkpt lat="45.86778" lon="6.09278">
        <ele>578</ele>
        <time>2016-05-02T11:01:17.047Z</time>
      </trkpt>
      <trkpt lat="45.8678" lon="6.09275">
        <ele>578</ele>
        <time>2016-05-02T11:01:18.047Z</time>
      </trkpt>
      <trkpt lat="45.86782" lon="6.09273">
        <ele>578</ele>
        <time>2016-05-02T11:01:19.047Z</time>
      </trkpt>
      <trkpt lat="45.86784" lon="6.0927">
        <ele>578</ele>
        <time>2016-05-02T11:01:20.047Z</time>
      </trkpt>
      <trkpt lat="45.86786" lon="6.09267">
        <ele>578</ele>
        <time>2016-05-02T11:01:21.047Z</time>
      </trkpt>
      <trkpt lat="45.86788" lon="6.09264">
        <ele>578</ele>
        <time>2016-05-02T11:01:22.047Z</time>
      </trkpt>
      <trkpt lat="45.8679" lon="6.09261">
        <ele>578</ele>
        <time>2016-05-02T11:01:23.047Z</time>
      </trkpt>
      <trkpt lat="45.86792" lon="6.09257">
        <ele>578</ele>
        <time>2016-05-02T11:01:24.047Z</time>
      </trkpt>
      <trkpt lat="45.86794" lon="6.09255">
        <ele>578</ele>
        <time>2016-05-02T11:01:25.047Z</time>
      </trkpt>
      <trkpt lat="45.86796" lon="6.09252">
        <ele>578</ele>
        <time>2016-05-02T11:01:26.047Z</time>
      </trkpt>
      <trkpt lat="45.86798" lon="6.09248">
        <ele>578</ele>
        <time>2016-05-02T11:01:27.047Z</time>
      </trkpt>
      <trkpt lat="45.86799" lon="6.09245">
        <ele>578</ele>
        <time>2016-05-02T11:01:28.047Z</time>
      </trkpt>
      <trkpt lat="45.86801" lon="6.09242">
        <ele>578</ele>
        <time>2016-05-02T11:01:29.047Z</time>
      </trkpt>
      <trkpt lat="45.86803" lon="6.09239">
        <ele>578</ele>
        <time>2016-05-02T11:01:30.047Z</time>
      </trkpt>
      <trkpt lat="45.86805" lon="6.09236">
        <ele>578</ele>
        <time>2016-05-02T11:01:31.047Z</time>
      </trkpt>
      <trkpt lat="45.86807" lon="6.09233">
        <ele>578</ele>
        <time>2016-05-02T11:01:32.047Z</time>
      </trkpt>
      <trkpt lat="45.86809" lon="6.09231">
        <ele>578</ele>
        <time>2016-05-02T11:01:33.047Z</time>
      </trkpt>
      <trkpt lat="45.86811" lon="6.09228">
        <ele>578</ele>
        <time>2016-05-02T11:01:34.047Z</time>
      </trkpt>
      <trkpt lat="45.86813" lon="6.09225">
        <ele>578</ele>
        <time>2016-05-02T11:01:35.047Z</time>
      </trkpt>
      <trkpt lat="45.86815" lon="6.09222">
        <ele>578</ele>
        <time>2016-05-02T11:01:36.047Z</time>
      </trkpt>
      <trkpt lat="45.86816" lon="6.09219">
        <ele>578</ele>
        <time>2016-05-02T11:01:37.047Z</time>
      </trkpt>
      <trkpt lat="45.86818" lon="6.09216">
        <ele>578</ele>
        <time>2016-05-02T11:01:38.047Z</time>
      </trkpt>
      <trkpt lat="45.8682" lon="6.09213">
        <ele>578</ele>
        <time>2016-05-02T11:01:39.047Z</time>
      </trkpt>
      <trkpt lat="45.86822" lon="6.0921">
        <ele>578</ele>
        <time>2016-05-02T11:01:40.047Z</time>
      </trkpt>
      <trkpt lat="45.86823" lon="6.09207">
        <ele>578</ele>
        <time>2016-05-02T11:01:41.047Z</time>
      </trkpt>
      <trkpt lat="45.86826" lon="6.09205">
        <ele>578</ele>
        <time>2016-05-02T11:01:42.047Z</time>
      </trkpt>
      <trkpt lat="45.86828" lon="6.09204">
        <ele>578</ele>
        <time>2016-05-02T11:01:43.047Z</time>
      </trkpt>
      <trkpt lat="45.8683" lon="6.09202">
        <ele>578</ele>
        <time>2016-05-02T11:01:44.047Z</time>
      </trkpt>
      <trkpt lat="45.86833" lon="6.09201">
        <ele>578</ele>
        <time>2016-05-02T11:01:45.047Z</time>
      </trkpt>
      <trkpt lat="45.86836" lon="6.092">
        <ele>578</ele>
        <time>2016-05-02T11:01:46.047Z</time>
      </trkpt>
      <trkpt lat="45.86839" lon="6.092">
        <ele>578</ele>
        <time>2016-05-02T11:01:47.047Z</time>
      </trkpt>
      <trkpt lat="45.86842" lon="6.09199">
        <ele>578</ele>
        <time>2016-05-02T11:01:48.047Z</time>
      </trkpt>
      <trkpt lat="45.86845" lon="6.09199">
        <ele>578</ele>
        <time>2016-05-02T11:01:49.047Z</time>
      </trkpt>
      <trkpt lat="45.86848" lon="6.09199">
        <ele>578</ele>
        <time>2016-05-02T11:01:50.047Z</time>
      </trkpt>
      <trkpt lat="45.86851" lon="6.092">
        <ele>578</ele>
        <time>2016-05-02T11:01:51.047Z</time>
      </trkpt>
      <trkpt lat="45.86854" lon="6.092">
        <ele>578</ele>
        <time>2016-05-02T11:01:52.047Z</time>
      </trkpt>
      <trkpt lat="45.86856" lon="6.09201">
        <ele>578</ele>
        <time>2016-05-02T11:01:53.047Z</time>
      </trkpt>
      <trkpt lat="45.86859" lon="6.09202">
        <ele>578</ele>
        <time>2016-05-02T11:01:54.047Z</time>
      </trkpt>
      <trkpt lat="45.86862" lon="6.09203">
        <ele>578</ele>
        <time>2016-05-02T11:01:55.047Z</time>
      </trkpt>
      <trkpt lat="45.86864" lon="6.09204">
        <ele>578</ele>
        <time>2016-05-02T11:01:56.047Z</time>
      </trkpt>
      <trkpt lat="45.86866" lon="6.09206">
        <ele>578</ele>
        <time>2016-05-02T11:01:57.047Z</time>
      </trkpt>
      <trkpt lat="45.86869" lon="6.09208">
        <ele>578</ele>
        <time>2016-05-02T11:01:58.047Z</time>
      </trkpt>
      <trkpt lat="45.86871" lon="6.09211">
        <ele>578</ele>
        <time>2016-05-02T11:01:59.047Z</time>
      </trkpt>
      <trkpt lat="45.86874" lon="6.09213">
        <ele>578</ele>
        <time>2016-05-02T11:02:00.047Z</time>
      </trkpt>
      <trkpt lat="45.86876" lon="6.09215">
        <ele>579</ele>
        <time>2016-05-02T11:02:01.047Z</time>
      </trkpt>
      <trkpt lat="45.86879" lon="6.09218">
        <ele>579</ele>
        <time>2016-05-02T11:02:02.047Z</time>
      </trkpt>
      <trkpt lat="45.86881" lon="6.0922">
        <ele>579</ele>
        <time>2016-05-02T11:02:03.047Z</time>
      </trkpt>
      <trkpt lat="45.86884" lon="6.09222">
        <ele>579</ele>
        <time>2016-05-02T11:02:04.047Z</time>
      </trkpt>
      <trkpt lat="45.86886" lon="6.09224">
        <ele>579</ele>
        <time>2016-05-02T11:02:05.047Z</time>
      </trkpt>
      <trkpt lat="45.86888" lon="6.09226">
        <ele>579</ele>
        <time>2016-05-02T11:02:06.047Z</time>
      </trkpt>
      <trkpt lat="45.8689" lon="6.09228">
        <ele>579</ele>
        <time>2016-05-02T11:02:07.047Z</time>
      </trkpt>
      <trkpt lat="45.86893" lon="6.0923">
        <ele>579</ele>
        <time>2016-05-02T11:02:08.047Z</time>
      </trkpt>
      <trkpt lat="45.86895" lon="6.09232">
        <ele>579</ele>
        <time>2016-05-02T11:02:09.047Z</time>
      </trkpt>
      <trkpt lat="45.86897" lon="6.09234">
        <ele>579</ele>
        <time>2016-05-02T11:02:10.047Z</time>
      </trkpt>
      <trkpt lat="45.869" lon="6.09236">
        <ele>579</ele>
        <time>2016-05-02T11:02:11.047Z</time>
      </trkpt>
      <trkpt lat="45.86902" lon="6.09238">
        <ele>579</ele>
        <time>2016-05-02T11:02:12.047Z</time>
      </trkpt>
      <trkpt lat="45.86904" lon="6.0924">
        <ele>579</ele>
        <time>2016-05-02T11:02:13.047Z</time>
      </trkpt>
      <trkpt lat="45.86906" lon="6.09242">
        <ele>579</ele>
        <time>2016-05-02T11:02:14.047Z</time>
      </trkpt>
      <trkpt lat="45.86908" lon="6.09244">
        <ele>579</ele>
        <time>2016-05-02T11:02:15.047Z</time>
      </trkpt>
      <trkpt lat="45.8691" lon="6.09246">
        <ele>579</ele>
        <time>2016-05-02T11:02:16.047Z</time>
      </trkpt>
      <trkpt lat="45.86912" lon="6.09248">
        <ele>579</ele>
        <time>2016-05-02T11:02:17.047Z</time>
      </trkpt>
      <trkpt lat="45.86915" lon="6.0925">
        <ele>580</ele>
        <time>2016-05-02T11:02:18.047Z</time>
      </trkpt>
      <trkpt lat="45.86917" lon="6.09252">
        <ele>580</ele>
        <time>2016-05-02T11:02:19.047Z</time>
      </trkpt>
      <trkpt lat="45.8692" lon="6.09254">
        <ele>580</ele>
        <time>2016-05-02T11:02:20.047Z</time>
      </trkpt>
      <trkpt lat="45.86922" lon="6.09255">
        <ele>580</ele>
        <time>2016-05-02T11:02:21.047Z</time>
      </trkpt>
      <trkpt lat="45.86924" lon="6.09257">
        <ele>580</ele>
        <time>2016-05-02T11:02:22.047Z</time>
      </trkpt>
      <trkpt lat="45.86927" lon="6.09258">
        <ele>580</ele>
        <time>2016-05-02T11:02:23.047Z</time>
      </trkpt>
      <trkpt lat="45.86929" lon="6.09259">
        <ele>580</ele>
        <time>2016-05-02T11:02:24.047Z</time>
      </trkpt>
      <trkpt lat="45.86932" lon="6.0926">
        <ele>581</ele>
        <time>2016-05-02T11:02:25.047Z</time>
      </trkpt>
      <trkpt lat="45.86934" lon="6.09261">
        <ele>581</ele>
        <time>2016-05-02T11:02:26.047Z</time>
      </trkpt>
      <trkpt lat="45.86937" lon="6.09262">
        <ele>581</ele>
        <time>2016-05-02T11:02:27.047Z</time>
      </trkpt>
      <trkpt lat="45.86939" lon="6.09263">
        <ele>581</ele>
        <time>2016-05-02T11:02:28.047Z</time>
      </trkpt>
      <trkpt lat="45.86942" lon="6.09264">
        <ele>582</ele>
        <time>2016-05-02T11:02:29.047Z</time>
      </trkpt>
      <trkpt lat="45.86944" lon="6.09265">
        <ele>582</ele>
        <time>2016-05-02T11:02:30.047Z</time>
      </trkpt>
      <trkpt lat="45.86947" lon="6.09265">
        <ele>582</ele>
        <time>2016-05-02T11:02:31.047Z</time>
      </trkpt>
      <trkpt lat="45.86949" lon="6.09266">
        <ele>582</ele>
        <time>2016-05-02T11:02:32.047Z</time>
      </trkpt>
      <trkpt lat="45.86951" lon="6.09267">
        <ele>582</ele>
        <time>2016-05-02T11:02:33.047Z</time>
      </trkpt>
      <trkpt lat="45.86954" lon="6.09268">
        <ele>583</ele>
        <time>2016-05-02T11:02:34.047Z</time>
      </trkpt>
      <trkpt lat="45.86956" lon="6.09269">
        <ele>583</ele>
        <time>2016-05-02T11:02:35.047Z</time>
      </trkpt>
      <trkpt lat="45.86958" lon="6.0927">
        <ele>583</ele>
        <time>2016-05-02T11:02:36.047Z</time>
      </trkpt>
      <trkpt lat="45.86961" lon="6.09271">
        <ele>583</ele>
        <time>2016-05-02T11:02:37.047Z</time>
      </trkpt>
      <trkpt lat="45.86963" lon="6.09272">
        <ele>584</ele>
        <time>2016-05-02T11:02:38.047Z</time>
      </trkpt>
      <trkpt lat="45.86966" lon="6.09273">
        <ele>584</ele>
        <time>2016-05-02T11:02:39.047Z</time>
      </trkpt>
      <trkpt lat="45.86968" lon="6.09274">
        <ele>584</ele>
        <time>2016-05-02T11:02:40.047Z</time>
      </trkpt>
      <trkpt lat="45.8697" lon="6.09275">
        <ele>584</ele>
        <time>2016-05-02T11:02:41.047Z</time>
      </trkpt>
      <trkpt lat="45.86973" lon="6.09276">
        <ele>585</ele>
        <time>2016-05-02T11:02:42.047Z</time>
      </trkpt>
      <trkpt lat="45.86975" lon="6.09277">
        <ele>585</ele>
        <time>2016-05-02T11:02:43.047Z</time>
      </trkpt>
      <trkpt lat="45.86978" lon="6.09276">
        <ele>585</ele>
        <time>2016-05-02T11:02:44.047Z</time>
      </trkpt>
      <trkpt lat="45.86981" lon="6.09276">
        <ele>585</ele>
        <time>2016-05-02T11:02:45.047Z</time>
      </trkpt>
      <trkpt lat="45.86983" lon="6.09275">
        <ele>585</ele>
        <time>2016-05-02T11:02:46.047Z</time>
      </trkpt>
      <trkpt lat="45.86985" lon="6.09274">
        <ele>586</ele>
        <time>2016-05-02T11:02:47.047Z</time>
      </trkpt>
      <trkpt lat="45.86988" lon="6.09272">
        <ele>586</ele>
        <time>2016-05-02T11:02:48.047Z</time>
      </trkpt>
      <trkpt lat="45.8699" lon="6.0927">
        <ele>586</ele>
        <time>2016-05-02T11:02:49.047Z</time>
      </trkpt>
      <trkpt lat="45.86992" lon="6.09268">
        <ele>586</ele>
        <time>2016-05-02T11:02:50.047Z</time>
      </trkpt>
      <trkpt lat="45.86995" lon="6.09265">
        <ele>586</ele>
        <time>2016-05-02T11:02:51.047Z</time>
      </trkpt>
      <trkpt lat="45.86997" lon="6.09264">
        <ele>586</ele>
        <time>2016-05-02T11:02:52.047Z</time>
      </trkpt>
      <trkpt lat="45.86999" lon="6.09261">
        <ele>586</ele>
        <time>2016-05-02T11:02:53.047Z</time>
      </trkpt>
      <trkpt lat="45.87001" lon="6.09259">
        <ele>586</ele>
        <time>2016-05-02T11:02:54.047Z</time>
      </trkpt>
      <trkpt lat="45.87003" lon="6.09256">
        <ele>587</ele>
        <time>2016-05-02T11:02:55.047Z</time>
      </trkpt>
      <trkpt lat="45.87005" lon="6.09253">
        <ele>587</ele>
        <time>2016-05-02T11:02:56.047Z</time>
      </trkpt>
      <trkpt lat="45.87007" lon="6.09249">
        <ele>587</ele>
        <time>2016-05-02T11:02:57.047Z</time>
      </trkpt>
      <trkpt lat="45.87008" lon="6.09246">
        <ele>587</ele>
        <time>2016-05-02T11:02:58.047Z</time>
      </trkpt>
      <trkpt lat="45.8701" lon="6.09243">
        <ele>587</ele>
        <time>2016-05-02T11:02:59.047Z</time>
      </trkpt>
      <trkpt lat="45.87012" lon="6.0924">
        <ele>587</ele>
        <time>2016-05-02T11:03:00.047Z</time>
      </trkpt>
      <trkpt lat="45.87014" lon="6.09237">
        <ele>587</ele>
        <time>2016-05-02T11:03:01.047Z</time>
      </trkpt>
      <trkpt lat="45.87016" lon="6.09234">
        <ele>587</ele>
        <time>2016-05-02T11:03:02.047Z</time>
      </trkpt>
      <trkpt lat="45.87018" lon="6.09232">
        <ele>587</ele>
        <time>2016-05-02T11:03:03.047Z</time>
      </trkpt>
      <trkpt lat="45.87019" lon="6.0923">
        <ele>587</ele>
        <time>2016-05-02T11:03:04.047Z</time>
      </trkpt>
      <trkpt lat="45.87021" lon="6.09229">
        <ele>588</ele>
        <time>2016-05-02T11:03:05.047Z</time>
      </trkpt>
      <trkpt lat="45.87023" lon="6.09229">
        <ele>588</ele>
        <time>2016-05-02T11:03:06.047Z</time>
      </trkpt>
      <trkpt lat="45.87025" lon="6.09231">
        <ele>588</ele>
        <time>2016-05-02T11:03:07.047Z</time>
      </trkpt>
      <trkpt lat="45.87027" lon="6.09233">
        <ele>588</ele>
        <time>2016-05-02T11:03:08.047Z</time>
      </trkpt>
      <trkpt lat="45.87029" lon="6.09236">
        <ele>588</ele>
        <time>2016-05-02T11:03:09.047Z</time>
      </trkpt>
      <trkpt lat="45.87032" lon="6.09238">
        <ele>588</ele>
        <time>2016-05-02T11:03:10.047Z</time>
      </trkpt>
      <trkpt lat="45.87034" lon="6.09241">
        <ele>588</ele>
        <time>2016-05-02T11:03:11.047Z</time>
      </trkpt>
      <trkpt lat="45.87036" lon="6.09243">
        <ele>588</ele>
        <time>2016-05-02T11:03:12.047Z</time>
      </trkpt>
      <trkpt lat="45.87039" lon="6.09246">
        <ele>587</ele>
        <time>2016-05-02T11:03:13.047Z</time>
      </trkpt>
      <trkpt lat="45.87041" lon="6.09249">
        <ele>587</ele>
        <time>2016-05-02T11:03:14.047Z</time>
      </trkpt>
      <trkpt lat="45.87044" lon="6.09252">
        <ele>587</ele>
        <time>2016-05-02T11:03:15.047Z</time>
      </trkpt>
      <trkpt lat="45.87046" lon="6.09254">
        <ele>587</ele>
        <time>2016-05-02T11:03:16.047Z</time>
      </trkpt>
      <trkpt lat="45.87049" lon="6.09256">
        <ele>587</ele>
        <time>2016-05-02T11:03:17.047Z</time>
      </trkpt>
      <trkpt lat="45.87052" lon="6.09258">
        <ele>587</ele>
        <time>2016-05-02T11:03:18.047Z</time>
      </trkpt>
      <trkpt lat="45.87054" lon="6.0926">
        <ele>587</ele>
        <time>2016-05-02T11:03:19.047Z</time>
      </trkpt>
      <trkpt lat="45.87057" lon="6.09261">
        <ele>587</ele>
        <time>2016-05-02T11:03:20.047Z</time>
      </trkpt>
      <trkpt lat="45.8706" lon="6.09263">
        <ele>587</ele>
        <time>2016-05-02T11:03:21.047Z</time>
      </trkpt>
      <trkpt lat="45.87063" lon="6.09265">
        <ele>587</ele>
        <time>2016-05-02T11:03:22.047Z</time>
      </trkpt>
      <trkpt lat="45.87066" lon="6.09266">
        <ele>587</ele>
        <time>2016-05-02T11:03:23.047Z</time>
      </trkpt>
      <trkpt lat="45.87069" lon="6.09268">
        <ele>586</ele>
        <time>2016-05-02T11:03:24.047Z</time>
      </trkpt>
      <trkpt lat="45.87072" lon="6.09269">
        <ele>586</ele>
        <time>2016-05-02T11:03:25.047Z</time>
      </trkpt>
      <trkpt lat="45.87075" lon="6.09271">
        <ele>586</ele>
        <time>2016-05-02T11:03:26.047Z</time>
      </trkpt>
      <trkpt lat="45.87077" lon="6.09272">
        <ele>586</ele>
        <time>2016-05-02T11:03:27.047Z</time>
      </trkpt>
      <trkpt lat="45.8708" lon="6.09274">
        <ele>586</ele>
        <time>2016-05-02T11:03:28.047Z</time>
      </trkpt>
      <trkpt lat="45.87082" lon="6.09275">
        <ele>586</ele>
        <time>2016-05-02T11:03:29.047Z</time>
      </trkpt>
      <trkpt lat="45.87085" lon="6.09277">
        <ele>586</ele>
        <time>2016-05-02T11:03:30.047Z</time>
      </trkpt>
      <trkpt lat="45.87088" lon="6.09279">
        <ele>586</ele>
        <time>2016-05-02T11:03:31.047Z</time>
      </trkpt>
      <trkpt lat="45.8709" lon="6.0928">
        <ele>585</ele>
        <time>2016-05-02T11:03:32.047Z</time>
      </trkpt>
      <trkpt lat="45.87093" lon="6.09282">
        <ele>585</ele>
        <time>2016-05-02T11:03:33.047Z</time>
      </trkpt>
      <trkpt lat="45.87096" lon="6.09283">
        <ele>585</ele>
        <time>2016-05-02T11:03:34.047Z</time>
      </trkpt>
      <trkpt lat="45.87098" lon="6.09283">
        <ele>585</ele>
        <time>2016-05-02T11:03:35.047Z</time>
      </trkpt>
      <trkpt lat="45.87101" lon="6.09284">
        <ele>585</ele>
        <time>2016-05-02T11:03:36.047Z</time>
      </trkpt>
      <trkpt lat="45.87104" lon="6.09285">
        <ele>584</ele>
        <time>2016-05-02T11:03:37.047Z</time>
      </trkpt>
      <trkpt lat="45.87106" lon="6.09287">
        <ele>584</ele>
        <time>2016-05-02T11:03:38.047Z</time>
      </trkpt>
      <trkpt lat="45.87109" lon="6.09288">
        <ele>584</ele>
        <time>2016-05-02T11:03:39.047Z</time>
      </trkpt>
      <trkpt lat="45.87112" lon="6.09289">
        <ele>584</ele>
        <time>2016-05-02T11:03:40.047Z</time>
      </trkpt>
      <trkpt lat="45.87115" lon="6.0929">
        <ele>584</ele>
        <time>2016-05-02T11:03:41.047Z</time>
      </trkpt>
      <trkpt lat="45.87117" lon="6.09291">
        <ele>583</ele>
        <time>2016-05-02T11:03:42.047Z</time>
      </trkpt>
      <trkpt lat="45.8712" lon="6.09292">
        <ele>583</ele>
        <time>2016-05-02T11:03:43.047Z</time>
      </trkpt>
      <trkpt lat="45.87123" lon="6.09293">
        <ele>583</ele>
        <time>2016-05-02T11:03:44.047Z</time>
      </trkpt>
      <trkpt lat="45.87126" lon="6.09293">
        <ele>583</ele>
        <time>2016-05-02T11:03:45.047Z</time>
      </trkpt>
      <trkpt lat="45.87129" lon="6.09294">
        <ele>583</ele>
        <time>2016-05-02T11:03:46.047Z</time>
      </trkpt>
      <trkpt lat="45.87132" lon="6.09294">
        <ele>583</ele>
        <time>2016-05-02T11:03:47.047Z</time>
      </trkpt>
      <trkpt lat="45.87135" lon="6.09295">
        <ele>583</ele>
        <time>2016-05-02T11:03:48.047Z</time>
      </trkpt>
      <trkpt lat="45.87138" lon="6.09295">
        <ele>583</ele>
        <time>2016-05-02T11:03:49.047Z</time>
      </trkpt>
      <trkpt lat="45.87141" lon="6.09296">
        <ele>582</ele>
        <time>2016-05-02T11:03:50.047Z</time>
      </trkpt>
      <trkpt lat="45.87144" lon="6.09296">
        <ele>582</ele>
        <time>2016-05-02T11:03:51.047Z</time>
      </trkpt>
      <trkpt lat="45.87147" lon="6.09297">
        <ele>582</ele>
        <time>2016-05-02T11:03:52.047Z</time>
      </trkpt>
      <trkpt lat="45.8715" lon="6.09297">
        <ele>581</ele>
        <time>2016-05-02T11:03:53.047Z</time>
      </trkpt>
      <trkpt lat="45.87153" lon="6.09297">
        <ele>581</ele>
        <time>2016-05-02T11:03:54.047Z</time>
      </trkpt>
      <trkpt lat="45.87156" lon="6.09298">
        <ele>581</ele>
        <time>2016-05-02T11:03:55.047Z</time>
      </trkpt>
      <trkpt lat="45.87159" lon="6.09298">
        <ele>580</ele>
        <time>2016-05-02T11:03:56.047Z</time>
      </trkpt>
      <trkpt lat="45.87162" lon="6.09299">
        <ele>580</ele>
        <time>2016-05-02T11:03:57.047Z</time>
      </trkpt>
      <trkpt lat="45.87165" lon="6.09299">
        <ele>580</ele>
        <time>2016-05-02T11:03:58.047Z</time>
      </trkpt>
      <trkpt lat="45.87168" lon="6.09299">
        <ele>580</ele>
        <time>2016-05-02T11:03:59.047Z</time>
      </trkpt>
      <trkpt lat="45.87171" lon="6.093">
        <ele>579</ele>
        <time>2016-05-02T11:04:00.047Z</time>
      </trkpt>
      <trkpt lat="45.87174" lon="6.093">
        <ele>579</ele>
        <time>2016-05-02T11:04:01.047Z</time>
      </trkpt>
      <trkpt lat="45.87177" lon="6.093">
        <ele>579</ele>
        <time>2016-05-02T11:04:02.047Z</time>
      </trkpt>
      <trkpt lat="45.8718" lon="6.09301">
        <ele>579</ele>
        <time>2016-05-02T11:04:03.047Z</time>
      </trkpt>
      <trkpt lat="45.87182" lon="6.09301">
        <ele>578</ele>
        <time>2016-05-02T11:04:04.047Z</time>
      </trkpt>
      <trkpt lat="45.87185" lon="6.09301">
        <ele>578</ele>
        <time>2016-05-02T11:04:05.047Z</time>
      </trkpt>
      <trkpt lat="45.87188" lon="6.09302">
        <ele>578</ele>
        <time>2016-05-02T11:04:06.047Z</time>
      </trkpt>
      <trkpt lat="45.87191" lon="6.09303">
        <ele>578</ele>
        <time>2016-05-02T11:04:07.047Z</time>
      </trkpt>
      <trkpt lat="45.87194" lon="6.09304">
        <ele>578</ele>
        <time>2016-05-02T11:04:08.047Z</time>
      </trkpt>
      <trkpt lat="45.87197" lon="6.09304">
        <ele>578</ele>
        <time>2016-05-02T11:04:09.047Z</time>
      </trkpt>
      <trkpt lat="45.872" lon="6.09305">
        <ele>577</ele>
        <time>2016-05-02T11:04:10.047Z</time>
      </trkpt>
      <trkpt lat="45.87202" lon="6.09305">
        <ele>577</ele>
        <time>2016-05-02T11:04:11.047Z</time>
      </trkpt>
      <trkpt lat="45.87205" lon="6.09306">
        <ele>577</ele>
        <time>2016-05-02T11:04:12.047Z</time>
      </trkpt>
      <trkpt lat="45.87208" lon="6.09306">
        <ele>577</ele>
        <time>2016-05-02T11:04:13.047Z</time>
      </trkpt>
      <trkpt lat="45.87211" lon="6.09307">
        <ele>577</ele>
        <time>2016-05-02T11:04:14.047Z</time>
      </trkpt>
      <trkpt lat="45.87214" lon="6.09308">
        <ele>577</ele>
        <time>2016-05-02T11:04:15.047Z</time>
      </trkpt>
      <trkpt lat="45.87217" lon="6.09309">
        <ele>577</ele>
        <time>2016-05-02T11:04:16.047Z</time>
      </trkpt>
      <trkpt lat="45.8722" lon="6.0931">
        <ele>576</ele>
        <time>2016-05-02T11:04:17.047Z</time>
      </trkpt>
      <trkpt lat="45.87223" lon="6.09311">
        <ele>576</ele>
        <time>2016-05-02T11:04:18.047Z</time>
      </trkpt>
      <trkpt lat="45.87226" lon="6.09312">
        <ele>576</ele>
        <time>2016-05-02T11:04:19.047Z</time>
      </trkpt>
      <trkpt lat="45.87229" lon="6.09314">
        <ele>576</ele>
        <time>2016-05-02T11:04:20.047Z</time>
      </trkpt>
      <trkpt lat="45.87232" lon="6.09315">
        <ele>576</ele>
        <time>2016-05-02T11:04:21.047Z</time>
      </trkpt>
      <trkpt lat="45.87235" lon="6.09317">
        <ele>576</ele>
        <time>2016-05-02T11:04:22.047Z</time>
      </trkpt>
      <trkpt lat="45.87238" lon="6.09318">
        <ele>576</ele>
        <time>2016-05-02T11:04:23.047Z</time>
      </trkpt>
      <trkpt lat="45.87241" lon="6.0932">
        <ele>575</ele>
        <time>2016-05-02T11:04:24.047Z</time>
      </trkpt>
      <trkpt lat="45.87243" lon="6.09322">
        <ele>575</ele>
        <time>2016-05-02T11:04:25.047Z</time>
      </trkpt>
      <trkpt lat="45.87246" lon="6.09324">
        <ele>575</ele>
        <time>2016-05-02T11:04:26.047Z</time>
      </trkpt>
      <trkpt lat="45.87249" lon="6.09327">
        <ele>575</ele>
        <time>2016-05-02T11:04:27.047Z</time>
      </trkpt>
      <trkpt lat="45.87252" lon="6.09329">
        <ele>575</ele>
        <time>2016-05-02T11:04:28.047Z</time>
      </trkpt>
      <trkpt lat="45.87255" lon="6.09331">
        <ele>575</ele>
        <time>2016-05-02T11:04:29.047Z</time>
      </trkpt>
      <trkpt lat="45.87258" lon="6.09334">
        <ele>575</ele>
        <time>2016-05-02T11:04:30.047Z</time>
      </trkpt>
      <trkpt lat="45.8726" lon="6.09336">
        <ele>574</ele>
        <time>2016-05-02T11:04:31.047Z</time>
      </trkpt>
      <trkpt lat="45.87263" lon="6.09338">
        <ele>574</ele>
        <time>2016-05-02T11:04:32.047Z</time>
      </trkpt>
      <trkpt lat="45.87266" lon="6.0934">
        <ele>574</ele>
        <time>2016-05-02T11:04:33.047Z</time>
      </trkpt>
      <trkpt lat="45.87268" lon="6.09342">
        <ele>574</ele>
        <time>2016-05-02T11:04:34.047Z</time>
      </trkpt>
      <trkpt lat="45.87271" lon="6.09344">
        <ele>574</ele>
        <time>2016-05-02T11:04:35.047Z</time>
      </trkpt>
      <trkpt lat="45.87274" lon="6.09346">
        <ele>573</ele>
        <time>2016-05-02T11:04:36.047Z</time>
      </trkpt>
      <trkpt lat="45.87277" lon="6.09349">
        <ele>573</ele>
        <time>2016-05-02T11:04:37.047Z</time>
      </trkpt>
      <trkpt lat="45.8728" lon="6.09351">
        <ele>573</ele>
        <time>2016-05-02T11:04:38.047Z</time>
      </trkpt>
      <trkpt lat="45.87282" lon="6.09353">
        <ele>573</ele>
        <time>2016-05-02T11:04:39.047Z</time>
      </trkpt>
      <trkpt lat="45.87285" lon="6.09355">
        <ele>573</ele>
        <time>2016-05-02T11:04:40.047Z</time>
      </trkpt>
      <trkpt lat="45.87288" lon="6.09357">
        <ele>573</ele>
        <time>2016-05-02T11:04:41.047Z</time>
      </trkpt>
      <trkpt lat="45.8729" lon="6.09359">
        <ele>573</ele>
        <time>2016-05-02T11:04:42.047Z</time>
      </trkpt>
      <trkpt lat="45.87293" lon="6.09361">
        <ele>573</ele>
        <time>2016-05-02T11:04:43.047Z</time>
      </trkpt>
      <trkpt lat="45.87296" lon="6.09363">
        <ele>573</ele>
        <time>2016-05-02T11:04:44.047Z</time>
      </trkpt>
      <trkpt lat="45.87298" lon="6.09366">
        <ele>573</ele>
        <time>2016-05-02T11:04:45.047Z</time>
      </trkpt>
      <trkpt lat="45.87301" lon="6.09369">
        <ele>572</ele>
        <time>2016-05-02T11:04:46.047Z</time>
      </trkpt>
      <trkpt lat="45.87303" lon="6.09372">
        <ele>572</ele>
        <time>2016-05-02T11:04:47.047Z</time>
      </trkpt>
      <trkpt lat="45.87305" lon="6.09374">
        <ele>572</ele>
        <time>2016-05-02T11:04:48.047Z</time>
      </trkpt>
      <trkpt lat="45.87308" lon="6.09377">
        <ele>572</ele>
        <time>2016-05-02T11:04:49.047Z</time>
      </trkpt>
      <trkpt lat="45.8731" lon="6.0938">
        <ele>572</ele>
        <time>2016-05-02T11:04:50.047Z</time>
      </trkpt>
      <trkpt lat="45.87312" lon="6.09383">
        <ele>572</ele>
        <time>2016-05-02T11:04:51.047Z</time>
      </trkpt>
      <trkpt lat="45.87314" lon="6.09386">
        <ele>572</ele>
        <time>2016-05-02T11:04:52.047Z</time>
      </trkpt>
      <trkpt lat="45.87316" lon="6.09389">
        <ele>572</ele>
        <time>2016-05-02T11:04:53.047Z</time>
      </trkpt>
      <trkpt lat="45.87318" lon="6.09392">
        <ele>572</ele>
        <time>2016-05-02T11:04:54.047Z</time>
      </trkpt>
      <trkpt lat="45.8732" lon="6.09394">
        <ele>572</ele>
        <time>2016-05-02T11:04:55.047Z</time>
      </trkpt>
      <trkpt lat="45.87322" lon="6.09397">
        <ele>572</ele>
        <time>2016-05-02T11:04:56.047Z</time>
      </trkpt>
      <trkpt lat="45.87324" lon="6.094">
        <ele>572</ele>
        <time>2016-05-02T11:04:57.047Z</time>
      </trkpt>
      <trkpt lat="45.87327" lon="6.09403">
        <ele>572</ele>
        <time>2016-05-02T11:04:58.047Z</time>
      </trkpt>
      <trkpt lat="45.87329" lon="6.09406">
        <ele>572</ele>
        <time>2016-05-02T11:04:59.047Z</time>
      </trkpt>
      <trkpt lat="45.87331" lon="6.09409">
        <ele>572</ele>
        <time>2016-05-02T11:05:00.047Z</time>
      </trkpt>
      <trkpt lat="45.87333" lon="6.09412">
        <ele>572</ele>
        <time>2016-05-02T11:05:01.047Z</time>
      </trkpt>
      <trkpt lat="45.87335" lon="6.09414">
        <ele>572</ele>
        <time>2016-05-02T11:05:02.047Z</time>
      </trkpt>
      <trkpt lat="45.87337" lon="6.09417">
        <ele>572</ele>
        <time>2016-05-02T11:05:03.047Z</time>
      </trkpt>
      <trkpt lat="45.87339" lon="6.0942">
        <ele>572</ele>
        <time>2016-05-02T11:05:04.047Z</time>
      </trkpt>
      <trkpt lat="45.87341" lon="6.09422">
        <ele>572</ele>
        <time>2016-05-02T11:05:05.047Z</time>
      </trkpt>
      <trkpt lat="45.87343" lon="6.09425">
        <ele>572</ele>
        <time>2016-05-02T11:05:06.047Z</time>
      </trkpt>
      <trkpt lat="45.87345" lon="6.09428">
        <ele>572</ele>
        <time>2016-05-02T11:05:07.047Z</time>
      </trkpt>
      <trkpt lat="45.87347" lon="6.0943">
        <ele>571</ele>
        <time>2016-05-02T11:05:08.047Z</time>
      </trkpt>
      <trkpt lat="45.87349" lon="6.09433">
        <ele>571</ele>
        <time>2016-05-02T11:05:09.047Z</time>
      </trkpt>
      <trkpt lat="45.87351" lon="6.09436">
        <ele>571</ele>
        <time>2016-05-02T11:05:10.047Z</time>
      </trkpt>
      <trkpt lat="45.87353" lon="6.09438">
        <ele>571</ele>
        <time>2016-05-02T11:05:11.047Z</time>
      </trkpt>
      <trkpt lat="45.87354" lon="6.09441">
        <ele>571</ele>
        <time>2016-05-02T11:05:12.047Z</time>
      </trkpt>
      <trkpt lat="45.87357" lon="6.09444">
        <ele>571</ele>
        <time>2016-05-02T11:05:13.047Z</time>
      </trkpt>
      <trkpt lat="45.87359" lon="6.09447">
        <ele>571</ele>
        <time>2016-05-02T11:05:14.047Z</time>
      </trkpt>
      <trkpt lat="45.87361" lon="6.09449">
        <ele>571</ele>
        <time>2016-05-02T11:05:15.047Z</time>
      </trkpt>
      <trkpt lat="45.87363" lon="6.09452">
        <ele>571</ele>
        <time>2016-05-02T11:05:16.047Z</time>
      </trkpt>
      <trkpt lat="45.87365" lon="6.09455">
        <ele>571</ele>
        <time>2016-05-02T11:05:17.047Z</time>
      </trkpt>
      <trkpt lat="45.87367" lon="6.09458">
        <ele>571</ele>
        <time>2016-05-02T11:05:18.047Z</time>
      </trkpt>
      <trkpt lat="45.87369" lon="6.09461">
        <ele>571</ele>
        <time>2016-05-02T11:05:19.047Z</time>
      </trkpt>
      <trkpt lat="45.87371" lon="6.09464">
        <ele>571</ele>
        <time>2016-05-02T11:05:20.047Z</time>
      </trkpt>
      <trkpt lat="45.87373" lon="6.09467">
        <ele>571</ele>
        <time>2016-05-02T11:05:21.047Z</time>
      </trkpt>
      <trkpt lat="45.87375" lon="6.0947">
        <ele>571</ele>
        <time>2016-05-02T11:05:22.047Z</time>
      </trkpt>
      <trkpt lat="45.87377" lon="6.09473">
        <ele>572</ele>
        <time>2016-05-02T11:05:23.047Z</time>
      </trkpt>
      <trkpt lat="45.87379" lon="6.09475">
        <ele>572</ele>
        <time>2016-05-02T11:05:24.047Z</time>
      </trkpt>
      <trkpt lat="45.87381" lon="6.09478">
        <ele>572</ele>
        <time>2016-05-02T11:05:25.047Z</time>
      </trkpt>
      <trkpt lat="45.87383" lon="6.09481">
        <ele>572</ele>
        <time>2016-05-02T11:05:26.047Z</time>
      </trkpt>
      <trkpt lat="45.87386" lon="6.09484">
        <ele>572</ele>
        <time>2016-05-02T11:05:27.047Z</time>
      </trkpt>
      <trkpt lat="45.87388" lon="6.09486">
        <ele>572</ele>
        <time>2016-05-02T11:05:28.047Z</time>
      </trkpt>
      <trkpt lat="45.8739" lon="6.09489">
        <ele>572</ele>
        <time>2016-05-02T11:05:29.047Z</time>
      </trkpt>
      <trkpt lat="45.87392" lon="6.09492">
        <ele>572</ele>
        <time>2016-05-02T11:05:30.047Z</time>
      </trkpt>
      <trkpt lat="45.87394" lon="6.09495">
        <ele>572</ele>
        <time>2016-05-02T11:05:31.047Z</time>
      </trkpt>
      <trkpt lat="45.87396" lon="6.09497">
        <ele>572</ele>
        <time>2016-05-02T11:05:32.047Z</time>
      </trkpt>
      <trkpt lat="45.87398" lon="6.095">
        <ele>572</ele>
        <time>2016-05-02T11:05:33.047Z</time>
      </trkpt>
      <trkpt lat="45.874" lon="6.09503">
        <ele>572</ele>
        <time>2016-05-02T11:05:34.047Z</time>
      </trkpt>
      <trkpt lat="45.87402" lon="6.09505">
        <ele>572</ele>
        <time>2016-05-02T11:05:35.047Z</time>
      </trkpt>
      <trkpt lat="45.87405" lon="6.09508">
        <ele>572</ele>
        <time>2016-05-02T11:05:36.047Z</time>
      </trkpt>
      <trkpt lat="45.87407" lon="6.09511">
        <ele>572</ele>
        <time>2016-05-02T11:05:37.047Z</time>
      </trkpt>
      <trkpt lat="45.87408" lon="6.09513">
        <ele>572</ele>
        <time>2016-05-02T11:05:38.047Z</time>
      </trkpt>
      <trkpt lat="45.8741" lon="6.09516">
        <ele>572</ele>
        <time>2016-05-02T11:05:39.047Z</time>
      </trkpt>
      <trkpt lat="45.87413" lon="6.09519">
        <ele>572</ele>
        <time>2016-05-02T11:05:40.047Z</time>
      </trkpt>
      <trkpt lat="45.87415" lon="6.09522">
        <ele>572</ele>
        <time>2016-05-02T11:05:41.047Z</time>
      </trkpt>
      <trkpt lat="45.87417" lon="6.09524">
        <ele>572</ele>
        <time>2016-05-02T11:05:42.047Z</time>
      </trkpt>
      <trkpt lat="45.87419" lon="6.09527">
        <ele>572</ele>
        <time>2016-05-02T11:05:43.047Z</time>
      </trkpt>
      <trkpt lat="45.87421" lon="6.0953">
        <ele>572</ele>
        <time>2016-05-02T11:05:44.047Z</time>
      </trkpt>
      <trkpt lat="45.87423" lon="6.09533">
        <ele>572</ele>
        <time>2016-05-02T11:05:45.047Z</time>
      </trkpt>
      <trkpt lat="45.87425" lon="6.09536">
        <ele>572</ele>
        <time>2016-05-02T11:05:46.047Z</time>
      </trkpt>
      <trkpt lat="45.87427" lon="6.09538">
        <ele>572</ele>
        <time>2016-05-02T11:05:47.047Z</time>
      </trkpt>
      <trkpt lat="45.87429" lon="6.09542">
        <ele>572</ele>
        <time>2016-05-02T11:05:48.047Z</time>
      </trkpt>
      <trkpt lat="45.87431" lon="6.09545">
        <ele>572</ele>
        <time>2016-05-02T11:05:49.047Z</time>
      </trkpt>
      <trkpt lat="45.87432" lon="6.09548">
        <ele>572</ele>
        <time>2016-05-02T11:05:50.047Z</time>
      </trkpt>
      <trkpt lat="45.87434" lon="6.0955">
        <ele>572</ele>
        <time>2016-05-02T11:05:51.047Z</time>
      </trkpt>
      <trkpt lat="45.87436" lon="6.09553">
        <ele>572</ele>
        <time>2016-05-02T11:05:52.047Z</time>
      </trkpt>
      <trkpt lat="45.87439" lon="6.09556">
        <ele>572</ele>
        <time>2016-05-02T11:05:53.047Z</time>
      </trkpt>
      <trkpt lat="45.87441" lon="6.09558">
        <ele>572</ele>
        <time>2016-05-02T11:05:54.047Z</time>
      </trkpt>
      <trkpt lat="45.87443" lon="6.09561">
        <ele>571</ele>
        <time>2016-05-02T11:05:55.047Z</time>
      </trkpt>
      <trkpt lat="45.87445" lon="6.09564">
        <ele>571</ele>
        <time>2016-05-02T11:05:56.047Z</time>
      </trkpt>
      <trkpt lat="45.87447" lon="6.09566">
        <ele>571</ele>
        <time>2016-05-02T11:05:57.047Z</time>
      </trkpt>
      <trkpt lat="45.87449" lon="6.09569">
        <ele>571</ele>
        <time>2016-05-02T11:05:58.047Z</time>
      </trkpt>
      <trkpt lat="45.87451" lon="6.09572">
        <ele>571</ele>
        <time>2016-05-02T11:05:59.047Z</time>
      </trkpt>
      <trkpt lat="45.87453" lon="6.09574">
        <ele>571</ele>
        <time>2016-05-02T11:06:00.047Z</time>
      </trkpt>
      <trkpt lat="45.87456" lon="6.09577">
        <ele>571</ele>
        <time>2016-05-02T11:06:01.047Z</time>
      </trkpt>
      <trkpt lat="45.87458" lon="6.0958">
        <ele>570</ele>
        <time>2016-05-02T11:06:02.047Z</time>
      </trkpt>
      <trkpt lat="45.8746" lon="6.09583">
        <ele>570</ele>
        <time>2016-05-02T11:06:03.047Z</time>
      </trkpt>
      <trkpt lat="45.87462" lon="6.09585">
        <ele>570</ele>
        <time>2016-05-02T11:06:04.047Z</time>
      </trkpt>
      <trkpt lat="45.87465" lon="6.09588">
        <ele>570</ele>
        <time>2016-05-02T11:06:05.047Z</time>
      </trkpt>
      <trkpt lat="45.87467" lon="6.09591">
        <ele>570</ele>
        <time>2016-05-02T11:06:06.047Z</time>
      </trkpt>
      <trkpt lat="45.87469" lon="6.09594">
        <ele>570</ele>
        <time>2016-05-02T11:06:07.047Z</time>
      </trkpt>
      <trkpt lat="45.87471" lon="6.09596">
        <ele>570</ele>
        <time>2016-05-02T11:06:08.047Z</time>
      </trkpt>
      <trkpt lat="45.87473" lon="6.09599">
        <ele>570</ele>
        <time>2016-05-02T11:06:09.047Z</time>
      </trkpt>
      <trkpt lat="45.87476" lon="6.09602">
        <ele>570</ele>
        <time>2016-05-02T11:06:10.047Z</time>
      </trkpt>
      <trkpt lat="45.87478" lon="6.09605">
        <ele>570</ele>
        <time>2016-05-02T11:06:11.047Z</time>
      </trkpt>
      <trkpt lat="45.8748" lon="6.09607">
        <ele>569</ele>
        <time>2016-05-02T11:06:12.047Z</time>
      </trkpt>
      <trkpt lat="45.87483" lon="6.0961">
        <ele>569</ele>
        <time>2016-05-02T11:06:13.047Z</time>
      </trkpt>
      <trkpt lat="45.87485" lon="6.09612">
        <ele>569</ele>
        <time>2016-05-02T11:06:14.047Z</time>
      </trkpt>
      <trkpt lat="45.87487" lon="6.09615">
        <ele>569</ele>
        <time>2016-05-02T11:06:15.047Z</time>
      </trkpt>
      <trkpt lat="45.8749" lon="6.09618">
        <ele>569</ele>
        <time>2016-05-02T11:06:16.047Z</time>
      </trkpt>
      <trkpt lat="45.87492" lon="6.0962">
        <ele>569</ele>
        <time>2016-05-02T11:06:17.047Z</time>
      </trkpt>
      <trkpt lat="45.87494" lon="6.09623">
        <ele>569</ele>
        <time>2016-05-02T11:06:18.047Z</time>
      </trkpt>
      <trkpt lat="45.87496" lon="6.09625">
        <ele>569</ele>
        <time>2016-05-02T11:06:19.047Z</time>
      </trkpt>
      <trkpt lat="45.87499" lon="6.09628">
        <ele>569</ele>
        <time>2016-05-02T11:06:20.047Z</time>
      </trkpt>
      <trkpt lat="45.87501" lon="6.09631">
        <ele>569</ele>
        <time>2016-05-02T11:06:21.047Z</time>
      </trkpt>
      <trkpt lat="45.87503" lon="6.09633">
        <ele>569</ele>
        <time>2016-05-02T11:06:22.047Z</time>
      </trkpt>
      <trkpt lat="45.87505" lon="6.09636">
        <ele>569</ele>
        <time>2016-05-02T11:06:23.047Z</time>
      </trkpt>
      <trkpt lat="45.87508" lon="6.09639">
        <ele>569</ele>
        <time>2016-05-02T11:06:24.047Z</time>
      </trkpt>
      <trkpt lat="45.8751" lon="6.09641">
        <ele>569</ele>
        <time>2016-05-02T11:06:25.047Z</time>
      </trkpt>
      <trkpt lat="45.87512" lon="6.09644">
        <ele>569</ele>
        <time>2016-05-02T11:06:26.047Z</time>
      </trkpt>
      <trkpt lat="45.87515" lon="6.09647">
        <ele>569</ele>
        <time>2016-05-02T11:06:27.047Z</time>
      </trkpt>
      <trkpt lat="45.87517" lon="6.09649">
        <ele>569</ele>
        <time>2016-05-02T11:06:28.047Z</time>
      </trkpt>
      <trkpt lat="45.87519" lon="6.09652">
        <ele>569</ele>
        <time>2016-05-02T11:06:29.047Z</time>
      </trkpt>
      <trkpt lat="45.87522" lon="6.09655">
        <ele>569</ele>
        <time>2016-05-02T11:06:30.047Z</time>
      </trkpt>
      <trkpt lat="45.87524" lon="6.09657">
        <ele>569</ele>
        <time>2016-05-02T11:06:31.047Z</time>
      </trkpt>
      <trkpt lat="45.87527" lon="6.0966">
        <ele>569</ele>
        <time>2016-05-02T11:06:32.047Z</time>
      </trkpt>
      <trkpt lat="45.87529" lon="6.09662">
        <ele>569</ele>
        <time>2016-05-02T11:06:33.047Z</time>
      </trkpt>
      <trkpt lat="45.87532" lon="6.09665">
        <ele>569</ele>
        <time>2016-05-02T11:06:34.047Z</time>
      </trkpt>
      <trkpt lat="45.87534" lon="6.09668">
        <ele>569</ele>
        <time>2016-05-02T11:06:35.047Z</time>
      </trkpt>
      <trkpt lat="45.87536" lon="6.0967">
        <ele>569</ele>
        <time>2016-05-02T11:06:36.047Z</time>
      </trkpt>
      <trkpt lat="45.87538" lon="6.09673">
        <ele>569</ele>
        <time>2016-05-02T11:06:37.047Z</time>
      </trkpt>
      <trkpt lat="45.87541" lon="6.09675">
        <ele>569</ele>
        <time>2016-05-02T11:06:38.047Z</time>
      </trkpt>
      <trkpt lat="45.87543" lon="6.09678">
        <ele>569</ele>
        <time>2016-05-02T11:06:39.047Z</time>
      </trkpt>
      <trkpt lat="45.87545" lon="6.0968">
        <ele>569</ele>
        <time>2016-05-02T11:06:40.047Z</time>
      </trkpt>
      <trkpt lat="45.87547" lon="6.09682">
        <ele>569</ele>
        <time>2016-05-02T11:06:41.047Z</time>
      </trkpt>
      <trkpt lat="45.87549" lon="6.09685">
        <ele>569</ele>
        <time>2016-05-02T11:06:42.047Z</time>
      </trkpt>
      <trkpt lat="45.87551" lon="6.09687">
        <ele>569</ele>
        <time>2016-05-02T11:06:43.047Z</time>
      </trkpt>
      <trkpt lat="45.87553" lon="6.0969">
        <ele>569</ele>
        <time>2016-05-02T11:06:44.047Z</time>
      </trkpt>
      <trkpt lat="45.87553" lon="6.09692">
        <ele>569</ele>
        <time>2016-05-02T11:06:45.047Z</time>
      </trkpt>
      <trkpt lat="45.87553" lon="6.09693">
        <ele>569</ele>
        <time>2016-05-02T11:06:46.047Z</time>
      </trkpt>
      <trkpt lat="45.87553" lon="6.09693">
        <ele>569</ele>
        <time>2016-05-02T11:06:47.047Z</time>
      </trkpt>
      <trkpt lat="45.87553" lon="6.09693">
        <ele>569</ele>
        <time>2016-05-02T11:06:48.047Z</time>
      </trkpt>
      <trkpt lat="45.87553" lon="6.09693">
        <ele>569</ele>
        <time>2016-05-02T11:06:49.047Z</time>
      </trkpt>
      <trkpt lat="45.87552" lon="6.09693">
        <ele>569</ele>
        <time>2016-05-02T11:06:50.047Z</time>
      </trkpt>
      <trkpt lat="45.87552" lon="6.09693">
        <ele>569</ele>
        <time>2016-05-02T11:06:51.047Z</time>
      </trkpt>
      <trkpt lat="45.87552" lon="6.09692">
        <ele>569</ele>
        <time>2016-05-02T11:06:52.047Z</time>
      </trkpt>
      <trkpt lat="45.87552" lon="6.09692">
        <ele>569</ele>
        <time>2016-05-02T11:06:53.047Z</time>
      </trkpt>
      <trkpt lat="45.87552" lon="6.09692">
        <ele>569</ele>
        <time>2016-05-02T11:06:54.047Z</time>
      </trkpt>
      <trkpt lat="45.87552" lon="6.09692">
        <ele>569</ele>
        <time>2016-05-02T11:06:55.047Z</time>
      </trkpt>
      <trkpt lat="45.87552" lon="6.09692">
        <ele>569</ele>
        <time>2016-05-02T11:06:56.047Z</time>
      </trkpt>
      <trkpt lat="45.87552" lon="6.09692">
        <ele>569</ele>
        <time>2016-05-02T11:06:57.047Z</time>
      </trkpt>
      <trkpt lat="45.87552" lon="6.09692">
        <ele>569</ele>
        <time>2016-05-02T11:06:58.047Z</time>
      </trkpt>
      <trkpt lat="45.87552" lon="6.09692">
        <ele>569</ele>
        <time>2016-05-02T11:06:59.047Z</time>
      </trkpt>
      <trkpt lat="45.87552" lon="6.09692">
        <ele>569</ele>
        <time>2016-05-02T11:07:00.047Z</time>
      </trkpt>
      <trkpt lat="45.87552" lon="6.09692">
        <ele>569</ele>
        <time>2016-05-02T11:07:01.047Z</time>
      </trkpt>
      <trkpt lat="45.87552" lon="6.09692">
        <ele>569</ele>
        <time>2016-05-02T11:07:02.047Z</time>
      </trkpt>
      <trkpt lat="45.87552" lon="6.09692">
        <ele>569</ele>
        <time>2016-05-02T11:07:03.047Z</time>
      </trkpt>
      <trkpt lat="45.87552" lon="6.09692">
        <ele>569</ele>
        <time>2016-05-02T11:07:04.047Z</time>
      </trkpt>
      <trkpt lat="45.87552" lon="6.09691">
        <ele>569</ele>
        <time>2016-05-02T11:07:05.047Z</time>
      </trkpt>
      <trkpt lat="45.87554" lon="6.0969">
        <ele>569</ele>
        <time>2016-05-02T11:07:06.047Z</time>
      </trkpt>
      <trkpt lat="45.87555" lon="6.0969">
        <ele>569</ele>
        <time>2016-05-02T11:07:07.047Z</time>
      </trkpt>
      <trkpt lat="45.87557" lon="6.0969">
        <ele>569</ele>
        <time>2016-05-02T11:07:08.047Z</time>
      </trkpt>
      <trkpt lat="45.8756" lon="6.09691">
        <ele>569</ele>
        <time>2016-05-02T11:07:09.047Z</time>
      </trkpt>
      <trkpt lat="45.87562" lon="6.09693">
        <ele>569</ele>
        <time>2016-05-02T11:07:10.047Z</time>
      </trkpt>
      <trkpt lat="45.87564" lon="6.09694">
        <ele>569</ele>
        <time>2016-05-02T11:07:11.047Z</time>
      </trkpt>
      <trkpt lat="45.87567" lon="6.09696">
        <ele>569</ele>
        <time>2016-05-02T11:07:12.047Z</time>
      </trkpt>
      <trkpt lat="45.8757" lon="6.09697">
        <ele>569</ele>
        <time>2016-05-02T11:07:13.047Z</time>
      </trkpt>
      <trkpt lat="45.87573" lon="6.09699">
        <ele>569</ele>
        <time>2016-05-02T11:07:14.047Z</time>
      </trkpt>
      <trkpt lat="45.87576" lon="6.097">
        <ele>569</ele>
        <time>2016-05-02T11:07:15.047Z</time>
      </trkpt>
      <trkpt lat="45.87579" lon="6.09701">
        <ele>568</ele>
        <time>2016-05-02T11:07:16.047Z</time>
      </trkpt>
      <trkpt lat="45.87582" lon="6.09702">
        <ele>568</ele>
        <time>2016-05-02T11:07:17.047Z</time>
      </trkpt>
      <trkpt lat="45.87585" lon="6.09703">
        <ele>568</ele>
        <time>2016-05-02T11:07:18.047Z</time>
      </trkpt>
      <trkpt lat="45.87588" lon="6.09704">
        <ele>568</ele>
        <time>2016-05-02T11:07:19.047Z</time>
      </trkpt>
      <trkpt lat="45.87591" lon="6.09705">
        <ele>568</ele>
        <time>2016-05-02T11:07:20.047Z</time>
      </trkpt>
      <trkpt lat="45.87594" lon="6.09706">
        <ele>568</ele>
        <time>2016-05-02T11:07:21.047Z</time>
      </trkpt>
      <trkpt lat="45.87597" lon="6.09706">
        <ele>568</ele>
        <time>2016-05-02T11:07:22.047Z</time>
      </trkpt>
      <trkpt lat="45.876" lon="6.09706">
        <ele>568</ele>
        <time>2016-05-02T11:07:23.047Z</time>
      </trkpt>
      <trkpt lat="45.87603" lon="6.09706">
        <ele>567</ele>
        <time>2016-05-02T11:07:24.047Z</time>
      </trkpt>
      <trkpt lat="45.87606" lon="6.09706">
        <ele>567</ele>
        <time>2016-05-02T11:07:25.047Z</time>
      </trkpt>
      <trkpt lat="45.87609" lon="6.09706">
        <ele>567</ele>
        <time>2016-05-02T11:07:26.047Z</time>
      </trkpt>
      <trkpt lat="45.87612" lon="6.09706">
        <ele>567</ele>
        <time>2016-05-02T11:07:27.047Z</time>
      </trkpt>
      <trkpt lat="45.87615" lon="6.09706">
        <ele>567</ele>
        <time>2016-05-02T11:07:28.047Z</time>
      </trkpt>
      <trkpt lat="45.87618" lon="6.09707">
        <ele>567</ele>
        <time>2016-05-02T11:07:29.047Z</time>
      </trkpt>
      <trkpt lat="45.87621" lon="6.09706">
        <ele>567</ele>
        <time>2016-05-02T11:07:30.047Z</time>
      </trkpt>
      <trkpt lat="45.87624" lon="6.09707">
        <ele>567</ele>
        <time>2016-05-02T11:07:31.047Z</time>
      </trkpt>
      <trkpt lat="45.87627" lon="6.09707">
        <ele>567</ele>
        <time>2016-05-02T11:07:32.047Z</time>
      </trkpt>
      <trkpt lat="45.8763" lon="6.09707">
        <ele>566</ele>
        <time>2016-05-02T11:07:33.047Z</time>
      </trkpt>
      <trkpt lat="45.87633" lon="6.09707">
        <ele>566</ele>
        <time>2016-05-02T11:07:34.047Z</time>
      </trkpt>
      <trkpt lat="45.87636" lon="6.09707">
        <ele>566</ele>
        <time>2016-05-02T11:07:35.047Z</time>
      </trkpt>
      <trkpt lat="45.87638" lon="6.09707">
        <ele>566</ele>
        <time>2016-05-02T11:07:36.047Z</time>
      </trkpt>
      <trkpt lat="45.87641" lon="6.09707">
        <ele>566</ele>
        <time>2016-05-02T11:07:37.047Z</time>
      </trkpt>
      <trkpt lat="45.87644" lon="6.09708">
        <ele>565</ele>
        <time>2016-05-02T11:07:38.047Z</time>
      </trkpt>
      <trkpt lat="45.87647" lon="6.09708">
        <ele>565</ele>
        <time>2016-05-02T11:07:39.047Z</time>
      </trkpt>
      <trkpt lat="45.8765" lon="6.09709">
        <ele>565</ele>
        <time>2016-05-02T11:07:40.047Z</time>
      </trkpt>
      <trkpt lat="45.87653" lon="6.09709">
        <ele>565</ele>
        <time>2016-05-02T11:07:41.047Z</time>
      </trkpt>
      <trkpt lat="45.87656" lon="6.0971">
        <ele>565</ele>
        <time>2016-05-02T11:07:42.047Z</time>
      </trkpt>
      <trkpt lat="45.87659" lon="6.09711">
        <ele>565</ele>
        <time>2016-05-02T11:07:43.047Z</time>
      </trkpt>
      <trkpt lat="45.87662" lon="6.09712">
        <ele>565</ele>
        <time>2016-05-02T11:07:44.047Z</time>
      </trkpt>
      <trkpt lat="45.87665" lon="6.09713">
        <ele>564</ele>
        <time>2016-05-02T11:07:45.047Z</time>
      </trkpt>
      <trkpt lat="45.87668" lon="6.09714">
        <ele>564</ele>
        <time>2016-05-02T11:07:46.047Z</time>
      </trkpt>
      <trkpt lat="45.87671" lon="6.09716">
        <ele>564</ele>
        <time>2016-05-02T11:07:47.047Z</time>
      </trkpt>
      <trkpt lat="45.87674" lon="6.09717">
        <ele>564</ele>
        <time>2016-05-02T11:07:48.047Z</time>
      </trkpt>
      <trkpt lat="45.87678" lon="6.09718">
        <ele>563</ele>
        <time>2016-05-02T11:07:49.047Z</time>
      </trkpt>
      <trkpt lat="45.8768" lon="6.0972">
        <ele>563</ele>
        <time>2016-05-02T11:07:50.047Z</time>
      </trkpt>
      <trkpt lat="45.87683" lon="6.09721">
        <ele>563</ele>
        <time>2016-05-02T11:07:51.047Z</time>
      </trkpt>
      <trkpt lat="45.87686" lon="6.09722">
        <ele>563</ele>
        <time>2016-05-02T11:07:52.047Z</time>
      </trkpt>
      <trkpt lat="45.87689" lon="6.09724">
        <ele>563</ele>
        <time>2016-05-02T11:07:53.047Z</time>
      </trkpt>
      <trkpt lat="45.87692" lon="6.09725">
        <ele>562</ele>
        <time>2016-05-02T11:07:54.047Z</time>
      </trkpt>
      <trkpt lat="45.87695" lon="6.09727">
        <ele>562</ele>
        <time>2016-05-02T11:07:55.047Z</time>
      </trkpt>
      <trkpt lat="45.87697" lon="6.09728">
        <ele>562</ele>
        <time>2016-05-02T11:07:56.047Z</time>
      </trkpt>
      <trkpt lat="45.877" lon="6.09729">
        <ele>562</ele>
        <time>2016-05-02T11:07:57.047Z</time>
      </trkpt>
      <trkpt lat="45.87703" lon="6.09731">
        <ele>562</ele>
        <time>2016-05-02T11:07:58.047Z</time>
      </trkpt>
      <trkpt lat="45.87706" lon="6.09733">
        <ele>561</ele>
        <time>2016-05-02T11:07:59.047Z</time>
      </trkpt>
      <trkpt lat="45.87708" lon="6.09734">
        <ele>561</ele>
        <time>2016-05-02T11:08:00.047Z</time>
      </trkpt>
      <trkpt lat="45.87711" lon="6.09736">
        <ele>561</ele>
        <time>2016-05-02T11:08:01.047Z</time>
      </trkpt>
      <trkpt lat="45.87713" lon="6.09738">
        <ele>561</ele>
        <time>2016-05-02T11:08:02.047Z</time>
      </trkpt>
      <trkpt lat="45.87716" lon="6.0974">
        <ele>561</ele>
        <time>2016-05-02T11:08:03.047Z</time>
      </trkpt>
      <trkpt lat="45.87718" lon="6.09743">
        <ele>560</ele>
        <time>2016-05-02T11:08:04.047Z</time>
      </trkpt>
      <trkpt lat="45.8772" lon="6.09745">
        <ele>560</ele>
        <time>2016-05-02T11:08:05.047Z</time>
      </trkpt>
      <trkpt lat="45.87723" lon="6.09748">
        <ele>560</ele>
        <time>2016-05-02T11:08:06.047Z</time>
      </trkpt>
      <trkpt lat="45.87725" lon="6.09751">
        <ele>560</ele>
        <time>2016-05-02T11:08:07.047Z</time>
      </trkpt>
      <trkpt lat="45.87727" lon="6.09754">
        <ele>560</ele>
        <time>2016-05-02T11:08:08.047Z</time>
      </trkpt>
      <trkpt lat="45.87729" lon="6.09757">
        <ele>560</ele>
        <time>2016-05-02T11:08:09.047Z</time>
      </trkpt>
      <trkpt lat="45.87731" lon="6.0976">
        <ele>560</ele>
        <time>2016-05-02T11:08:10.047Z</time>
      </trkpt>
      <trkpt lat="45.87733" lon="6.09764">
        <ele>560</ele>
        <time>2016-05-02T11:08:11.047Z</time>
      </trkpt>
      <trkpt lat="45.87734" lon="6.09768">
        <ele>560</ele>
        <time>2016-05-02T11:08:12.047Z</time>
      </trkpt>
      <trkpt lat="45.87736" lon="6.09771">
        <ele>559</ele>
        <time>2016-05-02T11:08:13.047Z</time>
      </trkpt>
      <trkpt lat="45.87737" lon="6.09775">
        <ele>559</ele>
        <time>2016-05-02T11:08:14.047Z</time>
      </trkpt>
      <trkpt lat="45.87739" lon="6.09778">
        <ele>559</ele>
        <time>2016-05-02T11:08:15.047Z</time>
      </trkpt>
      <trkpt lat="45.87741" lon="6.09782">
        <ele>559</ele>
        <time>2016-05-02T11:08:16.047Z</time>
      </trkpt>
      <trkpt lat="45.87743" lon="6.09786">
        <ele>559</ele>
        <time>2016-05-02T11:08:17.047Z</time>
      </trkpt>
      <trkpt lat="45.87745" lon="6.09789">
        <ele>559</ele>
        <time>2016-05-02T11:08:18.047Z</time>
      </trkpt>
      <trkpt lat="45.87746" lon="6.09792">
        <ele>559</ele>
        <time>2016-05-02T11:08:19.047Z</time>
      </trkpt>
      <trkpt lat="45.87748" lon="6.09796">
        <ele>558</ele>
        <time>2016-05-02T11:08:20.047Z</time>
      </trkpt>
      <trkpt lat="45.8775" lon="6.09799">
        <ele>558</ele>
        <time>2016-05-02T11:08:21.047Z</time>
      </trkpt>
      <trkpt lat="45.87752" lon="6.09803">
        <ele>558</ele>
        <time>2016-05-02T11:08:22.047Z</time>
      </trkpt>
      <trkpt lat="45.87753" lon="6.09807">
        <ele>558</ele>
        <time>2016-05-02T11:08:23.047Z</time>
      </trkpt>
      <trkpt lat="45.87755" lon="6.0981">
        <ele>558</ele>
        <time>2016-05-02T11:08:24.047Z</time>
      </trkpt>
      <trkpt lat="45.87756" lon="6.09813">
        <ele>557</ele>
        <time>2016-05-02T11:08:25.047Z</time>
      </trkpt>
      <trkpt lat="45.87758" lon="6.09817">
        <ele>557</ele>
        <time>2016-05-02T11:08:26.047Z</time>
      </trkpt>
      <trkpt lat="45.8776" lon="6.0982">
        <ele>557</ele>
        <time>2016-05-02T11:08:27.047Z</time>
      </trkpt>
      <trkpt lat="45.87762" lon="6.09824">
        <ele>557</ele>
        <time>2016-05-02T11:08:28.047Z</time>
      </trkpt>
      <trkpt lat="45.87764" lon="6.09827">
        <ele>556</ele>
        <time>2016-05-02T11:08:29.047Z</time>
      </trkpt>
      <trkpt lat="45.87765" lon="6.09831">
        <ele>556</ele>
        <time>2016-05-02T11:08:30.047Z</time>
      </trkpt>
      <trkpt lat="45.87767" lon="6.09834">
        <ele>556</ele>
        <time>2016-05-02T11:08:31.047Z</time>
      </trkpt>
      <trkpt lat="45.87768" lon="6.09838">
        <ele>556</ele>
        <time>2016-05-02T11:08:32.047Z</time>
      </trkpt>
      <trkpt lat="45.8777" lon="6.09841">
        <ele>555</ele>
        <time>2016-05-02T11:08:33.047Z</time>
      </trkpt>
      <trkpt lat="45.87771" lon="6.09845">
        <ele>555</ele>
        <time>2016-05-02T11:08:34.047Z</time>
      </trkpt>
      <trkpt lat="45.87773" lon="6.09849">
        <ele>555</ele>
        <time>2016-05-02T11:08:35.047Z</time>
      </trkpt>
      <trkpt lat="45.87774" lon="6.09852">
        <ele>555</ele>
        <time>2016-05-02T11:08:36.047Z</time>
      </trkpt>
      <trkpt lat="45.87776" lon="6.09856">
        <ele>555</ele>
        <time>2016-05-02T11:08:37.047Z</time>
      </trkpt>
      <trkpt lat="45.87778" lon="6.09859">
        <ele>555</ele>
        <time>2016-05-02T11:08:38.047Z</time>
      </trkpt>
      <trkpt lat="45.8778" lon="6.09862">
        <ele>555</ele>
        <time>2016-05-02T11:08:39.047Z</time>
      </trkpt>
      <trkpt lat="45.87782" lon="6.09865">
        <ele>555</ele>
        <time>2016-05-02T11:08:40.047Z</time>
      </trkpt>
      <trkpt lat="45.87784" lon="6.09868">
        <ele>555</ele>
        <time>2016-05-02T11:08:41.047Z</time>
      </trkpt>
      <trkpt lat="45.87786" lon="6.09871">
        <ele>555</ele>
        <time>2016-05-02T11:08:42.047Z</time>
      </trkpt>
      <trkpt lat="45.87788" lon="6.09873">
        <ele>555</ele>
        <time>2016-05-02T11:08:43.047Z</time>
      </trkpt>
      <trkpt lat="45.8779" lon="6.09876">
        <ele>555</ele>
        <time>2016-05-02T11:08:44.047Z</time>
      </trkpt>
      <trkpt lat="45.87793" lon="6.09879">
        <ele>554</ele>
        <time>2016-05-02T11:08:45.047Z</time>
      </trkpt>
      <trkpt lat="45.87795" lon="6.09881">
        <ele>554</ele>
        <time>2016-05-02T11:08:46.047Z</time>
      </trkpt>
      <trkpt lat="45.87797" lon="6.09884">
        <ele>554</ele>
        <time>2016-05-02T11:08:47.047Z</time>
      </trkpt>
      <trkpt lat="45.878" lon="6.09886">
        <ele>554</ele>
        <time>2016-05-02T11:08:48.047Z</time>
      </trkpt>
      <trkpt lat="45.87802" lon="6.09888">
        <ele>554</ele>
        <time>2016-05-02T11:08:49.047Z</time>
      </trkpt>
      <trkpt lat="45.87804" lon="6.09891">
        <ele>553</ele>
        <time>2016-05-02T11:08:50.047Z</time>
      </trkpt>
      <trkpt lat="45.87806" lon="6.09893">
        <ele>553</ele>
        <time>2016-05-02T11:08:51.047Z</time>
      </trkpt>
      <trkpt lat="45.87809" lon="6.09895">
        <ele>553</ele>
        <time>2016-05-02T11:08:52.047Z</time>
      </trkpt>
      <trkpt lat="45.87811" lon="6.09898">
        <ele>553</ele>
        <time>2016-05-02T11:08:53.047Z</time>
      </trkpt>
      <trkpt lat="45.87813" lon="6.099">
        <ele>553</ele>
        <time>2016-05-02T11:08:54.047Z</time>
      </trkpt>
      <trkpt lat="45.87816" lon="6.09903">
        <ele>552</ele>
        <time>2016-05-02T11:08:55.047Z</time>
      </trkpt>
      <trkpt lat="45.87818" lon="6.09905">
        <ele>552</ele>
        <time>2016-05-02T11:08:56.047Z</time>
      </trkpt>
      <trkpt lat="45.87821" lon="6.09907">
        <ele>552</ele>
        <time>2016-05-02T11:08:57.047Z</time>
      </trkpt>
      <trkpt lat="45.87823" lon="6.09909">
        <ele>551</ele>
        <time>2016-05-02T11:08:58.047Z</time>
      </trkpt>
      <trkpt lat="45.87825" lon="6.09912">
        <ele>551</ele>
        <time>2016-05-02T11:08:59.047Z</time>
      </trkpt>
      <trkpt lat="45.87828" lon="6.09915">
        <ele>551</ele>
        <time>2016-05-02T11:09:00.047Z</time>
      </trkpt>
      <trkpt lat="45.8783" lon="6.09918">
        <ele>550</ele>
        <time>2016-05-02T11:09:01.047Z</time>
      </trkpt>
      <trkpt lat="45.87833" lon="6.09921">
        <ele>550</ele>
        <time>2016-05-02T11:09:02.047Z</time>
      </trkpt>
      <trkpt lat="45.87835" lon="6.09923">
        <ele>550</ele>
        <time>2016-05-02T11:09:03.047Z</time>
      </trkpt>
      <trkpt lat="45.87837" lon="6.09926">
        <ele>549</ele>
        <time>2016-05-02T11:09:04.047Z</time>
      </trkpt>
      <trkpt lat="45.8784" lon="6.09928">
        <ele>549</ele>
        <time>2016-05-02T11:09:05.047Z</time>
      </trkpt>
      <trkpt lat="45.87842" lon="6.0993">
        <ele>549</ele>
        <time>2016-05-02T11:09:06.047Z</time>
      </trkpt>
      <trkpt lat="45.87845" lon="6.09933">
        <ele>548</ele>
        <time>2016-05-02T11:09:07.047Z</time>
      </trkpt>
      <trkpt lat="45.87847" lon="6.09935">
        <ele>548</ele>
        <time>2016-05-02T11:09:08.047Z</time>
      </trkpt>
      <trkpt lat="45.8785" lon="6.09937">
        <ele>548</ele>
        <time>2016-05-02T11:09:09.047Z</time>
      </trkpt>
      <trkpt lat="45.87852" lon="6.09939">
        <ele>547</ele>
        <time>2016-05-02T11:09:10.047Z</time>
      </trkpt>
      <trkpt lat="45.87855" lon="6.09941">
        <ele>547</ele>
        <time>2016-05-02T11:09:11.047Z</time>
      </trkpt>
      <trkpt lat="45.87857" lon="6.09943">
        <ele>547</ele>
        <time>2016-05-02T11:09:12.047Z</time>
      </trkpt>
      <trkpt lat="45.8786" lon="6.09945">
        <ele>547</ele>
        <time>2016-05-02T11:09:13.047Z</time>
      </trkpt>
      <trkpt lat="45.87863" lon="6.09947">
        <ele>546</ele>
        <time>2016-05-02T11:09:14.047Z</time>
      </trkpt>
      <trkpt lat="45.87865" lon="6.09949">
        <ele>546</ele>
        <time>2016-05-02T11:09:15.047Z</time>
      </trkpt>
      <trkpt lat="45.87868" lon="6.09951">
        <ele>546</ele>
        <time>2016-05-02T11:09:16.047Z</time>
      </trkpt>
      <trkpt lat="45.8787" lon="6.09953">
        <ele>546</ele>
        <time>2016-05-02T11:09:17.047Z</time>
      </trkpt>
      <trkpt lat="45.87872" lon="6.09954">
        <ele>546</ele>
        <time>2016-05-02T11:09:18.047Z</time>
      </trkpt>
      <trkpt lat="45.87875" lon="6.09956">
        <ele>545</ele>
        <time>2016-05-02T11:09:19.047Z</time>
      </trkpt>
      <trkpt lat="45.87877" lon="6.09958">
        <ele>545</ele>
        <time>2016-05-02T11:09:20.047Z</time>
      </trkpt>
      <trkpt lat="45.87879" lon="6.0996">
        <ele>545</ele>
        <time>2016-05-02T11:09:21.047Z</time>
      </trkpt>
      <trkpt lat="45.87881" lon="6.09962">
        <ele>545</ele>
        <time>2016-05-02T11:09:22.047Z</time>
      </trkpt>
      <trkpt lat="45.87883" lon="6.09964">
        <ele>545</ele>
        <time>2016-05-02T11:09:23.047Z</time>
      </trkpt>
      <trkpt lat="45.87886" lon="6.09967">
        <ele>544</ele>
        <time>2016-05-02T11:09:24.047Z</time>
      </trkpt>
      <trkpt lat="45.87888" lon="6.09969">
        <ele>544</ele>
        <time>2016-05-02T11:09:25.047Z</time>
      </trkpt>
      <trkpt lat="45.8789" lon="6.09971">
        <ele>544</ele>
        <time>2016-05-02T11:09:26.047Z</time>
      </trkpt>
      <trkpt lat="45.87892" lon="6.09973">
        <ele>544</ele>
        <time>2016-05-02T11:09:27.047Z</time>
      </trkpt>
      <trkpt lat="45.87894" lon="6.09976">
        <ele>544</ele>
        <time>2016-05-02T11:09:28.047Z</time>
      </trkpt>
      <trkpt lat="45.87897" lon="6.09979">
        <ele>544</ele>
        <time>2016-05-02T11:09:29.047Z</time>
      </trkpt>
      <trkpt lat="45.87899" lon="6.09982">
        <ele>544</ele>
        <time>2016-05-02T11:09:30.047Z</time>
      </trkpt>
      <trkpt lat="45.87901" lon="6.09985">
        <ele>543</ele>
        <time>2016-05-02T11:09:31.047Z</time>
      </trkpt>
      <trkpt lat="45.87902" lon="6.09987">
        <ele>543</ele>
        <time>2016-05-02T11:09:32.047Z</time>
      </trkpt>
      <trkpt lat="45.87904" lon="6.0999">
        <ele>543</ele>
        <time>2016-05-02T11:09:33.047Z</time>
      </trkpt>
      <trkpt lat="45.87906" lon="6.09993">
        <ele>543</ele>
        <time>2016-05-02T11:09:34.047Z</time>
      </trkpt>
      <trkpt lat="45.87908" lon="6.09997">
        <ele>543</ele>
        <time>2016-05-02T11:09:35.047Z</time>
      </trkpt>
      <trkpt lat="45.87909" lon="6.1">
        <ele>543</ele>
        <time>2016-05-02T11:09:36.047Z</time>
      </trkpt>
      <trkpt lat="45.87911" lon="6.10003">
        <ele>543</ele>
        <time>2016-05-02T11:09:37.047Z</time>
      </trkpt>
      <trkpt lat="45.87912" lon="6.10006">
        <ele>543</ele>
        <time>2016-05-02T11:09:38.047Z</time>
      </trkpt>
      <trkpt lat="45.87914" lon="6.10009">
        <ele>542</ele>
        <time>2016-05-02T11:09:39.047Z</time>
      </trkpt>
      <trkpt lat="45.87915" lon="6.10012">
        <ele>542</ele>
        <time>2016-05-02T11:09:40.047Z</time>
      </trkpt>
      <trkpt lat="45.87917" lon="6.10015">
        <ele>542</ele>
        <time>2016-05-02T11:09:41.047Z</time>
      </trkpt>
      <trkpt lat="45.87919" lon="6.10018">
        <ele>542</ele>
        <time>2016-05-02T11:09:42.047Z</time>
      </trkpt>
      <trkpt lat="45.87921" lon="6.10021">
        <ele>542</ele>
        <time>2016-05-02T11:09:43.047Z</time>
      </trkpt>
      <trkpt lat="45.87922" lon="6.10024">
        <ele>542</ele>
        <time>2016-05-02T11:09:44.047Z</time>
      </trkpt>
      <trkpt lat="45.87924" lon="6.10027">
        <ele>542</ele>
        <time>2016-05-02T11:09:45.047Z</time>
      </trkpt>
      <trkpt lat="45.87925" lon="6.10031">
        <ele>542</ele>
        <time>2016-05-02T11:09:46.047Z</time>
      </trkpt>
      <trkpt lat="45.87927" lon="6.10034">
        <ele>542</ele>
        <time>2016-05-02T11:09:47.047Z</time>
      </trkpt>
      <trkpt lat="45.87929" lon="6.10038">
        <ele>542</ele>
        <time>2016-05-02T11:09:48.047Z</time>
      </trkpt>
      <trkpt lat="45.87931" lon="6.10042">
        <ele>542</ele>
        <time>2016-05-02T11:09:49.047Z</time>
      </trkpt>
      <trkpt lat="45.87933" lon="6.10046">
        <ele>542</ele>
        <time>2016-05-02T11:09:50.047Z</time>
      </trkpt>
      <trkpt lat="45.87935" lon="6.10049">
        <ele>542</ele>
        <time>2016-05-02T11:09:51.047Z</time>
      </trkpt>
      <trkpt lat="45.87937" lon="6.10053">
        <ele>542</ele>
        <time>2016-05-02T11:09:52.047Z</time>
      </trkpt>
      <trkpt lat="45.87939" lon="6.10056">
        <ele>542</ele>
        <time>2016-05-02T11:09:53.047Z</time>
      </trkpt>
      <trkpt lat="45.87941" lon="6.1006">
        <ele>542</ele>
        <time>2016-05-02T11:09:54.047Z</time>
      </trkpt>
      <trkpt lat="45.87943" lon="6.10063">
        <ele>542</ele>
        <time>2016-05-02T11:09:55.047Z</time>
      </trkpt>
      <trkpt lat="45.87945" lon="6.10066">
        <ele>541</ele>
        <time>2016-05-02T11:09:56.047Z</time>
      </trkpt>
      <trkpt lat="45.87946" lon="6.10069">
        <ele>541</ele>
        <time>2016-05-02T11:09:57.047Z</time>
      </trkpt>
      <trkpt lat="45.87948" lon="6.10072">
        <ele>541</ele>
        <time>2016-05-02T11:09:58.047Z</time>
      </trkpt>
      <trkpt lat="45.8795" lon="6.10074">
        <ele>541</ele>
        <time>2016-05-02T11:09:59.047Z</time>
      </trkpt>
      <trkpt lat="45.87952" lon="6.10077">
        <ele>541</ele>
        <time>2016-05-02T11:10:00.047Z</time>
      </trkpt>
      <trkpt lat="45.87953" lon="6.10079">
        <ele>541</ele>
        <time>2016-05-02T11:10:01.047Z</time>
      </trkpt>
      <trkpt lat="45.87955" lon="6.10081">
        <ele>541</ele>
        <time>2016-05-02T11:10:02.047Z</time>
      </trkpt>
      <trkpt lat="45.87957" lon="6.10083">
        <ele>541</ele>
        <time>2016-05-02T11:10:03.047Z</time>
      </trkpt>
      <trkpt lat="45.87959" lon="6.10085">
        <ele>541</ele>
        <time>2016-05-02T11:10:04.047Z</time>
      </trkpt>
      <trkpt lat="45.87961" lon="6.10087">
        <ele>541</ele>
        <time>2016-05-02T11:10:05.047Z</time>
      </trkpt>
      <trkpt lat="45.87963" lon="6.10089">
        <ele>541</ele>
        <time>2016-05-02T11:10:06.047Z</time>
      </trkpt>
      <trkpt lat="45.87965" lon="6.10091">
        <ele>541</ele>
        <time>2016-05-02T11:10:07.047Z</time>
      </trkpt>
      <trkpt lat="45.87967" lon="6.10092">
        <ele>542</ele>
        <time>2016-05-02T11:10:08.047Z</time>
      </trkpt>
      <trkpt lat="45.87969" lon="6.10094">
        <ele>542</ele>
        <time>2016-05-02T11:10:09.047Z</time>
      </trkpt>
      <trkpt lat="45.87972" lon="6.10096">
        <ele>542</ele>
        <time>2016-05-02T11:10:10.047Z</time>
      </trkpt>
      <trkpt lat="45.87974" lon="6.10098">
        <ele>542</ele>
        <time>2016-05-02T11:10:11.047Z</time>
      </trkpt>
      <trkpt lat="45.87976" lon="6.101">
        <ele>542</ele>
        <time>2016-05-02T11:10:12.047Z</time>
      </trkpt>
      <trkpt lat="45.87979" lon="6.10103">
        <ele>541</ele>
        <time>2016-05-02T11:10:13.047Z</time>
      </trkpt>
      <trkpt lat="45.87981" lon="6.10106">
        <ele>541</ele>
        <time>2016-05-02T11:10:14.047Z</time>
      </trkpt>
      <trkpt lat="45.87984" lon="6.10109">
        <ele>541</ele>
        <time>2016-05-02T11:10:15.047Z</time>
      </trkpt>
      <trkpt lat="45.87986" lon="6.10112">
        <ele>541</ele>
        <time>2016-05-02T11:10:16.047Z</time>
      </trkpt>
      <trkpt lat="45.87988" lon="6.10116">
        <ele>540</ele>
        <time>2016-05-02T11:10:17.047Z</time>
      </trkpt>
      <trkpt lat="45.8799" lon="6.1012">
        <ele>540</ele>
        <time>2016-05-02T11:10:18.047Z</time>
      </trkpt>
      <trkpt lat="45.87991" lon="6.10124">
        <ele>540</ele>
        <time>2016-05-02T11:10:19.047Z</time>
      </trkpt>
      <trkpt lat="45.87992" lon="6.10128">
        <ele>540</ele>
        <time>2016-05-02T11:10:20.047Z</time>
      </trkpt>
      <trkpt lat="45.87994" lon="6.10132">
        <ele>540</ele>
        <time>2016-05-02T11:10:21.047Z</time>
      </trkpt>
      <trkpt lat="45.87995" lon="6.10136">
        <ele>539</ele>
        <time>2016-05-02T11:10:22.047Z</time>
      </trkpt>
      <trkpt lat="45.87997" lon="6.1014">
        <ele>539</ele>
        <time>2016-05-02T11:10:23.047Z</time>
      </trkpt>
      <trkpt lat="45.87998" lon="6.10144">
        <ele>539</ele>
        <time>2016-05-02T11:10:24.047Z</time>
      </trkpt>
      <trkpt lat="45.87999" lon="6.10148">
        <ele>539</ele>
        <time>2016-05-02T11:10:25.047Z</time>
      </trkpt>
      <trkpt lat="45.88001" lon="6.10151">
        <ele>539</ele>
        <time>2016-05-02T11:10:26.047Z</time>
      </trkpt>
      <trkpt lat="45.88002" lon="6.10154">
        <ele>539</ele>
        <time>2016-05-02T11:10:27.047Z</time>
      </trkpt>
      <trkpt lat="45.88004" lon="6.10158">
        <ele>538</ele>
        <time>2016-05-02T11:10:28.047Z</time>
      </trkpt>
      <trkpt lat="45.88005" lon="6.10161">
        <ele>538</ele>
        <time>2016-05-02T11:10:29.047Z</time>
      </trkpt>
      <trkpt lat="45.88007" lon="6.10165">
        <ele>538</ele>
        <time>2016-05-02T11:10:30.047Z</time>
      </trkpt>
      <trkpt lat="45.88009" lon="6.10168">
        <ele>538</ele>
        <time>2016-05-02T11:10:31.047Z</time>
      </trkpt>
      <trkpt lat="45.88011" lon="6.1017">
        <ele>538</ele>
        <time>2016-05-02T11:10:32.047Z</time>
      </trkpt>
      <trkpt lat="45.88013" lon="6.10173">
        <ele>537</ele>
        <time>2016-05-02T11:10:33.047Z</time>
      </trkpt>
      <trkpt lat="45.88015" lon="6.10175">
        <ele>537</ele>
        <time>2016-05-02T11:10:34.047Z</time>
      </trkpt>
      <trkpt lat="45.88018" lon="6.10177">
        <ele>537</ele>
        <time>2016-05-02T11:10:35.047Z</time>
      </trkpt>
      <trkpt lat="45.8802" lon="6.10179">
        <ele>537</ele>
        <time>2016-05-02T11:10:36.047Z</time>
      </trkpt>
      <trkpt lat="45.88023" lon="6.10181">
        <ele>537</ele>
        <time>2016-05-02T11:10:37.047Z</time>
      </trkpt>
      <trkpt lat="45.88026" lon="6.10182">
        <ele>537</ele>
        <time>2016-05-02T11:10:38.047Z</time>
      </trkpt>
      <trkpt lat="45.88029" lon="6.10184">
        <ele>537</ele>
        <time>2016-05-02T11:10:39.047Z</time>
      </trkpt>
      <trkpt lat="45.88032" lon="6.10186">
        <ele>536</ele>
        <time>2016-05-02T11:10:40.047Z</time>
      </trkpt>
      <trkpt lat="45.88034" lon="6.10187">
        <ele>536</ele>
        <time>2016-05-02T11:10:41.047Z</time>
      </trkpt>
      <trkpt lat="45.88037" lon="6.10189">
        <ele>536</ele>
        <time>2016-05-02T11:10:42.047Z</time>
      </trkpt>
      <trkpt lat="45.8804" lon="6.1019">
        <ele>536</ele>
        <time>2016-05-02T11:10:43.047Z</time>
      </trkpt>
      <trkpt lat="45.88042" lon="6.10192">
        <ele>536</ele>
        <time>2016-05-02T11:10:44.047Z</time>
      </trkpt>
      <trkpt lat="45.88045" lon="6.10193">
        <ele>536</ele>
        <time>2016-05-02T11:10:45.047Z</time>
      </trkpt>
      <trkpt lat="45.88048" lon="6.10195">
        <ele>535</ele>
        <time>2016-05-02T11:10:46.047Z</time>
      </trkpt>
      <trkpt lat="45.88051" lon="6.10196">
        <ele>535</ele>
        <time>2016-05-02T11:10:47.047Z</time>
      </trkpt>
      <trkpt lat="45.88054" lon="6.10198">
        <ele>535</ele>
        <time>2016-05-02T11:10:48.047Z</time>
      </trkpt>
      <trkpt lat="45.88057" lon="6.10199">
        <ele>535</ele>
        <time>2016-05-02T11:10:49.047Z</time>
      </trkpt>
      <trkpt lat="45.8806" lon="6.102">
        <ele>535</ele>
        <time>2016-05-02T11:10:50.047Z</time>
      </trkpt>
      <trkpt lat="45.88063" lon="6.10201">
        <ele>535</ele>
        <time>2016-05-02T11:10:51.047Z</time>
      </trkpt>
      <trkpt lat="45.88066" lon="6.10202">
        <ele>534</ele>
        <time>2016-05-02T11:10:52.047Z</time>
      </trkpt>
      <trkpt lat="45.88068" lon="6.10204">
        <ele>534</ele>
        <time>2016-05-02T11:10:53.047Z</time>
      </trkpt>
      <trkpt lat="45.88071" lon="6.10206">
        <ele>534</ele>
        <time>2016-05-02T11:10:54.047Z</time>
      </trkpt>
      <trkpt lat="45.88074" lon="6.10207">
        <ele>534</ele>
        <time>2016-05-02T11:10:55.047Z</time>
      </trkpt>
      <trkpt lat="45.88077" lon="6.10208">
        <ele>534</ele>
        <time>2016-05-02T11:10:56.047Z</time>
      </trkpt>
      <trkpt lat="45.88079" lon="6.10209">
        <ele>533</ele>
        <time>2016-05-02T11:10:57.047Z</time>
      </trkpt>
      <trkpt lat="45.88082" lon="6.1021">
        <ele>533</ele>
        <time>2016-05-02T11:10:58.047Z</time>
      </trkpt>
      <trkpt lat="45.88085" lon="6.10211">
        <ele>533</ele>
        <time>2016-05-02T11:10:59.047Z</time>
      </trkpt>
      <trkpt lat="45.88087" lon="6.10211">
        <ele>533</ele>
        <time>2016-05-02T11:11:00.047Z</time>
      </trkpt>
      <trkpt lat="45.8809" lon="6.10212">
        <ele>533</ele>
        <time>2016-05-02T11:11:01.047Z</time>
      </trkpt>
      <trkpt lat="45.88093" lon="6.10212">
        <ele>533</ele>
        <time>2016-05-02T11:11:02.047Z</time>
      </trkpt>
      <trkpt lat="45.88095" lon="6.10213">
        <ele>533</ele>
        <time>2016-05-02T11:11:03.047Z</time>
      </trkpt>
      <trkpt lat="45.88098" lon="6.10214">
        <ele>533</ele>
        <time>2016-05-02T11:11:04.047Z</time>
      </trkpt>
      <trkpt lat="45.88101" lon="6.10214">
        <ele>533</ele>
        <time>2016-05-02T11:11:05.047Z</time>
      </trkpt>
      <trkpt lat="45.88103" lon="6.10215">
        <ele>533</ele>
        <time>2016-05-02T11:11:06.047Z</time>
      </trkpt>
      <trkpt lat="45.88106" lon="6.10216">
        <ele>533</ele>
        <time>2016-05-02T11:11:07.047Z</time>
      </trkpt>
      <trkpt lat="45.88109" lon="6.10217">
        <ele>533</ele>
        <time>2016-05-02T11:11:08.047Z</time>
      </trkpt>
      <trkpt lat="45.88111" lon="6.10218">
        <ele>533</ele>
        <time>2016-05-02T11:11:09.047Z</time>
      </trkpt>
      <trkpt lat="45.88114" lon="6.10219">
        <ele>533</ele>
        <time>2016-05-02T11:11:10.047Z</time>
      </trkpt>
      <trkpt lat="45.88117" lon="6.1022">
        <ele>533</ele>
        <time>2016-05-02T11:11:11.047Z</time>
      </trkpt>
      <trkpt lat="45.8812" lon="6.1022">
        <ele>533</ele>
        <time>2016-05-02T11:11:12.047Z</time>
      </trkpt>
      <trkpt lat="45.88122" lon="6.1022">
        <ele>533</ele>
        <time>2016-05-02T11:11:13.047Z</time>
      </trkpt>
      <trkpt lat="45.88125" lon="6.1022">
        <ele>533</ele>
        <time>2016-05-02T11:11:14.047Z</time>
      </trkpt>
      <trkpt lat="45.88128" lon="6.1022">
        <ele>532</ele>
        <time>2016-05-02T11:11:15.047Z</time>
      </trkpt>
      <trkpt lat="45.88131" lon="6.1022">
        <ele>532</ele>
        <time>2016-05-02T11:11:16.047Z</time>
      </trkpt>
      <trkpt lat="45.88133" lon="6.1022">
        <ele>532</ele>
        <time>2016-05-02T11:11:17.047Z</time>
      </trkpt>
      <trkpt lat="45.88136" lon="6.10221">
        <ele>532</ele>
        <time>2016-05-02T11:11:18.047Z</time>
      </trkpt>
      <trkpt lat="45.88138" lon="6.10222">
        <ele>532</ele>
        <time>2016-05-02T11:11:19.047Z</time>
      </trkpt>
      <trkpt lat="45.88141" lon="6.10223">
        <ele>532</ele>
        <time>2016-05-02T11:11:20.047Z</time>
      </trkpt>
      <trkpt lat="45.88143" lon="6.10225">
        <ele>532</ele>
        <time>2016-05-02T11:11:21.047Z</time>
      </trkpt>
      <trkpt lat="45.88145" lon="6.10227">
        <ele>532</ele>
        <time>2016-05-02T11:11:22.047Z</time>
      </trkpt>
      <trkpt lat="45.88147" lon="6.1023">
        <ele>532</ele>
        <time>2016-05-02T11:11:23.047Z</time>
      </trkpt>
      <trkpt lat="45.88149" lon="6.10233">
        <ele>532</ele>
        <time>2016-05-02T11:11:24.047Z</time>
      </trkpt>
      <trkpt lat="45.88151" lon="6.10236">
        <ele>531</ele>
        <time>2016-05-02T11:11:25.047Z</time>
      </trkpt>
      <trkpt lat="45.88153" lon="6.10239">
        <ele>531</ele>
        <time>2016-05-02T11:11:26.047Z</time>
      </trkpt>
      <trkpt lat="45.88155" lon="6.10243">
        <ele>531</ele>
        <time>2016-05-02T11:11:27.047Z</time>
      </trkpt>
      <trkpt lat="45.88157" lon="6.10246">
        <ele>531</ele>
        <time>2016-05-02T11:11:28.047Z</time>
      </trkpt>
      <trkpt lat="45.88159" lon="6.1025">
        <ele>531</ele>
        <time>2016-05-02T11:11:29.047Z</time>
      </trkpt>
      <trkpt lat="45.88161" lon="6.10253">
        <ele>531</ele>
        <time>2016-05-02T11:11:30.047Z</time>
      </trkpt>
      <trkpt lat="45.88163" lon="6.10257">
        <ele>530</ele>
        <time>2016-05-02T11:11:31.047Z</time>
      </trkpt>
      <trkpt lat="45.88164" lon="6.1026">
        <ele>530</ele>
        <time>2016-05-02T11:11:32.047Z</time>
      </trkpt>
      <trkpt lat="45.88166" lon="6.10264">
        <ele>530</ele>
        <time>2016-05-02T11:11:33.047Z</time>
      </trkpt>
      <trkpt lat="45.88168" lon="6.10267">
        <ele>530</ele>
        <time>2016-05-02T11:11:34.047Z</time>
      </trkpt>
      <trkpt lat="45.88169" lon="6.10271">
        <ele>530</ele>
        <time>2016-05-02T11:11:35.047Z</time>
      </trkpt>
      <trkpt lat="45.8817" lon="6.10275">
        <ele>530</ele>
        <time>2016-05-02T11:11:36.047Z</time>
      </trkpt>
      <trkpt lat="45.88172" lon="6.10278">
        <ele>530</ele>
        <time>2016-05-02T11:11:37.047Z</time>
      </trkpt>
      <trkpt lat="45.88174" lon="6.10282">
        <ele>530</ele>
        <time>2016-05-02T11:11:38.047Z</time>
      </trkpt>
      <trkpt lat="45.88176" lon="6.10285">
        <ele>530</ele>
        <time>2016-05-02T11:11:39.047Z</time>
      </trkpt>
      <trkpt lat="45.88178" lon="6.10288">
        <ele>530</ele>
        <time>2016-05-02T11:11:40.047Z</time>
      </trkpt>
      <trkpt lat="45.8818" lon="6.10291">
        <ele>530</ele>
        <time>2016-05-02T11:11:41.047Z</time>
      </trkpt>
      <trkpt lat="45.88182" lon="6.10293">
        <ele>530</ele>
        <time>2016-05-02T11:11:42.047Z</time>
      </trkpt>
      <trkpt lat="45.88184" lon="6.10296">
        <ele>530</ele>
        <time>2016-05-02T11:11:43.047Z</time>
      </trkpt>
      <trkpt lat="45.88187" lon="6.10298">
        <ele>530</ele>
        <time>2016-05-02T11:11:44.047Z</time>
      </trkpt>
      <trkpt lat="45.88189" lon="6.103">
        <ele>530</ele>
        <time>2016-05-02T11:11:45.047Z</time>
      </trkpt>
      <trkpt lat="45.88191" lon="6.10301">
        <ele>530</ele>
        <time>2016-05-02T11:11:46.047Z</time>
      </trkpt>
      <trkpt lat="45.88193" lon="6.10302">
        <ele>530</ele>
        <time>2016-05-02T11:11:47.047Z</time>
      </trkpt>
      <trkpt lat="45.88195" lon="6.10303">
        <ele>530</ele>
        <time>2016-05-02T11:11:48.047Z</time>
      </trkpt>
      <trkpt lat="45.88196" lon="6.10304">
        <ele>530</ele>
        <time>2016-05-02T11:11:49.047Z</time>
      </trkpt>
      <trkpt lat="45.88198" lon="6.10304">
        <ele>530</ele>
        <time>2016-05-02T11:11:50.047Z</time>
      </trkpt>
      <trkpt lat="45.88201" lon="6.10304">
        <ele>530</ele>
        <time>2016-05-02T11:11:51.047Z</time>
      </trkpt>
      <trkpt lat="45.88203" lon="6.10305">
        <ele>529</ele>
        <time>2016-05-02T11:11:52.047Z</time>
      </trkpt>
      <trkpt lat="45.88205" lon="6.10305">
        <ele>529</ele>
        <time>2016-05-02T11:11:53.047Z</time>
      </trkpt>
      <trkpt lat="45.88208" lon="6.10306">
        <ele>529</ele>
        <time>2016-05-02T11:11:54.047Z</time>
      </trkpt>
      <trkpt lat="45.88211" lon="6.10306">
        <ele>529</ele>
        <time>2016-05-02T11:11:55.047Z</time>
      </trkpt>
      <trkpt lat="45.88214" lon="6.10307">
        <ele>529</ele>
        <time>2016-05-02T11:11:56.047Z</time>
      </trkpt>
      <trkpt lat="45.88217" lon="6.10307">
        <ele>529</ele>
        <time>2016-05-02T11:11:57.047Z</time>
      </trkpt>
      <trkpt lat="45.8822" lon="6.10307">
        <ele>529</ele>
        <time>2016-05-02T11:11:58.047Z</time>
      </trkpt>
      <trkpt lat="45.88223" lon="6.10308">
        <ele>529</ele>
        <time>2016-05-02T11:11:59.047Z</time>
      </trkpt>
      <trkpt lat="45.88226" lon="6.10308">
        <ele>529</ele>
        <time>2016-05-02T11:12:00.047Z</time>
      </trkpt>
      <trkpt lat="45.88229" lon="6.10309">
        <ele>529</ele>
        <time>2016-05-02T11:12:01.047Z</time>
      </trkpt>
      <trkpt lat="45.88232" lon="6.1031">
        <ele>528</ele>
        <time>2016-05-02T11:12:02.047Z</time>
      </trkpt>
      <trkpt lat="45.88235" lon="6.10312">
        <ele>528</ele>
        <time>2016-05-02T11:12:03.047Z</time>
      </trkpt>
      <trkpt lat="45.88238" lon="6.10314">
        <ele>528</ele>
        <time>2016-05-02T11:12:04.047Z</time>
      </trkpt>
      <trkpt lat="45.88241" lon="6.10316">
        <ele>527</ele>
        <time>2016-05-02T11:12:05.047Z</time>
      </trkpt>
      <trkpt lat="45.88244" lon="6.10318">
        <ele>527</ele>
        <time>2016-05-02T11:12:06.047Z</time>
      </trkpt>
      <trkpt lat="45.88246" lon="6.10319">
        <ele>527</ele>
        <time>2016-05-02T11:12:07.047Z</time>
      </trkpt>
      <trkpt lat="45.88249" lon="6.10321">
        <ele>526</ele>
        <time>2016-05-02T11:12:08.047Z</time>
      </trkpt>
      <trkpt lat="45.88252" lon="6.10322">
        <ele>526</ele>
        <time>2016-05-02T11:12:09.047Z</time>
      </trkpt>
      <trkpt lat="45.88255" lon="6.10324">
        <ele>526</ele>
        <time>2016-05-02T11:12:10.047Z</time>
      </trkpt>
      <trkpt lat="45.88257" lon="6.10327">
        <ele>526</ele>
        <time>2016-05-02T11:12:11.047Z</time>
      </trkpt>
      <trkpt lat="45.8826" lon="6.10329">
        <ele>525</ele>
        <time>2016-05-02T11:12:12.047Z</time>
      </trkpt>
      <trkpt lat="45.88263" lon="6.10332">
        <ele>525</ele>
        <time>2016-05-02T11:12:13.047Z</time>
      </trkpt>
      <trkpt lat="45.88265" lon="6.10334">
        <ele>525</ele>
        <time>2016-05-02T11:12:14.047Z</time>
      </trkpt>
      <trkpt lat="45.88267" lon="6.10335">
        <ele>525</ele>
        <time>2016-05-02T11:12:15.047Z</time>
      </trkpt>
      <trkpt lat="45.88269" lon="6.10337">
        <ele>525</ele>
        <time>2016-05-02T11:12:16.047Z</time>
      </trkpt>
      <trkpt lat="45.88272" lon="6.10338">
        <ele>525</ele>
        <time>2016-05-02T11:12:17.047Z</time>
      </trkpt>
      <trkpt lat="45.88274" lon="6.10339">
        <ele>525</ele>
        <time>2016-05-02T11:12:18.047Z</time>
      </trkpt>
      <trkpt lat="45.88276" lon="6.1034">
        <ele>525</ele>
        <time>2016-05-02T11:12:19.047Z</time>
      </trkpt>
      <trkpt lat="45.88279" lon="6.10341">
        <ele>525</ele>
        <time>2016-05-02T11:12:20.047Z</time>
      </trkpt>
      <trkpt lat="45.88282" lon="6.10342">
        <ele>525</ele>
        <time>2016-05-02T11:12:21.047Z</time>
      </trkpt>
      <trkpt lat="45.88285" lon="6.10344">
        <ele>525</ele>
        <time>2016-05-02T11:12:22.047Z</time>
      </trkpt>
      <trkpt lat="45.88288" lon="6.10345">
        <ele>524</ele>
        <time>2016-05-02T11:12:23.047Z</time>
      </trkpt>
      <trkpt lat="45.88291" lon="6.10346">
        <ele>524</ele>
        <time>2016-05-02T11:12:24.047Z</time>
      </trkpt>
      <trkpt lat="45.88294" lon="6.10347">
        <ele>524</ele>
        <time>2016-05-02T11:12:25.047Z</time>
      </trkpt>
      <trkpt lat="45.88297" lon="6.10347">
        <ele>524</ele>
        <time>2016-05-02T11:12:26.047Z</time>
      </trkpt>
      <trkpt lat="45.883" lon="6.10347">
        <ele>524</ele>
        <time>2016-05-02T11:12:27.047Z</time>
      </trkpt>
      <trkpt lat="45.88302" lon="6.10347">
        <ele>524</ele>
        <time>2016-05-02T11:12:28.047Z</time>
      </trkpt>
      <trkpt lat="45.88305" lon="6.10345">
        <ele>523</ele>
        <time>2016-05-02T11:12:29.047Z</time>
      </trkpt>
      <trkpt lat="45.88308" lon="6.10344">
        <ele>523</ele>
        <time>2016-05-02T11:12:30.047Z</time>
      </trkpt>
      <trkpt lat="45.88311" lon="6.10343">
        <ele>523</ele>
        <time>2016-05-02T11:12:31.047Z</time>
      </trkpt>
      <trkpt lat="45.88314" lon="6.10341">
        <ele>523</ele>
        <time>2016-05-02T11:12:32.047Z</time>
      </trkpt>
      <trkpt lat="45.88316" lon="6.10339">
        <ele>523</ele>
        <time>2016-05-02T11:12:33.047Z</time>
      </trkpt>
      <trkpt lat="45.88319" lon="6.10337">
        <ele>522</ele>
        <time>2016-05-02T11:12:34.047Z</time>
      </trkpt>
      <trkpt lat="45.88322" lon="6.10336">
        <ele>522</ele>
        <time>2016-05-02T11:12:35.047Z</time>
      </trkpt>
      <trkpt lat="45.88325" lon="6.10335">
        <ele>522</ele>
        <time>2016-05-02T11:12:36.047Z</time>
      </trkpt>
      <trkpt lat="45.88328" lon="6.10334">
        <ele>522</ele>
        <time>2016-05-02T11:12:37.047Z</time>
      </trkpt>
      <trkpt lat="45.88331" lon="6.10333">
        <ele>522</ele>
        <time>2016-05-02T11:12:38.047Z</time>
      </trkpt>
      <trkpt lat="45.88334" lon="6.10332">
        <ele>522</ele>
        <time>2016-05-02T11:12:39.047Z</time>
      </trkpt>
      <trkpt lat="45.88337" lon="6.10332">
        <ele>522</ele>
        <time>2016-05-02T11:12:40.047Z</time>
      </trkpt>
      <trkpt lat="45.8834" lon="6.1033">
        <ele>522</ele>
        <time>2016-05-02T11:12:41.047Z</time>
      </trkpt>
      <trkpt lat="45.88344" lon="6.10329">
        <ele>522</ele>
        <time>2016-05-02T11:12:42.047Z</time>
      </trkpt>
      <trkpt lat="45.88347" lon="6.10329">
        <ele>522</ele>
        <time>2016-05-02T11:12:43.047Z</time>
      </trkpt>
      <trkpt lat="45.8835" lon="6.10329">
        <ele>522</ele>
        <time>2016-05-02T11:12:44.047Z</time>
      </trkpt>
      <trkpt lat="45.88352" lon="6.10329">
        <ele>522</ele>
        <time>2016-05-02T11:12:45.047Z</time>
      </trkpt>
      <trkpt lat="45.88355" lon="6.10328">
        <ele>522</ele>
        <time>2016-05-02T11:12:46.047Z</time>
      </trkpt>
      <trkpt lat="45.88358" lon="6.10329">
        <ele>522</ele>
        <time>2016-05-02T11:12:47.047Z</time>
      </trkpt>
      <trkpt lat="45.8836" lon="6.10329">
        <ele>522</ele>
        <time>2016-05-02T11:12:48.047Z</time>
      </trkpt>
      <trkpt lat="45.88363" lon="6.10329">
        <ele>522</ele>
        <time>2016-05-02T11:12:49.047Z</time>
      </trkpt>
      <trkpt lat="45.88366" lon="6.10329">
        <ele>522</ele>
        <time>2016-05-02T11:12:50.047Z</time>
      </trkpt>
      <trkpt lat="45.88368" lon="6.10329">
        <ele>522</ele>
        <time>2016-05-02T11:12:51.047Z</time>
      </trkpt>
      <trkpt lat="45.88371" lon="6.10328">
        <ele>522</ele>
        <time>2016-05-02T11:12:52.047Z</time>
      </trkpt>
      <trkpt lat="45.88374" lon="6.10327">
        <ele>522</ele>
        <time>2016-05-02T11:12:53.047Z</time>
      </trkpt>
      <trkpt lat="45.88376" lon="6.10326">
        <ele>522</ele>
        <time>2016-05-02T11:12:54.047Z</time>
      </trkpt>
      <trkpt lat="45.88378" lon="6.10325">
        <ele>522</ele>
        <time>2016-05-02T11:12:55.047Z</time>
      </trkpt>
      <trkpt lat="45.8838" lon="6.10323">
        <ele>522</ele>
        <time>2016-05-02T11:12:56.047Z</time>
      </trkpt>
      <trkpt lat="45.88383" lon="6.10322">
        <ele>522</ele>
        <time>2016-05-02T11:12:57.047Z</time>
      </trkpt>
      <trkpt lat="45.88385" lon="6.10321">
        <ele>522</ele>
        <time>2016-05-02T11:12:58.047Z</time>
      </trkpt>
      <trkpt lat="45.88387" lon="6.10319">
        <ele>521</ele>
        <time>2016-05-02T11:12:59.047Z</time>
      </trkpt>
      <trkpt lat="45.88389" lon="6.10318">
        <ele>521</ele>
        <time>2016-05-02T11:13:00.047Z</time>
      </trkpt>
      <trkpt lat="45.88392" lon="6.10317">
        <ele>521</ele>
        <time>2016-05-02T11:13:01.047Z</time>
      </trkpt>
      <trkpt lat="45.88394" lon="6.10317">
        <ele>521</ele>
        <time>2016-05-02T11:13:02.047Z</time>
      </trkpt>
      <trkpt lat="45.88396" lon="6.10317">
        <ele>521</ele>
        <time>2016-05-02T11:13:03.047Z</time>
      </trkpt>
      <trkpt lat="45.88399" lon="6.10318">
        <ele>520</ele>
        <time>2016-05-02T11:13:04.047Z</time>
      </trkpt>
      <trkpt lat="45.88401" lon="6.1032">
        <ele>520</ele>
        <time>2016-05-02T11:13:05.047Z</time>
      </trkpt>
      <trkpt lat="45.88404" lon="6.10323">
        <ele>520</ele>
        <time>2016-05-02T11:13:06.047Z</time>
      </trkpt>
      <trkpt lat="45.88406" lon="6.10325">
        <ele>520</ele>
        <time>2016-05-02T11:13:07.047Z</time>
      </trkpt>
      <trkpt lat="45.88408" lon="6.10328">
        <ele>519</ele>
        <time>2016-05-02T11:13:08.047Z</time>
      </trkpt>
      <trkpt lat="45.8841" lon="6.10331">
        <ele>519</ele>
        <time>2016-05-02T11:13:09.047Z</time>
      </trkpt>
      <trkpt lat="45.88413" lon="6.10333">
        <ele>519</ele>
        <time>2016-05-02T11:13:10.047Z</time>
      </trkpt>
      <trkpt lat="45.88416" lon="6.10334">
        <ele>519</ele>
        <time>2016-05-02T11:13:11.047Z</time>
      </trkpt>
      <trkpt lat="45.88418" lon="6.10335">
        <ele>519</ele>
        <time>2016-05-02T11:13:12.047Z</time>
      </trkpt>
      <trkpt lat="45.88421" lon="6.10336">
        <ele>519</ele>
        <time>2016-05-02T11:13:13.047Z</time>
      </trkpt>
      <trkpt lat="45.88425" lon="6.10336">
        <ele>518</ele>
        <time>2016-05-02T11:13:14.047Z</time>
      </trkpt>
      <trkpt lat="45.88428" lon="6.10335">
        <ele>518</ele>
        <time>2016-05-02T11:13:15.047Z</time>
      </trkpt>
      <trkpt lat="45.88431" lon="6.10333">
        <ele>518</ele>
        <time>2016-05-02T11:13:16.047Z</time>
      </trkpt>
      <trkpt lat="45.88434" lon="6.10332">
        <ele>518</ele>
        <time>2016-05-02T11:13:17.047Z</time>
      </trkpt>
      <trkpt lat="45.88436" lon="6.1033">
        <ele>518</ele>
        <time>2016-05-02T11:13:18.047Z</time>
      </trkpt>
      <trkpt lat="45.88439" lon="6.10328">
        <ele>518</ele>
        <time>2016-05-02T11:13:19.047Z</time>
      </trkpt>
      <trkpt lat="45.88441" lon="6.10326">
        <ele>518</ele>
        <time>2016-05-02T11:13:20.047Z</time>
      </trkpt>
      <trkpt lat="45.88444" lon="6.10324">
        <ele>518</ele>
        <time>2016-05-02T11:13:21.047Z</time>
      </trkpt>
      <trkpt lat="45.88446" lon="6.10322">
        <ele>518</ele>
        <time>2016-05-02T11:13:22.047Z</time>
      </trkpt>
      <trkpt lat="45.88449" lon="6.10321">
        <ele>518</ele>
        <time>2016-05-02T11:13:23.047Z</time>
      </trkpt>
      <trkpt lat="45.88451" lon="6.10319">
        <ele>518</ele>
        <time>2016-05-02T11:13:24.047Z</time>
      </trkpt>
      <trkpt lat="45.88454" lon="6.10319">
        <ele>518</ele>
        <time>2016-05-02T11:13:25.047Z</time>
      </trkpt>
      <trkpt lat="45.88456" lon="6.10319">
        <ele>518</ele>
        <time>2016-05-02T11:13:26.047Z</time>
      </trkpt>
      <trkpt lat="45.88459" lon="6.10319">
        <ele>518</ele>
        <time>2016-05-02T11:13:27.047Z</time>
      </trkpt>
      <trkpt lat="45.88461" lon="6.1032">
        <ele>518</ele>
        <time>2016-05-02T11:13:28.047Z</time>
      </trkpt>
      <trkpt lat="45.88463" lon="6.10322">
        <ele>518</ele>
        <time>2016-05-02T11:13:29.047Z</time>
      </trkpt>
      <trkpt lat="45.88466" lon="6.10323">
        <ele>518</ele>
        <time>2016-05-02T11:13:30.047Z</time>
      </trkpt>
      <trkpt lat="45.88468" lon="6.10325">
        <ele>518</ele>
        <time>2016-05-02T11:13:31.047Z</time>
      </trkpt>
      <trkpt lat="45.8847" lon="6.10327">
        <ele>518</ele>
        <time>2016-05-02T11:13:32.047Z</time>
      </trkpt>
      <trkpt lat="45.88472" lon="6.1033">
        <ele>518</ele>
        <time>2016-05-02T11:13:33.047Z</time>
      </trkpt>
      <trkpt lat="45.88474" lon="6.10332">
        <ele>518</ele>
        <time>2016-05-02T11:13:34.047Z</time>
      </trkpt>
      <trkpt lat="45.88476" lon="6.10335">
        <ele>518</ele>
        <time>2016-05-02T11:13:35.047Z</time>
      </trkpt>
      <trkpt lat="45.88477" lon="6.10338">
        <ele>518</ele>
        <time>2016-05-02T11:13:36.047Z</time>
      </trkpt>
      <trkpt lat="45.88478" lon="6.10341">
        <ele>518</ele>
        <time>2016-05-02T11:13:37.047Z</time>
      </trkpt>
      <trkpt lat="45.88479" lon="6.10345">
        <ele>518</ele>
        <time>2016-05-02T11:13:38.047Z</time>
      </trkpt>
      <trkpt lat="45.8848" lon="6.10348">
        <ele>518</ele>
        <time>2016-05-02T11:13:39.047Z</time>
      </trkpt>
      <trkpt lat="45.88482" lon="6.1035">
        <ele>517</ele>
        <time>2016-05-02T11:13:40.047Z</time>
      </trkpt>
      <trkpt lat="45.88483" lon="6.10353">
        <ele>517</ele>
        <time>2016-05-02T11:13:41.047Z</time>
      </trkpt>
      <trkpt lat="45.88484" lon="6.10355">
        <ele>517</ele>
        <time>2016-05-02T11:13:42.047Z</time>
      </trkpt>
      <trkpt lat="45.88486" lon="6.10358">
        <ele>517</ele>
        <time>2016-05-02T11:13:43.047Z</time>
      </trkpt>
      <trkpt lat="45.88487" lon="6.1036">
        <ele>517</ele>
        <time>2016-05-02T11:13:44.047Z</time>
      </trkpt>
      <trkpt lat="45.88488" lon="6.10362">
        <ele>517</ele>
        <time>2016-05-02T11:13:45.047Z</time>
      </trkpt>
      <trkpt lat="45.8849" lon="6.10364">
        <ele>517</ele>
        <time>2016-05-02T11:13:46.047Z</time>
      </trkpt>
      <trkpt lat="45.88492" lon="6.10367">
        <ele>517</ele>
        <time>2016-05-02T11:13:47.047Z</time>
      </trkpt>
      <trkpt lat="45.88493" lon="6.1037">
        <ele>517</ele>
        <time>2016-05-02T11:13:48.047Z</time>
      </trkpt>
      <trkpt lat="45.88495" lon="6.10373">
        <ele>516</ele>
        <time>2016-05-02T11:13:49.047Z</time>
      </trkpt>
      <trkpt lat="45.88496" lon="6.10376">
        <ele>516</ele>
        <time>2016-05-02T11:13:50.047Z</time>
      </trkpt>
      <trkpt lat="45.88498" lon="6.10379">
        <ele>516</ele>
        <time>2016-05-02T11:13:51.047Z</time>
      </trkpt>
      <trkpt lat="45.88499" lon="6.10382">
        <ele>516</ele>
        <time>2016-05-02T11:13:52.047Z</time>
      </trkpt>
      <trkpt lat="45.88501" lon="6.10386">
        <ele>516</ele>
        <time>2016-05-02T11:13:53.047Z</time>
      </trkpt>
      <trkpt lat="45.88502" lon="6.10389">
        <ele>516</ele>
        <time>2016-05-02T11:13:54.047Z</time>
      </trkpt>
      <trkpt lat="45.88504" lon="6.10392">
        <ele>516</ele>
        <time>2016-05-02T11:13:55.047Z</time>
      </trkpt>
      <trkpt lat="45.88505" lon="6.10395">
        <ele>516</ele>
        <time>2016-05-02T11:13:56.047Z</time>
      </trkpt>
      <trkpt lat="45.88506" lon="6.10398">
        <ele>516</ele>
        <time>2016-05-02T11:13:57.047Z</time>
      </trkpt>
      <trkpt lat="45.88508" lon="6.10401">
        <ele>516</ele>
        <time>2016-05-02T11:13:58.047Z</time>
      </trkpt>
      <trkpt lat="45.88509" lon="6.10404">
        <ele>516</ele>
        <time>2016-05-02T11:13:59.047Z</time>
      </trkpt>
      <trkpt lat="45.88511" lon="6.10407">
        <ele>516</ele>
        <time>2016-05-02T11:14:00.047Z</time>
      </trkpt>
      <trkpt lat="45.88512" lon="6.1041">
        <ele>516</ele>
        <time>2016-05-02T11:14:01.047Z</time>
      </trkpt>
      <trkpt lat="45.88513" lon="6.10412">
        <ele>516</ele>
        <time>2016-05-02T11:14:02.047Z</time>
      </trkpt>
      <trkpt lat="45.88514" lon="6.10413">
        <ele>516</ele>
        <time>2016-05-02T11:14:03.047Z</time>
      </trkpt>
      <trkpt lat="45.88515" lon="6.10414">
        <ele>516</ele>
        <time>2016-05-02T11:14:04.047Z</time>
      </trkpt>
      <trkpt lat="45.88516" lon="6.10414">
        <ele>516</ele>
        <time>2016-05-02T11:14:05.047Z</time>
      </trkpt>
      <trkpt lat="45.88517" lon="6.10413">
        <ele>516</ele>
        <time>2016-05-02T11:14:06.047Z</time>
      </trkpt>
      <trkpt lat="45.88518" lon="6.10411">
        <ele>516</ele>
        <time>2016-05-02T11:14:07.047Z</time>
      </trkpt>
      <trkpt lat="45.8852" lon="6.1041">
        <ele>516</ele>
        <time>2016-05-02T11:14:08.047Z</time>
      </trkpt>
      <trkpt lat="45.88521" lon="6.10408">
        <ele>516</ele>
        <time>2016-05-02T11:14:09.047Z</time>
      </trkpt>
      <trkpt lat="45.88523" lon="6.10406">
        <ele>516</ele>
        <time>2016-05-02T11:14:10.047Z</time>
      </trkpt>
      <trkpt lat="45.88525" lon="6.10404">
        <ele>516</ele>
        <time>2016-05-02T11:14:11.047Z</time>
      </trkpt>
      <trkpt lat="45.88527" lon="6.10402">
        <ele>516</ele>
        <time>2016-05-02T11:14:12.047Z</time>
      </trkpt>
      <trkpt lat="45.88529" lon="6.104">
        <ele>516</ele>
        <time>2016-05-02T11:14:13.047Z</time>
      </trkpt>
      <trkpt lat="45.88531" lon="6.10397">
        <ele>517</ele>
        <time>2016-05-02T11:14:14.047Z</time>
      </trkpt>
      <trkpt lat="45.88533" lon="6.10395">
        <ele>516</ele>
        <time>2016-05-02T11:14:15.047Z</time>
      </trkpt>
      <trkpt lat="45.88534" lon="6.10391">
        <ele>516</ele>
        <time>2016-05-02T11:14:16.047Z</time>
      </trkpt>
      <trkpt lat="45.88536" lon="6.10388">
        <ele>516</ele>
        <time>2016-05-02T11:14:17.047Z</time>
      </trkpt>
      <trkpt lat="45.88537" lon="6.10385">
        <ele>516</ele>
        <time>2016-05-02T11:14:18.047Z</time>
      </trkpt>
      <trkpt lat="45.8854" lon="6.1038">
        <ele>516</ele>
        <time>2016-05-02T11:14:19.094Z</time>
      </trkpt>
      <trkpt lat="45.88541" lon="6.10379">
        <ele>516</ele>
        <time>2016-05-02T11:14:20.094Z</time>
      </trkpt>
      <trkpt lat="45.88542" lon="6.10378">
        <ele>516</ele>
        <time>2016-05-02T11:14:21.094Z</time>
      </trkpt>
      <trkpt lat="45.88543" lon="6.10376">
        <ele>516</ele>
        <time>2016-05-02T11:14:22.094Z</time>
      </trkpt>
      <trkpt lat="45.88544" lon="6.10373">
        <ele>516</ele>
        <time>2016-05-02T11:14:23.094Z</time>
      </trkpt>
      <trkpt lat="45.88546" lon="6.1037">
        <ele>516</ele>
        <time>2016-05-02T11:14:24.094Z</time>
      </trkpt>
      <trkpt lat="45.88549" lon="6.10368">
        <ele>516</ele>
        <time>2016-05-02T11:14:25.094Z</time>
      </trkpt>
      <trkpt lat="45.88551" lon="6.10365">
        <ele>516</ele>
        <time>2016-05-02T11:14:26.094Z</time>
      </trkpt>
      <trkpt lat="45.88553" lon="6.10362">
        <ele>516</ele>
        <time>2016-05-02T11:14:27.094Z</time>
      </trkpt>
      <trkpt lat="45.88554" lon="6.10359">
        <ele>516</ele>
        <time>2016-05-02T11:14:28.094Z</time>
      </trkpt>
      <trkpt lat="45.88557" lon="6.10356">
        <ele>516</ele>
        <time>2016-05-02T11:14:29.094Z</time>
      </trkpt>
      <trkpt lat="45.88559" lon="6.10353">
        <ele>516</ele>
        <time>2016-05-02T11:14:30.094Z</time>
      </trkpt>
      <trkpt lat="45.88561" lon="6.10351">
        <ele>516</ele>
        <time>2016-05-02T11:14:31.094Z</time>
      </trkpt>
      <trkpt lat="45.88563" lon="6.10348">
        <ele>516</ele>
        <time>2016-05-02T11:14:32.094Z</time>
      </trkpt>
      <trkpt lat="45.88565" lon="6.10346">
        <ele>516</ele>
        <time>2016-05-02T11:14:33.094Z</time>
      </trkpt>
      <trkpt lat="45.88567" lon="6.10343">
        <ele>516</ele>
        <time>2016-05-02T11:14:34.094Z</time>
      </trkpt>
      <trkpt lat="45.88569" lon="6.1034">
        <ele>516</ele>
        <time>2016-05-02T11:14:35.094Z</time>
      </trkpt>
      <trkpt lat="45.88571" lon="6.10338">
        <ele>516</ele>
        <time>2016-05-02T11:14:36.094Z</time>
      </trkpt>
      <trkpt lat="45.88573" lon="6.10335">
        <ele>516</ele>
        <time>2016-05-02T11:14:37.094Z</time>
      </trkpt>
      <trkpt lat="45.88575" lon="6.10332">
        <ele>516</ele>
        <time>2016-05-02T11:14:38.094Z</time>
      </trkpt>
      <trkpt lat="45.88577" lon="6.10329">
        <ele>517</ele>
        <time>2016-05-02T11:14:39.094Z</time>
      </trkpt>
      <trkpt lat="45.88579" lon="6.10327">
        <ele>517</ele>
        <time>2016-05-02T11:14:40.094Z</time>
      </trkpt>
      <trkpt lat="45.88581" lon="6.10324">
        <ele>517</ele>
        <time>2016-05-02T11:14:41.094Z</time>
      </trkpt>
      <trkpt lat="45.88583" lon="6.10321">
        <ele>517</ele>
        <time>2016-05-02T11:14:42.094Z</time>
      </trkpt>
      <trkpt lat="45.88585" lon="6.10318">
        <ele>517</ele>
        <time>2016-05-02T11:14:43.094Z</time>
      </trkpt>
      <trkpt lat="45.88586" lon="6.10315">
        <ele>517</ele>
        <time>2016-05-02T11:14:44.094Z</time>
      </trkpt>
      <trkpt lat="45.88588" lon="6.10312">
        <ele>517</ele>
        <time>2016-05-02T11:14:45.094Z</time>
      </trkpt>
      <trkpt lat="45.8859" lon="6.10309">
        <ele>517</ele>
        <time>2016-05-02T11:14:46.094Z</time>
      </trkpt>
      <trkpt lat="45.88592" lon="6.10306">
        <ele>517</ele>
        <time>2016-05-02T11:14:47.094Z</time>
      </trkpt>
      <trkpt lat="45.88593" lon="6.10303">
        <ele>517</ele>
        <time>2016-05-02T11:14:48.094Z</time>
      </trkpt>
      <trkpt lat="45.88595" lon="6.103">
        <ele>518</ele>
        <time>2016-05-02T11:14:49.094Z</time>
      </trkpt>
      <trkpt lat="45.88597" lon="6.10297">
        <ele>518</ele>
        <time>2016-05-02T11:14:50.094Z</time>
      </trkpt>
      <trkpt lat="45.88598" lon="6.10293">
        <ele>518</ele>
        <time>2016-05-02T11:14:51.094Z</time>
      </trkpt>
      <trkpt lat="45.886" lon="6.1029">
        <ele>518</ele>
        <time>2016-05-02T11:14:52.094Z</time>
      </trkpt>
      <trkpt lat="45.88602" lon="6.10288">
        <ele>518</ele>
        <time>2016-05-02T11:14:53.094Z</time>
      </trkpt>
      <trkpt lat="45.88604" lon="6.10285">
        <ele>518</ele>
        <time>2016-05-02T11:14:54.094Z</time>
      </trkpt>
      <trkpt lat="45.88606" lon="6.10283">
        <ele>518</ele>
        <time>2016-05-02T11:14:55.094Z</time>
      </trkpt>
      <trkpt lat="45.88608" lon="6.10281">
        <ele>518</ele>
        <time>2016-05-02T11:14:56.094Z</time>
      </trkpt>
      <trkpt lat="45.8861" lon="6.1028">
        <ele>518</ele>
        <time>2016-05-02T11:14:57.094Z</time>
      </trkpt>
      <trkpt lat="45.88612" lon="6.10278">
        <ele>518</ele>
        <time>2016-05-02T11:14:58.094Z</time>
      </trkpt>
      <trkpt lat="45.88614" lon="6.10277">
        <ele>519</ele>
        <time>2016-05-02T11:14:59.094Z</time>
      </trkpt>
      <trkpt lat="45.88616" lon="6.10275">
        <ele>519</ele>
        <time>2016-05-02T11:15:00.094Z</time>
      </trkpt>
      <trkpt lat="45.88618" lon="6.10274">
        <ele>519</ele>
        <time>2016-05-02T11:15:01.094Z</time>
      </trkpt>
      <trkpt lat="45.8862" lon="6.10272">
        <ele>519</ele>
        <time>2016-05-02T11:15:02.094Z</time>
      </trkpt>
      <trkpt lat="45.88623" lon="6.10271">
        <ele>519</ele>
        <time>2016-05-02T11:15:03.094Z</time>
      </trkpt>
      <trkpt lat="45.88625" lon="6.10269">
        <ele>519</ele>
        <time>2016-05-02T11:15:04.094Z</time>
      </trkpt>
      <trkpt lat="45.88628" lon="6.10267">
        <ele>519</ele>
        <time>2016-05-02T11:15:05.094Z</time>
      </trkpt>
      <trkpt lat="45.8863" lon="6.10265">
        <ele>519</ele>
        <time>2016-05-02T11:15:06.094Z</time>
      </trkpt>
      <trkpt lat="45.88631" lon="6.10262">
        <ele>519</ele>
        <time>2016-05-02T11:15:07.094Z</time>
      </trkpt>
      <trkpt lat="45.88633" lon="6.10259">
        <ele>519</ele>
        <time>2016-05-02T11:15:08.094Z</time>
      </trkpt>
      <trkpt lat="45.88634" lon="6.10255">
        <ele>520</ele>
        <time>2016-05-02T11:15:09.094Z</time>
      </trkpt>
      <trkpt lat="45.88634" lon="6.10251">
        <ele>520</ele>
        <time>2016-05-02T11:15:10.094Z</time>
      </trkpt>
      <trkpt lat="45.88634" lon="6.10247">
        <ele>520</ele>
        <time>2016-05-02T11:15:11.094Z</time>
      </trkpt>
      <trkpt lat="45.88634" lon="6.10243">
        <ele>520</ele>
        <time>2016-05-02T11:15:12.094Z</time>
      </trkpt>
      <trkpt lat="45.88634" lon="6.10239">
        <ele>520</ele>
        <time>2016-05-02T11:15:13.094Z</time>
      </trkpt>
      <trkpt lat="45.88634" lon="6.10235">
        <ele>520</ele>
        <time>2016-05-02T11:15:14.094Z</time>
      </trkpt>
      <trkpt lat="45.88634" lon="6.1023">
        <ele>520</ele>
        <time>2016-05-02T11:15:15.094Z</time>
      </trkpt>
      <trkpt lat="45.88635" lon="6.10227">
        <ele>520</ele>
        <time>2016-05-02T11:15:16.094Z</time>
      </trkpt>
      <trkpt lat="45.88636" lon="6.10223">
        <ele>520</ele>
        <time>2016-05-02T11:15:17.094Z</time>
      </trkpt>
      <trkpt lat="45.88637" lon="6.1022">
        <ele>520</ele>
        <time>2016-05-02T11:15:18.094Z</time>
      </trkpt>
      <trkpt lat="45.88638" lon="6.10217">
        <ele>521</ele>
        <time>2016-05-02T11:15:19.094Z</time>
      </trkpt>
      <trkpt lat="45.8864" lon="6.10214">
        <ele>521</ele>
        <time>2016-05-02T11:15:20.094Z</time>
      </trkpt>
      <trkpt lat="45.88641" lon="6.1021">
        <ele>521</ele>
        <time>2016-05-02T11:15:21.094Z</time>
      </trkpt>
      <trkpt lat="45.88643" lon="6.10207">
        <ele>521</ele>
        <time>2016-05-02T11:15:22.094Z</time>
      </trkpt>
      <trkpt lat="45.88644" lon="6.10204">
        <ele>521</ele>
        <time>2016-05-02T11:15:23.094Z</time>
      </trkpt>
      <trkpt lat="45.88646" lon="6.10201">
        <ele>521</ele>
        <time>2016-05-02T11:15:24.094Z</time>
      </trkpt>
      <trkpt lat="45.88648" lon="6.10198">
        <ele>520</ele>
        <time>2016-05-02T11:15:25.094Z</time>
      </trkpt>
      <trkpt lat="45.8865" lon="6.10195">
        <ele>520</ele>
        <time>2016-05-02T11:15:26.094Z</time>
      </trkpt>
      <trkpt lat="45.88652" lon="6.10191">
        <ele>520</ele>
        <time>2016-05-02T11:15:27.094Z</time>
      </trkpt>
      <trkpt lat="45.88654" lon="6.10188">
        <ele>520</ele>
        <time>2016-05-02T11:15:28.094Z</time>
      </trkpt>
      <trkpt lat="45.88655" lon="6.10185">
        <ele>520</ele>
        <time>2016-05-02T11:15:29.094Z</time>
      </trkpt>
      <trkpt lat="45.88657" lon="6.10181">
        <ele>520</ele>
        <time>2016-05-02T11:15:30.094Z</time>
      </trkpt>
      <trkpt lat="45.88659" lon="6.10178">
        <ele>520</ele>
        <time>2016-05-02T11:15:31.094Z</time>
      </trkpt>
      <trkpt lat="45.88661" lon="6.10176">
        <ele>520</ele>
        <time>2016-05-02T11:15:32.094Z</time>
      </trkpt>
      <trkpt lat="45.88664" lon="6.10174">
        <ele>520</ele>
        <time>2016-05-02T11:15:33.094Z</time>
      </trkpt>
      <trkpt lat="45.88666" lon="6.10172">
        <ele>520</ele>
        <time>2016-05-02T11:15:34.094Z</time>
      </trkpt>
      <trkpt lat="45.88668" lon="6.10171">
        <ele>521</ele>
        <time>2016-05-02T11:15:35.094Z</time>
      </trkpt>
      <trkpt lat="45.88671" lon="6.1017">
        <ele>521</ele>
        <time>2016-05-02T11:15:36.094Z</time>
      </trkpt>
      <trkpt lat="45.88673" lon="6.10169">
        <ele>521</ele>
        <time>2016-05-02T11:15:37.094Z</time>
      </trkpt>
      <trkpt lat="45.88676" lon="6.10167">
        <ele>521</ele>
        <time>2016-05-02T11:15:38.094Z</time>
      </trkpt>
      <trkpt lat="45.88678" lon="6.10165">
        <ele>521</ele>
        <time>2016-05-02T11:15:39.094Z</time>
      </trkpt>
      <trkpt lat="45.8868" lon="6.10163">
        <ele>520</ele>
        <time>2016-05-02T11:15:40.094Z</time>
      </trkpt>
      <trkpt lat="45.88682" lon="6.10161">
        <ele>520</ele>
        <time>2016-05-02T11:15:41.094Z</time>
      </trkpt>
      <trkpt lat="45.88684" lon="6.10158">
        <ele>520</ele>
        <time>2016-05-02T11:15:42.094Z</time>
      </trkpt>
      <trkpt lat="45.88686" lon="6.10156">
        <ele>520</ele>
        <time>2016-05-02T11:15:43.094Z</time>
      </trkpt>
      <trkpt lat="45.88688" lon="6.10153">
        <ele>520</ele>
        <time>2016-05-02T11:15:44.094Z</time>
      </trkpt>
      <trkpt lat="45.88689" lon="6.1015">
        <ele>520</ele>
        <time>2016-05-02T11:15:45.094Z</time>
      </trkpt>
      <trkpt lat="45.88691" lon="6.10147">
        <ele>520</ele>
        <time>2016-05-02T11:15:46.094Z</time>
      </trkpt>
      <trkpt lat="45.88693" lon="6.10144">
        <ele>520</ele>
        <time>2016-05-02T11:15:47.094Z</time>
      </trkpt>
      <trkpt lat="45.88695" lon="6.10141">
        <ele>520</ele>
        <time>2016-05-02T11:15:48.094Z</time>
      </trkpt>
      <trkpt lat="45.88697" lon="6.10139">
        <ele>520</ele>
        <time>2016-05-02T11:15:49.094Z</time>
      </trkpt>
      <trkpt lat="45.88699" lon="6.10136">
        <ele>520</ele>
        <time>2016-05-02T11:15:50.094Z</time>
      </trkpt>
      <trkpt lat="45.88701" lon="6.10133">
        <ele>520</ele>
        <time>2016-05-02T11:15:51.094Z</time>
      </trkpt>
      <trkpt lat="45.88703" lon="6.10131">
        <ele>521</ele>
        <time>2016-05-02T11:15:52.094Z</time>
      </trkpt>
      <trkpt lat="45.88704" lon="6.10128">
        <ele>521</ele>
        <time>2016-05-02T11:15:53.094Z</time>
      </trkpt>
      <trkpt lat="45.88706" lon="6.10127">
        <ele>521</ele>
        <time>2016-05-02T11:15:54.094Z</time>
      </trkpt>
      <trkpt lat="45.88708" lon="6.10127">
        <ele>521</ele>
        <time>2016-05-02T11:15:55.094Z</time>
      </trkpt>
      <trkpt lat="45.8871" lon="6.10127">
        <ele>521</ele>
        <time>2016-05-02T11:15:56.094Z</time>
      </trkpt>
      <trkpt lat="45.88712" lon="6.10128">
        <ele>521</ele>
        <time>2016-05-02T11:15:57.094Z</time>
      </trkpt>
      <trkpt lat="45.88715" lon="6.10129">
        <ele>521</ele>
        <time>2016-05-02T11:15:58.094Z</time>
      </trkpt>
      <trkpt lat="45.88718" lon="6.10128">
        <ele>521</ele>
        <time>2016-05-02T11:15:59.094Z</time>
      </trkpt>
      <trkpt lat="45.8872" lon="6.10127">
        <ele>521</ele>
        <time>2016-05-02T11:16:00.094Z</time>
      </trkpt>
      <trkpt lat="45.88723" lon="6.10126">
        <ele>521</ele>
        <time>2016-05-02T11:16:01.094Z</time>
      </trkpt>
      <trkpt lat="45.88725" lon="6.10123">
        <ele>521</ele>
        <time>2016-05-02T11:16:02.094Z</time>
      </trkpt>
      <trkpt lat="45.88728" lon="6.10121">
        <ele>521</ele>
        <time>2016-05-02T11:16:03.094Z</time>
      </trkpt>
      <trkpt lat="45.8873" lon="6.10119">
        <ele>521</ele>
        <time>2016-05-02T11:16:04.094Z</time>
      </trkpt>
      <trkpt lat="45.88732" lon="6.10117">
        <ele>521</ele>
        <time>2016-05-02T11:16:05.094Z</time>
      </trkpt>
      <trkpt lat="45.88734" lon="6.10114">
        <ele>521</ele>
        <time>2016-05-02T11:16:06.094Z</time>
      </trkpt>
      <trkpt lat="45.88735" lon="6.10111">
        <ele>521</ele>
        <time>2016-05-02T11:16:07.094Z</time>
      </trkpt>
      <trkpt lat="45.88737" lon="6.10108">
        <ele>521</ele>
        <time>2016-05-02T11:16:08.094Z</time>
      </trkpt>
      <trkpt lat="45.88739" lon="6.10106">
        <ele>521</ele>
        <time>2016-05-02T11:16:09.094Z</time>
      </trkpt>
      <trkpt lat="45.88741" lon="6.10102">
        <ele>521</ele>
        <time>2016-05-02T11:16:10.094Z</time>
      </trkpt>
      <trkpt lat="45.88742" lon="6.101">
        <ele>521</ele>
        <time>2016-05-02T11:16:11.094Z</time>
      </trkpt>
      <trkpt lat="45.88744" lon="6.10096">
        <ele>521</ele>
        <time>2016-05-02T11:16:12.094Z</time>
      </trkpt>
      <trkpt lat="45.88746" lon="6.10093">
        <ele>521</ele>
        <time>2016-05-02T11:16:13.094Z</time>
      </trkpt>
      <trkpt lat="45.88747" lon="6.1009">
        <ele>521</ele>
        <time>2016-05-02T11:16:14.094Z</time>
      </trkpt>
      <trkpt lat="45.88749" lon="6.10088">
        <ele>521</ele>
        <time>2016-05-02T11:16:15.094Z</time>
      </trkpt>
      <trkpt lat="45.8875" lon="6.10085">
        <ele>521</ele>
        <time>2016-05-02T11:16:16.094Z</time>
      </trkpt>
      <trkpt lat="45.88752" lon="6.10082">
        <ele>521</ele>
        <time>2016-05-02T11:16:17.094Z</time>
      </trkpt>
      <trkpt lat="45.88754" lon="6.1008">
        <ele>521</ele>
        <time>2016-05-02T11:16:18.094Z</time>
      </trkpt>
      <trkpt lat="45.88756" lon="6.10077">
        <ele>521</ele>
        <time>2016-05-02T11:16:19.094Z</time>
      </trkpt>
      <trkpt lat="45.88757" lon="6.10074">
        <ele>521</ele>
        <time>2016-05-02T11:16:20.094Z</time>
      </trkpt>
      <trkpt lat="45.88759" lon="6.10071">
        <ele>522</ele>
        <time>2016-05-02T11:16:21.094Z</time>
      </trkpt>
      <trkpt lat="45.88761" lon="6.10068">
        <ele>522</ele>
        <time>2016-05-02T11:16:22.094Z</time>
      </trkpt>
      <trkpt lat="45.88763" lon="6.10066">
        <ele>522</ele>
        <time>2016-05-02T11:16:23.094Z</time>
      </trkpt>
      <trkpt lat="45.88765" lon="6.10063">
        <ele>522</ele>
        <time>2016-05-02T11:16:24.094Z</time>
      </trkpt>
      <trkpt lat="45.88767" lon="6.10061">
        <ele>522</ele>
        <time>2016-05-02T11:16:25.094Z</time>
      </trkpt>
      <trkpt lat="45.88769" lon="6.10059">
        <ele>523</ele>
        <time>2016-05-02T11:16:26.094Z</time>
      </trkpt>
      <trkpt lat="45.88772" lon="6.10058">
        <ele>523</ele>
        <time>2016-05-02T11:16:27.094Z</time>
      </trkpt>
      <trkpt lat="45.88774" lon="6.10057">
        <ele>523</ele>
        <time>2016-05-02T11:16:28.094Z</time>
      </trkpt>
      <trkpt lat="45.88776" lon="6.10056">
        <ele>524</ele>
        <time>2016-05-02T11:16:29.094Z</time>
      </trkpt>
      <trkpt lat="45.88779" lon="6.10056">
        <ele>524</ele>
        <time>2016-05-02T11:16:30.094Z</time>
      </trkpt>
      <trkpt lat="45.88781" lon="6.10056">
        <ele>524</ele>
        <time>2016-05-02T11:16:31.094Z</time>
      </trkpt>
      <trkpt lat="45.88784" lon="6.10057">
        <ele>524</ele>
        <time>2016-05-02T11:16:32.094Z</time>
      </trkpt>
      <trkpt lat="45.88786" lon="6.10059">
        <ele>524</ele>
        <time>2016-05-02T11:16:33.094Z</time>
      </trkpt>
      <trkpt lat="45.88788" lon="6.10062">
        <ele>524</ele>
        <time>2016-05-02T11:16:34.094Z</time>
      </trkpt>
      <trkpt lat="45.88791" lon="6.10065">
        <ele>524</ele>
        <time>2016-05-02T11:16:35.094Z</time>
      </trkpt>
      <trkpt lat="45.88793" lon="6.10068">
        <ele>525</ele>
        <time>2016-05-02T11:16:36.094Z</time>
      </trkpt>
      <trkpt lat="45.88795" lon="6.10071">
        <ele>525</ele>
        <time>2016-05-02T11:16:37.094Z</time>
      </trkpt>
      <trkpt lat="45.88798" lon="6.10074">
        <ele>525</ele>
        <time>2016-05-02T11:16:38.094Z</time>
      </trkpt>
      <trkpt lat="45.888" lon="6.10076">
        <ele>525</ele>
        <time>2016-05-02T11:16:39.094Z</time>
      </trkpt>
      <trkpt lat="45.88803" lon="6.10079">
        <ele>525</ele>
        <time>2016-05-02T11:16:40.094Z</time>
      </trkpt>
      <trkpt lat="45.88806" lon="6.10081">
        <ele>525</ele>
        <time>2016-05-02T11:16:41.094Z</time>
      </trkpt>
      <trkpt lat="45.88808" lon="6.10084">
        <ele>525</ele>
        <time>2016-05-02T11:16:42.094Z</time>
      </trkpt>
      <trkpt lat="45.88811" lon="6.10086">
        <ele>525</ele>
        <time>2016-05-02T11:16:43.094Z</time>
      </trkpt>
      <trkpt lat="45.88813" lon="6.1009">
        <ele>525</ele>
        <time>2016-05-02T11:16:44.094Z</time>
      </trkpt>
      <trkpt lat="45.88815" lon="6.10093">
        <ele>525</ele>
        <time>2016-05-02T11:16:45.094Z</time>
      </trkpt>
      <trkpt lat="45.88817" lon="6.10096">
        <ele>524</ele>
        <time>2016-05-02T11:16:46.094Z</time>
      </trkpt>
      <trkpt lat="45.88819" lon="6.10099">
        <ele>524</ele>
        <time>2016-05-02T11:16:47.094Z</time>
      </trkpt>
      <trkpt lat="45.88821" lon="6.10102">
        <ele>524</ele>
        <time>2016-05-02T11:16:48.094Z</time>
      </trkpt>
      <trkpt lat="45.88823" lon="6.10105">
        <ele>524</ele>
        <time>2016-05-02T11:16:49.094Z</time>
      </trkpt>
      <trkpt lat="45.88825" lon="6.10108">
        <ele>524</ele>
        <time>2016-05-02T11:16:50.094Z</time>
      </trkpt>
      <trkpt lat="45.88827" lon="6.10111">
        <ele>524</ele>
        <time>2016-05-02T11:16:51.094Z</time>
      </trkpt>
      <trkpt lat="45.88829" lon="6.10114">
        <ele>524</ele>
        <time>2016-05-02T11:16:52.094Z</time>
      </trkpt>
      <trkpt lat="45.88831" lon="6.10117">
        <ele>524</ele>
        <time>2016-05-02T11:16:53.094Z</time>
      </trkpt>
      <trkpt lat="45.88833" lon="6.1012">
        <ele>524</ele>
        <time>2016-05-02T11:16:54.094Z</time>
      </trkpt>
      <trkpt lat="45.88835" lon="6.10122">
        <ele>524</ele>
        <time>2016-05-02T11:16:55.094Z</time>
      </trkpt>
      <trkpt lat="45.88837" lon="6.10125">
        <ele>524</ele>
        <time>2016-05-02T11:16:56.094Z</time>
      </trkpt>
      <trkpt lat="45.88839" lon="6.10128">
        <ele>524</ele>
        <time>2016-05-02T11:16:57.094Z</time>
      </trkpt>
      <trkpt lat="45.88841" lon="6.10131">
        <ele>524</ele>
        <time>2016-05-02T11:16:58.094Z</time>
      </trkpt>
      <trkpt lat="45.88843" lon="6.10133">
        <ele>523</ele>
        <time>2016-05-02T11:16:59.094Z</time>
      </trkpt>
      <trkpt lat="45.88846" lon="6.10136">
        <ele>523</ele>
        <time>2016-05-02T11:17:00.094Z</time>
      </trkpt>
      <trkpt lat="45.88847" lon="6.10138">
        <ele>523</ele>
        <time>2016-05-02T11:17:01.094Z</time>
      </trkpt>
      <trkpt lat="45.88849" lon="6.1014">
        <ele>523</ele>
        <time>2016-05-02T11:17:02.094Z</time>
      </trkpt>
      <trkpt lat="45.88851" lon="6.10142">
        <ele>523</ele>
        <time>2016-05-02T11:17:03.094Z</time>
      </trkpt>
    </trkseg>
  </trk>
</gpx>